<?xml version="1.0" encoding="UTF-8" standalone="no" ?>
<gpx xmlns="http://www.topografix.com/GPX/1/1" xmlns:xsi="http://www.w3.org/2001/XMLSchema-instance" xsi:schemaLocation="http://www.topografix.com/GPX/1/1 http://www.topografix.com/GPX/1/1/gpx.xsd" version="1.1" creator="VisuGPX - https://www.visugpx.com">
  <metadata>
    <name>VTT - Cime de Chamousillon</name>
    <desc><![CDATA[VTT - St Martin / Trente souches / Cime de Chamousillon / Chateauneuf / Sauze / La Lare / Villeneuve - Relevé terrain:   2 260 m / 53 km / 9 h 00
CR ASCVTT ici: <http://www.ascvtt.com/?p=3295>]]></desc>
  </metadata>
  <trk>
    <name><![CDATA[2011-06-12T05:55:46Z]]></name>
    <trkseg>
      <trkpt lat="44.14949" lon="6.76372">
        <ele>1097.378</ele>
        <time>2011-06-12T05:55:53Z</time>
      </trkpt>
      <trkpt lat="44.1495" lon="6.76373">
        <ele>1096.938</ele>
        <time>2011-06-12T05:56:07Z</time>
      </trkpt>
      <trkpt lat="44.14945" lon="6.76363">
        <ele>1094.71</ele>
        <time>2011-06-12T05:56:12Z</time>
      </trkpt>
      <trkpt lat="44.14937" lon="6.76339">
        <ele>1091.368</ele>
        <time>2011-06-12T05:56:17Z</time>
      </trkpt>
      <trkpt lat="44.14935" lon="6.7633">
        <ele>1089.935</ele>
        <time>2011-06-12T05:56:19Z</time>
      </trkpt>
      <trkpt lat="44.14922" lon="6.76287">
        <ele>1086.164</ele>
        <time>2011-06-12T05:56:26Z</time>
      </trkpt>
      <trkpt lat="44.14913" lon="6.76275">
        <ele>1084.518</ele>
        <time>2011-06-12T05:56:30Z</time>
      </trkpt>
      <trkpt lat="44.14911" lon="6.76279">
        <ele>1084.22</ele>
        <time>2011-06-12T05:56:31Z</time>
      </trkpt>
      <trkpt lat="44.14895" lon="6.76317">
        <ele>1082.889</ele>
        <time>2011-06-12T05:56:37Z</time>
      </trkpt>
      <trkpt lat="44.14869" lon="6.76348">
        <ele>1080.971</ele>
        <time>2011-06-12T05:56:43Z</time>
      </trkpt>
      <trkpt lat="44.1482" lon="6.76368">
        <ele>1075.485</ele>
        <time>2011-06-12T05:56:52Z</time>
      </trkpt>
      <trkpt lat="44.14807" lon="6.76377">
        <ele>1073.473</ele>
        <time>2011-06-12T05:56:55Z</time>
      </trkpt>
      <trkpt lat="44.14797" lon="6.7637">
        <ele>1071.393</ele>
        <time>2011-06-12T05:56:59Z</time>
      </trkpt>
      <trkpt lat="44.148" lon="6.76353">
        <ele>1069.802</ele>
        <time>2011-06-12T05:57:02Z</time>
      </trkpt>
      <trkpt lat="44.14809" lon="6.76341">
        <ele>1070.661</ele>
        <time>2011-06-12T05:57:05Z</time>
      </trkpt>
      <trkpt lat="44.14821" lon="6.76332">
        <ele>1069.979</ele>
        <time>2011-06-12T05:57:08Z</time>
      </trkpt>
      <trkpt lat="44.14834" lon="6.76314">
        <ele>1066.171</ele>
        <time>2011-06-12T05:57:12Z</time>
      </trkpt>
      <trkpt lat="44.14853" lon="6.76265">
        <ele>1059.5</ele>
        <time>2011-06-12T05:57:19Z</time>
      </trkpt>
      <trkpt lat="44.1486" lon="6.76235">
        <ele>1054.139</ele>
        <time>2011-06-12T05:57:23Z</time>
      </trkpt>
      <trkpt lat="44.14857" lon="6.76214">
        <ele>1053.041</ele>
        <time>2011-06-12T05:57:27Z</time>
      </trkpt>
      <trkpt lat="44.14848" lon="6.76219">
        <ele>1050.998</ele>
        <time>2011-06-12T05:57:30Z</time>
      </trkpt>
      <trkpt lat="44.1484" lon="6.76245">
        <ele>1049.768</ele>
        <time>2011-06-12T05:57:33Z</time>
      </trkpt>
      <trkpt lat="44.14827" lon="6.76276">
        <ele>1049.589</ele>
        <time>2011-06-12T05:57:37Z</time>
      </trkpt>
      <trkpt lat="44.14789" lon="6.76306">
        <ele>1046.479</ele>
        <time>2011-06-12T05:57:45Z</time>
      </trkpt>
      <trkpt lat="44.14759" lon="6.76342">
        <ele>1043.658</ele>
        <time>2011-06-12T05:57:52Z</time>
      </trkpt>
      <trkpt lat="44.14754" lon="6.76348">
        <ele>1043.468</ele>
        <time>2011-06-12T05:57:53Z</time>
      </trkpt>
      <trkpt lat="44.14741" lon="6.76367">
        <ele>1043.021</ele>
        <time>2011-06-12T05:57:56Z</time>
      </trkpt>
      <trkpt lat="44.14718" lon="6.76402">
        <ele>1043.306</ele>
        <time>2011-06-12T05:58:01Z</time>
      </trkpt>
      <trkpt lat="44.147" lon="6.76441">
        <ele>1043.699</ele>
        <time>2011-06-12T05:58:06Z</time>
      </trkpt>
      <trkpt lat="44.14681" lon="6.76461">
        <ele>1041.953</ele>
        <time>2011-06-12T05:58:10Z</time>
      </trkpt>
      <trkpt lat="44.14656" lon="6.76485">
        <ele>1041.918</ele>
        <time>2011-06-12T05:58:16Z</time>
      </trkpt>
      <trkpt lat="44.14635" lon="6.76488">
        <ele>1041.823</ele>
        <time>2011-06-12T05:58:21Z</time>
      </trkpt>
      <trkpt lat="44.14612" lon="6.76486">
        <ele>1041.71</ele>
        <time>2011-06-12T05:58:27Z</time>
      </trkpt>
      <trkpt lat="44.14589" lon="6.765">
        <ele>1041.589</ele>
        <time>2011-06-12T05:58:32Z</time>
      </trkpt>
      <trkpt lat="44.14541" lon="6.76517">
        <ele>1040.564</ele>
        <time>2011-06-12T05:58:41Z</time>
      </trkpt>
      <trkpt lat="44.14534" lon="6.76518">
        <ele>1040.003</ele>
        <time>2011-06-12T05:58:42Z</time>
      </trkpt>
      <trkpt lat="44.145" lon="6.76511">
        <ele>1038.928</ele>
        <time>2011-06-12T05:58:48Z</time>
      </trkpt>
      <trkpt lat="44.1448" lon="6.76505">
        <ele>1039.304</ele>
        <time>2011-06-12T05:58:53Z</time>
      </trkpt>
      <trkpt lat="44.14453" lon="6.76495">
        <ele>1040.455</ele>
        <time>2011-06-12T05:59:00Z</time>
      </trkpt>
      <trkpt lat="44.14433" lon="6.76489">
        <ele>1041.305</ele>
        <time>2011-06-12T05:59:05Z</time>
      </trkpt>
      <trkpt lat="44.14423" lon="6.76487">
        <ele>1041.014</ele>
        <time>2011-06-12T05:59:07Z</time>
      </trkpt>
      <trkpt lat="44.14411" lon="6.76487">
        <ele>1038.746</ele>
        <time>2011-06-12T05:59:09Z</time>
      </trkpt>
      <trkpt lat="44.14375" lon="6.76498">
        <ele>1038.521</ele>
        <time>2011-06-12T05:59:17Z</time>
      </trkpt>
      <trkpt lat="44.14362" lon="6.76502">
        <ele>1039.043</ele>
        <time>2011-06-12T05:59:20Z</time>
      </trkpt>
      <trkpt lat="44.14347" lon="6.76513">
        <ele>1038.561</ele>
        <time>2011-06-12T05:59:24Z</time>
      </trkpt>
      <trkpt lat="44.14327" lon="6.76524">
        <ele>1037.968</ele>
        <time>2011-06-12T05:59:29Z</time>
      </trkpt>
      <trkpt lat="44.1432" lon="6.76517">
        <ele>1037.837</ele>
        <time>2011-06-12T05:59:31Z</time>
      </trkpt>
      <trkpt lat="44.14312" lon="6.76506">
        <ele>1036.955</ele>
        <time>2011-06-12T05:59:33Z</time>
      </trkpt>
      <trkpt lat="44.1429" lon="6.76494">
        <ele>1034.038</ele>
        <time>2011-06-12T05:59:37Z</time>
      </trkpt>
      <trkpt lat="44.14285" lon="6.76497">
        <ele>1033.094</ele>
        <time>2011-06-12T05:59:38Z</time>
      </trkpt>
      <trkpt lat="44.14256" lon="6.76509">
        <ele>1030.744</ele>
        <time>2011-06-12T05:59:43Z</time>
      </trkpt>
      <trkpt lat="44.14231" lon="6.76535">
        <ele>1028.869</ele>
        <time>2011-06-12T05:59:48Z</time>
      </trkpt>
      <trkpt lat="44.14227" lon="6.76543">
        <ele>1028.991</ele>
        <time>2011-06-12T05:59:49Z</time>
      </trkpt>
      <trkpt lat="44.14202" lon="6.76574">
        <ele>1027.379</ele>
        <time>2011-06-12T05:59:54Z</time>
      </trkpt>
      <trkpt lat="44.14189" lon="6.76576">
        <ele>1026.892</ele>
        <time>2011-06-12T05:59:56Z</time>
      </trkpt>
      <trkpt lat="44.14166" lon="6.76578">
        <ele>1025.531</ele>
        <time>2011-06-12T06:00:00Z</time>
      </trkpt>
      <trkpt lat="44.14143" lon="6.76568">
        <ele>1026.597</ele>
        <time>2011-06-12T06:00:05Z</time>
      </trkpt>
      <trkpt lat="44.14138" lon="6.76567">
        <ele>1026.677</ele>
        <time>2011-06-12T06:00:06Z</time>
      </trkpt>
      <trkpt lat="44.14112" lon="6.7657">
        <ele>1028.174</ele>
        <time>2011-06-12T06:00:12Z</time>
      </trkpt>
      <trkpt lat="44.14086" lon="6.76576">
        <ele>1029.474</ele>
        <time>2011-06-12T06:00:19Z</time>
      </trkpt>
      <trkpt lat="44.14057" lon="6.76581">
        <ele>1030.667</ele>
        <time>2011-06-12T06:00:27Z</time>
      </trkpt>
      <trkpt lat="44.14033" lon="6.76591">
        <ele>1030.72</ele>
        <time>2011-06-12T06:00:34Z</time>
      </trkpt>
      <trkpt lat="44.14011" lon="6.76611">
        <ele>1029.961</ele>
        <time>2011-06-12T06:00:40Z</time>
      </trkpt>
      <trkpt lat="44.13985" lon="6.7663">
        <ele>1029.135</ele>
        <time>2011-06-12T06:00:46Z</time>
      </trkpt>
      <trkpt lat="44.13975" lon="6.76638">
        <ele>1029.044</ele>
        <time>2011-06-12T06:00:48Z</time>
      </trkpt>
      <trkpt lat="44.13957" lon="6.76645">
        <ele>1027.329</ele>
        <time>2011-06-12T06:00:51Z</time>
      </trkpt>
      <trkpt lat="44.13937" lon="6.76665">
        <ele>1025.334</ele>
        <time>2011-06-12T06:00:55Z</time>
      </trkpt>
      <trkpt lat="44.13935" lon="6.76673">
        <ele>1025.075</ele>
        <time>2011-06-12T06:00:56Z</time>
      </trkpt>
      <trkpt lat="44.13923" lon="6.767">
        <ele>1024.55</ele>
        <time>2011-06-12T06:01:00Z</time>
      </trkpt>
      <trkpt lat="44.13894" lon="6.76719">
        <ele>1023.661</ele>
        <time>2011-06-12T06:01:05Z</time>
      </trkpt>
      <trkpt lat="44.13857" lon="6.7672">
        <ele>1019.749</ele>
        <time>2011-06-12T06:01:11Z</time>
      </trkpt>
      <trkpt lat="44.13846" lon="6.76719">
        <ele>1019.42</ele>
        <time>2011-06-12T06:01:13Z</time>
      </trkpt>
      <trkpt lat="44.13813" lon="6.76706">
        <ele>1019.146</ele>
        <time>2011-06-12T06:01:19Z</time>
      </trkpt>
      <trkpt lat="44.1379" lon="6.76693">
        <ele>1020.129</ele>
        <time>2011-06-12T06:01:23Z</time>
      </trkpt>
      <trkpt lat="44.1377" lon="6.76687">
        <ele>1019.32</ele>
        <time>2011-06-12T06:01:27Z</time>
      </trkpt>
      <trkpt lat="44.13762" lon="6.76684">
        <ele>1019.169</ele>
        <time>2011-06-12T06:01:29Z</time>
      </trkpt>
      <trkpt lat="44.13732" lon="6.76679">
        <ele>1016.029</ele>
        <time>2011-06-12T06:01:35Z</time>
      </trkpt>
      <trkpt lat="44.13712" lon="6.7668">
        <ele>1014.621</ele>
        <time>2011-06-12T06:01:39Z</time>
      </trkpt>
      <trkpt lat="44.1369" lon="6.76688">
        <ele>1012.86</ele>
        <time>2011-06-12T06:01:44Z</time>
      </trkpt>
      <trkpt lat="44.13677" lon="6.76691">
        <ele>1011.854</ele>
        <time>2011-06-12T06:01:48Z</time>
      </trkpt>
      <trkpt lat="44.13679" lon="6.76677">
        <ele>1013.058</ele>
        <time>2011-06-12T06:01:51Z</time>
      </trkpt>
      <trkpt lat="44.13692" lon="6.76644">
        <ele>1016.732</ele>
        <time>2011-06-12T06:01:59Z</time>
      </trkpt>
      <trkpt lat="44.13715" lon="6.76608">
        <ele>1020.283</ele>
        <time>2011-06-12T06:02:10Z</time>
      </trkpt>
      <trkpt lat="44.13737" lon="6.76585">
        <ele>1020.605</ele>
        <time>2011-06-12T06:02:18Z</time>
      </trkpt>
      <trkpt lat="44.13759" lon="6.76563">
        <ele>1019.547</ele>
        <time>2011-06-12T06:02:26Z</time>
      </trkpt>
      <trkpt lat="44.13773" lon="6.76545">
        <ele>1018.638</ele>
        <time>2011-06-12T06:02:32Z</time>
      </trkpt>
      <trkpt lat="44.13789" lon="6.76529">
        <ele>1021.135</ele>
        <time>2011-06-12T06:02:38Z</time>
      </trkpt>
      <trkpt lat="44.1381" lon="6.76506">
        <ele>1018.858</ele>
        <time>2011-06-12T06:02:46Z</time>
      </trkpt>
      <trkpt lat="44.13825" lon="6.76493">
        <ele>1019.963</ele>
        <time>2011-06-12T06:02:52Z</time>
      </trkpt>
      <trkpt lat="44.13853" lon="6.76474">
        <ele>1021.792</ele>
        <time>2011-06-12T06:03:01Z</time>
      </trkpt>
      <trkpt lat="44.13874" lon="6.76457">
        <ele>1022.521</ele>
        <time>2011-06-12T06:03:08Z</time>
      </trkpt>
      <trkpt lat="44.13895" lon="6.7644">
        <ele>1024.132</ele>
        <time>2011-06-12T06:03:15Z</time>
      </trkpt>
      <trkpt lat="44.13914" lon="6.76424">
        <ele>1025.022</ele>
        <time>2011-06-12T06:03:21Z</time>
      </trkpt>
      <trkpt lat="44.13926" lon="6.76409">
        <ele>1026.01</ele>
        <time>2011-06-12T06:03:26Z</time>
      </trkpt>
      <trkpt lat="44.13936" lon="6.76394">
        <ele>1027.309</ele>
        <time>2011-06-12T06:03:31Z</time>
      </trkpt>
      <trkpt lat="44.13947" lon="6.76381">
        <ele>1026.878</ele>
        <time>2011-06-12T06:03:35Z</time>
      </trkpt>
      <trkpt lat="44.13967" lon="6.76367">
        <ele>1026.798</ele>
        <time>2011-06-12T06:03:41Z</time>
      </trkpt>
      <trkpt lat="44.13994" lon="6.76351">
        <ele>1030.173</ele>
        <time>2011-06-12T06:03:49Z</time>
      </trkpt>
      <trkpt lat="44.14017" lon="6.76336">
        <ele>1030.553</ele>
        <time>2011-06-12T06:03:57Z</time>
      </trkpt>
      <trkpt lat="44.14036" lon="6.76318">
        <ele>1032.125</ele>
        <time>2011-06-12T06:04:04Z</time>
      </trkpt>
      <trkpt lat="44.1404" lon="6.76295">
        <ele>1035.74</ele>
        <time>2011-06-12T06:04:10Z</time>
      </trkpt>
      <trkpt lat="44.1404" lon="6.76265">
        <ele>1035.866</ele>
        <time>2011-06-12T06:04:17Z</time>
      </trkpt>
      <trkpt lat="44.1404" lon="6.76234">
        <ele>1038.778</ele>
        <time>2011-06-12T06:04:25Z</time>
      </trkpt>
      <trkpt lat="44.14041" lon="6.76212">
        <ele>1041.482</ele>
        <time>2011-06-12T06:04:30Z</time>
      </trkpt>
      <trkpt lat="44.14051" lon="6.76189">
        <ele>1044.188</ele>
        <time>2011-06-12T06:04:37Z</time>
      </trkpt>
      <trkpt lat="44.14064" lon="6.76167">
        <ele>1043.867</ele>
        <time>2011-06-12T06:04:45Z</time>
      </trkpt>
      <trkpt lat="44.14075" lon="6.76147">
        <ele>1043.046</ele>
        <time>2011-06-12T06:04:52Z</time>
      </trkpt>
      <trkpt lat="44.14087" lon="6.76136">
        <ele>1043.347</ele>
        <time>2011-06-12T06:04:58Z</time>
      </trkpt>
      <trkpt lat="44.1411" lon="6.76126">
        <ele>1045.552</ele>
        <time>2011-06-12T06:05:06Z</time>
      </trkpt>
      <trkpt lat="44.14131" lon="6.76117">
        <ele>1046.483</ele>
        <time>2011-06-12T06:05:14Z</time>
      </trkpt>
      <trkpt lat="44.14148" lon="6.76106">
        <ele>1047.444</ele>
        <time>2011-06-12T06:05:21Z</time>
      </trkpt>
      <trkpt lat="44.14165" lon="6.76085">
        <ele>1048.372</ele>
        <time>2011-06-12T06:05:29Z</time>
      </trkpt>
      <trkpt lat="44.14178" lon="6.76067">
        <ele>1048.022</ele>
        <time>2011-06-12T06:05:36Z</time>
      </trkpt>
      <trkpt lat="44.14193" lon="6.76049">
        <ele>1047.333</ele>
        <time>2011-06-12T06:05:43Z</time>
      </trkpt>
      <trkpt lat="44.14212" lon="6.76042">
        <ele>1048.683</ele>
        <time>2011-06-12T06:05:50Z</time>
      </trkpt>
      <trkpt lat="44.14226" lon="6.76051">
        <ele>1052.73</ele>
        <time>2011-06-12T06:05:55Z</time>
      </trkpt>
      <trkpt lat="44.14237" lon="6.76067">
        <ele>1054.219</ele>
        <time>2011-06-12T06:06:00Z</time>
      </trkpt>
      <trkpt lat="44.14242" lon="6.76089">
        <ele>1052.422</ele>
        <time>2011-06-12T06:06:05Z</time>
      </trkpt>
      <trkpt lat="44.14238" lon="6.76113">
        <ele>1051.701</ele>
        <time>2011-06-12T06:06:11Z</time>
      </trkpt>
      <trkpt lat="44.14227" lon="6.76133">
        <ele>1053.722</ele>
        <time>2011-06-12T06:06:17Z</time>
      </trkpt>
      <trkpt lat="44.14215" lon="6.76153">
        <ele>1050.308</ele>
        <time>2011-06-12T06:06:24Z</time>
      </trkpt>
      <trkpt lat="44.14206" lon="6.76166">
        <ele>1050.311</ele>
        <time>2011-06-12T06:06:29Z</time>
      </trkpt>
      <trkpt lat="44.14192" lon="6.76184">
        <ele>1050.472</ele>
        <time>2011-06-12T06:06:36Z</time>
      </trkpt>
      <trkpt lat="44.14176" lon="6.76202">
        <ele>1050.351</ele>
        <time>2011-06-12T06:06:43Z</time>
      </trkpt>
      <trkpt lat="44.14163" lon="6.76223">
        <ele>1050.29</ele>
        <time>2011-06-12T06:06:50Z</time>
      </trkpt>
      <trkpt lat="44.1415" lon="6.76246">
        <ele>1050.514</ele>
        <time>2011-06-12T06:06:57Z</time>
      </trkpt>
      <trkpt lat="44.14147" lon="6.7625">
        <ele>1051.876</ele>
        <time>2011-06-12T06:06:59Z</time>
      </trkpt>
      <trkpt lat="44.14149" lon="6.76263">
        <ele>1053.584</ele>
        <time>2011-06-12T06:07:03Z</time>
      </trkpt>
      <trkpt lat="44.14151" lon="6.76262">
        <ele>1053.733</ele>
        <time>2011-06-12T06:07:04Z</time>
      </trkpt>
      <trkpt lat="44.14162" lon="6.76242">
        <ele>1055.316</ele>
        <time>2011-06-12T06:07:10Z</time>
      </trkpt>
      <trkpt lat="44.14171" lon="6.76216">
        <ele>1056.81</ele>
        <time>2011-06-12T06:07:16Z</time>
      </trkpt>
      <trkpt lat="44.14185" lon="6.76197">
        <ele>1055.998</ele>
        <time>2011-06-12T06:07:21Z</time>
      </trkpt>
      <trkpt lat="44.14202" lon="6.76182">
        <ele>1056.412</ele>
        <time>2011-06-12T06:07:27Z</time>
      </trkpt>
      <trkpt lat="44.14225" lon="6.76159">
        <ele>1055.92</ele>
        <time>2011-06-12T06:07:35Z</time>
      </trkpt>
      <trkpt lat="44.1425" lon="6.76135">
        <ele>1056.64</ele>
        <time>2011-06-12T06:07:43Z</time>
      </trkpt>
      <trkpt lat="44.14282" lon="6.76125">
        <ele>1058.732</ele>
        <time>2011-06-12T06:07:51Z</time>
      </trkpt>
      <trkpt lat="44.14308" lon="6.76112">
        <ele>1060.104</ele>
        <time>2011-06-12T06:07:58Z</time>
      </trkpt>
      <trkpt lat="44.14324" lon="6.76085">
        <ele>1062.912</ele>
        <time>2011-06-12T06:08:05Z</time>
      </trkpt>
      <trkpt lat="44.14343" lon="6.76059">
        <ele>1063.962</ele>
        <time>2011-06-12T06:08:13Z</time>
      </trkpt>
      <trkpt lat="44.14366" lon="6.76034">
        <ele>1065.623</ele>
        <time>2011-06-12T06:08:22Z</time>
      </trkpt>
      <trkpt lat="44.1438" lon="6.76018">
        <ele>1065.949</ele>
        <time>2011-06-12T06:08:28Z</time>
      </trkpt>
      <trkpt lat="44.14397" lon="6.75999">
        <ele>1064.103</ele>
        <time>2011-06-12T06:08:35Z</time>
      </trkpt>
      <trkpt lat="44.14413" lon="6.75979">
        <ele>1065.825</ele>
        <time>2011-06-12T06:08:42Z</time>
      </trkpt>
      <trkpt lat="44.1443" lon="6.75958">
        <ele>1067.797</ele>
        <time>2011-06-12T06:08:49Z</time>
      </trkpt>
      <trkpt lat="44.14452" lon="6.75934">
        <ele>1069.178</ele>
        <time>2011-06-12T06:08:57Z</time>
      </trkpt>
      <trkpt lat="44.14463" lon="6.75916">
        <ele>1070.408</ele>
        <time>2011-06-12T06:09:02Z</time>
      </trkpt>
      <trkpt lat="44.14477" lon="6.75893">
        <ele>1069.607</ele>
        <time>2011-06-12T06:09:09Z</time>
      </trkpt>
      <trkpt lat="44.14493" lon="6.75868">
        <ele>1070.948</ele>
        <time>2011-06-12T06:09:17Z</time>
      </trkpt>
      <trkpt lat="44.14504" lon="6.75842">
        <ele>1071.786</ele>
        <time>2011-06-12T06:09:24Z</time>
      </trkpt>
      <trkpt lat="44.14517" lon="6.75818">
        <ele>1072.607</ele>
        <time>2011-06-12T06:09:31Z</time>
      </trkpt>
      <trkpt lat="44.14535" lon="6.75802">
        <ele>1074.401</ele>
        <time>2011-06-12T06:09:38Z</time>
      </trkpt>
      <trkpt lat="44.14554" lon="6.7579">
        <ele>1076.416</ele>
        <time>2011-06-12T06:09:45Z</time>
      </trkpt>
      <trkpt lat="44.14574" lon="6.75778">
        <ele>1078.556</ele>
        <time>2011-06-12T06:09:52Z</time>
      </trkpt>
      <trkpt lat="44.14594" lon="6.75767">
        <ele>1078.269</ele>
        <time>2011-06-12T06:09:59Z</time>
      </trkpt>
      <trkpt lat="44.14614" lon="6.75759">
        <ele>1078.289</ele>
        <time>2011-06-12T06:10:05Z</time>
      </trkpt>
      <trkpt lat="44.14647" lon="6.75747">
        <ele>1078.588</ele>
        <time>2011-06-12T06:10:15Z</time>
      </trkpt>
      <trkpt lat="44.14664" lon="6.75741">
        <ele>1082.868</ele>
        <time>2011-06-12T06:10:22Z</time>
      </trkpt>
      <trkpt lat="44.1468" lon="6.75736">
        <ele>1084.004</ele>
        <time>2011-06-12T06:10:27Z</time>
      </trkpt>
      <trkpt lat="44.14713" lon="6.75727">
        <ele>1080.679</ele>
        <time>2011-06-12T06:10:37Z</time>
      </trkpt>
      <trkpt lat="44.14728" lon="6.75729">
        <ele>1080.279</ele>
        <time>2011-06-12T06:10:42Z</time>
      </trkpt>
      <trkpt lat="44.14756" lon="6.75736">
        <ele>1079.92</ele>
        <time>2011-06-12T06:10:51Z</time>
      </trkpt>
      <trkpt lat="44.14771" lon="6.75739">
        <ele>1082.052</ele>
        <time>2011-06-12T06:10:56Z</time>
      </trkpt>
      <trkpt lat="44.14784" lon="6.75737">
        <ele>1084.765</ele>
        <time>2011-06-12T06:11:01Z</time>
      </trkpt>
      <trkpt lat="44.14812" lon="6.75728">
        <ele>1085.101</ele>
        <time>2011-06-12T06:11:09Z</time>
      </trkpt>
      <trkpt lat="44.1483" lon="6.75722">
        <ele>1085.491</ele>
        <time>2011-06-12T06:11:15Z</time>
      </trkpt>
      <trkpt lat="44.14852" lon="6.75712">
        <ele>1085.56</ele>
        <time>2011-06-12T06:11:22Z</time>
      </trkpt>
      <trkpt lat="44.1488" lon="6.75697">
        <ele>1085.159</ele>
        <time>2011-06-12T06:11:31Z</time>
      </trkpt>
      <trkpt lat="44.14911" lon="6.7568">
        <ele>1087.571</ele>
        <time>2011-06-12T06:11:42Z</time>
      </trkpt>
      <trkpt lat="44.14932" lon="6.75665">
        <ele>1088.972</ele>
        <time>2011-06-12T06:11:50Z</time>
      </trkpt>
      <trkpt lat="44.14956" lon="6.75655">
        <ele>1090.319</ele>
        <time>2011-06-12T06:11:58Z</time>
      </trkpt>
      <trkpt lat="44.14984" lon="6.75648">
        <ele>1090.42</ele>
        <time>2011-06-12T06:12:07Z</time>
      </trkpt>
      <trkpt lat="44.15012" lon="6.75642">
        <ele>1091.832</ele>
        <time>2011-06-12T06:12:16Z</time>
      </trkpt>
      <trkpt lat="44.15035" lon="6.7564">
        <ele>1091.599</ele>
        <time>2011-06-12T06:12:23Z</time>
      </trkpt>
      <trkpt lat="44.15049" lon="6.75648">
        <ele>1092.742</ele>
        <time>2011-06-12T06:12:28Z</time>
      </trkpt>
      <trkpt lat="44.15067" lon="6.75667">
        <ele>1091.546</ele>
        <time>2011-06-12T06:12:35Z</time>
      </trkpt>
      <trkpt lat="44.15086" lon="6.75675">
        <ele>1091.628</ele>
        <time>2011-06-12T06:12:41Z</time>
      </trkpt>
      <trkpt lat="44.15107" lon="6.75671">
        <ele>1091.379</ele>
        <time>2011-06-12T06:12:47Z</time>
      </trkpt>
      <trkpt lat="44.15126" lon="6.75663">
        <ele>1091.708</ele>
        <time>2011-06-12T06:12:53Z</time>
      </trkpt>
      <trkpt lat="44.15146" lon="6.75658">
        <ele>1092.9</ele>
        <time>2011-06-12T06:12:59Z</time>
      </trkpt>
      <trkpt lat="44.15172" lon="6.75658">
        <ele>1102.383</ele>
        <time>2011-06-12T06:13:07Z</time>
      </trkpt>
      <trkpt lat="44.15189" lon="6.75653">
        <ele>1105.543</ele>
        <time>2011-06-12T06:13:12Z</time>
      </trkpt>
      <trkpt lat="44.15211" lon="6.75649">
        <ele>1105.278</ele>
        <time>2011-06-12T06:13:18Z</time>
      </trkpt>
      <trkpt lat="44.15241" lon="6.75641">
        <ele>1099.214</ele>
        <time>2011-06-12T06:13:26Z</time>
      </trkpt>
      <trkpt lat="44.15269" lon="6.75639">
        <ele>1094.711</ele>
        <time>2011-06-12T06:13:34Z</time>
      </trkpt>
      <trkpt lat="44.15302" lon="6.75641">
        <ele>1091.183</ele>
        <time>2011-06-12T06:13:43Z</time>
      </trkpt>
      <trkpt lat="44.15329" lon="6.75641">
        <ele>1089.134</ele>
        <time>2011-06-12T06:13:51Z</time>
      </trkpt>
      <trkpt lat="44.15361" lon="6.75642">
        <ele>1086.405</ele>
        <time>2011-06-12T06:14:00Z</time>
      </trkpt>
      <trkpt lat="44.15383" lon="6.7565">
        <ele>1086.047</ele>
        <time>2011-06-12T06:14:07Z</time>
      </trkpt>
      <trkpt lat="44.15406" lon="6.75661">
        <ele>1086.419</ele>
        <time>2011-06-12T06:14:15Z</time>
      </trkpt>
      <trkpt lat="44.15424" lon="6.75669">
        <ele>1086.43</ele>
        <time>2011-06-12T06:14:21Z</time>
      </trkpt>
      <trkpt lat="44.15444" lon="6.75676">
        <ele>1086.018</ele>
        <time>2011-06-12T06:14:27Z</time>
      </trkpt>
      <trkpt lat="44.15466" lon="6.75684">
        <ele>1085.397</ele>
        <time>2011-06-12T06:14:34Z</time>
      </trkpt>
      <trkpt lat="44.15494" lon="6.757">
        <ele>1085.648</ele>
        <time>2011-06-12T06:14:43Z</time>
      </trkpt>
      <trkpt lat="44.15517" lon="6.75712">
        <ele>1086.409</ele>
        <time>2011-06-12T06:14:50Z</time>
      </trkpt>
      <trkpt lat="44.15539" lon="6.75713">
        <ele>1087.55</ele>
        <time>2011-06-12T06:14:56Z</time>
      </trkpt>
      <trkpt lat="44.15559" lon="6.75704">
        <ele>1087.337</ele>
        <time>2011-06-12T06:15:02Z</time>
      </trkpt>
      <trkpt lat="44.15586" lon="6.75695">
        <ele>1086.314</ele>
        <time>2011-06-12T06:15:10Z</time>
      </trkpt>
      <trkpt lat="44.15607" lon="6.75696">
        <ele>1085.325</ele>
        <time>2011-06-12T06:15:16Z</time>
      </trkpt>
      <trkpt lat="44.15621" lon="6.75698">
        <ele>1083.384</ele>
        <time>2011-06-12T06:15:21Z</time>
      </trkpt>
      <trkpt lat="44.15628" lon="6.75703">
        <ele>1082.715</ele>
        <time>2011-06-12T06:15:25Z</time>
      </trkpt>
      <trkpt lat="44.15642" lon="6.75759">
        <ele>1083.825</ele>
        <time>2011-06-12T06:15:44Z</time>
      </trkpt>
      <trkpt lat="44.15657" lon="6.75751">
        <ele>1081.164</ele>
        <time>2011-06-12T06:15:47Z</time>
      </trkpt>
      <trkpt lat="44.15686" lon="6.75743">
        <ele>1069.199</ele>
        <time>2011-06-12T06:15:55Z</time>
      </trkpt>
      <trkpt lat="44.15701" lon="6.75743">
        <ele>1067.212</ele>
        <time>2011-06-12T06:16:01Z</time>
      </trkpt>
      <trkpt lat="44.15718" lon="6.75746">
        <ele>1064.372</ele>
        <time>2011-06-12T06:16:08Z</time>
      </trkpt>
      <trkpt lat="44.15738" lon="6.75749">
        <ele>1060.067</ele>
        <time>2011-06-12T06:16:16Z</time>
      </trkpt>
      <trkpt lat="44.15755" lon="6.75751">
        <ele>1060.286</ele>
        <time>2011-06-12T06:16:24Z</time>
      </trkpt>
      <trkpt lat="44.15771" lon="6.75755">
        <ele>1058.478</ele>
        <time>2011-06-12T06:16:31Z</time>
      </trkpt>
      <trkpt lat="44.15787" lon="6.75757">
        <ele>1062.303</ele>
        <time>2011-06-12T06:16:39Z</time>
      </trkpt>
      <trkpt lat="44.15801" lon="6.75753">
        <ele>1064.182</ele>
        <time>2011-06-12T06:16:45Z</time>
      </trkpt>
      <trkpt lat="44.15816" lon="6.75748">
        <ele>1069.151</ele>
        <time>2011-06-12T06:16:54Z</time>
      </trkpt>
      <trkpt lat="44.15822" lon="6.75739">
        <ele>1074.113</ele>
        <time>2011-06-12T06:17:00Z</time>
      </trkpt>
      <trkpt lat="44.15826" lon="6.75733">
        <ele>1079.222</ele>
        <time>2011-06-12T06:17:05Z</time>
      </trkpt>
      <trkpt lat="44.15829" lon="6.75748">
        <ele>1107.06</ele>
        <time>2011-06-12T06:17:08Z</time>
      </trkpt>
      <trkpt lat="44.15833" lon="6.75741">
        <ele>1117.536</ele>
        <time>2011-06-12T06:17:14Z</time>
      </trkpt>
      <trkpt lat="44.15833" lon="6.75744">
        <ele>1126.239</ele>
        <time>2011-06-12T06:17:18Z</time>
      </trkpt>
      <trkpt lat="44.15833" lon="6.75746">
        <ele>1124.821</ele>
        <time>2011-06-12T06:20:09Z</time>
      </trkpt>
      <trkpt lat="44.15833" lon="6.75746">
        <ele>1129.873</ele>
        <time>2011-06-12T06:20:14Z</time>
      </trkpt>
      <trkpt lat="44.15837" lon="6.75742">
        <ele>1124.957</ele>
        <time>2011-06-12T06:20:21Z</time>
      </trkpt>
      <trkpt lat="44.15848" lon="6.75737">
        <ele>1122.864</ele>
        <time>2011-06-12T06:20:26Z</time>
      </trkpt>
      <trkpt lat="44.15859" lon="6.75739">
        <ele>1130.1</ele>
        <time>2011-06-12T06:20:32Z</time>
      </trkpt>
      <trkpt lat="44.1587" lon="6.75742">
        <ele>1140.595</ele>
        <time>2011-06-12T06:20:37Z</time>
      </trkpt>
      <trkpt lat="44.15875" lon="6.75748">
        <ele>1153.09</ele>
        <time>2011-06-12T06:20:42Z</time>
      </trkpt>
      <trkpt lat="44.15886" lon="6.75756">
        <ele>1157.54</ele>
        <time>2011-06-12T06:20:48Z</time>
      </trkpt>
      <trkpt lat="44.159" lon="6.7576">
        <ele>1153.269</ele>
        <time>2011-06-12T06:20:54Z</time>
      </trkpt>
      <trkpt lat="44.15918" lon="6.75758">
        <ele>1146.454</ele>
        <time>2011-06-12T06:21:00Z</time>
      </trkpt>
      <trkpt lat="44.15931" lon="6.75758">
        <ele>1144.767</ele>
        <time>2011-06-12T06:21:05Z</time>
      </trkpt>
      <trkpt lat="44.15942" lon="6.75758">
        <ele>1148.619</ele>
        <time>2011-06-12T06:21:11Z</time>
      </trkpt>
      <trkpt lat="44.15953" lon="6.75755">
        <ele>1147.555</ele>
        <time>2011-06-12T06:21:16Z</time>
      </trkpt>
      <trkpt lat="44.15969" lon="6.75756">
        <ele>1150.764</ele>
        <time>2011-06-12T06:21:23Z</time>
      </trkpt>
      <trkpt lat="44.15985" lon="6.75757">
        <ele>1149.889</ele>
        <time>2011-06-12T06:21:30Z</time>
      </trkpt>
      <trkpt lat="44.16002" lon="6.75756">
        <ele>1144.536</ele>
        <time>2011-06-12T06:21:37Z</time>
      </trkpt>
      <trkpt lat="44.16016" lon="6.75751">
        <ele>1144.035</ele>
        <time>2011-06-12T06:21:43Z</time>
      </trkpt>
      <trkpt lat="44.16034" lon="6.75739">
        <ele>1138.04</ele>
        <time>2011-06-12T06:21:50Z</time>
      </trkpt>
      <trkpt lat="44.16044" lon="6.75724">
        <ele>1139.231</ele>
        <time>2011-06-12T06:21:56Z</time>
      </trkpt>
      <trkpt lat="44.1605" lon="6.75703">
        <ele>1141.943</ele>
        <time>2011-06-12T06:22:03Z</time>
      </trkpt>
      <trkpt lat="44.1606" lon="6.75684">
        <ele>1145.675</ele>
        <time>2011-06-12T06:22:10Z</time>
      </trkpt>
      <trkpt lat="44.1607" lon="6.75672">
        <ele>1145.322</ele>
        <time>2011-06-12T06:22:15Z</time>
      </trkpt>
      <trkpt lat="44.16086" lon="6.75658">
        <ele>1143.951</ele>
        <time>2011-06-12T06:22:22Z</time>
      </trkpt>
      <trkpt lat="44.16095" lon="6.75649">
        <ele>1146.303</ele>
        <time>2011-06-12T06:22:27Z</time>
      </trkpt>
      <trkpt lat="44.1611" lon="6.75637">
        <ele>1143.978</ele>
        <time>2011-06-12T06:22:33Z</time>
      </trkpt>
      <trkpt lat="44.16126" lon="6.75622">
        <ele>1137.185</ele>
        <time>2011-06-12T06:22:39Z</time>
      </trkpt>
      <trkpt lat="44.16144" lon="6.75606">
        <ele>1133.967</ele>
        <time>2011-06-12T06:22:46Z</time>
      </trkpt>
      <trkpt lat="44.16164" lon="6.75592">
        <ele>1133.129</ele>
        <time>2011-06-12T06:22:54Z</time>
      </trkpt>
      <trkpt lat="44.16184" lon="6.75582">
        <ele>1134.071</ele>
        <time>2011-06-12T06:23:02Z</time>
      </trkpt>
      <trkpt lat="44.16202" lon="6.75574">
        <ele>1136.281</ele>
        <time>2011-06-12T06:23:10Z</time>
      </trkpt>
      <trkpt lat="44.16215" lon="6.75567">
        <ele>1138.453</ele>
        <time>2011-06-12T06:23:16Z</time>
      </trkpt>
      <trkpt lat="44.16235" lon="6.75559">
        <ele>1136.589</ele>
        <time>2011-06-12T06:23:23Z</time>
      </trkpt>
      <trkpt lat="44.16263" lon="6.75545">
        <ele>1138.801</ele>
        <time>2011-06-12T06:23:33Z</time>
      </trkpt>
      <trkpt lat="44.1628" lon="6.75527">
        <ele>1144.654</ele>
        <time>2011-06-12T06:23:42Z</time>
      </trkpt>
      <trkpt lat="44.16286" lon="6.75504">
        <ele>1146.432</ele>
        <time>2011-06-12T06:23:49Z</time>
      </trkpt>
      <trkpt lat="44.16284" lon="6.75477">
        <ele>1147.762</ele>
        <time>2011-06-12T06:23:56Z</time>
      </trkpt>
      <trkpt lat="44.16283" lon="6.75452">
        <ele>1152.224</ele>
        <time>2011-06-12T06:24:03Z</time>
      </trkpt>
      <trkpt lat="44.16281" lon="6.75422">
        <ele>1158.447</ele>
        <time>2011-06-12T06:24:11Z</time>
      </trkpt>
      <trkpt lat="44.16276" lon="6.75392">
        <ele>1159.032</ele>
        <time>2011-06-12T06:24:19Z</time>
      </trkpt>
      <trkpt lat="44.16278" lon="6.75368">
        <ele>1161.711</ele>
        <time>2011-06-12T06:24:26Z</time>
      </trkpt>
      <trkpt lat="44.16289" lon="6.75352">
        <ele>1161.229</ele>
        <time>2011-06-12T06:24:32Z</time>
      </trkpt>
      <trkpt lat="44.16302" lon="6.7535">
        <ele>1160.139</ele>
        <time>2011-06-12T06:24:37Z</time>
      </trkpt>
      <trkpt lat="44.1632" lon="6.75361">
        <ele>1157.226</ele>
        <time>2011-06-12T06:24:44Z</time>
      </trkpt>
      <trkpt lat="44.16335" lon="6.75374">
        <ele>1150.423</ele>
        <time>2011-06-12T06:24:51Z</time>
      </trkpt>
      <trkpt lat="44.16348" lon="6.75401">
        <ele>1161.689</ele>
        <time>2011-06-12T06:25:00Z</time>
      </trkpt>
      <trkpt lat="44.16364" lon="6.75402">
        <ele>1158.086</ele>
        <time>2011-06-12T06:25:05Z</time>
      </trkpt>
      <trkpt lat="44.16382" lon="6.75397">
        <ele>1155.627</ele>
        <time>2011-06-12T06:25:12Z</time>
      </trkpt>
      <trkpt lat="44.16398" lon="6.75387">
        <ele>1157.25</ele>
        <time>2011-06-12T06:25:19Z</time>
      </trkpt>
      <trkpt lat="44.16419" lon="6.75382">
        <ele>1160.775</ele>
        <time>2011-06-12T06:25:27Z</time>
      </trkpt>
      <trkpt lat="44.16441" lon="6.75376">
        <ele>1166.265</ele>
        <time>2011-06-12T06:25:36Z</time>
      </trkpt>
      <trkpt lat="44.16463" lon="6.75366">
        <ele>1166.461</ele>
        <time>2011-06-12T06:25:44Z</time>
      </trkpt>
      <trkpt lat="44.16486" lon="6.75359">
        <ele>1165.499</ele>
        <time>2011-06-12T06:25:52Z</time>
      </trkpt>
      <trkpt lat="44.16506" lon="6.75351">
        <ele>1163.629</ele>
        <time>2011-06-12T06:25:59Z</time>
      </trkpt>
      <trkpt lat="44.16525" lon="6.75346">
        <ele>1163.328</ele>
        <time>2011-06-12T06:26:06Z</time>
      </trkpt>
      <trkpt lat="44.16541" lon="6.75342">
        <ele>1168.655</ele>
        <time>2011-06-12T06:26:13Z</time>
      </trkpt>
      <trkpt lat="44.1656" lon="6.75341">
        <ele>1178.608</ele>
        <time>2011-06-12T06:26:22Z</time>
      </trkpt>
      <trkpt lat="44.16587" lon="6.75332">
        <ele>1173.139</ele>
        <time>2011-06-12T06:26:31Z</time>
      </trkpt>
      <trkpt lat="44.16604" lon="6.7532">
        <ele>1171.078</ele>
        <time>2011-06-12T06:26:38Z</time>
      </trkpt>
      <trkpt lat="44.16626" lon="6.75301">
        <ele>1171.121</ele>
        <time>2011-06-12T06:26:47Z</time>
      </trkpt>
      <trkpt lat="44.16645" lon="6.75287">
        <ele>1172.821</ele>
        <time>2011-06-12T06:26:55Z</time>
      </trkpt>
      <trkpt lat="44.16661" lon="6.75275">
        <ele>1175.593</ele>
        <time>2011-06-12T06:27:02Z</time>
      </trkpt>
      <trkpt lat="44.16679" lon="6.75263">
        <ele>1176.052</ele>
        <time>2011-06-12T06:27:09Z</time>
      </trkpt>
      <trkpt lat="44.16701" lon="6.75249">
        <ele>1170.789</ele>
        <time>2011-06-12T06:27:17Z</time>
      </trkpt>
      <trkpt lat="44.16721" lon="6.7523">
        <ele>1173.823</ele>
        <time>2011-06-12T06:27:26Z</time>
      </trkpt>
      <trkpt lat="44.1674" lon="6.75212">
        <ele>1177.484</ele>
        <time>2011-06-12T06:27:35Z</time>
      </trkpt>
      <trkpt lat="44.16767" lon="6.75194">
        <ele>1177.25</ele>
        <time>2011-06-12T06:27:46Z</time>
      </trkpt>
      <trkpt lat="44.1679" lon="6.75188">
        <ele>1176.76</ele>
        <time>2011-06-12T06:27:54Z</time>
      </trkpt>
      <trkpt lat="44.1681" lon="6.75181">
        <ele>1177.66</ele>
        <time>2011-06-12T06:28:01Z</time>
      </trkpt>
      <trkpt lat="44.16836" lon="6.7517">
        <ele>1178.981</ele>
        <time>2011-06-12T06:28:10Z</time>
      </trkpt>
      <trkpt lat="44.16859" lon="6.75165">
        <ele>1181.261</ele>
        <time>2011-06-12T06:28:18Z</time>
      </trkpt>
      <trkpt lat="44.16877" lon="6.75166">
        <ele>1183.122</ele>
        <time>2011-06-12T06:28:24Z</time>
      </trkpt>
      <trkpt lat="44.16897" lon="6.75163">
        <ele>1184.522</ele>
        <time>2011-06-12T06:28:31Z</time>
      </trkpt>
      <trkpt lat="44.16923" lon="6.75161">
        <ele>1186.382</ele>
        <time>2011-06-12T06:28:40Z</time>
      </trkpt>
      <trkpt lat="44.1694" lon="6.75158">
        <ele>1187.522</ele>
        <time>2011-06-12T06:28:46Z</time>
      </trkpt>
      <trkpt lat="44.16961" lon="6.75159">
        <ele>1189.953</ele>
        <time>2011-06-12T06:28:53Z</time>
      </trkpt>
      <trkpt lat="44.16984" lon="6.75161">
        <ele>1192.543</ele>
        <time>2011-06-12T06:29:01Z</time>
      </trkpt>
      <trkpt lat="44.17014" lon="6.75153">
        <ele>1194.392</ele>
        <time>2011-06-12T06:29:11Z</time>
      </trkpt>
      <trkpt lat="44.17038" lon="6.75143">
        <ele>1194.941</ele>
        <time>2011-06-12T06:29:20Z</time>
      </trkpt>
      <trkpt lat="44.1706" lon="6.75135">
        <ele>1195.591</ele>
        <time>2011-06-12T06:29:28Z</time>
      </trkpt>
      <trkpt lat="44.17084" lon="6.75118">
        <ele>1195.401</ele>
        <time>2011-06-12T06:29:37Z</time>
      </trkpt>
      <trkpt lat="44.17105" lon="6.7511">
        <ele>1197.004</ele>
        <time>2011-06-12T06:29:45Z</time>
      </trkpt>
      <trkpt lat="44.17127" lon="6.75104">
        <ele>1197.13</ele>
        <time>2011-06-12T06:29:53Z</time>
      </trkpt>
      <trkpt lat="44.17143" lon="6.75091">
        <ele>1197.451</ele>
        <time>2011-06-12T06:29:59Z</time>
      </trkpt>
      <trkpt lat="44.1716" lon="6.75071">
        <ele>1199.923</ele>
        <time>2011-06-12T06:30:06Z</time>
      </trkpt>
      <trkpt lat="44.17173" lon="6.75052">
        <ele>1202.244</ele>
        <time>2011-06-12T06:30:12Z</time>
      </trkpt>
      <trkpt lat="44.17191" lon="6.75036">
        <ele>1204.585</ele>
        <time>2011-06-12T06:30:19Z</time>
      </trkpt>
      <trkpt lat="44.17213" lon="6.7502">
        <ele>1205.703</ele>
        <time>2011-06-12T06:30:27Z</time>
      </trkpt>
      <trkpt lat="44.17232" lon="6.75007">
        <ele>1206.062</ele>
        <time>2011-06-12T06:30:34Z</time>
      </trkpt>
      <trkpt lat="44.17256" lon="6.74998">
        <ele>1207.033</ele>
        <time>2011-06-12T06:30:43Z</time>
      </trkpt>
      <trkpt lat="44.17273" lon="6.75001">
        <ele>1217.331</ele>
        <time>2011-06-12T06:30:49Z</time>
      </trkpt>
      <trkpt lat="44.17286" lon="6.75007">
        <ele>1220.209</ele>
        <time>2011-06-12T06:30:54Z</time>
      </trkpt>
      <trkpt lat="44.17303" lon="6.75021">
        <ele>1222.397</ele>
        <time>2011-06-12T06:31:01Z</time>
      </trkpt>
      <trkpt lat="44.17326" lon="6.75032">
        <ele>1215.16</ele>
        <time>2011-06-12T06:31:10Z</time>
      </trkpt>
      <trkpt lat="44.17346" lon="6.75038">
        <ele>1210.589</ele>
        <time>2011-06-12T06:31:18Z</time>
      </trkpt>
      <trkpt lat="44.17362" lon="6.75036">
        <ele>1210.901</ele>
        <time>2011-06-12T06:31:25Z</time>
      </trkpt>
      <trkpt lat="44.17374" lon="6.75031">
        <ele>1211.642</ele>
        <time>2011-06-12T06:31:30Z</time>
      </trkpt>
      <trkpt lat="44.17391" lon="6.75026">
        <ele>1211.762</ele>
        <time>2011-06-12T06:31:36Z</time>
      </trkpt>
      <trkpt lat="44.17407" lon="6.75025">
        <ele>1214.894</ele>
        <time>2011-06-12T06:31:43Z</time>
      </trkpt>
      <trkpt lat="44.1742" lon="6.75021">
        <ele>1216.393</ele>
        <time>2011-06-12T06:31:49Z</time>
      </trkpt>
      <trkpt lat="44.17438" lon="6.75002">
        <ele>1211.63</ele>
        <time>2011-06-12T06:31:57Z</time>
      </trkpt>
      <trkpt lat="44.17453" lon="6.74983">
        <ele>1212.961</ele>
        <time>2011-06-12T06:32:05Z</time>
      </trkpt>
      <trkpt lat="44.17472" lon="6.74964">
        <ele>1209.477</ele>
        <time>2011-06-12T06:32:14Z</time>
      </trkpt>
      <trkpt lat="44.17485" lon="6.74957">
        <ele>1213.041</ele>
        <time>2011-06-12T06:32:20Z</time>
      </trkpt>
      <trkpt lat="44.17498" lon="6.74955">
        <ele>1219.636</ele>
        <time>2011-06-12T06:32:27Z</time>
      </trkpt>
      <trkpt lat="44.17512" lon="6.74955">
        <ele>1219.964</ele>
        <time>2011-06-12T06:32:33Z</time>
      </trkpt>
      <trkpt lat="44.17529" lon="6.74947">
        <ele>1219.561</ele>
        <time>2011-06-12T06:32:40Z</time>
      </trkpt>
      <trkpt lat="44.17549" lon="6.74936">
        <ele>1222.882</ele>
        <time>2011-06-12T06:32:47Z</time>
      </trkpt>
      <trkpt lat="44.17569" lon="6.74932">
        <ele>1222.591</ele>
        <time>2011-06-12T06:32:53Z</time>
      </trkpt>
      <trkpt lat="44.17595" lon="6.74925">
        <ele>1220.799</ele>
        <time>2011-06-12T06:33:01Z</time>
      </trkpt>
      <trkpt lat="44.17613" lon="6.74912">
        <ele>1219.178</ele>
        <time>2011-06-12T06:33:07Z</time>
      </trkpt>
      <trkpt lat="44.17628" lon="6.74901">
        <ele>1217.507</ele>
        <time>2011-06-12T06:33:13Z</time>
      </trkpt>
      <trkpt lat="44.17646" lon="6.74886">
        <ele>1216.697</ele>
        <time>2011-06-12T06:33:21Z</time>
      </trkpt>
      <trkpt lat="44.17665" lon="6.74869">
        <ele>1217.488</ele>
        <time>2011-06-12T06:33:29Z</time>
      </trkpt>
      <trkpt lat="44.17678" lon="6.74857">
        <ele>1221.053</ele>
        <time>2011-06-12T06:33:35Z</time>
      </trkpt>
      <trkpt lat="44.17693" lon="6.74853">
        <ele>1226.859</ele>
        <time>2011-06-12T06:33:41Z</time>
      </trkpt>
      <trkpt lat="44.17712" lon="6.74848">
        <ele>1231.307</ele>
        <time>2011-06-12T06:33:48Z</time>
      </trkpt>
      <trkpt lat="44.17737" lon="6.74838">
        <ele>1233.964</ele>
        <time>2011-06-12T06:33:57Z</time>
      </trkpt>
      <trkpt lat="44.17754" lon="6.74835">
        <ele>1234.944</ele>
        <time>2011-06-12T06:34:02Z</time>
      </trkpt>
      <trkpt lat="44.17775" lon="6.74835">
        <ele>1237.115</ele>
        <time>2011-06-12T06:34:09Z</time>
      </trkpt>
      <trkpt lat="44.17785" lon="6.7485">
        <ele>1237.653</ele>
        <time>2011-06-12T06:34:14Z</time>
      </trkpt>
      <trkpt lat="44.17795" lon="6.74877">
        <ele>1237.362</ele>
        <time>2011-06-12T06:34:21Z</time>
      </trkpt>
      <trkpt lat="44.17813" lon="6.74897">
        <ele>1234.701</ele>
        <time>2011-06-12T06:34:28Z</time>
      </trkpt>
      <trkpt lat="44.17838" lon="6.74905">
        <ele>1230.789</ele>
        <time>2011-06-12T06:34:36Z</time>
      </trkpt>
      <trkpt lat="44.17865" lon="6.74904">
        <ele>1232.512</ele>
        <time>2011-06-12T06:34:44Z</time>
      </trkpt>
      <trkpt lat="44.17882" lon="6.74906">
        <ele>1236.085</ele>
        <time>2011-06-12T06:34:50Z</time>
      </trkpt>
      <trkpt lat="44.17902" lon="6.74905">
        <ele>1240.639</ele>
        <time>2011-06-12T06:34:57Z</time>
      </trkpt>
      <trkpt lat="44.1792" lon="6.74902">
        <ele>1241.145</ele>
        <time>2011-06-12T06:35:03Z</time>
      </trkpt>
      <trkpt lat="44.17935" lon="6.74899">
        <ele>1241.263</ele>
        <time>2011-06-12T06:35:08Z</time>
      </trkpt>
      <trkpt lat="44.17953" lon="6.74899">
        <ele>1240.972</ele>
        <time>2011-06-12T06:35:14Z</time>
      </trkpt>
      <trkpt lat="44.17969" lon="6.74904">
        <ele>1243.444</ele>
        <time>2011-06-12T06:35:20Z</time>
      </trkpt>
      <trkpt lat="44.17991" lon="6.74907">
        <ele>1239.494</ele>
        <time>2011-06-12T06:35:28Z</time>
      </trkpt>
      <trkpt lat="44.18014" lon="6.74905">
        <ele>1239.903</ele>
        <time>2011-06-12T06:35:35Z</time>
      </trkpt>
      <trkpt lat="44.18037" lon="6.74897">
        <ele>1240.112</ele>
        <time>2011-06-12T06:35:43Z</time>
      </trkpt>
      <trkpt lat="44.18068" lon="6.74887">
        <ele>1242.323</ele>
        <time>2011-06-12T06:35:53Z</time>
      </trkpt>
      <trkpt lat="44.18087" lon="6.74875">
        <ele>1242.123</ele>
        <time>2011-06-12T06:35:59Z</time>
      </trkpt>
      <trkpt lat="44.18107" lon="6.74866">
        <ele>1241.493</ele>
        <time>2011-06-12T06:36:05Z</time>
      </trkpt>
      <trkpt lat="44.18128" lon="6.74858">
        <ele>1242.823</ele>
        <time>2011-06-12T06:36:12Z</time>
      </trkpt>
      <trkpt lat="44.18143" lon="6.74841">
        <ele>1238.029</ele>
        <time>2011-06-12T06:36:18Z</time>
      </trkpt>
      <trkpt lat="44.18161" lon="6.74826">
        <ele>1237.98</ele>
        <time>2011-06-12T06:36:25Z</time>
      </trkpt>
      <trkpt lat="44.18182" lon="6.74819">
        <ele>1240.533</ele>
        <time>2011-06-12T06:36:32Z</time>
      </trkpt>
      <trkpt lat="44.18198" lon="6.74822">
        <ele>1245.748</ele>
        <time>2011-06-12T06:36:37Z</time>
      </trkpt>
      <trkpt lat="44.18217" lon="6.74841">
        <ele>1253.772</ele>
        <time>2011-06-12T06:36:44Z</time>
      </trkpt>
      <trkpt lat="44.18232" lon="6.74852">
        <ele>1248.26</ele>
        <time>2011-06-12T06:36:50Z</time>
      </trkpt>
      <trkpt lat="44.18246" lon="6.74863">
        <ele>1244.565</ele>
        <time>2011-06-12T06:36:54Z</time>
      </trkpt>
      <trkpt lat="44.18258" lon="6.74878">
        <ele>1240.92</ele>
        <time>2011-06-12T06:36:57Z</time>
      </trkpt>
      <trkpt lat="44.18268" lon="6.74896">
        <ele>1238.01</ele>
        <time>2011-06-12T06:37:00Z</time>
      </trkpt>
      <trkpt lat="44.18282" lon="6.74919">
        <ele>1234.589</ele>
        <time>2011-06-12T06:37:04Z</time>
      </trkpt>
      <trkpt lat="44.18294" lon="6.74943">
        <ele>1228.911</ele>
        <time>2011-06-12T06:37:08Z</time>
      </trkpt>
      <trkpt lat="44.18305" lon="6.74957">
        <ele>1227.514</ele>
        <time>2011-06-12T06:37:12Z</time>
      </trkpt>
      <trkpt lat="44.18312" lon="6.74958">
        <ele>1226.999</ele>
        <time>2011-06-12T06:37:16Z</time>
      </trkpt>
      <trkpt lat="44.1831" lon="6.74957">
        <ele>1227.238</ele>
        <time>2011-06-12T06:37:22Z</time>
      </trkpt>
      <trkpt lat="44.18302" lon="6.74953">
        <ele>1225.878</ele>
        <time>2011-06-12T06:37:26Z</time>
      </trkpt>
      <trkpt lat="44.18297" lon="6.74957">
        <ele>1225.639</ele>
        <time>2011-06-12T06:37:29Z</time>
      </trkpt>
      <trkpt lat="44.18304" lon="6.74967">
        <ele>1226.051</ele>
        <time>2011-06-12T06:37:32Z</time>
      </trkpt>
      <trkpt lat="44.1831" lon="6.74973">
        <ele>1226.052</ele>
        <time>2011-06-12T06:37:36Z</time>
      </trkpt>
      <trkpt lat="44.18312" lon="6.74973">
        <ele>1226.292</ele>
        <time>2011-06-12T06:37:37Z</time>
      </trkpt>
      <trkpt lat="44.18322" lon="6.74973">
        <ele>1230.186</ele>
        <time>2011-06-12T06:37:44Z</time>
      </trkpt>
      <trkpt lat="44.18332" lon="6.74974">
        <ele>1232.506</ele>
        <time>2011-06-12T06:37:49Z</time>
      </trkpt>
      <trkpt lat="44.18337" lon="6.74974">
        <ele>1229.5</ele>
        <time>2011-06-12T06:37:54Z</time>
      </trkpt>
      <trkpt lat="44.18338" lon="6.74974">
        <ele>1228.559</ele>
        <time>2011-06-12T06:37:55Z</time>
      </trkpt>
      <trkpt lat="44.18341" lon="6.74975">
        <ele>1228.952</ele>
        <time>2011-06-12T06:38:01Z</time>
      </trkpt>
      <trkpt lat="44.18349" lon="6.74981">
        <ele>1230.924</ele>
        <time>2011-06-12T06:38:06Z</time>
      </trkpt>
      <trkpt lat="44.18358" lon="6.74986">
        <ele>1232.123</ele>
        <time>2011-06-12T06:38:11Z</time>
      </trkpt>
      <trkpt lat="44.1837" lon="6.74991">
        <ele>1232.372</ele>
        <time>2011-06-12T06:38:17Z</time>
      </trkpt>
      <trkpt lat="44.18383" lon="6.74994">
        <ele>1236.597</ele>
        <time>2011-06-12T06:38:24Z</time>
      </trkpt>
      <trkpt lat="44.18396" lon="6.74992">
        <ele>1240.178</ele>
        <time>2011-06-12T06:38:31Z</time>
      </trkpt>
      <trkpt lat="44.18408" lon="6.74992">
        <ele>1240.937</ele>
        <time>2011-06-12T06:38:38Z</time>
      </trkpt>
      <trkpt lat="44.18409" lon="6.74991">
        <ele>1240.887</ele>
        <time>2011-06-12T06:38:39Z</time>
      </trkpt>
      <trkpt lat="44.1842" lon="6.74985">
        <ele>1242.686</ele>
        <time>2011-06-12T06:38:47Z</time>
      </trkpt>
      <trkpt lat="44.18423" lon="6.74982">
        <ele>1242.865</ele>
        <time>2011-06-12T06:38:49Z</time>
      </trkpt>
      <trkpt lat="44.18437" lon="6.74981">
        <ele>1243.415</ele>
        <time>2011-06-12T06:38:57Z</time>
      </trkpt>
      <trkpt lat="44.18444" lon="6.74977">
        <ele>1245.428</ele>
        <time>2011-06-12T06:39:03Z</time>
      </trkpt>
      <trkpt lat="44.18453" lon="6.74976">
        <ele>1245.775</ele>
        <time>2011-06-12T06:39:09Z</time>
      </trkpt>
      <trkpt lat="44.18465" lon="6.74969">
        <ele>1244.614</ele>
        <time>2011-06-12T06:39:16Z</time>
      </trkpt>
      <trkpt lat="44.18476" lon="6.74966">
        <ele>1244.473</ele>
        <time>2011-06-12T06:39:22Z</time>
      </trkpt>
      <trkpt lat="44.18486" lon="6.74963">
        <ele>1245.504</ele>
        <time>2011-06-12T06:39:28Z</time>
      </trkpt>
      <trkpt lat="44.18498" lon="6.74958">
        <ele>1245.783</ele>
        <time>2011-06-12T06:39:34Z</time>
      </trkpt>
      <trkpt lat="44.18509" lon="6.74946">
        <ele>1245.354</ele>
        <time>2011-06-12T06:39:42Z</time>
      </trkpt>
      <trkpt lat="44.18517" lon="6.74936">
        <ele>1244.994</ele>
        <time>2011-06-12T06:39:47Z</time>
      </trkpt>
      <trkpt lat="44.18528" lon="6.74929">
        <ele>1245.673</ele>
        <time>2011-06-12T06:39:54Z</time>
      </trkpt>
      <trkpt lat="44.18542" lon="6.74922">
        <ele>1246.533</ele>
        <time>2011-06-12T06:40:02Z</time>
      </trkpt>
      <trkpt lat="44.18557" lon="6.74914">
        <ele>1247.614</ele>
        <time>2011-06-12T06:40:11Z</time>
      </trkpt>
      <trkpt lat="44.18565" lon="6.7491">
        <ele>1248.567</ele>
        <time>2011-06-12T06:40:17Z</time>
      </trkpt>
      <trkpt lat="44.18579" lon="6.74902">
        <ele>1251.887</ele>
        <time>2011-06-12T06:40:26Z</time>
      </trkpt>
      <trkpt lat="44.18588" lon="6.74892">
        <ele>1254.217</ele>
        <time>2011-06-12T06:40:33Z</time>
      </trkpt>
      <trkpt lat="44.18598" lon="6.74876">
        <ele>1256.315</ele>
        <time>2011-06-12T06:40:41Z</time>
      </trkpt>
      <trkpt lat="44.18598" lon="6.74873">
        <ele>1255.512</ele>
        <time>2011-06-12T06:40:46Z</time>
      </trkpt>
      <trkpt lat="44.18599" lon="6.74866">
        <ele>1255.933</ele>
        <time>2011-06-12T06:40:54Z</time>
      </trkpt>
      <trkpt lat="44.18599" lon="6.74866">
        <ele>1256.242</ele>
        <time>2011-06-12T06:40:55Z</time>
      </trkpt>
      <trkpt lat="44.18606" lon="6.7486">
        <ele>1256.943</ele>
        <time>2011-06-12T06:41:02Z</time>
      </trkpt>
      <trkpt lat="44.18611" lon="6.74861">
        <ele>1255.28</ele>
        <time>2011-06-12T06:41:06Z</time>
      </trkpt>
      <trkpt lat="44.18613" lon="6.74861">
        <ele>1256.142</ele>
        <time>2011-06-12T06:41:13Z</time>
      </trkpt>
      <trkpt lat="44.18615" lon="6.74862">
        <ele>1252.379</ele>
        <time>2011-06-12T06:41:23Z</time>
      </trkpt>
      <trkpt lat="44.18616" lon="6.74861">
        <ele>1250.488</ele>
        <time>2011-06-12T06:41:28Z</time>
      </trkpt>
      <trkpt lat="44.18617" lon="6.74858">
        <ele>1253.762</ele>
        <time>2011-06-12T06:41:36Z</time>
      </trkpt>
      <trkpt lat="44.1862" lon="6.7486">
        <ele>1250.109</ele>
        <time>2011-06-12T06:41:43Z</time>
      </trkpt>
      <trkpt lat="44.18629" lon="6.74862">
        <ele>1248.29</ele>
        <time>2011-06-12T06:41:48Z</time>
      </trkpt>
      <trkpt lat="44.1864" lon="6.74863">
        <ele>1251.193</ele>
        <time>2011-06-12T06:41:56Z</time>
      </trkpt>
      <trkpt lat="44.18651" lon="6.74865">
        <ele>1251.274</ele>
        <time>2011-06-12T06:42:02Z</time>
      </trkpt>
      <trkpt lat="44.18662" lon="6.74867">
        <ele>1251.955</ele>
        <time>2011-06-12T06:42:08Z</time>
      </trkpt>
      <trkpt lat="44.18674" lon="6.74868">
        <ele>1253.484</ele>
        <time>2011-06-12T06:42:14Z</time>
      </trkpt>
      <trkpt lat="44.18684" lon="6.7487">
        <ele>1258.328</ele>
        <time>2011-06-12T06:42:20Z</time>
      </trkpt>
      <trkpt lat="44.18686" lon="6.74871">
        <ele>1258.708</ele>
        <time>2011-06-12T06:42:21Z</time>
      </trkpt>
      <trkpt lat="44.18693" lon="6.7487">
        <ele>1258.663</ele>
        <time>2011-06-12T06:42:26Z</time>
      </trkpt>
      <trkpt lat="44.18698" lon="6.7487">
        <ele>1256.62</ele>
        <time>2011-06-12T06:42:33Z</time>
      </trkpt>
      <trkpt lat="44.187" lon="6.74867">
        <ele>1250.799</ele>
        <time>2011-06-12T06:42:47Z</time>
      </trkpt>
      <trkpt lat="44.18708" lon="6.74858">
        <ele>1250.482</ele>
        <time>2011-06-12T06:42:53Z</time>
      </trkpt>
      <trkpt lat="44.18712" lon="6.74849">
        <ele>1251.814</ele>
        <time>2011-06-12T06:42:58Z</time>
      </trkpt>
      <trkpt lat="44.18716" lon="6.74838">
        <ele>1253.584</ele>
        <time>2011-06-12T06:43:03Z</time>
      </trkpt>
      <trkpt lat="44.1872" lon="6.74825">
        <ele>1258.269</ele>
        <time>2011-06-12T06:43:10Z</time>
      </trkpt>
      <trkpt lat="44.1872" lon="6.74823">
        <ele>1259.898</ele>
        <time>2011-06-12T06:43:11Z</time>
      </trkpt>
      <trkpt lat="44.1873" lon="6.74818">
        <ele>1260.307</ele>
        <time>2011-06-12T06:43:16Z</time>
      </trkpt>
      <trkpt lat="44.18736" lon="6.74817">
        <ele>1257.472</ele>
        <time>2011-06-12T06:43:21Z</time>
      </trkpt>
      <trkpt lat="44.18746" lon="6.74828">
        <ele>1254.54</ele>
        <time>2011-06-12T06:43:28Z</time>
      </trkpt>
      <trkpt lat="44.18756" lon="6.74842">
        <ele>1255.611</ele>
        <time>2011-06-12T06:43:34Z</time>
      </trkpt>
      <trkpt lat="44.18758" lon="6.74845">
        <ele>1255.75</ele>
        <time>2011-06-12T06:43:36Z</time>
      </trkpt>
      <trkpt lat="44.18754" lon="6.74853">
        <ele>1253.059</ele>
        <time>2011-06-12T06:43:41Z</time>
      </trkpt>
      <trkpt lat="44.18746" lon="6.7486">
        <ele>1252.089</ele>
        <time>2011-06-12T06:43:45Z</time>
      </trkpt>
      <trkpt lat="44.18735" lon="6.7487">
        <ele>1253.912</ele>
        <time>2011-06-12T06:43:51Z</time>
      </trkpt>
      <trkpt lat="44.18731" lon="6.74875">
        <ele>1253.642</ele>
        <time>2011-06-12T06:43:54Z</time>
      </trkpt>
      <trkpt lat="44.18732" lon="6.74892">
        <ele>1255.973</ele>
        <time>2011-06-12T06:43:59Z</time>
      </trkpt>
      <trkpt lat="44.18733" lon="6.74895">
        <ele>1256.053</ele>
        <time>2011-06-12T06:44:00Z</time>
      </trkpt>
      <trkpt lat="44.18738" lon="6.7491">
        <ele>1264.531</ele>
        <time>2011-06-12T06:44:06Z</time>
      </trkpt>
      <trkpt lat="44.18744" lon="6.74913">
        <ele>1269.656</ele>
        <time>2011-06-12T06:44:10Z</time>
      </trkpt>
      <trkpt lat="44.18754" lon="6.74908">
        <ele>1273.421</ele>
        <time>2011-06-12T06:44:15Z</time>
      </trkpt>
      <trkpt lat="44.18773" lon="6.74905">
        <ele>1277.449</ele>
        <time>2011-06-12T06:44:24Z</time>
      </trkpt>
      <trkpt lat="44.18783" lon="6.74906">
        <ele>1278.639</ele>
        <time>2011-06-12T06:44:29Z</time>
      </trkpt>
      <trkpt lat="44.18786" lon="6.74909">
        <ele>1281.072</ele>
        <time>2011-06-12T06:44:31Z</time>
      </trkpt>
      <trkpt lat="44.18794" lon="6.7491">
        <ele>1281.81</ele>
        <time>2011-06-12T06:44:35Z</time>
      </trkpt>
      <trkpt lat="44.18809" lon="6.74909">
        <ele>1282.718</ele>
        <time>2011-06-12T06:44:42Z</time>
      </trkpt>
      <trkpt lat="44.18818" lon="6.74909">
        <ele>1288.852</ele>
        <time>2011-06-12T06:44:48Z</time>
      </trkpt>
      <trkpt lat="44.18828" lon="6.7491">
        <ele>1281.322</ele>
        <time>2011-06-12T06:44:52Z</time>
      </trkpt>
      <trkpt lat="44.18831" lon="6.74909">
        <ele>1278.591</ele>
        <time>2011-06-12T06:44:55Z</time>
      </trkpt>
      <trkpt lat="44.18829" lon="6.74908">
        <ele>1274.759</ele>
        <time>2011-06-12T06:44:59Z</time>
      </trkpt>
      <trkpt lat="44.18834" lon="6.74905">
        <ele>1274.252</ele>
        <time>2011-06-12T06:45:04Z</time>
      </trkpt>
      <trkpt lat="44.18837" lon="6.74906">
        <ele>1273.341</ele>
        <time>2011-06-12T06:45:07Z</time>
      </trkpt>
      <trkpt lat="44.18839" lon="6.74905">
        <ele>1272.591</ele>
        <time>2011-06-12T06:45:10Z</time>
      </trkpt>
      <trkpt lat="44.18837" lon="6.74902">
        <ele>1270.339</ele>
        <time>2011-06-12T06:45:13Z</time>
      </trkpt>
      <trkpt lat="44.18835" lon="6.74909">
        <ele>1267.489</ele>
        <time>2011-06-12T06:45:17Z</time>
      </trkpt>
      <trkpt lat="44.18833" lon="6.74909">
        <ele>1266.538</ele>
        <time>2011-06-12T06:45:18Z</time>
      </trkpt>
      <trkpt lat="44.18824" lon="6.74912">
        <ele>1264.777</ele>
        <time>2011-06-12T06:45:21Z</time>
      </trkpt>
      <trkpt lat="44.18819" lon="6.74918">
        <ele>1266.129</ele>
        <time>2011-06-12T06:45:25Z</time>
      </trkpt>
      <trkpt lat="44.18827" lon="6.74931">
        <ele>1266.051</ele>
        <time>2011-06-12T06:45:29Z</time>
      </trkpt>
      <trkpt lat="44.18831" lon="6.74934">
        <ele>1266.142</ele>
        <time>2011-06-12T06:45:30Z</time>
      </trkpt>
      <trkpt lat="44.1884" lon="6.74938">
        <ele>1267.103</ele>
        <time>2011-06-12T06:45:32Z</time>
      </trkpt>
      <trkpt lat="44.18851" lon="6.74956">
        <ele>1266.841</ele>
        <time>2011-06-12T06:45:36Z</time>
      </trkpt>
      <trkpt lat="44.18856" lon="6.74978">
        <ele>1264.968</ele>
        <time>2011-06-12T06:45:40Z</time>
      </trkpt>
      <trkpt lat="44.18858" lon="6.74984">
        <ele>1263.727</ele>
        <time>2011-06-12T06:45:41Z</time>
      </trkpt>
      <trkpt lat="44.18865" lon="6.74995">
        <ele>1262.469</ele>
        <time>2011-06-12T06:45:43Z</time>
      </trkpt>
      <trkpt lat="44.18868" lon="6.75012">
        <ele>1260.759</ele>
        <time>2011-06-12T06:45:47Z</time>
      </trkpt>
      <trkpt lat="44.18863" lon="6.75012">
        <ele>1259.638</ele>
        <time>2011-06-12T06:45:50Z</time>
      </trkpt>
      <trkpt lat="44.18846" lon="6.75009">
        <ele>1259.264</ele>
        <time>2011-06-12T06:45:58Z</time>
      </trkpt>
      <trkpt lat="44.18831" lon="6.75013">
        <ele>1258.583</ele>
        <time>2011-06-12T06:46:05Z</time>
      </trkpt>
      <trkpt lat="44.18817" lon="6.75019">
        <ele>1258.344</ele>
        <time>2011-06-12T06:46:13Z</time>
      </trkpt>
      <trkpt lat="44.188" lon="6.75027">
        <ele>1257.786</ele>
        <time>2011-06-12T06:46:22Z</time>
      </trkpt>
      <trkpt lat="44.18792" lon="6.75028">
        <ele>1261.849</ele>
        <time>2011-06-12T06:46:27Z</time>
      </trkpt>
      <trkpt lat="44.18778" lon="6.75032">
        <ele>1264.368</ele>
        <time>2011-06-12T06:46:34Z</time>
      </trkpt>
      <trkpt lat="44.18764" lon="6.7504">
        <ele>1267.75</ele>
        <time>2011-06-12T06:46:40Z</time>
      </trkpt>
      <trkpt lat="44.18749" lon="6.75052">
        <ele>1269.717</ele>
        <time>2011-06-12T06:46:47Z</time>
      </trkpt>
      <trkpt lat="44.18732" lon="6.75066">
        <ele>1273.119</ele>
        <time>2011-06-12T06:46:54Z</time>
      </trkpt>
      <trkpt lat="44.18715" lon="6.75072">
        <ele>1275.699</ele>
        <time>2011-06-12T06:47:01Z</time>
      </trkpt>
      <trkpt lat="44.18703" lon="6.75076">
        <ele>1274.524</ele>
        <time>2011-06-12T06:47:06Z</time>
      </trkpt>
      <trkpt lat="44.18691" lon="6.75076">
        <ele>1269.962</ele>
        <time>2011-06-12T06:47:12Z</time>
      </trkpt>
      <trkpt lat="44.18678" lon="6.75075">
        <ele>1268.46</ele>
        <time>2011-06-12T06:47:18Z</time>
      </trkpt>
      <trkpt lat="44.18664" lon="6.75074">
        <ele>1267.952</ele>
        <time>2011-06-12T06:47:24Z</time>
      </trkpt>
      <trkpt lat="44.18648" lon="6.75079">
        <ele>1267.974</ele>
        <time>2011-06-12T06:47:30Z</time>
      </trkpt>
      <trkpt lat="44.18628" lon="6.75086">
        <ele>1265.984</ele>
        <time>2011-06-12T06:47:38Z</time>
      </trkpt>
      <trkpt lat="44.18607" lon="6.75096">
        <ele>1266.915</ele>
        <time>2011-06-12T06:47:46Z</time>
      </trkpt>
      <trkpt lat="44.18587" lon="6.75111">
        <ele>1274.281</ele>
        <time>2011-06-12T06:47:54Z</time>
      </trkpt>
      <trkpt lat="44.1857" lon="6.75124">
        <ele>1273.827</ele>
        <time>2011-06-12T06:48:01Z</time>
      </trkpt>
      <trkpt lat="44.18554" lon="6.75132">
        <ele>1270.513</ele>
        <time>2011-06-12T06:48:07Z</time>
      </trkpt>
      <trkpt lat="44.18534" lon="6.7514">
        <ele>1268.402</ele>
        <time>2011-06-12T06:48:15Z</time>
      </trkpt>
      <trkpt lat="44.18517" lon="6.75146">
        <ele>1267.223</ele>
        <time>2011-06-12T06:48:22Z</time>
      </trkpt>
      <trkpt lat="44.18505" lon="6.75152">
        <ele>1270.848</ele>
        <time>2011-06-12T06:48:27Z</time>
      </trkpt>
      <trkpt lat="44.18492" lon="6.75159">
        <ele>1274.487</ele>
        <time>2011-06-12T06:48:33Z</time>
      </trkpt>
      <trkpt lat="44.18477" lon="6.75169">
        <ele>1278.551</ele>
        <time>2011-06-12T06:48:40Z</time>
      </trkpt>
      <trkpt lat="44.18464" lon="6.75177">
        <ele>1283.123</ele>
        <time>2011-06-12T06:48:46Z</time>
      </trkpt>
      <trkpt lat="44.18456" lon="6.75182">
        <ele>1279.937</ele>
        <time>2011-06-12T06:48:51Z</time>
      </trkpt>
      <trkpt lat="44.18453" lon="6.75185">
        <ele>1279.344</ele>
        <time>2011-06-12T06:48:53Z</time>
      </trkpt>
      <trkpt lat="44.18453" lon="6.75197">
        <ele>1279.115</ele>
        <time>2011-06-12T06:48:58Z</time>
      </trkpt>
      <trkpt lat="44.18461" lon="6.75199">
        <ele>1280.015</ele>
        <time>2011-06-12T06:49:03Z</time>
      </trkpt>
      <trkpt lat="44.18462" lon="6.75198">
        <ele>1280.094</ele>
        <time>2011-06-12T06:49:04Z</time>
      </trkpt>
      <trkpt lat="44.18475" lon="6.75192">
        <ele>1284.848</ele>
        <time>2011-06-12T06:49:12Z</time>
      </trkpt>
      <trkpt lat="44.18485" lon="6.75193">
        <ele>1286.145</ele>
        <time>2011-06-12T06:49:18Z</time>
      </trkpt>
      <trkpt lat="44.18496" lon="6.75196">
        <ele>1290.261</ele>
        <time>2011-06-12T06:49:25Z</time>
      </trkpt>
      <trkpt lat="44.18508" lon="6.752">
        <ele>1296.361</ele>
        <time>2011-06-12T06:49:33Z</time>
      </trkpt>
      <trkpt lat="44.18517" lon="6.75197">
        <ele>1295.47</ele>
        <time>2011-06-12T06:49:37Z</time>
      </trkpt>
      <trkpt lat="44.18529" lon="6.75196">
        <ele>1298.981</ele>
        <time>2011-06-12T06:49:45Z</time>
      </trkpt>
      <trkpt lat="44.18542" lon="6.75194">
        <ele>1301.491</ele>
        <time>2011-06-12T06:49:53Z</time>
      </trkpt>
      <trkpt lat="44.18549" lon="6.75194">
        <ele>1300.768</ele>
        <time>2011-06-12T06:49:57Z</time>
      </trkpt>
      <trkpt lat="44.1856" lon="6.75193">
        <ele>1303.608</ele>
        <time>2011-06-12T06:50:04Z</time>
      </trkpt>
      <trkpt lat="44.1857" lon="6.75193">
        <ele>1307.87</ele>
        <time>2011-06-12T06:50:11Z</time>
      </trkpt>
      <trkpt lat="44.18582" lon="6.75191">
        <ele>1309.488</ele>
        <time>2011-06-12T06:50:19Z</time>
      </trkpt>
      <trkpt lat="44.18593" lon="6.75189">
        <ele>1308.846</ele>
        <time>2011-06-12T06:50:26Z</time>
      </trkpt>
      <trkpt lat="44.18604" lon="6.75187">
        <ele>1311.877</ele>
        <time>2011-06-12T06:50:33Z</time>
      </trkpt>
      <trkpt lat="44.18617" lon="6.75183">
        <ele>1313.488</ele>
        <time>2011-06-12T06:50:42Z</time>
      </trkpt>
      <trkpt lat="44.18628" lon="6.75183">
        <ele>1312.045</ele>
        <time>2011-06-12T06:50:49Z</time>
      </trkpt>
      <trkpt lat="44.1863" lon="6.75183">
        <ele>1311.085</ele>
        <time>2011-06-12T06:50:50Z</time>
      </trkpt>
      <trkpt lat="44.18641" lon="6.75181">
        <ele>1309.855</ele>
        <time>2011-06-12T06:50:57Z</time>
      </trkpt>
      <trkpt lat="44.18642" lon="6.75181">
        <ele>1309.825</ele>
        <time>2011-06-12T06:50:58Z</time>
      </trkpt>
      <trkpt lat="44.18657" lon="6.75185">
        <ele>1311.836</ele>
        <time>2011-06-12T06:51:08Z</time>
      </trkpt>
      <trkpt lat="44.18667" lon="6.75186">
        <ele>1313.037</ele>
        <time>2011-06-12T06:51:15Z</time>
      </trkpt>
      <trkpt lat="44.18676" lon="6.7518">
        <ele>1313.594</ele>
        <time>2011-06-12T06:51:22Z</time>
      </trkpt>
      <trkpt lat="44.18688" lon="6.7518">
        <ele>1312.654</ele>
        <time>2011-06-12T06:51:30Z</time>
      </trkpt>
      <trkpt lat="44.18701" lon="6.75184">
        <ele>1312.555</ele>
        <time>2011-06-12T06:51:39Z</time>
      </trkpt>
      <trkpt lat="44.18709" lon="6.75182">
        <ele>1316.879</ele>
        <time>2011-06-12T06:51:45Z</time>
      </trkpt>
      <trkpt lat="44.1872" lon="6.7518">
        <ele>1317.287</ele>
        <time>2011-06-12T06:51:52Z</time>
      </trkpt>
      <trkpt lat="44.1873" lon="6.75176">
        <ele>1320.348</ele>
        <time>2011-06-12T06:51:59Z</time>
      </trkpt>
      <trkpt lat="44.18739" lon="6.75176">
        <ele>1319.866</ele>
        <time>2011-06-12T06:52:06Z</time>
      </trkpt>
      <trkpt lat="44.18749" lon="6.75174">
        <ele>1319.044</ele>
        <time>2011-06-12T06:52:13Z</time>
      </trkpt>
      <trkpt lat="44.18759" lon="6.75173">
        <ele>1321.927</ele>
        <time>2011-06-12T06:52:20Z</time>
      </trkpt>
      <trkpt lat="44.18774" lon="6.75169">
        <ele>1319.522</ele>
        <time>2011-06-12T06:52:30Z</time>
      </trkpt>
      <trkpt lat="44.18783" lon="6.75167">
        <ele>1319.283</ele>
        <time>2011-06-12T06:52:36Z</time>
      </trkpt>
      <trkpt lat="44.18797" lon="6.75164">
        <ele>1320.034</ele>
        <time>2011-06-12T06:52:46Z</time>
      </trkpt>
      <trkpt lat="44.18811" lon="6.7516">
        <ele>1319.403</ele>
        <time>2011-06-12T06:52:56Z</time>
      </trkpt>
      <trkpt lat="44.18813" lon="6.7516">
        <ele>1320.835</ele>
        <time>2011-06-12T06:52:58Z</time>
      </trkpt>
      <trkpt lat="44.18826" lon="6.75164">
        <ele>1323.015</ele>
        <time>2011-06-12T06:53:08Z</time>
      </trkpt>
      <trkpt lat="44.18836" lon="6.75171">
        <ele>1324.765</ele>
        <time>2011-06-12T06:53:16Z</time>
      </trkpt>
      <trkpt lat="44.18844" lon="6.75185">
        <ele>1325.132</ele>
        <time>2011-06-12T06:53:25Z</time>
      </trkpt>
      <trkpt lat="44.18842" lon="6.75196">
        <ele>1325.393</ele>
        <time>2011-06-12T06:53:32Z</time>
      </trkpt>
      <trkpt lat="44.18841" lon="6.75201">
        <ele>1327.015</ele>
        <time>2011-06-12T06:53:35Z</time>
      </trkpt>
      <trkpt lat="44.1884" lon="6.75205">
        <ele>1327.485</ele>
        <time>2011-06-12T06:53:37Z</time>
      </trkpt>
      <trkpt lat="44.18838" lon="6.75216">
        <ele>1327.896</ele>
        <time>2011-06-12T06:53:42Z</time>
      </trkpt>
      <trkpt lat="44.18837" lon="6.75222">
        <ele>1327.655</ele>
        <time>2011-06-12T06:53:44Z</time>
      </trkpt>
      <trkpt lat="44.18834" lon="6.75238">
        <ele>1333.868</ele>
        <time>2011-06-12T06:53:51Z</time>
      </trkpt>
      <trkpt lat="44.18837" lon="6.75256">
        <ele>1335.506</ele>
        <time>2011-06-12T06:53:58Z</time>
      </trkpt>
      <trkpt lat="44.18843" lon="6.75269">
        <ele>1334.323</ele>
        <time>2011-06-12T06:54:04Z</time>
      </trkpt>
      <trkpt lat="44.18852" lon="6.7529">
        <ele>1330.198</ele>
        <time>2011-06-12T06:54:13Z</time>
      </trkpt>
      <trkpt lat="44.1886" lon="6.75302">
        <ele>1327.627</ele>
        <time>2011-06-12T06:54:19Z</time>
      </trkpt>
      <trkpt lat="44.18869" lon="6.75311">
        <ele>1332.123</ele>
        <time>2011-06-12T06:54:26Z</time>
      </trkpt>
      <trkpt lat="44.18881" lon="6.75318">
        <ele>1333.906</ele>
        <time>2011-06-12T06:54:34Z</time>
      </trkpt>
      <trkpt lat="44.18892" lon="6.75324">
        <ele>1333.375</ele>
        <time>2011-06-12T06:54:41Z</time>
      </trkpt>
      <trkpt lat="44.18902" lon="6.75332">
        <ele>1330.441</ele>
        <time>2011-06-12T06:54:47Z</time>
      </trkpt>
      <trkpt lat="44.18912" lon="6.75342">
        <ele>1331.963</ele>
        <time>2011-06-12T06:54:54Z</time>
      </trkpt>
      <trkpt lat="44.18925" lon="6.75354">
        <ele>1332.724</ele>
        <time>2011-06-12T06:55:02Z</time>
      </trkpt>
      <trkpt lat="44.18941" lon="6.75366">
        <ele>1334.434</ele>
        <time>2011-06-12T06:55:11Z</time>
      </trkpt>
      <trkpt lat="44.18954" lon="6.7537">
        <ele>1339.969</ele>
        <time>2011-06-12T06:55:19Z</time>
      </trkpt>
      <trkpt lat="44.18971" lon="6.75373">
        <ele>1339.365</ele>
        <time>2011-06-12T06:55:27Z</time>
      </trkpt>
      <trkpt lat="44.18973" lon="6.75375">
        <ele>1339.044</ele>
        <time>2011-06-12T06:55:28Z</time>
      </trkpt>
      <trkpt lat="44.18968" lon="6.75385">
        <ele>1340.496</ele>
        <time>2011-06-12T06:55:34Z</time>
      </trkpt>
      <trkpt lat="44.18964" lon="6.75385">
        <ele>1337.873</ele>
        <time>2011-06-12T06:55:37Z</time>
      </trkpt>
      <trkpt lat="44.1895" lon="6.75379">
        <ele>1337.274</ele>
        <time>2011-06-12T06:55:46Z</time>
      </trkpt>
      <trkpt lat="44.18938" lon="6.75375">
        <ele>1340.036</ele>
        <time>2011-06-12T06:55:53Z</time>
      </trkpt>
      <trkpt lat="44.18928" lon="6.75369">
        <ele>1342.437</ele>
        <time>2011-06-12T06:56:00Z</time>
      </trkpt>
      <trkpt lat="44.18915" lon="6.75359">
        <ele>1346.829</ele>
        <time>2011-06-12T06:56:09Z</time>
      </trkpt>
      <trkpt lat="44.18901" lon="6.75355">
        <ele>1346.796</ele>
        <time>2011-06-12T06:56:17Z</time>
      </trkpt>
      <trkpt lat="44.18886" lon="6.75353">
        <ele>1347.286</ele>
        <time>2011-06-12T06:56:26Z</time>
      </trkpt>
      <trkpt lat="44.18872" lon="6.75354">
        <ele>1346.043</ele>
        <time>2011-06-12T06:56:34Z</time>
      </trkpt>
      <trkpt lat="44.1886" lon="6.75351">
        <ele>1347.855</ele>
        <time>2011-06-12T06:56:41Z</time>
      </trkpt>
      <trkpt lat="44.18848" lon="6.75351">
        <ele>1345.753</ele>
        <time>2011-06-12T06:56:48Z</time>
      </trkpt>
      <trkpt lat="44.18841" lon="6.7535">
        <ele>1349.296</ele>
        <time>2011-06-12T06:56:54Z</time>
      </trkpt>
      <trkpt lat="44.18832" lon="6.75342">
        <ele>1355.561</ele>
        <time>2011-06-12T06:56:59Z</time>
      </trkpt>
      <trkpt lat="44.1882" lon="6.75334">
        <ele>1354.917</ele>
        <time>2011-06-12T06:57:06Z</time>
      </trkpt>
      <trkpt lat="44.18812" lon="6.75326">
        <ele>1351.773</ele>
        <time>2011-06-12T06:57:12Z</time>
      </trkpt>
      <trkpt lat="44.18803" lon="6.75319">
        <ele>1353.073</ele>
        <time>2011-06-12T06:57:19Z</time>
      </trkpt>
      <trkpt lat="44.18793" lon="6.75309">
        <ele>1356.165</ele>
        <time>2011-06-12T06:57:26Z</time>
      </trkpt>
      <trkpt lat="44.18782" lon="6.75301">
        <ele>1361.569</ele>
        <time>2011-06-12T06:57:33Z</time>
      </trkpt>
      <trkpt lat="44.1877" lon="6.75298">
        <ele>1360.779</ele>
        <time>2011-06-12T06:57:40Z</time>
      </trkpt>
      <trkpt lat="44.18759" lon="6.75297">
        <ele>1361.617</ele>
        <time>2011-06-12T06:57:47Z</time>
      </trkpt>
      <trkpt lat="44.18747" lon="6.753">
        <ele>1361.416</ele>
        <time>2011-06-12T06:57:54Z</time>
      </trkpt>
      <trkpt lat="44.18736" lon="6.75306">
        <ele>1363.867</ele>
        <time>2011-06-12T06:58:01Z</time>
      </trkpt>
      <trkpt lat="44.18724" lon="6.75314">
        <ele>1359.753</ele>
        <time>2011-06-12T06:58:09Z</time>
      </trkpt>
      <trkpt lat="44.18709" lon="6.75324">
        <ele>1353.522</ele>
        <time>2011-06-12T06:58:18Z</time>
      </trkpt>
      <trkpt lat="44.18696" lon="6.7533">
        <ele>1355.166</ele>
        <time>2011-06-12T06:58:26Z</time>
      </trkpt>
      <trkpt lat="44.18689" lon="6.75333">
        <ele>1355.586</ele>
        <time>2011-06-12T06:58:30Z</time>
      </trkpt>
      <trkpt lat="44.18682" lon="6.75339">
        <ele>1354.846</ele>
        <time>2011-06-12T06:58:34Z</time>
      </trkpt>
      <trkpt lat="44.18668" lon="6.75345">
        <ele>1355.455</ele>
        <time>2011-06-12T06:58:41Z</time>
      </trkpt>
      <trkpt lat="44.18651" lon="6.75354">
        <ele>1356.427</ele>
        <time>2011-06-12T06:58:50Z</time>
      </trkpt>
      <trkpt lat="44.18639" lon="6.7536">
        <ele>1360.57</ele>
        <time>2011-06-12T06:58:57Z</time>
      </trkpt>
      <trkpt lat="44.18623" lon="6.75366">
        <ele>1363.6</ele>
        <time>2011-06-12T06:59:06Z</time>
      </trkpt>
      <trkpt lat="44.18609" lon="6.75373">
        <ele>1367.88</ele>
        <time>2011-06-12T06:59:14Z</time>
      </trkpt>
      <trkpt lat="44.18599" lon="6.75378">
        <ele>1371.771</ele>
        <time>2011-06-12T06:59:20Z</time>
      </trkpt>
      <trkpt lat="44.18588" lon="6.75381">
        <ele>1370.958</ele>
        <time>2011-06-12T06:59:27Z</time>
      </trkpt>
      <trkpt lat="44.18573" lon="6.75381">
        <ele>1370.175</ele>
        <time>2011-06-12T06:59:35Z</time>
      </trkpt>
      <trkpt lat="44.18568" lon="6.75389">
        <ele>1373.441</ele>
        <time>2011-06-12T06:59:40Z</time>
      </trkpt>
      <trkpt lat="44.18568" lon="6.75393">
        <ele>1375.63</ele>
        <time>2011-06-12T06:59:42Z</time>
      </trkpt>
      <trkpt lat="44.18575" lon="6.75397">
        <ele>1381.45</ele>
        <time>2011-06-12T06:59:48Z</time>
      </trkpt>
      <trkpt lat="44.18578" lon="6.75397">
        <ele>1382.68</ele>
        <time>2011-06-12T06:59:49Z</time>
      </trkpt>
      <trkpt lat="44.18591" lon="6.75394">
        <ele>1388.2</ele>
        <time>2011-06-12T06:59:57Z</time>
      </trkpt>
      <trkpt lat="44.186" lon="6.75397">
        <ele>1387.447</ele>
        <time>2011-06-12T07:00:02Z</time>
      </trkpt>
      <trkpt lat="44.18612" lon="6.75403">
        <ele>1391.47</ele>
        <time>2011-06-12T07:00:10Z</time>
      </trkpt>
      <trkpt lat="44.18626" lon="6.75408">
        <ele>1390.635</ele>
        <time>2011-06-12T07:00:18Z</time>
      </trkpt>
      <trkpt lat="44.18641" lon="6.75406">
        <ele>1390.503</ele>
        <time>2011-06-12T07:00:26Z</time>
      </trkpt>
      <trkpt lat="44.18655" lon="6.75406">
        <ele>1389.973</ele>
        <time>2011-06-12T07:00:33Z</time>
      </trkpt>
      <trkpt lat="44.18658" lon="6.75407">
        <ele>1389.923</ele>
        <time>2011-06-12T07:00:35Z</time>
      </trkpt>
      <trkpt lat="44.18674" lon="6.75407">
        <ele>1386.832</ele>
        <time>2011-06-12T07:00:43Z</time>
      </trkpt>
      <trkpt lat="44.18688" lon="6.75409">
        <ele>1384.551</ele>
        <time>2011-06-12T07:00:50Z</time>
      </trkpt>
      <trkpt lat="44.18701" lon="6.75409">
        <ele>1388.175</ele>
        <time>2011-06-12T07:00:57Z</time>
      </trkpt>
      <trkpt lat="44.18711" lon="6.7541">
        <ele>1388.204</ele>
        <time>2011-06-12T07:01:02Z</time>
      </trkpt>
      <trkpt lat="44.18723" lon="6.75413">
        <ele>1393.92</ele>
        <time>2011-06-12T07:01:09Z</time>
      </trkpt>
      <trkpt lat="44.18733" lon="6.75412">
        <ele>1400.382</ele>
        <time>2011-06-12T07:01:16Z</time>
      </trkpt>
      <trkpt lat="44.18744" lon="6.75408">
        <ele>1402.219</ele>
        <time>2011-06-12T07:01:23Z</time>
      </trkpt>
      <trkpt lat="44.18761" lon="6.75414">
        <ele>1392.592</ele>
        <time>2011-06-12T07:01:32Z</time>
      </trkpt>
      <trkpt lat="44.18768" lon="6.75431">
        <ele>1389.002</ele>
        <time>2011-06-12T07:01:39Z</time>
      </trkpt>
      <trkpt lat="44.18771" lon="6.75442">
        <ele>1393.217</ele>
        <time>2011-06-12T07:01:45Z</time>
      </trkpt>
      <trkpt lat="44.18771" lon="6.75443">
        <ele>1393.256</ele>
        <time>2011-06-12T07:01:46Z</time>
      </trkpt>
      <trkpt lat="44.18774" lon="6.75462">
        <ele>1389.711</ele>
        <time>2011-06-12T07:01:55Z</time>
      </trkpt>
      <trkpt lat="44.18781" lon="6.75473">
        <ele>1389.533</ele>
        <time>2011-06-12T07:02:02Z</time>
      </trkpt>
      <trkpt lat="44.18791" lon="6.75483">
        <ele>1391.736</ele>
        <time>2011-06-12T07:02:10Z</time>
      </trkpt>
      <trkpt lat="44.18804" lon="6.7549">
        <ele>1397.909</ele>
        <time>2011-06-12T07:02:18Z</time>
      </trkpt>
      <trkpt lat="44.18813" lon="6.75499">
        <ele>1402.36</ele>
        <time>2011-06-12T07:02:25Z</time>
      </trkpt>
      <trkpt lat="44.1882" lon="6.75508">
        <ele>1402.989</ele>
        <time>2011-06-12T07:02:31Z</time>
      </trkpt>
      <trkpt lat="44.1883" lon="6.75519">
        <ele>1402.535</ele>
        <time>2011-06-12T07:02:39Z</time>
      </trkpt>
      <trkpt lat="44.18836" lon="6.75521">
        <ele>1402.505</ele>
        <time>2011-06-12T07:02:43Z</time>
      </trkpt>
      <trkpt lat="44.18847" lon="6.75527">
        <ele>1401.935</ele>
        <time>2011-06-12T07:02:51Z</time>
      </trkpt>
      <trkpt lat="44.18859" lon="6.75537">
        <ele>1402.095</ele>
        <time>2011-06-12T07:03:00Z</time>
      </trkpt>
      <trkpt lat="44.18867" lon="6.75544">
        <ele>1400.634</ele>
        <time>2011-06-12T07:03:06Z</time>
      </trkpt>
      <trkpt lat="44.18877" lon="6.75551">
        <ele>1402.446</ele>
        <time>2011-06-12T07:03:13Z</time>
      </trkpt>
      <trkpt lat="44.18891" lon="6.75559">
        <ele>1398.452</ele>
        <time>2011-06-12T07:03:22Z</time>
      </trkpt>
      <trkpt lat="44.18904" lon="6.75559">
        <ele>1405.416</ele>
        <time>2011-06-12T07:03:29Z</time>
      </trkpt>
      <trkpt lat="44.18916" lon="6.75563">
        <ele>1409.64</ele>
        <time>2011-06-12T07:03:36Z</time>
      </trkpt>
      <trkpt lat="44.1893" lon="6.75565">
        <ele>1414.59</ele>
        <time>2011-06-12T07:03:45Z</time>
      </trkpt>
      <trkpt lat="44.18939" lon="6.75575">
        <ele>1413.117</ele>
        <time>2011-06-12T07:03:51Z</time>
      </trkpt>
      <trkpt lat="44.18937" lon="6.75592">
        <ele>1415.278</ele>
        <time>2011-06-12T07:03:58Z</time>
      </trkpt>
      <trkpt lat="44.18933" lon="6.756">
        <ele>1415.067</ele>
        <time>2011-06-12T07:04:03Z</time>
      </trkpt>
      <trkpt lat="44.18924" lon="6.75602">
        <ele>1412.133</ele>
        <time>2011-06-12T07:04:09Z</time>
      </trkpt>
      <trkpt lat="44.18922" lon="6.75602">
        <ele>1408.878</ele>
        <time>2011-06-12T07:04:12Z</time>
      </trkpt>
      <trkpt lat="44.18909" lon="6.75598">
        <ele>1408.569</ele>
        <time>2011-06-12T07:04:20Z</time>
      </trkpt>
      <trkpt lat="44.18895" lon="6.75587">
        <ele>1408.211</ele>
        <time>2011-06-12T07:04:29Z</time>
      </trkpt>
      <trkpt lat="44.18883" lon="6.75577">
        <ele>1411.242</ele>
        <time>2011-06-12T07:04:37Z</time>
      </trkpt>
      <trkpt lat="44.18874" lon="6.75576">
        <ele>1410.444</ele>
        <time>2011-06-12T07:04:43Z</time>
      </trkpt>
      <trkpt lat="44.18863" lon="6.75576">
        <ele>1408.152</ele>
        <time>2011-06-12T07:04:50Z</time>
      </trkpt>
      <trkpt lat="44.1885" lon="6.75582">
        <ele>1407.834</ele>
        <time>2011-06-12T07:04:58Z</time>
      </trkpt>
      <trkpt lat="44.18836" lon="6.7559">
        <ele>1409.247</ele>
        <time>2011-06-12T07:05:07Z</time>
      </trkpt>
      <trkpt lat="44.18826" lon="6.75594">
        <ele>1408.626</ele>
        <time>2011-06-12T07:05:13Z</time>
      </trkpt>
      <trkpt lat="44.18818" lon="6.75594">
        <ele>1407.133</ele>
        <time>2011-06-12T07:05:18Z</time>
      </trkpt>
      <trkpt lat="44.18809" lon="6.75594">
        <ele>1404.812</ele>
        <time>2011-06-12T07:05:23Z</time>
      </trkpt>
      <trkpt lat="44.18795" lon="6.75583">
        <ele>1409.596</ele>
        <time>2011-06-12T07:05:32Z</time>
      </trkpt>
      <trkpt lat="44.18787" lon="6.75575">
        <ele>1413.406</ele>
        <time>2011-06-12T07:05:39Z</time>
      </trkpt>
      <trkpt lat="44.18777" lon="6.75566">
        <ele>1421.45</ele>
        <time>2011-06-12T07:05:46Z</time>
      </trkpt>
      <trkpt lat="44.18765" lon="6.75556">
        <ele>1429.533</ele>
        <time>2011-06-12T07:05:53Z</time>
      </trkpt>
      <trkpt lat="44.18757" lon="6.75543">
        <ele>1430.296</ele>
        <time>2011-06-12T07:06:01Z</time>
      </trkpt>
      <trkpt lat="44.1875" lon="6.75532">
        <ele>1429.324</ele>
        <time>2011-06-12T07:06:08Z</time>
      </trkpt>
      <trkpt lat="44.18747" lon="6.75529">
        <ele>1430.266</ele>
        <time>2011-06-12T07:06:10Z</time>
      </trkpt>
      <trkpt lat="44.1874" lon="6.75521">
        <ele>1429.983</ele>
        <time>2011-06-12T07:06:15Z</time>
      </trkpt>
      <trkpt lat="44.18735" lon="6.75517">
        <ele>1429.312</ele>
        <time>2011-06-12T07:06:18Z</time>
      </trkpt>
      <trkpt lat="44.18716" lon="6.75519">
        <ele>1426.173</ele>
        <time>2011-06-12T07:06:28Z</time>
      </trkpt>
      <trkpt lat="44.18702" lon="6.75525">
        <ele>1425.416</ele>
        <time>2011-06-12T07:06:36Z</time>
      </trkpt>
      <trkpt lat="44.18692" lon="6.75532">
        <ele>1423.903</ele>
        <time>2011-06-12T07:06:42Z</time>
      </trkpt>
      <trkpt lat="44.18683" lon="6.75538">
        <ele>1421.552</ele>
        <time>2011-06-12T07:06:48Z</time>
      </trkpt>
      <trkpt lat="44.18671" lon="6.75546">
        <ele>1422.234</ele>
        <time>2011-06-12T07:06:55Z</time>
      </trkpt>
      <trkpt lat="44.18659" lon="6.75558">
        <ele>1422.544</ele>
        <time>2011-06-12T07:07:03Z</time>
      </trkpt>
      <trkpt lat="44.1865" lon="6.75569">
        <ele>1425.178</ele>
        <time>2011-06-12T07:07:10Z</time>
      </trkpt>
      <trkpt lat="44.18636" lon="6.75574">
        <ele>1427.646</ele>
        <time>2011-06-12T07:07:18Z</time>
      </trkpt>
      <trkpt lat="44.18623" lon="6.75575">
        <ele>1425.964</ele>
        <time>2011-06-12T07:07:26Z</time>
      </trkpt>
      <trkpt lat="44.18608" lon="6.75577">
        <ele>1426.585</ele>
        <time>2011-06-12T07:07:35Z</time>
      </trkpt>
      <trkpt lat="44.186" lon="6.75576">
        <ele>1431.717</ele>
        <time>2011-06-12T07:07:41Z</time>
      </trkpt>
      <trkpt lat="44.18596" lon="6.75576">
        <ele>1434.029</ele>
        <time>2011-06-12T07:07:44Z</time>
      </trkpt>
      <trkpt lat="44.18589" lon="6.75585">
        <ele>1436.908</ele>
        <time>2011-06-12T07:07:50Z</time>
      </trkpt>
      <trkpt lat="44.18593" lon="6.75596">
        <ele>1441.369</ele>
        <time>2011-06-12T07:07:55Z</time>
      </trkpt>
      <trkpt lat="44.18598" lon="6.75598">
        <ele>1442.308</ele>
        <time>2011-06-12T07:07:58Z</time>
      </trkpt>
      <trkpt lat="44.18612" lon="6.756">
        <ele>1441.965</ele>
        <time>2011-06-12T07:08:06Z</time>
      </trkpt>
      <trkpt lat="44.18626" lon="6.75612">
        <ele>1446.706</ele>
        <time>2011-06-12T07:08:15Z</time>
      </trkpt>
      <trkpt lat="44.18637" lon="6.75617">
        <ele>1449.927</ele>
        <time>2011-06-12T07:08:22Z</time>
      </trkpt>
      <trkpt lat="44.1865" lon="6.75621">
        <ele>1449.805</ele>
        <time>2011-06-12T07:08:30Z</time>
      </trkpt>
      <trkpt lat="44.18664" lon="6.75624">
        <ele>1449.035</ele>
        <time>2011-06-12T07:08:38Z</time>
      </trkpt>
      <trkpt lat="44.18675" lon="6.75626">
        <ele>1450.605</ele>
        <time>2011-06-12T07:08:45Z</time>
      </trkpt>
      <trkpt lat="44.18686" lon="6.75625">
        <ele>1453.269</ele>
        <time>2011-06-12T07:08:51Z</time>
      </trkpt>
      <trkpt lat="44.18697" lon="6.75629">
        <ele>1453.957</ele>
        <time>2011-06-12T07:08:58Z</time>
      </trkpt>
      <trkpt lat="44.18707" lon="6.7563">
        <ele>1463.555</ele>
        <time>2011-06-12T07:09:04Z</time>
      </trkpt>
      <trkpt lat="44.18715" lon="6.75626">
        <ele>1464.899</ele>
        <time>2011-06-12T07:09:10Z</time>
      </trkpt>
      <trkpt lat="44.18718" lon="6.75625">
        <ele>1463.656</ele>
        <time>2011-06-12T07:09:12Z</time>
      </trkpt>
      <trkpt lat="44.18726" lon="6.75627">
        <ele>1462.965</ele>
        <time>2011-06-12T07:09:17Z</time>
      </trkpt>
      <trkpt lat="44.18738" lon="6.75632">
        <ele>1466.039</ele>
        <time>2011-06-12T07:09:25Z</time>
      </trkpt>
      <trkpt lat="44.18741" lon="6.75634">
        <ele>1463.884</ele>
        <time>2011-06-12T07:09:27Z</time>
      </trkpt>
      <trkpt lat="44.18746" lon="6.75637">
        <ele>1463.165</ele>
        <time>2011-06-12T07:09:31Z</time>
      </trkpt>
      <trkpt lat="44.18749" lon="6.75645">
        <ele>1463.135</ele>
        <time>2011-06-12T07:09:36Z</time>
      </trkpt>
      <trkpt lat="44.18742" lon="6.75657">
        <ele>1466.437</ele>
        <time>2011-06-12T07:09:44Z</time>
      </trkpt>
      <trkpt lat="44.18732" lon="6.75661">
        <ele>1465.904</ele>
        <time>2011-06-12T07:09:50Z</time>
      </trkpt>
      <trkpt lat="44.18723" lon="6.75668">
        <ele>1464.723</ele>
        <time>2011-06-12T07:09:56Z</time>
      </trkpt>
      <trkpt lat="44.18714" lon="6.75679">
        <ele>1464.464</ele>
        <time>2011-06-12T07:10:03Z</time>
      </trkpt>
      <trkpt lat="44.18702" lon="6.75693">
        <ele>1468.047</ele>
        <time>2011-06-12T07:10:11Z</time>
      </trkpt>
      <trkpt lat="44.18691" lon="6.75703">
        <ele>1466.796</ele>
        <time>2011-06-12T07:10:19Z</time>
      </trkpt>
      <trkpt lat="44.18682" lon="6.75713">
        <ele>1464.064</ele>
        <time>2011-06-12T07:10:26Z</time>
      </trkpt>
      <trkpt lat="44.1867" lon="6.75721">
        <ele>1462.275</ele>
        <time>2011-06-12T07:10:34Z</time>
      </trkpt>
      <trkpt lat="44.18661" lon="6.75728">
        <ele>1467.79</ele>
        <time>2011-06-12T07:10:39Z</time>
      </trkpt>
      <trkpt lat="44.18649" lon="6.75737">
        <ele>1464.815</ele>
        <time>2011-06-12T07:10:46Z</time>
      </trkpt>
      <trkpt lat="44.18637" lon="6.75747">
        <ele>1459.723</ele>
        <time>2011-06-12T07:10:53Z</time>
      </trkpt>
      <trkpt lat="44.18624" lon="6.75754">
        <ele>1462.335</ele>
        <time>2011-06-12T07:11:00Z</time>
      </trkpt>
      <trkpt lat="44.18609" lon="6.75761">
        <ele>1459.964</ele>
        <time>2011-06-12T07:11:08Z</time>
      </trkpt>
      <trkpt lat="44.18597" lon="6.75764">
        <ele>1454.161</ele>
        <time>2011-06-12T07:11:15Z</time>
      </trkpt>
      <trkpt lat="44.18586" lon="6.75768">
        <ele>1454.182</ele>
        <time>2011-06-12T07:11:21Z</time>
      </trkpt>
      <trkpt lat="44.18586" lon="6.7577">
        <ele>1455.303</ele>
        <time>2011-06-12T07:11:22Z</time>
      </trkpt>
      <trkpt lat="44.18592" lon="6.75783">
        <ele>1459.385</ele>
        <time>2011-06-12T07:11:29Z</time>
      </trkpt>
      <trkpt lat="44.18594" lon="6.75783">
        <ele>1459.715</ele>
        <time>2011-06-12T07:11:30Z</time>
      </trkpt>
      <trkpt lat="44.18615" lon="6.75776">
        <ele>1474.141</ele>
        <time>2011-06-12T07:11:41Z</time>
      </trkpt>
      <trkpt lat="44.18632" lon="6.75768">
        <ele>1482.357</ele>
        <time>2011-06-12T07:11:50Z</time>
      </trkpt>
      <trkpt lat="44.18643" lon="6.75762">
        <ele>1484.426</ele>
        <time>2011-06-12T07:11:57Z</time>
      </trkpt>
      <trkpt lat="44.18644" lon="6.75761">
        <ele>1485.399</ele>
        <time>2011-06-12T07:11:58Z</time>
      </trkpt>
      <trkpt lat="44.18648" lon="6.75758">
        <ele>1489.13</ele>
        <time>2011-06-12T07:12:03Z</time>
      </trkpt>
      <trkpt lat="44.18652" lon="6.75758">
        <ele>1491.3</ele>
        <time>2011-06-12T07:12:06Z</time>
      </trkpt>
      <trkpt lat="44.18657" lon="6.75755">
        <ele>1491.407</ele>
        <time>2011-06-12T07:12:13Z</time>
      </trkpt>
      <trkpt lat="44.18659" lon="6.75756">
        <ele>1488.553</ele>
        <time>2011-06-12T07:12:18Z</time>
      </trkpt>
      <trkpt lat="44.18671" lon="6.75754">
        <ele>1493.282</ele>
        <time>2011-06-12T07:12:26Z</time>
      </trkpt>
      <trkpt lat="44.18681" lon="6.7575">
        <ele>1491.425</ele>
        <time>2011-06-12T07:12:32Z</time>
      </trkpt>
      <trkpt lat="44.18696" lon="6.75744">
        <ele>1485.441</ele>
        <time>2011-06-12T07:12:39Z</time>
      </trkpt>
      <trkpt lat="44.18713" lon="6.75738">
        <ele>1481.118</ele>
        <time>2011-06-12T07:12:47Z</time>
      </trkpt>
      <trkpt lat="44.18727" lon="6.75731">
        <ele>1483.519</ele>
        <time>2011-06-12T07:12:54Z</time>
      </trkpt>
      <trkpt lat="44.1874" lon="6.75725">
        <ele>1482.489</ele>
        <time>2011-06-12T07:13:00Z</time>
      </trkpt>
      <trkpt lat="44.18747" lon="6.75721">
        <ele>1482.543</ele>
        <time>2011-06-12T07:13:04Z</time>
      </trkpt>
      <trkpt lat="44.18756" lon="6.7573">
        <ele>1483.464</ele>
        <time>2011-06-12T07:13:10Z</time>
      </trkpt>
      <trkpt lat="44.1875" lon="6.75738">
        <ele>1483.304</ele>
        <time>2011-06-12T07:13:15Z</time>
      </trkpt>
      <trkpt lat="44.18735" lon="6.75747">
        <ele>1478.641</ele>
        <time>2011-06-12T07:13:24Z</time>
      </trkpt>
      <trkpt lat="44.18725" lon="6.75755">
        <ele>1473.88</ele>
        <time>2011-06-12T07:13:31Z</time>
      </trkpt>
      <trkpt lat="44.18714" lon="6.75763">
        <ele>1470.541</ele>
        <time>2011-06-12T07:13:38Z</time>
      </trkpt>
      <trkpt lat="44.18702" lon="6.75771">
        <ele>1468.522</ele>
        <time>2011-06-12T07:13:46Z</time>
      </trkpt>
      <trkpt lat="44.18692" lon="6.75778">
        <ele>1468.334</ele>
        <time>2011-06-12T07:13:53Z</time>
      </trkpt>
      <trkpt lat="44.18681" lon="6.75784">
        <ele>1474.909</ele>
        <time>2011-06-12T07:14:00Z</time>
      </trkpt>
      <trkpt lat="44.1867" lon="6.75791">
        <ele>1481.221</ele>
        <time>2011-06-12T07:14:07Z</time>
      </trkpt>
      <trkpt lat="44.18659" lon="6.758">
        <ele>1482.889</ele>
        <time>2011-06-12T07:14:15Z</time>
      </trkpt>
      <trkpt lat="44.18647" lon="6.75814">
        <ele>1472.603</ele>
        <time>2011-06-12T07:14:24Z</time>
      </trkpt>
      <trkpt lat="44.18638" lon="6.75822">
        <ele>1478.815</ele>
        <time>2011-06-12T07:14:31Z</time>
      </trkpt>
      <trkpt lat="44.18628" lon="6.75832">
        <ele>1481.416</ele>
        <time>2011-06-12T07:14:38Z</time>
      </trkpt>
      <trkpt lat="44.18617" lon="6.75841">
        <ele>1482.015</ele>
        <time>2011-06-12T07:14:45Z</time>
      </trkpt>
      <trkpt lat="44.18604" lon="6.7585">
        <ele>1480.466</ele>
        <time>2011-06-12T07:14:53Z</time>
      </trkpt>
      <trkpt lat="44.18591" lon="6.75858">
        <ele>1472.943</ele>
        <time>2011-06-12T07:15:01Z</time>
      </trkpt>
      <trkpt lat="44.18582" lon="6.75861">
        <ele>1469.683</ele>
        <time>2011-06-12T07:15:07Z</time>
      </trkpt>
      <trkpt lat="44.18568" lon="6.75859">
        <ele>1466.484</ele>
        <time>2011-06-12T07:15:15Z</time>
      </trkpt>
      <trkpt lat="44.18562" lon="6.75859">
        <ele>1468.507</ele>
        <time>2011-06-12T07:15:18Z</time>
      </trkpt>
      <trkpt lat="44.18562" lon="6.75869">
        <ele>1474.718</ele>
        <time>2011-06-12T07:15:23Z</time>
      </trkpt>
      <trkpt lat="44.18567" lon="6.75872">
        <ele>1476.427</ele>
        <time>2011-06-12T07:15:26Z</time>
      </trkpt>
      <trkpt lat="44.18584" lon="6.75871">
        <ele>1488.664</ele>
        <time>2011-06-12T07:15:36Z</time>
      </trkpt>
      <trkpt lat="44.18596" lon="6.75871">
        <ele>1500.529</ele>
        <time>2011-06-12T07:15:43Z</time>
      </trkpt>
      <trkpt lat="44.1861" lon="6.75873">
        <ele>1506.933</ele>
        <time>2011-06-12T07:15:52Z</time>
      </trkpt>
      <trkpt lat="44.18622" lon="6.75873">
        <ele>1511.13</ele>
        <time>2011-06-12T07:15:59Z</time>
      </trkpt>
      <trkpt lat="44.18631" lon="6.75873">
        <ele>1517.013</ele>
        <time>2011-06-12T07:16:06Z</time>
      </trkpt>
      <trkpt lat="44.18643" lon="6.75868">
        <ele>1517.739</ele>
        <time>2011-06-12T07:16:14Z</time>
      </trkpt>
      <trkpt lat="44.18646" lon="6.75867">
        <ele>1518.369</ele>
        <time>2011-06-12T07:16:16Z</time>
      </trkpt>
      <trkpt lat="44.1865" lon="6.75878">
        <ele>1518.738</ele>
        <time>2011-06-12T07:16:22Z</time>
      </trkpt>
      <trkpt lat="44.18646" lon="6.75882">
        <ele>1518.727</ele>
        <time>2011-06-12T07:16:25Z</time>
      </trkpt>
      <trkpt lat="44.18632" lon="6.75892">
        <ele>1512.783</ele>
        <time>2011-06-12T07:16:35Z</time>
      </trkpt>
      <trkpt lat="44.18619" lon="6.75907">
        <ele>1508.792</ele>
        <time>2011-06-12T07:16:44Z</time>
      </trkpt>
      <trkpt lat="44.18607" lon="6.75924">
        <ele>1505</ele>
        <time>2011-06-12T07:16:52Z</time>
      </trkpt>
      <trkpt lat="44.18598" lon="6.75936">
        <ele>1501.702</ele>
        <time>2011-06-12T07:16:58Z</time>
      </trkpt>
      <trkpt lat="44.18586" lon="6.75946">
        <ele>1501.586</ele>
        <time>2011-06-12T07:17:05Z</time>
      </trkpt>
      <trkpt lat="44.18575" lon="6.75957">
        <ele>1501.583</ele>
        <time>2011-06-12T07:17:12Z</time>
      </trkpt>
      <trkpt lat="44.18563" lon="6.75969">
        <ele>1500.417</ele>
        <time>2011-06-12T07:17:21Z</time>
      </trkpt>
      <trkpt lat="44.1855" lon="6.75978">
        <ele>1508.689</ele>
        <time>2011-06-12T07:17:30Z</time>
      </trkpt>
      <trkpt lat="44.18542" lon="6.75991">
        <ele>1512.727</ele>
        <time>2011-06-12T07:17:37Z</time>
      </trkpt>
      <trkpt lat="44.18533" lon="6.76009">
        <ele>1514.725</ele>
        <time>2011-06-12T07:17:45Z</time>
      </trkpt>
      <trkpt lat="44.18537" lon="6.7602">
        <ele>1510.203</ele>
        <time>2011-06-12T07:17:50Z</time>
      </trkpt>
      <trkpt lat="44.18548" lon="6.76035">
        <ele>1507.685</ele>
        <time>2011-06-12T07:17:57Z</time>
      </trkpt>
      <trkpt lat="44.18562" lon="6.7605">
        <ele>1509.076</ele>
        <time>2011-06-12T07:18:06Z</time>
      </trkpt>
      <trkpt lat="44.18575" lon="6.76063">
        <ele>1511.227</ele>
        <time>2011-06-12T07:18:15Z</time>
      </trkpt>
      <trkpt lat="44.18585" lon="6.76073">
        <ele>1518.273</ele>
        <time>2011-06-12T07:18:22Z</time>
      </trkpt>
      <trkpt lat="44.18596" lon="6.76079">
        <ele>1527.875</ele>
        <time>2011-06-12T07:18:28Z</time>
      </trkpt>
      <trkpt lat="44.18609" lon="6.76088">
        <ele>1533.535</ele>
        <time>2011-06-12T07:18:35Z</time>
      </trkpt>
      <trkpt lat="44.18624" lon="6.76097">
        <ele>1532.951</ele>
        <time>2011-06-12T07:18:41Z</time>
      </trkpt>
      <trkpt lat="44.18638" lon="6.76107">
        <ele>1529.967</ele>
        <time>2011-06-12T07:18:47Z</time>
      </trkpt>
      <trkpt lat="44.18652" lon="6.76121">
        <ele>1528.885</ele>
        <time>2011-06-12T07:18:54Z</time>
      </trkpt>
      <trkpt lat="44.18657" lon="6.7614">
        <ele>1529.296</ele>
        <time>2011-06-12T07:19:00Z</time>
      </trkpt>
      <trkpt lat="44.18665" lon="6.76158">
        <ele>1526.096</ele>
        <time>2011-06-12T07:19:06Z</time>
      </trkpt>
      <trkpt lat="44.18673" lon="6.76167">
        <ele>1528.158</ele>
        <time>2011-06-12T07:19:11Z</time>
      </trkpt>
      <trkpt lat="44.18681" lon="6.76183">
        <ele>1528.936</ele>
        <time>2011-06-12T07:19:18Z</time>
      </trkpt>
      <trkpt lat="44.18683" lon="6.76198">
        <ele>1531.207</ele>
        <time>2011-06-12T07:19:24Z</time>
      </trkpt>
      <trkpt lat="44.18685" lon="6.76212">
        <ele>1522.733</ele>
        <time>2011-06-12T07:19:30Z</time>
      </trkpt>
      <trkpt lat="44.18684" lon="6.76233">
        <ele>1510.774</ele>
        <time>2011-06-12T07:19:40Z</time>
      </trkpt>
      <trkpt lat="44.18683" lon="6.76239">
        <ele>1508.474</ele>
        <time>2011-06-12T07:19:43Z</time>
      </trkpt>
      <trkpt lat="44.18683" lon="6.76243">
        <ele>1506.794</ele>
        <time>2011-06-12T07:19:46Z</time>
      </trkpt>
      <trkpt lat="44.18679" lon="6.76252">
        <ele>1511.899</ele>
        <time>2011-06-12T07:19:52Z</time>
      </trkpt>
      <trkpt lat="44.18675" lon="6.76264">
        <ele>1512.919</ele>
        <time>2011-06-12T07:19:57Z</time>
      </trkpt>
      <trkpt lat="44.18666" lon="6.76286">
        <ele>1518.181</ele>
        <time>2011-06-12T07:20:07Z</time>
      </trkpt>
      <trkpt lat="44.1866" lon="6.76305">
        <ele>1516.316</ele>
        <time>2011-06-12T07:20:15Z</time>
      </trkpt>
      <trkpt lat="44.18657" lon="6.76318">
        <ele>1509.366</ele>
        <time>2011-06-12T07:20:21Z</time>
      </trkpt>
      <trkpt lat="44.18653" lon="6.7633">
        <ele>1504.586</ele>
        <time>2011-06-12T07:20:27Z</time>
      </trkpt>
      <trkpt lat="44.18652" lon="6.76336">
        <ele>1504.946</ele>
        <time>2011-06-12T07:20:30Z</time>
      </trkpt>
      <trkpt lat="44.18651" lon="6.76354">
        <ele>1509.139</ele>
        <time>2011-06-12T07:20:39Z</time>
      </trkpt>
      <trkpt lat="44.18651" lon="6.76358">
        <ele>1509.718</ele>
        <time>2011-06-12T07:20:41Z</time>
      </trkpt>
      <trkpt lat="44.18655" lon="6.76375">
        <ele>1516.358</ele>
        <time>2011-06-12T07:20:49Z</time>
      </trkpt>
      <trkpt lat="44.18661" lon="6.76381">
        <ele>1523.971</ele>
        <time>2011-06-12T07:20:55Z</time>
      </trkpt>
      <trkpt lat="44.18664" lon="6.76384">
        <ele>1526.092</ele>
        <time>2011-06-12T07:20:57Z</time>
      </trkpt>
      <trkpt lat="44.18671" lon="6.76395">
        <ele>1518.948</ele>
        <time>2011-06-12T07:21:03Z</time>
      </trkpt>
      <trkpt lat="44.18678" lon="6.76403">
        <ele>1525.659</ele>
        <time>2011-06-12T07:21:10Z</time>
      </trkpt>
      <trkpt lat="44.18686" lon="6.76418">
        <ele>1523.957</ele>
        <time>2011-06-12T07:21:18Z</time>
      </trkpt>
      <trkpt lat="44.18691" lon="6.76437">
        <ele>1519.905</ele>
        <time>2011-06-12T07:21:27Z</time>
      </trkpt>
      <trkpt lat="44.18696" lon="6.76454">
        <ele>1517.006</ele>
        <time>2011-06-12T07:21:35Z</time>
      </trkpt>
      <trkpt lat="44.18696" lon="6.76469">
        <ele>1514.556</ele>
        <time>2011-06-12T07:21:42Z</time>
      </trkpt>
      <trkpt lat="44.18694" lon="6.76485">
        <ele>1521.09</ele>
        <time>2011-06-12T07:21:50Z</time>
      </trkpt>
      <trkpt lat="44.18694" lon="6.7649">
        <ele>1521.97</ele>
        <time>2011-06-12T07:21:52Z</time>
      </trkpt>
      <trkpt lat="44.18695" lon="6.76503">
        <ele>1519.907</ele>
        <time>2011-06-12T07:21:58Z</time>
      </trkpt>
      <trkpt lat="44.18699" lon="6.76516">
        <ele>1517.447</ele>
        <time>2011-06-12T07:22:05Z</time>
      </trkpt>
      <trkpt lat="44.18704" lon="6.76526">
        <ele>1521.039</ele>
        <time>2011-06-12T07:22:11Z</time>
      </trkpt>
      <trkpt lat="44.18712" lon="6.76539">
        <ele>1530.073</ele>
        <time>2011-06-12T07:22:20Z</time>
      </trkpt>
      <trkpt lat="44.18717" lon="6.76548">
        <ele>1538.495</ele>
        <time>2011-06-12T07:22:26Z</time>
      </trkpt>
      <trkpt lat="44.18724" lon="6.76559">
        <ele>1541.71</ele>
        <time>2011-06-12T07:22:33Z</time>
      </trkpt>
      <trkpt lat="44.18726" lon="6.76567">
        <ele>1541.116</ele>
        <time>2011-06-12T07:22:37Z</time>
      </trkpt>
      <trkpt lat="44.18724" lon="6.76579">
        <ele>1540.89</ele>
        <time>2011-06-12T07:22:45Z</time>
      </trkpt>
      <trkpt lat="44.18723" lon="6.76582">
        <ele>1543.482</ele>
        <time>2011-06-12T07:22:47Z</time>
      </trkpt>
      <trkpt lat="44.18717" lon="6.76595">
        <ele>1538.407</ele>
        <time>2011-06-12T07:22:55Z</time>
      </trkpt>
      <trkpt lat="44.18715" lon="6.76612">
        <ele>1539.687</ele>
        <time>2011-06-12T07:23:03Z</time>
      </trkpt>
      <trkpt lat="44.18717" lon="6.76626">
        <ele>1542.587</ele>
        <time>2011-06-12T07:23:09Z</time>
      </trkpt>
      <trkpt lat="44.1872" lon="6.7664">
        <ele>1537.586</ele>
        <time>2011-06-12T07:23:16Z</time>
      </trkpt>
      <trkpt lat="44.18723" lon="6.76644">
        <ele>1538.86</ele>
        <time>2011-06-12T07:23:19Z</time>
      </trkpt>
      <trkpt lat="44.18725" lon="6.76656">
        <ele>1541.912</ele>
        <time>2011-06-12T07:23:28Z</time>
      </trkpt>
      <trkpt lat="44.18721" lon="6.7667">
        <ele>1546.264</ele>
        <time>2011-06-12T07:23:35Z</time>
      </trkpt>
      <trkpt lat="44.18716" lon="6.76686">
        <ele>1557.114</ele>
        <time>2011-06-12T07:23:42Z</time>
      </trkpt>
      <trkpt lat="44.18718" lon="6.76701">
        <ele>1549.936</ele>
        <time>2011-06-12T07:23:49Z</time>
      </trkpt>
      <trkpt lat="44.18721" lon="6.76716">
        <ele>1552.037</ele>
        <time>2011-06-12T07:23:56Z</time>
      </trkpt>
      <trkpt lat="44.18725" lon="6.76732">
        <ele>1550.637</ele>
        <time>2011-06-12T07:24:04Z</time>
      </trkpt>
      <trkpt lat="44.1873" lon="6.76746">
        <ele>1547.077</ele>
        <time>2011-06-12T07:24:12Z</time>
      </trkpt>
      <trkpt lat="44.1874" lon="6.76767">
        <ele>1544.807</ele>
        <time>2011-06-12T07:24:23Z</time>
      </trkpt>
      <trkpt lat="44.18749" lon="6.76782">
        <ele>1549.571</ele>
        <time>2011-06-12T07:24:32Z</time>
      </trkpt>
      <trkpt lat="44.18758" lon="6.76793">
        <ele>1555.241</ele>
        <time>2011-06-12T07:24:40Z</time>
      </trkpt>
      <trkpt lat="44.18768" lon="6.76807">
        <ele>1554.499</ele>
        <time>2011-06-12T07:24:49Z</time>
      </trkpt>
      <trkpt lat="44.18774" lon="6.76818">
        <ele>1560.842</ele>
        <time>2011-06-12T07:24:57Z</time>
      </trkpt>
      <trkpt lat="44.1878" lon="6.76828">
        <ele>1566.482</ele>
        <time>2011-06-12T07:25:04Z</time>
      </trkpt>
      <trkpt lat="44.18785" lon="6.76845">
        <ele>1574.994</ele>
        <time>2011-06-12T07:25:14Z</time>
      </trkpt>
      <trkpt lat="44.18785" lon="6.76858">
        <ele>1568.739</ele>
        <time>2011-06-12T07:25:21Z</time>
      </trkpt>
      <trkpt lat="44.18782" lon="6.76873">
        <ele>1573.701</ele>
        <time>2011-06-12T07:25:28Z</time>
      </trkpt>
      <trkpt lat="44.18781" lon="6.76883">
        <ele>1580.153</ele>
        <time>2011-06-12T07:25:34Z</time>
      </trkpt>
      <trkpt lat="44.18778" lon="6.76896">
        <ele>1586.305</ele>
        <time>2011-06-12T07:25:41Z</time>
      </trkpt>
      <trkpt lat="44.18779" lon="6.7691">
        <ele>1580.651</ele>
        <time>2011-06-12T07:25:49Z</time>
      </trkpt>
      <trkpt lat="44.18777" lon="6.76926">
        <ele>1579.767</ele>
        <time>2011-06-12T07:25:56Z</time>
      </trkpt>
      <trkpt lat="44.18781" lon="6.76939">
        <ele>1581.858</ele>
        <time>2011-06-12T07:26:03Z</time>
      </trkpt>
      <trkpt lat="44.18783" lon="6.76943">
        <ele>1578.517</ele>
        <time>2011-06-12T07:26:05Z</time>
      </trkpt>
      <trkpt lat="44.18789" lon="6.76955">
        <ele>1581.49</ele>
        <time>2011-06-12T07:26:13Z</time>
      </trkpt>
      <trkpt lat="44.18794" lon="6.76968">
        <ele>1581.42</ele>
        <time>2011-06-12T07:26:20Z</time>
      </trkpt>
      <trkpt lat="44.188" lon="6.76984">
        <ele>1577.567</ele>
        <time>2011-06-12T07:26:27Z</time>
      </trkpt>
      <trkpt lat="44.18807" lon="6.77004">
        <ele>1583.117</ele>
        <time>2011-06-12T07:26:36Z</time>
      </trkpt>
      <trkpt lat="44.18815" lon="6.77019">
        <ele>1578.277</ele>
        <time>2011-06-12T07:26:44Z</time>
      </trkpt>
      <trkpt lat="44.18817" lon="6.77033">
        <ele>1570.042</ele>
        <time>2011-06-12T07:26:50Z</time>
      </trkpt>
      <trkpt lat="44.1882" lon="6.7705">
        <ele>1569.776</ele>
        <time>2011-06-12T07:26:58Z</time>
      </trkpt>
      <trkpt lat="44.18819" lon="6.77065">
        <ele>1573.109</ele>
        <time>2011-06-12T07:27:04Z</time>
      </trkpt>
      <trkpt lat="44.18823" lon="6.77082">
        <ele>1581.474</ele>
        <time>2011-06-12T07:27:11Z</time>
      </trkpt>
      <trkpt lat="44.18825" lon="6.77093">
        <ele>1587.766</ele>
        <time>2011-06-12T07:27:17Z</time>
      </trkpt>
      <trkpt lat="44.18824" lon="6.77104">
        <ele>1594.266</ele>
        <time>2011-06-12T07:27:23Z</time>
      </trkpt>
      <trkpt lat="44.18817" lon="6.77125">
        <ele>1601.227</ele>
        <time>2011-06-12T07:27:31Z</time>
      </trkpt>
      <trkpt lat="44.18813" lon="6.77139">
        <ele>1604.868</ele>
        <time>2011-06-12T07:27:36Z</time>
      </trkpt>
      <trkpt lat="44.18812" lon="6.77154">
        <ele>1609.527</ele>
        <time>2011-06-12T07:27:42Z</time>
      </trkpt>
      <trkpt lat="44.18812" lon="6.77163">
        <ele>1614.558</ele>
        <time>2011-06-12T07:27:45Z</time>
      </trkpt>
      <trkpt lat="44.18811" lon="6.77185">
        <ele>1612.311</ele>
        <time>2011-06-12T07:27:52Z</time>
      </trkpt>
      <trkpt lat="44.18813" lon="6.77213">
        <ele>1611.857</ele>
        <time>2011-06-12T07:28:00Z</time>
      </trkpt>
      <trkpt lat="44.18814" lon="6.77238">
        <ele>1607.796</ele>
        <time>2011-06-12T07:28:07Z</time>
      </trkpt>
      <trkpt lat="44.18813" lon="6.77269">
        <ele>1605.455</ele>
        <time>2011-06-12T07:28:14Z</time>
      </trkpt>
      <trkpt lat="44.18814" lon="6.77292">
        <ele>1600.496</ele>
        <time>2011-06-12T07:28:21Z</time>
      </trkpt>
      <trkpt lat="44.18811" lon="6.77315">
        <ele>1599.949</ele>
        <time>2011-06-12T07:28:27Z</time>
      </trkpt>
      <trkpt lat="44.18812" lon="6.77336">
        <ele>1598.587</ele>
        <time>2011-06-12T07:28:32Z</time>
      </trkpt>
      <trkpt lat="44.18815" lon="6.77351">
        <ele>1592.824</ele>
        <time>2011-06-12T07:28:37Z</time>
      </trkpt>
      <trkpt lat="44.18817" lon="6.77372">
        <ele>1582.948</ele>
        <time>2011-06-12T07:28:42Z</time>
      </trkpt>
      <trkpt lat="44.18822" lon="6.77398">
        <ele>1571.538</ele>
        <time>2011-06-12T07:28:49Z</time>
      </trkpt>
      <trkpt lat="44.18824" lon="6.77417">
        <ele>1569.391</ele>
        <time>2011-06-12T07:28:54Z</time>
      </trkpt>
      <trkpt lat="44.18823" lon="6.77444">
        <ele>1570.985</ele>
        <time>2011-06-12T07:29:00Z</time>
      </trkpt>
      <trkpt lat="44.18824" lon="6.7746">
        <ele>1571.478</ele>
        <time>2011-06-12T07:29:04Z</time>
      </trkpt>
      <trkpt lat="44.18823" lon="6.77472">
        <ele>1574.711</ele>
        <time>2011-06-12T07:29:08Z</time>
      </trkpt>
      <trkpt lat="44.18827" lon="6.77493">
        <ele>1578.904</ele>
        <time>2011-06-12T07:29:15Z</time>
      </trkpt>
      <trkpt lat="44.18829" lon="6.77507">
        <ele>1579.954</ele>
        <time>2011-06-12T07:29:19Z</time>
      </trkpt>
      <trkpt lat="44.18828" lon="6.77533">
        <ele>1581.372</ele>
        <time>2011-06-12T07:29:25Z</time>
      </trkpt>
      <trkpt lat="44.18827" lon="6.77558">
        <ele>1577.839</ele>
        <time>2011-06-12T07:29:31Z</time>
      </trkpt>
      <trkpt lat="44.1882" lon="6.77584">
        <ele>1580.899</ele>
        <time>2011-06-12T07:29:37Z</time>
      </trkpt>
      <trkpt lat="44.1881" lon="6.77596">
        <ele>1584.7</ele>
        <time>2011-06-12T07:29:42Z</time>
      </trkpt>
      <trkpt lat="44.18801" lon="6.77606">
        <ele>1586.822</ele>
        <time>2011-06-12T07:29:47Z</time>
      </trkpt>
      <trkpt lat="44.18787" lon="6.7762">
        <ele>1594.973</ele>
        <time>2011-06-12T07:29:55Z</time>
      </trkpt>
      <trkpt lat="44.18777" lon="6.7763">
        <ele>1597.602</ele>
        <time>2011-06-12T07:30:02Z</time>
      </trkpt>
      <trkpt lat="44.18767" lon="6.77637">
        <ele>1601.374</ele>
        <time>2011-06-12T07:30:09Z</time>
      </trkpt>
      <trkpt lat="44.18761" lon="6.77647">
        <ele>1606.685</ele>
        <time>2011-06-12T07:30:16Z</time>
      </trkpt>
      <trkpt lat="44.18755" lon="6.77662">
        <ele>1610.322</ele>
        <time>2011-06-12T07:30:24Z</time>
      </trkpt>
      <trkpt lat="44.18749" lon="6.77673">
        <ele>1612.372</ele>
        <time>2011-06-12T07:30:30Z</time>
      </trkpt>
      <trkpt lat="44.1874" lon="6.77685">
        <ele>1606.888</ele>
        <time>2011-06-12T07:30:38Z</time>
      </trkpt>
      <trkpt lat="44.18735" lon="6.7769">
        <ele>1607.349</ele>
        <time>2011-06-12T07:30:45Z</time>
      </trkpt>
      <trkpt lat="44.18726" lon="6.77692">
        <ele>1608.79</ele>
        <time>2011-06-12T07:30:51Z</time>
      </trkpt>
      <trkpt lat="44.18715" lon="6.77694">
        <ele>1614.241</ele>
        <time>2011-06-12T07:30:58Z</time>
      </trkpt>
      <trkpt lat="44.18701" lon="6.77699">
        <ele>1621.863</ele>
        <time>2011-06-12T07:31:07Z</time>
      </trkpt>
      <trkpt lat="44.18689" lon="6.77702">
        <ele>1627.002</ele>
        <time>2011-06-12T07:31:14Z</time>
      </trkpt>
      <trkpt lat="44.18681" lon="6.77703">
        <ele>1628.189</ele>
        <time>2011-06-12T07:31:20Z</time>
      </trkpt>
      <trkpt lat="44.18675" lon="6.77712">
        <ele>1628.729</ele>
        <time>2011-06-12T07:31:25Z</time>
      </trkpt>
      <trkpt lat="44.18668" lon="6.77733">
        <ele>1629.669</ele>
        <time>2011-06-12T07:31:34Z</time>
      </trkpt>
      <trkpt lat="44.18661" lon="6.7775">
        <ele>1630.82</ele>
        <time>2011-06-12T07:31:40Z</time>
      </trkpt>
      <trkpt lat="44.18652" lon="6.77769">
        <ele>1621.803</ele>
        <time>2011-06-12T07:31:47Z</time>
      </trkpt>
      <trkpt lat="44.18643" lon="6.77798">
        <ele>1616.733</ele>
        <time>2011-06-12T07:31:54Z</time>
      </trkpt>
      <trkpt lat="44.18633" lon="6.77815">
        <ele>1615.064</ele>
        <time>2011-06-12T07:32:00Z</time>
      </trkpt>
      <trkpt lat="44.1863" lon="6.77824">
        <ele>1609.252</ele>
        <time>2011-06-12T07:32:05Z</time>
      </trkpt>
      <trkpt lat="44.18627" lon="6.77831">
        <ele>1606.231</ele>
        <time>2011-06-12T07:32:10Z</time>
      </trkpt>
      <trkpt lat="44.18626" lon="6.77835">
        <ele>1604.063</ele>
        <time>2011-06-12T07:32:17Z</time>
      </trkpt>
      <trkpt lat="44.18628" lon="6.77837">
        <ele>1604.465</ele>
        <time>2011-06-12T07:32:21Z</time>
      </trkpt>
      <trkpt lat="44.18634" lon="6.77841">
        <ele>1606.757</ele>
        <time>2011-06-12T07:32:28Z</time>
      </trkpt>
      <trkpt lat="44.18639" lon="6.77845">
        <ele>1611.289</ele>
        <time>2011-06-12T07:32:34Z</time>
      </trkpt>
      <trkpt lat="44.1864" lon="6.77845">
        <ele>1619.063</ele>
        <time>2011-06-12T07:32:39Z</time>
      </trkpt>
      <trkpt lat="44.18642" lon="6.77851">
        <ele>1628.6</ele>
        <time>2011-06-12T07:32:58Z</time>
      </trkpt>
      <trkpt lat="44.18651" lon="6.77859">
        <ele>1632.183</ele>
        <time>2011-06-12T07:33:05Z</time>
      </trkpt>
      <trkpt lat="44.18662" lon="6.77868">
        <ele>1635.784</ele>
        <time>2011-06-12T07:33:11Z</time>
      </trkpt>
      <trkpt lat="44.18675" lon="6.77879">
        <ele>1636.49</ele>
        <time>2011-06-12T07:33:18Z</time>
      </trkpt>
      <trkpt lat="44.1868" lon="6.77895">
        <ele>1639.151</ele>
        <time>2011-06-12T07:33:24Z</time>
      </trkpt>
      <trkpt lat="44.18678" lon="6.77911">
        <ele>1637.988</ele>
        <time>2011-06-12T07:33:29Z</time>
      </trkpt>
      <trkpt lat="44.18679" lon="6.77932">
        <ele>1637.638</ele>
        <time>2011-06-12T07:33:36Z</time>
      </trkpt>
      <trkpt lat="44.18679" lon="6.77948">
        <ele>1639.851</ele>
        <time>2011-06-12T07:33:42Z</time>
      </trkpt>
      <trkpt lat="44.18683" lon="6.77966">
        <ele>1637.527</ele>
        <time>2011-06-12T07:33:48Z</time>
      </trkpt>
      <trkpt lat="44.1869" lon="6.77981">
        <ele>1636.587</ele>
        <time>2011-06-12T07:33:54Z</time>
      </trkpt>
      <trkpt lat="44.18702" lon="6.77997">
        <ele>1636.357</ele>
        <time>2011-06-12T07:34:01Z</time>
      </trkpt>
      <trkpt lat="44.18717" lon="6.78012">
        <ele>1636.45</ele>
        <time>2011-06-12T07:34:10Z</time>
      </trkpt>
      <trkpt lat="44.18723" lon="6.78024">
        <ele>1638.3</ele>
        <time>2011-06-12T07:34:16Z</time>
      </trkpt>
      <trkpt lat="44.1873" lon="6.78038">
        <ele>1639.289</ele>
        <time>2011-06-12T07:34:22Z</time>
      </trkpt>
      <trkpt lat="44.18742" lon="6.78055">
        <ele>1639.528</ele>
        <time>2011-06-12T07:34:30Z</time>
      </trkpt>
      <trkpt lat="44.18758" lon="6.78054">
        <ele>1644.633</ele>
        <time>2011-06-12T07:34:37Z</time>
      </trkpt>
      <trkpt lat="44.18767" lon="6.78053">
        <ele>1648.066</ele>
        <time>2011-06-12T07:34:43Z</time>
      </trkpt>
      <trkpt lat="44.18782" lon="6.78055">
        <ele>1649.913</ele>
        <time>2011-06-12T07:34:50Z</time>
      </trkpt>
      <trkpt lat="44.18795" lon="6.78051">
        <ele>1655.826</ele>
        <time>2011-06-12T07:34:56Z</time>
      </trkpt>
      <trkpt lat="44.18807" lon="6.78042">
        <ele>1657.166</ele>
        <time>2011-06-12T07:35:02Z</time>
      </trkpt>
      <trkpt lat="44.18811" lon="6.78038">
        <ele>1656.914</ele>
        <time>2011-06-12T07:35:04Z</time>
      </trkpt>
      <trkpt lat="44.18827" lon="6.78041">
        <ele>1656.228</ele>
        <time>2011-06-12T07:35:11Z</time>
      </trkpt>
      <trkpt lat="44.18829" lon="6.78042">
        <ele>1656.358</ele>
        <time>2011-06-12T07:35:12Z</time>
      </trkpt>
      <trkpt lat="44.18842" lon="6.78049">
        <ele>1655.979</ele>
        <time>2011-06-12T07:35:18Z</time>
      </trkpt>
      <trkpt lat="44.18855" lon="6.78061">
        <ele>1655.73</ele>
        <time>2011-06-12T07:35:25Z</time>
      </trkpt>
      <trkpt lat="44.18867" lon="6.78077">
        <ele>1654.998</ele>
        <time>2011-06-12T07:35:32Z</time>
      </trkpt>
      <trkpt lat="44.18873" lon="6.781">
        <ele>1652.677</ele>
        <time>2011-06-12T07:35:39Z</time>
      </trkpt>
      <trkpt lat="44.18878" lon="6.78134">
        <ele>1652.616</ele>
        <time>2011-06-12T07:35:47Z</time>
      </trkpt>
      <trkpt lat="44.18884" lon="6.78153">
        <ele>1652.216</ele>
        <time>2011-06-12T07:35:51Z</time>
      </trkpt>
      <trkpt lat="44.18893" lon="6.78181">
        <ele>1651.408</ele>
        <time>2011-06-12T07:35:58Z</time>
      </trkpt>
      <trkpt lat="44.18902" lon="6.78207">
        <ele>1653.14</ele>
        <time>2011-06-12T07:36:06Z</time>
      </trkpt>
      <trkpt lat="44.18908" lon="6.78223">
        <ele>1654.732</ele>
        <time>2011-06-12T07:36:12Z</time>
      </trkpt>
      <trkpt lat="44.18914" lon="6.78232">
        <ele>1656.44</ele>
        <time>2011-06-12T07:36:18Z</time>
      </trkpt>
      <trkpt lat="44.18915" lon="6.78235">
        <ele>1654.458</ele>
        <time>2011-06-12T07:36:29Z</time>
      </trkpt>
      <trkpt lat="44.1892" lon="6.78245">
        <ele>1654.66</ele>
        <time>2011-06-12T07:36:34Z</time>
      </trkpt>
      <trkpt lat="44.18928" lon="6.78265">
        <ele>1656.632</ele>
        <time>2011-06-12T07:36:42Z</time>
      </trkpt>
      <trkpt lat="44.18936" lon="6.78283">
        <ele>1658.133</ele>
        <time>2011-06-12T07:36:49Z</time>
      </trkpt>
      <trkpt lat="44.18951" lon="6.78303">
        <ele>1656.448</ele>
        <time>2011-06-12T07:36:57Z</time>
      </trkpt>
      <trkpt lat="44.18961" lon="6.78325">
        <ele>1653.276</ele>
        <time>2011-06-12T07:37:04Z</time>
      </trkpt>
      <trkpt lat="44.18968" lon="6.78354">
        <ele>1652.625</ele>
        <time>2011-06-12T07:37:11Z</time>
      </trkpt>
      <trkpt lat="44.18975" lon="6.78392">
        <ele>1651.827</ele>
        <time>2011-06-12T07:37:19Z</time>
      </trkpt>
      <trkpt lat="44.18974" lon="6.78423">
        <ele>1649.624</ele>
        <time>2011-06-12T07:37:25Z</time>
      </trkpt>
      <trkpt lat="44.18974" lon="6.78428">
        <ele>1649.113</ele>
        <time>2011-06-12T07:37:26Z</time>
      </trkpt>
      <trkpt lat="44.18971" lon="6.78454">
        <ele>1646.182</ele>
        <time>2011-06-12T07:37:30Z</time>
      </trkpt>
      <trkpt lat="44.18965" lon="6.78472">
        <ele>1645.262</ele>
        <time>2011-06-12T07:37:33Z</time>
      </trkpt>
      <trkpt lat="44.1896" lon="6.78498">
        <ele>1644.274</ele>
        <time>2011-06-12T07:37:38Z</time>
      </trkpt>
      <trkpt lat="44.18958" lon="6.78506">
        <ele>1643.412</ele>
        <time>2011-06-12T07:37:40Z</time>
      </trkpt>
      <trkpt lat="44.18951" lon="6.78521">
        <ele>1641.813</ele>
        <time>2011-06-12T07:37:43Z</time>
      </trkpt>
      <trkpt lat="44.18945" lon="6.78553">
        <ele>1640.645</ele>
        <time>2011-06-12T07:37:48Z</time>
      </trkpt>
      <trkpt lat="44.18944" lon="6.78561">
        <ele>1639.063</ele>
        <time>2011-06-12T07:37:49Z</time>
      </trkpt>
      <trkpt lat="44.18949" lon="6.78591">
        <ele>1637.442</ele>
        <time>2011-06-12T07:37:53Z</time>
      </trkpt>
      <trkpt lat="44.18956" lon="6.78614">
        <ele>1635.722</ele>
        <time>2011-06-12T07:37:56Z</time>
      </trkpt>
      <trkpt lat="44.18956" lon="6.78644">
        <ele>1635.304</ele>
        <time>2011-06-12T07:38:01Z</time>
      </trkpt>
      <trkpt lat="44.18955" lon="6.78648">
        <ele>1636.146</ele>
        <time>2011-06-12T07:38:03Z</time>
      </trkpt>
      <trkpt lat="44.18956" lon="6.78658">
        <ele>1640.122</ele>
        <time>2011-06-12T07:38:07Z</time>
      </trkpt>
      <trkpt lat="44.18957" lon="6.78681">
        <ele>1640.243</ele>
        <time>2011-06-12T07:38:16Z</time>
      </trkpt>
      <trkpt lat="44.18959" lon="6.78696">
        <ele>1643.505</ele>
        <time>2011-06-12T07:38:22Z</time>
      </trkpt>
      <trkpt lat="44.18958" lon="6.78701">
        <ele>1643.704</ele>
        <time>2011-06-12T07:38:24Z</time>
      </trkpt>
      <trkpt lat="44.1896" lon="6.78717">
        <ele>1644.004</ele>
        <time>2011-06-12T07:38:30Z</time>
      </trkpt>
      <trkpt lat="44.18958" lon="6.78732">
        <ele>1645.394</ele>
        <time>2011-06-12T07:38:37Z</time>
      </trkpt>
      <trkpt lat="44.18955" lon="6.78738">
        <ele>1646.523</ele>
        <time>2011-06-12T07:38:42Z</time>
      </trkpt>
      <trkpt lat="44.18954" lon="6.78747">
        <ele>1645.632</ele>
        <time>2011-06-12T07:38:46Z</time>
      </trkpt>
      <trkpt lat="44.18957" lon="6.78761">
        <ele>1644.63</ele>
        <time>2011-06-12T07:38:51Z</time>
      </trkpt>
      <trkpt lat="44.18963" lon="6.78782">
        <ele>1644.941</ele>
        <time>2011-06-12T07:38:59Z</time>
      </trkpt>
      <trkpt lat="44.1896" lon="6.78801">
        <ele>1645.13</ele>
        <time>2011-06-12T07:39:04Z</time>
      </trkpt>
      <trkpt lat="44.18959" lon="6.78819">
        <ele>1640.565</ele>
        <time>2011-06-12T07:39:09Z</time>
      </trkpt>
      <trkpt lat="44.18956" lon="6.78832">
        <ele>1642.098</ele>
        <time>2011-06-12T07:39:14Z</time>
      </trkpt>
      <trkpt lat="44.18961" lon="6.78842">
        <ele>1641.247</ele>
        <time>2011-06-12T07:39:18Z</time>
      </trkpt>
      <trkpt lat="44.1897" lon="6.78863">
        <ele>1638.225</ele>
        <time>2011-06-12T07:39:24Z</time>
      </trkpt>
      <trkpt lat="44.18973" lon="6.7887">
        <ele>1637.475</ele>
        <time>2011-06-12T07:39:26Z</time>
      </trkpt>
      <trkpt lat="44.18975" lon="6.78882">
        <ele>1638.259</ele>
        <time>2011-06-12T07:39:32Z</time>
      </trkpt>
      <trkpt lat="44.18972" lon="6.78887">
        <ele>1642.796</ele>
        <time>2011-06-12T07:39:45Z</time>
      </trkpt>
      <trkpt lat="44.18969" lon="6.78889">
        <ele>1648.328</ele>
        <time>2011-06-12T07:39:52Z</time>
      </trkpt>
      <trkpt lat="44.18964" lon="6.78892">
        <ele>1651.447</ele>
        <time>2011-06-12T07:39:59Z</time>
      </trkpt>
      <trkpt lat="44.18961" lon="6.78895">
        <ele>1651.295</ele>
        <time>2011-06-12T07:40:03Z</time>
      </trkpt>
      <trkpt lat="44.18961" lon="6.78902">
        <ele>1650.863</ele>
        <time>2011-06-12T07:40:09Z</time>
      </trkpt>
      <trkpt lat="44.18961" lon="6.78906">
        <ele>1653.334</ele>
        <time>2011-06-12T07:40:15Z</time>
      </trkpt>
      <trkpt lat="44.18957" lon="6.78915">
        <ele>1658.716</ele>
        <time>2011-06-12T07:40:25Z</time>
      </trkpt>
      <trkpt lat="44.18955" lon="6.78921">
        <ele>1659.523</ele>
        <time>2011-06-12T07:40:33Z</time>
      </trkpt>
      <trkpt lat="44.18959" lon="6.78932">
        <ele>1660.974</ele>
        <time>2011-06-12T07:40:43Z</time>
      </trkpt>
      <trkpt lat="44.18959" lon="6.78941">
        <ele>1660.482</ele>
        <time>2011-06-12T07:40:50Z</time>
      </trkpt>
      <trkpt lat="44.18959" lon="6.78942">
        <ele>1660.843</ele>
        <time>2011-06-12T07:40:51Z</time>
      </trkpt>
      <trkpt lat="44.18959" lon="6.78948">
        <ele>1660.373</ele>
        <time>2011-06-12T07:40:59Z</time>
      </trkpt>
      <trkpt lat="44.18961" lon="6.78954">
        <ele>1666.345</ele>
        <time>2011-06-12T07:41:06Z</time>
      </trkpt>
      <trkpt lat="44.18962" lon="6.78963">
        <ele>1667.264</ele>
        <time>2011-06-12T07:41:12Z</time>
      </trkpt>
      <trkpt lat="44.18961" lon="6.78971">
        <ele>1665.12</ele>
        <time>2011-06-12T07:41:27Z</time>
      </trkpt>
      <trkpt lat="44.18963" lon="6.78981">
        <ele>1662.86</ele>
        <time>2011-06-12T07:41:33Z</time>
      </trkpt>
      <trkpt lat="44.18963" lon="6.78986">
        <ele>1663.441</ele>
        <time>2011-06-12T07:41:35Z</time>
      </trkpt>
      <trkpt lat="44.18963" lon="6.78989">
        <ele>1664.293</ele>
        <time>2011-06-12T07:41:37Z</time>
      </trkpt>
      <trkpt lat="44.1896" lon="6.79005">
        <ele>1667.264</ele>
        <time>2011-06-12T07:41:45Z</time>
      </trkpt>
      <trkpt lat="44.18962" lon="6.79022">
        <ele>1667.232</ele>
        <time>2011-06-12T07:41:52Z</time>
      </trkpt>
      <trkpt lat="44.18965" lon="6.79041">
        <ele>1665.509</ele>
        <time>2011-06-12T07:41:56Z</time>
      </trkpt>
      <trkpt lat="44.18964" lon="6.79053">
        <ele>1666.22</ele>
        <time>2011-06-12T07:42:00Z</time>
      </trkpt>
      <trkpt lat="44.18965" lon="6.79067">
        <ele>1667.9</ele>
        <time>2011-06-12T07:42:06Z</time>
      </trkpt>
      <trkpt lat="44.18964" lon="6.7907">
        <ele>1669.302</ele>
        <time>2011-06-12T07:42:08Z</time>
      </trkpt>
      <trkpt lat="44.18959" lon="6.79084">
        <ele>1672.734</ele>
        <time>2011-06-12T07:42:16Z</time>
      </trkpt>
      <trkpt lat="44.18953" lon="6.79099">
        <ele>1672.613</ele>
        <time>2011-06-12T07:42:21Z</time>
      </trkpt>
      <trkpt lat="44.18947" lon="6.7912">
        <ele>1669.809</ele>
        <time>2011-06-12T07:42:26Z</time>
      </trkpt>
      <trkpt lat="44.18944" lon="6.79136">
        <ele>1670.369</ele>
        <time>2011-06-12T07:42:32Z</time>
      </trkpt>
      <trkpt lat="44.18944" lon="6.79154">
        <ele>1671.459</ele>
        <time>2011-06-12T07:42:39Z</time>
      </trkpt>
      <trkpt lat="44.18946" lon="6.79167">
        <ele>1672.961</ele>
        <time>2011-06-12T07:42:45Z</time>
      </trkpt>
      <trkpt lat="44.18938" lon="6.79172">
        <ele>1676.066</ele>
        <time>2011-06-12T07:42:51Z</time>
      </trkpt>
      <trkpt lat="44.1893" lon="6.79185">
        <ele>1676.892</ele>
        <time>2011-06-12T07:42:59Z</time>
      </trkpt>
      <trkpt lat="44.18927" lon="6.79192">
        <ele>1678.352</ele>
        <time>2011-06-12T07:43:02Z</time>
      </trkpt>
      <trkpt lat="44.18928" lon="6.79204">
        <ele>1677.08</ele>
        <time>2011-06-12T07:43:08Z</time>
      </trkpt>
      <trkpt lat="44.18926" lon="6.79207">
        <ele>1679.051</ele>
        <time>2011-06-12T07:43:22Z</time>
      </trkpt>
      <trkpt lat="44.18926" lon="6.7921">
        <ele>1678.921</ele>
        <time>2011-06-12T07:43:27Z</time>
      </trkpt>
      <trkpt lat="44.18926" lon="6.79218">
        <ele>1678.511</ele>
        <time>2011-06-12T07:43:35Z</time>
      </trkpt>
      <trkpt lat="44.18927" lon="6.79223">
        <ele>1680.273</ele>
        <time>2011-06-12T07:43:41Z</time>
      </trkpt>
      <trkpt lat="44.1893" lon="6.79231">
        <ele>1680.41</ele>
        <time>2011-06-12T07:43:49Z</time>
      </trkpt>
      <trkpt lat="44.1893" lon="6.79238">
        <ele>1679.909</ele>
        <time>2011-06-12T07:43:53Z</time>
      </trkpt>
      <trkpt lat="44.18929" lon="6.7925">
        <ele>1681.76</ele>
        <time>2011-06-12T07:44:01Z</time>
      </trkpt>
      <trkpt lat="44.1893" lon="6.79259">
        <ele>1680.837</ele>
        <time>2011-06-12T07:44:09Z</time>
      </trkpt>
      <trkpt lat="44.18933" lon="6.79262">
        <ele>1677.104</ele>
        <time>2011-06-12T07:44:15Z</time>
      </trkpt>
      <trkpt lat="44.18933" lon="6.79263">
        <ele>1675.202</ele>
        <time>2011-06-12T07:44:17Z</time>
      </trkpt>
      <trkpt lat="44.18934" lon="6.79269">
        <ele>1675.995</ele>
        <time>2011-06-12T07:44:22Z</time>
      </trkpt>
      <trkpt lat="44.1894" lon="6.79272">
        <ele>1681.291</ele>
        <time>2011-06-12T07:46:03Z</time>
      </trkpt>
      <trkpt lat="44.18938" lon="6.79276">
        <ele>1682.33</ele>
        <time>2011-06-12T07:46:08Z</time>
      </trkpt>
      <trkpt lat="44.18936" lon="6.7928">
        <ele>1683.43</ele>
        <time>2011-06-12T07:46:15Z</time>
      </trkpt>
      <trkpt lat="44.18936" lon="6.79281">
        <ele>1682.948</ele>
        <time>2011-06-12T07:46:25Z</time>
      </trkpt>
      <trkpt lat="44.18938" lon="6.7928">
        <ele>1682.008</ele>
        <time>2011-06-12T07:46:33Z</time>
      </trkpt>
      <trkpt lat="44.18941" lon="6.79281">
        <ele>1682.069</ele>
        <time>2011-06-12T07:46:37Z</time>
      </trkpt>
      <trkpt lat="44.1895" lon="6.79282">
        <ele>1689.101</ele>
        <time>2011-06-12T07:46:45Z</time>
      </trkpt>
      <trkpt lat="44.18953" lon="6.79285">
        <ele>1686.598</ele>
        <time>2011-06-12T07:46:52Z</time>
      </trkpt>
      <trkpt lat="44.18957" lon="6.79289">
        <ele>1685.398</ele>
        <time>2011-06-12T07:46:59Z</time>
      </trkpt>
      <trkpt lat="44.18958" lon="6.7929">
        <ele>1684.728</ele>
        <time>2011-06-12T07:47:02Z</time>
      </trkpt>
      <trkpt lat="44.18964" lon="6.79294">
        <ele>1684.1</ele>
        <time>2011-06-12T07:47:10Z</time>
      </trkpt>
      <trkpt lat="44.18967" lon="6.79294">
        <ele>1685.802</ele>
        <time>2011-06-12T07:47:17Z</time>
      </trkpt>
      <trkpt lat="44.18966" lon="6.793">
        <ele>1687.042</ele>
        <time>2011-06-12T07:47:24Z</time>
      </trkpt>
      <trkpt lat="44.18966" lon="6.79301">
        <ele>1686.51</ele>
        <time>2011-06-12T07:47:26Z</time>
      </trkpt>
      <trkpt lat="44.18973" lon="6.79299">
        <ele>1689.534</ele>
        <time>2011-06-12T07:47:33Z</time>
      </trkpt>
      <trkpt lat="44.18979" lon="6.79305">
        <ele>1689.291</ele>
        <time>2011-06-12T07:47:42Z</time>
      </trkpt>
      <trkpt lat="44.18981" lon="6.79306">
        <ele>1689.15</ele>
        <time>2011-06-12T07:47:45Z</time>
      </trkpt>
      <trkpt lat="44.18987" lon="6.79308">
        <ele>1690.362</ele>
        <time>2011-06-12T07:47:51Z</time>
      </trkpt>
      <trkpt lat="44.18997" lon="6.7931">
        <ele>1692.843</ele>
        <time>2011-06-12T07:48:02Z</time>
      </trkpt>
      <trkpt lat="44.19" lon="6.79312">
        <ele>1693.132</ele>
        <time>2011-06-12T07:48:06Z</time>
      </trkpt>
      <trkpt lat="44.19009" lon="6.79312">
        <ele>1694.402</ele>
        <time>2011-06-12T07:48:15Z</time>
      </trkpt>
      <trkpt lat="44.19009" lon="6.79312">
        <ele>1694.472</ele>
        <time>2011-06-12T07:48:16Z</time>
      </trkpt>
      <trkpt lat="44.19012" lon="6.79311">
        <ele>1695.232</ele>
        <time>2011-06-12T07:48:23Z</time>
      </trkpt>
      <trkpt lat="44.19014" lon="6.79307">
        <ele>1699.554</ele>
        <time>2011-06-12T07:48:32Z</time>
      </trkpt>
      <trkpt lat="44.19019" lon="6.79305">
        <ele>1700.754</ele>
        <time>2011-06-12T07:48:36Z</time>
      </trkpt>
      <trkpt lat="44.19023" lon="6.79306">
        <ele>1699.792</ele>
        <time>2011-06-12T07:48:38Z</time>
      </trkpt>
      <trkpt lat="44.19027" lon="6.79318">
        <ele>1698.762</ele>
        <time>2011-06-12T07:48:44Z</time>
      </trkpt>
      <trkpt lat="44.19027" lon="6.79326">
        <ele>1700.564</ele>
        <time>2011-06-12T07:48:48Z</time>
      </trkpt>
      <trkpt lat="44.19028" lon="6.79333">
        <ele>1702.063</ele>
        <time>2011-06-12T07:48:55Z</time>
      </trkpt>
      <trkpt lat="44.19033" lon="6.79342">
        <ele>1704.123</ele>
        <time>2011-06-12T07:49:02Z</time>
      </trkpt>
      <trkpt lat="44.19038" lon="6.79353">
        <ele>1703.443</ele>
        <time>2011-06-12T07:49:12Z</time>
      </trkpt>
      <trkpt lat="44.19039" lon="6.79354">
        <ele>1703.161</ele>
        <time>2011-06-12T07:49:19Z</time>
      </trkpt>
      <trkpt lat="44.19039" lon="6.79353">
        <ele>1709.647</ele>
        <time>2011-06-12T07:50:02Z</time>
      </trkpt>
      <trkpt lat="44.19048" lon="6.79355">
        <ele>1702.792</ele>
        <time>2011-06-12T07:50:08Z</time>
      </trkpt>
      <trkpt lat="44.19059" lon="6.79357">
        <ele>1700.886</ele>
        <time>2011-06-12T07:50:13Z</time>
      </trkpt>
      <trkpt lat="44.19062" lon="6.79358">
        <ele>1699.617</ele>
        <time>2011-06-12T07:50:16Z</time>
      </trkpt>
      <trkpt lat="44.19068" lon="6.79362">
        <ele>1698.23</ele>
        <time>2011-06-12T07:50:23Z</time>
      </trkpt>
      <trkpt lat="44.19073" lon="6.79366">
        <ele>1699.352</ele>
        <time>2011-06-12T07:50:31Z</time>
      </trkpt>
      <trkpt lat="44.19072" lon="6.79367">
        <ele>1700.9</ele>
        <time>2011-06-12T07:50:46Z</time>
      </trkpt>
      <trkpt lat="44.19071" lon="6.79368">
        <ele>1707.051</ele>
        <time>2011-06-12T07:51:54Z</time>
      </trkpt>
      <trkpt lat="44.19072" lon="6.79369">
        <ele>1706.961</ele>
        <time>2011-06-12T07:51:56Z</time>
      </trkpt>
      <trkpt lat="44.19074" lon="6.79375">
        <ele>1707.411</ele>
        <time>2011-06-12T07:52:04Z</time>
      </trkpt>
      <trkpt lat="44.19076" lon="6.79378">
        <ele>1706.99</ele>
        <time>2011-06-12T07:52:09Z</time>
      </trkpt>
      <trkpt lat="44.19076" lon="6.79382">
        <ele>1707.502</ele>
        <time>2011-06-12T07:52:14Z</time>
      </trkpt>
      <trkpt lat="44.19076" lon="6.79385">
        <ele>1708.163</ele>
        <time>2011-06-12T07:52:21Z</time>
      </trkpt>
      <trkpt lat="44.19077" lon="6.79389">
        <ele>1708.672</ele>
        <time>2011-06-12T07:52:26Z</time>
      </trkpt>
      <trkpt lat="44.1908" lon="6.79398">
        <ele>1709.081</ele>
        <time>2011-06-12T07:52:34Z</time>
      </trkpt>
      <trkpt lat="44.19082" lon="6.79406">
        <ele>1709.431</ele>
        <time>2011-06-12T07:52:41Z</time>
      </trkpt>
      <trkpt lat="44.19084" lon="6.79412">
        <ele>1708.849</ele>
        <time>2011-06-12T07:52:46Z</time>
      </trkpt>
      <trkpt lat="44.19093" lon="6.79416">
        <ele>1709</ele>
        <time>2011-06-12T07:52:54Z</time>
      </trkpt>
      <trkpt lat="44.191" lon="6.79418">
        <ele>1708.941</ele>
        <time>2011-06-12T07:53:01Z</time>
      </trkpt>
      <trkpt lat="44.19105" lon="6.79421">
        <ele>1710.522</ele>
        <time>2011-06-12T07:53:07Z</time>
      </trkpt>
      <trkpt lat="44.1911" lon="6.79424">
        <ele>1711.773</ele>
        <time>2011-06-12T07:53:12Z</time>
      </trkpt>
      <trkpt lat="44.19112" lon="6.79427">
        <ele>1712.333</ele>
        <time>2011-06-12T07:53:15Z</time>
      </trkpt>
      <trkpt lat="44.19114" lon="6.7943">
        <ele>1713.213</ele>
        <time>2011-06-12T07:53:19Z</time>
      </trkpt>
      <trkpt lat="44.19116" lon="6.79432">
        <ele>1713.502</ele>
        <time>2011-06-12T07:53:21Z</time>
      </trkpt>
      <trkpt lat="44.1912" lon="6.79436">
        <ele>1714.622</ele>
        <time>2011-06-12T07:53:28Z</time>
      </trkpt>
      <trkpt lat="44.19123" lon="6.7944">
        <ele>1715.172</ele>
        <time>2011-06-12T07:53:35Z</time>
      </trkpt>
      <trkpt lat="44.19125" lon="6.79447">
        <ele>1715.611</ele>
        <time>2011-06-12T07:53:42Z</time>
      </trkpt>
      <trkpt lat="44.19129" lon="6.79454">
        <ele>1716.651</ele>
        <time>2011-06-12T07:53:50Z</time>
      </trkpt>
      <trkpt lat="44.19134" lon="6.79457">
        <ele>1717.392</ele>
        <time>2011-06-12T07:53:57Z</time>
      </trkpt>
      <trkpt lat="44.19136" lon="6.79458">
        <ele>1717.942</ele>
        <time>2011-06-12T07:54:01Z</time>
      </trkpt>
      <trkpt lat="44.19144" lon="6.79463">
        <ele>1719.663</ele>
        <time>2011-06-12T07:54:11Z</time>
      </trkpt>
      <trkpt lat="44.19147" lon="6.79471">
        <ele>1720.532</ele>
        <time>2011-06-12T07:54:19Z</time>
      </trkpt>
      <trkpt lat="44.19147" lon="6.79473">
        <ele>1720.61</ele>
        <time>2011-06-12T07:54:24Z</time>
      </trkpt>
      <trkpt lat="44.19146" lon="6.7948">
        <ele>1722.261</ele>
        <time>2011-06-12T07:54:30Z</time>
      </trkpt>
      <trkpt lat="44.19145" lon="6.79482">
        <ele>1724.313</ele>
        <time>2011-06-12T07:54:35Z</time>
      </trkpt>
      <trkpt lat="44.19144" lon="6.79484">
        <ele>1725.083</ele>
        <time>2011-06-12T07:54:54Z</time>
      </trkpt>
      <trkpt lat="44.19144" lon="6.79486">
        <ele>1725.111</ele>
        <time>2011-06-12T07:55:02Z</time>
      </trkpt>
      <trkpt lat="44.19142" lon="6.79487">
        <ele>1727.143</ele>
        <time>2011-06-12T07:55:07Z</time>
      </trkpt>
      <trkpt lat="44.19141" lon="6.79489">
        <ele>1730.084</ele>
        <time>2011-06-12T07:55:14Z</time>
      </trkpt>
      <trkpt lat="44.1914" lon="6.79493">
        <ele>1733.504</ele>
        <time>2011-06-12T07:55:23Z</time>
      </trkpt>
      <trkpt lat="44.1914" lon="6.79491">
        <ele>1736.726</ele>
        <time>2011-06-12T07:55:30Z</time>
      </trkpt>
      <trkpt lat="44.19141" lon="6.7949">
        <ele>1738.566</ele>
        <time>2011-06-12T07:55:35Z</time>
      </trkpt>
      <trkpt lat="44.19145" lon="6.79493">
        <ele>1737.333</ele>
        <time>2011-06-12T07:55:42Z</time>
      </trkpt>
      <trkpt lat="44.19148" lon="6.79505">
        <ele>1729.723</ele>
        <time>2011-06-12T07:56:26Z</time>
      </trkpt>
      <trkpt lat="44.19155" lon="6.79493">
        <ele>1742.657</ele>
        <time>2011-06-12T07:56:36Z</time>
      </trkpt>
      <trkpt lat="44.19167" lon="6.79486">
        <ele>1751.891</ele>
        <time>2011-06-12T07:56:43Z</time>
      </trkpt>
      <trkpt lat="44.19178" lon="6.79482">
        <ele>1757.073</ele>
        <time>2011-06-12T07:56:49Z</time>
      </trkpt>
      <trkpt lat="44.19188" lon="6.79499">
        <ele>1750.483</ele>
        <time>2011-06-12T07:56:55Z</time>
      </trkpt>
      <trkpt lat="44.1919" lon="6.79509">
        <ele>1743.958</ele>
        <time>2011-06-12T07:56:56Z</time>
      </trkpt>
      <trkpt lat="44.19194" lon="6.79519">
        <ele>1739.547</ele>
        <time>2011-06-12T07:57:03Z</time>
      </trkpt>
      <trkpt lat="44.19193" lon="6.7952">
        <ele>1740.271</ele>
        <time>2011-06-12T07:57:20Z</time>
      </trkpt>
      <trkpt lat="44.19204" lon="6.7952">
        <ele>1744.395</ele>
        <time>2011-06-12T07:57:27Z</time>
      </trkpt>
      <trkpt lat="44.19212" lon="6.79527">
        <ele>1749.238</ele>
        <time>2011-06-12T07:57:34Z</time>
      </trkpt>
      <trkpt lat="44.19216" lon="6.79529">
        <ele>1749.402</ele>
        <time>2011-06-12T07:57:41Z</time>
      </trkpt>
      <trkpt lat="44.19218" lon="6.7953">
        <ele>1748.372</ele>
        <time>2011-06-12T07:57:45Z</time>
      </trkpt>
      <trkpt lat="44.1922" lon="6.79529">
        <ele>1748.312</ele>
        <time>2011-06-12T07:57:47Z</time>
      </trkpt>
      <trkpt lat="44.19225" lon="6.7953">
        <ele>1748.082</ele>
        <time>2011-06-12T07:57:54Z</time>
      </trkpt>
      <trkpt lat="44.19231" lon="6.79532">
        <ele>1747.972</ele>
        <time>2011-06-12T07:58:01Z</time>
      </trkpt>
      <trkpt lat="44.19238" lon="6.79535">
        <ele>1748.313</ele>
        <time>2011-06-12T07:58:10Z</time>
      </trkpt>
      <trkpt lat="44.19244" lon="6.79535">
        <ele>1750.724</ele>
        <time>2011-06-12T07:58:18Z</time>
      </trkpt>
      <trkpt lat="44.19247" lon="6.79533">
        <ele>1753.887</ele>
        <time>2011-06-12T07:58:23Z</time>
      </trkpt>
      <trkpt lat="44.19253" lon="6.79529">
        <ele>1757.625</ele>
        <time>2011-06-12T07:58:32Z</time>
      </trkpt>
      <trkpt lat="44.19253" lon="6.7953">
        <ele>1757.964</ele>
        <time>2011-06-12T07:58:33Z</time>
      </trkpt>
      <trkpt lat="44.19258" lon="6.79536">
        <ele>1758.003</ele>
        <time>2011-06-12T07:58:41Z</time>
      </trkpt>
      <trkpt lat="44.19263" lon="6.79543">
        <ele>1758.233</ele>
        <time>2011-06-12T07:58:51Z</time>
      </trkpt>
      <trkpt lat="44.19269" lon="6.79548">
        <ele>1758.042</ele>
        <time>2011-06-12T07:58:58Z</time>
      </trkpt>
      <trkpt lat="44.19274" lon="6.79554">
        <ele>1758.882</ele>
        <time>2011-06-12T07:59:07Z</time>
      </trkpt>
      <trkpt lat="44.19278" lon="6.79561">
        <ele>1760.295</ele>
        <time>2011-06-12T07:59:15Z</time>
      </trkpt>
      <trkpt lat="44.19281" lon="6.79564">
        <ele>1762.285</ele>
        <time>2011-06-12T07:59:20Z</time>
      </trkpt>
      <trkpt lat="44.19288" lon="6.79566">
        <ele>1764.273</ele>
        <time>2011-06-12T07:59:27Z</time>
      </trkpt>
      <trkpt lat="44.19294" lon="6.79571">
        <ele>1764.354</ele>
        <time>2011-06-12T07:59:34Z</time>
      </trkpt>
      <trkpt lat="44.19296" lon="6.79574">
        <ele>1766.834</ele>
        <time>2011-06-12T07:59:41Z</time>
      </trkpt>
      <trkpt lat="44.19296" lon="6.79574">
        <ele>1768.092</ele>
        <time>2011-06-12T07:59:53Z</time>
      </trkpt>
      <trkpt lat="44.19299" lon="6.79579">
        <ele>1769.954</ele>
        <time>2011-06-12T08:00:05Z</time>
      </trkpt>
      <trkpt lat="44.19306" lon="6.79588">
        <ele>1770.143</ele>
        <time>2011-06-12T08:00:13Z</time>
      </trkpt>
      <trkpt lat="44.1931" lon="6.79596">
        <ele>1766.609</ele>
        <time>2011-06-12T08:00:17Z</time>
      </trkpt>
      <trkpt lat="44.19313" lon="6.79603">
        <ele>1766.961</ele>
        <time>2011-06-12T08:00:24Z</time>
      </trkpt>
      <trkpt lat="44.19314" lon="6.7961">
        <ele>1766.671</ele>
        <time>2011-06-12T08:00:30Z</time>
      </trkpt>
      <trkpt lat="44.19319" lon="6.79621">
        <ele>1767.871</ele>
        <time>2011-06-12T08:00:39Z</time>
      </trkpt>
      <trkpt lat="44.1932" lon="6.79624">
        <ele>1775.287</ele>
        <time>2011-06-12T08:00:46Z</time>
      </trkpt>
      <trkpt lat="44.19322" lon="6.79628">
        <ele>1782.279</ele>
        <time>2011-06-12T08:00:53Z</time>
      </trkpt>
      <trkpt lat="44.19322" lon="6.79629">
        <ele>1783.029</ele>
        <time>2011-06-12T08:00:54Z</time>
      </trkpt>
      <trkpt lat="44.19326" lon="6.79637">
        <ele>1783.522</ele>
        <time>2011-06-12T08:01:02Z</time>
      </trkpt>
      <trkpt lat="44.19331" lon="6.79642">
        <ele>1784.451</ele>
        <time>2011-06-12T08:01:08Z</time>
      </trkpt>
      <trkpt lat="44.19332" lon="6.79646">
        <ele>1784.681</ele>
        <time>2011-06-12T08:01:12Z</time>
      </trkpt>
      <trkpt lat="44.19333" lon="6.79656">
        <ele>1784.259</ele>
        <time>2011-06-12T08:01:19Z</time>
      </trkpt>
      <trkpt lat="44.19335" lon="6.79666">
        <ele>1785.621</ele>
        <time>2011-06-12T08:01:27Z</time>
      </trkpt>
      <trkpt lat="44.19337" lon="6.79675">
        <ele>1785.532</ele>
        <time>2011-06-12T08:01:34Z</time>
      </trkpt>
      <trkpt lat="44.19334" lon="6.79685">
        <ele>1782.75</ele>
        <time>2011-06-12T08:01:42Z</time>
      </trkpt>
      <trkpt lat="44.19333" lon="6.79689">
        <ele>1784.193</ele>
        <time>2011-06-12T08:01:48Z</time>
      </trkpt>
      <trkpt lat="44.19334" lon="6.79696">
        <ele>1782.233</ele>
        <time>2011-06-12T08:01:54Z</time>
      </trkpt>
      <trkpt lat="44.19334" lon="6.79705">
        <ele>1785.234</ele>
        <time>2011-06-12T08:02:03Z</time>
      </trkpt>
      <trkpt lat="44.19336" lon="6.79713">
        <ele>1784.691</ele>
        <time>2011-06-12T08:02:09Z</time>
      </trkpt>
      <trkpt lat="44.19338" lon="6.79717">
        <ele>1788.005</ele>
        <time>2011-06-12T08:02:15Z</time>
      </trkpt>
      <trkpt lat="44.19336" lon="6.79723">
        <ele>1788.022</ele>
        <time>2011-06-12T08:02:21Z</time>
      </trkpt>
      <trkpt lat="44.19336" lon="6.79727">
        <ele>1792.616</ele>
        <time>2011-06-12T08:02:26Z</time>
      </trkpt>
      <trkpt lat="44.19335" lon="6.79732">
        <ele>1796.265</ele>
        <time>2011-06-12T08:02:34Z</time>
      </trkpt>
      <trkpt lat="44.19339" lon="6.79736">
        <ele>1829.986</ele>
        <time>2011-06-12T08:05:46Z</time>
      </trkpt>
      <trkpt lat="44.1934" lon="6.79722">
        <ele>1849.3</ele>
        <time>2011-06-12T08:07:29Z</time>
      </trkpt>
      <trkpt lat="44.19341" lon="6.79743">
        <ele>1816.38</ele>
        <time>2011-06-12T08:09:31Z</time>
      </trkpt>
      <trkpt lat="44.19334" lon="6.79757">
        <ele>1811.765</ele>
        <time>2011-06-12T08:09:38Z</time>
      </trkpt>
      <trkpt lat="44.19334" lon="6.79761">
        <ele>1812.647</ele>
        <time>2011-06-12T08:09:40Z</time>
      </trkpt>
      <trkpt lat="44.19331" lon="6.79774">
        <ele>1810.699</ele>
        <time>2011-06-12T08:09:46Z</time>
      </trkpt>
      <trkpt lat="44.19326" lon="6.79785">
        <ele>1813.748</ele>
        <time>2011-06-12T08:09:52Z</time>
      </trkpt>
      <trkpt lat="44.19324" lon="6.79789">
        <ele>1814.287</ele>
        <time>2011-06-12T08:09:54Z</time>
      </trkpt>
      <trkpt lat="44.19321" lon="6.79801">
        <ele>1815.394</ele>
        <time>2011-06-12T08:10:01Z</time>
      </trkpt>
      <trkpt lat="44.19324" lon="6.79805">
        <ele>1820.136</ele>
        <time>2011-06-12T08:10:07Z</time>
      </trkpt>
      <trkpt lat="44.19321" lon="6.79809">
        <ele>1818.155</ele>
        <time>2011-06-12T08:10:12Z</time>
      </trkpt>
      <trkpt lat="44.19318" lon="6.79818">
        <ele>1812.938</ele>
        <time>2011-06-12T08:10:17Z</time>
      </trkpt>
      <trkpt lat="44.19319" lon="6.79821">
        <ele>1812.458</ele>
        <time>2011-06-12T08:10:20Z</time>
      </trkpt>
      <trkpt lat="44.1932" lon="6.79827">
        <ele>1814.218</ele>
        <time>2011-06-12T08:10:26Z</time>
      </trkpt>
      <trkpt lat="44.19325" lon="6.79829">
        <ele>1819.415</ele>
        <time>2011-06-12T08:10:32Z</time>
      </trkpt>
      <trkpt lat="44.19325" lon="6.79834">
        <ele>1818.226</ele>
        <time>2011-06-12T08:10:37Z</time>
      </trkpt>
      <trkpt lat="44.19326" lon="6.79837">
        <ele>1818.162</ele>
        <time>2011-06-12T08:10:39Z</time>
      </trkpt>
      <trkpt lat="44.19327" lon="6.79845">
        <ele>1820.585</ele>
        <time>2011-06-12T08:10:46Z</time>
      </trkpt>
      <trkpt lat="44.19333" lon="6.79846">
        <ele>1828.348</ele>
        <time>2011-06-12T08:10:53Z</time>
      </trkpt>
      <trkpt lat="44.19331" lon="6.79857">
        <ele>1835.165</ele>
        <time>2011-06-12T08:11:01Z</time>
      </trkpt>
      <trkpt lat="44.19329" lon="6.79863">
        <ele>1834.333</ele>
        <time>2011-06-12T08:11:05Z</time>
      </trkpt>
      <trkpt lat="44.19326" lon="6.79878">
        <ele>1828.141</ele>
        <time>2011-06-12T08:11:13Z</time>
      </trkpt>
      <trkpt lat="44.19324" lon="6.7988">
        <ele>1828.542</ele>
        <time>2011-06-12T08:11:16Z</time>
      </trkpt>
      <trkpt lat="44.19323" lon="6.79882">
        <ele>1828.513</ele>
        <time>2011-06-12T08:11:22Z</time>
      </trkpt>
      <trkpt lat="44.19322" lon="6.79879">
        <ele>1829.135</ele>
        <time>2011-06-12T08:11:27Z</time>
      </trkpt>
      <trkpt lat="44.19321" lon="6.79878">
        <ele>1829.591</ele>
        <time>2011-06-12T08:11:28Z</time>
      </trkpt>
      <trkpt lat="44.1932" lon="6.79872">
        <ele>1831.505</ele>
        <time>2011-06-12T08:11:31Z</time>
      </trkpt>
      <trkpt lat="44.19317" lon="6.79866">
        <ele>1829.355</ele>
        <time>2011-06-12T08:11:35Z</time>
      </trkpt>
      <trkpt lat="44.19314" lon="6.79855">
        <ele>1831.569</ele>
        <time>2011-06-12T08:11:41Z</time>
      </trkpt>
      <trkpt lat="44.19311" lon="6.7985">
        <ele>1833.224</ele>
        <time>2011-06-12T08:11:45Z</time>
      </trkpt>
      <trkpt lat="44.19311" lon="6.79847">
        <ele>1833.312</ele>
        <time>2011-06-12T08:11:47Z</time>
      </trkpt>
      <trkpt lat="44.19307" lon="6.79839">
        <ele>1833.109</ele>
        <time>2011-06-12T08:11:54Z</time>
      </trkpt>
      <trkpt lat="44.19306" lon="6.79835">
        <ele>1833.124</ele>
        <time>2011-06-12T08:12:00Z</time>
      </trkpt>
      <trkpt lat="44.19305" lon="6.79831">
        <ele>1837.092</ele>
        <time>2011-06-12T08:12:06Z</time>
      </trkpt>
      <trkpt lat="44.19302" lon="6.79836">
        <ele>1834.363</ele>
        <time>2011-06-12T08:12:11Z</time>
      </trkpt>
      <trkpt lat="44.19299" lon="6.79843">
        <ele>1829.946</ele>
        <time>2011-06-12T08:12:17Z</time>
      </trkpt>
      <trkpt lat="44.19298" lon="6.79846">
        <ele>1827.642</ele>
        <time>2011-06-12T08:12:22Z</time>
      </trkpt>
      <trkpt lat="44.19298" lon="6.7985">
        <ele>1825.512</ele>
        <time>2011-06-12T08:12:28Z</time>
      </trkpt>
      <trkpt lat="44.19296" lon="6.79853">
        <ele>1830.344</ele>
        <time>2011-06-12T08:12:33Z</time>
      </trkpt>
      <trkpt lat="44.19294" lon="6.79856">
        <ele>1832.359</ele>
        <time>2011-06-12T08:12:38Z</time>
      </trkpt>
      <trkpt lat="44.1929" lon="6.79862">
        <ele>1832.949</ele>
        <time>2011-06-12T08:12:44Z</time>
      </trkpt>
      <trkpt lat="44.19286" lon="6.79869">
        <ele>1834.566</ele>
        <time>2011-06-12T08:12:51Z</time>
      </trkpt>
      <trkpt lat="44.19286" lon="6.79872">
        <ele>1836.212</ele>
        <time>2011-06-12T08:12:57Z</time>
      </trkpt>
      <trkpt lat="44.19286" lon="6.79879">
        <ele>1833.578</ele>
        <time>2011-06-12T08:13:07Z</time>
      </trkpt>
      <trkpt lat="44.19285" lon="6.79875">
        <ele>1842.036</ele>
        <time>2011-06-12T08:13:15Z</time>
      </trkpt>
      <trkpt lat="44.19281" lon="6.79878">
        <ele>1840.721</ele>
        <time>2011-06-12T08:13:22Z</time>
      </trkpt>
      <trkpt lat="44.19276" lon="6.79886">
        <ele>1837.206</ele>
        <time>2011-06-12T08:13:31Z</time>
      </trkpt>
      <trkpt lat="44.19274" lon="6.79893">
        <ele>1838.158</ele>
        <time>2011-06-12T08:13:37Z</time>
      </trkpt>
      <trkpt lat="44.19274" lon="6.79897">
        <ele>1839.174</ele>
        <time>2011-06-12T08:13:46Z</time>
      </trkpt>
      <trkpt lat="44.19273" lon="6.79899">
        <ele>1836.975</ele>
        <time>2011-06-12T08:13:48Z</time>
      </trkpt>
      <trkpt lat="44.19269" lon="6.79908">
        <ele>1834.999</ele>
        <time>2011-06-12T08:13:57Z</time>
      </trkpt>
      <trkpt lat="44.19265" lon="6.79912">
        <ele>1841.087</ele>
        <time>2011-06-12T08:14:08Z</time>
      </trkpt>
      <trkpt lat="44.19263" lon="6.79921">
        <ele>1837.478</ele>
        <time>2011-06-12T08:14:12Z</time>
      </trkpt>
      <trkpt lat="44.19259" lon="6.79934">
        <ele>1838.216</ele>
        <time>2011-06-12T08:14:19Z</time>
      </trkpt>
      <trkpt lat="44.1926" lon="6.7994">
        <ele>1841.064</ele>
        <time>2011-06-12T08:14:22Z</time>
      </trkpt>
      <trkpt lat="44.19258" lon="6.79949">
        <ele>1844.73</ele>
        <time>2011-06-12T08:14:28Z</time>
      </trkpt>
      <trkpt lat="44.19253" lon="6.79957">
        <ele>1852.163</ele>
        <time>2011-06-12T08:14:34Z</time>
      </trkpt>
      <trkpt lat="44.19253" lon="6.7996">
        <ele>1853.09</ele>
        <time>2011-06-12T08:14:36Z</time>
      </trkpt>
      <trkpt lat="44.19255" lon="6.79967">
        <ele>1855.434</ele>
        <time>2011-06-12T08:14:41Z</time>
      </trkpt>
      <trkpt lat="44.19254" lon="6.79978">
        <ele>1855.939</ele>
        <time>2011-06-12T08:14:47Z</time>
      </trkpt>
      <trkpt lat="44.19255" lon="6.7998">
        <ele>1855.215</ele>
        <time>2011-06-12T08:14:48Z</time>
      </trkpt>
      <trkpt lat="44.19257" lon="6.79993">
        <ele>1853.644</ele>
        <time>2011-06-12T08:14:56Z</time>
      </trkpt>
      <trkpt lat="44.19259" lon="6.80003">
        <ele>1852.968</ele>
        <time>2011-06-12T08:15:02Z</time>
      </trkpt>
      <trkpt lat="44.19259" lon="6.80009">
        <ele>1852.85</ele>
        <time>2011-06-12T08:15:05Z</time>
      </trkpt>
      <trkpt lat="44.19253" lon="6.80017">
        <ele>1853.159</ele>
        <time>2011-06-12T08:15:11Z</time>
      </trkpt>
      <trkpt lat="44.19251" lon="6.80019">
        <ele>1851.613</ele>
        <time>2011-06-12T08:15:16Z</time>
      </trkpt>
      <trkpt lat="44.19253" lon="6.80019">
        <ele>1854.062</ele>
        <time>2011-06-12T08:15:21Z</time>
      </trkpt>
      <trkpt lat="44.19261" lon="6.80014">
        <ele>1861.585</ele>
        <time>2011-06-12T08:15:43Z</time>
      </trkpt>
      <trkpt lat="44.19256" lon="6.8001">
        <ele>1862.765</ele>
        <time>2011-06-12T08:15:49Z</time>
      </trkpt>
      <trkpt lat="44.19252" lon="6.80012">
        <ele>1859.221</ele>
        <time>2011-06-12T08:15:54Z</time>
      </trkpt>
      <trkpt lat="44.19247" lon="6.80016">
        <ele>1858.633</ele>
        <time>2011-06-12T08:16:00Z</time>
      </trkpt>
      <trkpt lat="44.19245" lon="6.8002">
        <ele>1858.533</ele>
        <time>2011-06-12T08:16:03Z</time>
      </trkpt>
      <trkpt lat="44.1924" lon="6.80032">
        <ele>1856.661</ele>
        <time>2011-06-12T08:16:10Z</time>
      </trkpt>
      <trkpt lat="44.19238" lon="6.80037">
        <ele>1861.294</ele>
        <time>2011-06-12T08:16:15Z</time>
      </trkpt>
      <trkpt lat="44.19235" lon="6.80044">
        <ele>1858.81</ele>
        <time>2011-06-12T08:16:20Z</time>
      </trkpt>
      <trkpt lat="44.19229" lon="6.80051">
        <ele>1860.574</ele>
        <time>2011-06-12T08:16:26Z</time>
      </trkpt>
      <trkpt lat="44.19223" lon="6.80057">
        <ele>1860.872</ele>
        <time>2011-06-12T08:16:32Z</time>
      </trkpt>
      <trkpt lat="44.1922" lon="6.80064">
        <ele>1860.452</ele>
        <time>2011-06-12T08:16:38Z</time>
      </trkpt>
      <trkpt lat="44.19218" lon="6.80065">
        <ele>1859.771</ele>
        <time>2011-06-12T08:16:40Z</time>
      </trkpt>
      <trkpt lat="44.19217" lon="6.80062">
        <ele>1859.761</ele>
        <time>2011-06-12T08:16:46Z</time>
      </trkpt>
      <trkpt lat="44.19218" lon="6.80061">
        <ele>1859.881</ele>
        <time>2011-06-12T08:16:47Z</time>
      </trkpt>
      <trkpt lat="44.19223" lon="6.8005">
        <ele>1862.156</ele>
        <time>2011-06-12T08:16:54Z</time>
      </trkpt>
      <trkpt lat="44.19224" lon="6.80036">
        <ele>1866.088</ele>
        <time>2011-06-12T08:17:00Z</time>
      </trkpt>
      <trkpt lat="44.19219" lon="6.80012">
        <ele>1875.094</ele>
        <time>2011-06-12T08:17:08Z</time>
      </trkpt>
      <trkpt lat="44.19215" lon="6.79998">
        <ele>1883.529</ele>
        <time>2011-06-12T08:17:13Z</time>
      </trkpt>
      <trkpt lat="44.19212" lon="6.79989">
        <ele>1887.818</ele>
        <time>2011-06-12T08:17:17Z</time>
      </trkpt>
      <trkpt lat="44.19211" lon="6.7998">
        <ele>1892.7</ele>
        <time>2011-06-12T08:17:23Z</time>
      </trkpt>
      <trkpt lat="44.19205" lon="6.7997">
        <ele>1897.673</ele>
        <time>2011-06-12T08:17:28Z</time>
      </trkpt>
      <trkpt lat="44.19203" lon="6.79955">
        <ele>1906.48</ele>
        <time>2011-06-12T08:17:35Z</time>
      </trkpt>
      <trkpt lat="44.19201" lon="6.79947">
        <ele>1906.903</ele>
        <time>2011-06-12T08:17:41Z</time>
      </trkpt>
      <trkpt lat="44.19201" lon="6.79939">
        <ele>1900.796</ele>
        <time>2011-06-12T08:17:48Z</time>
      </trkpt>
      <trkpt lat="44.19195" lon="6.79926">
        <ele>1899.302</ele>
        <time>2011-06-12T08:17:56Z</time>
      </trkpt>
      <trkpt lat="44.19195" lon="6.79924">
        <ele>1898.661</ele>
        <time>2011-06-12T08:17:57Z</time>
      </trkpt>
      <trkpt lat="44.19193" lon="6.79909">
        <ele>1896.742</ele>
        <time>2011-06-12T08:18:04Z</time>
      </trkpt>
      <trkpt lat="44.19192" lon="6.79905">
        <ele>1897.533</ele>
        <time>2011-06-12T08:18:06Z</time>
      </trkpt>
      <trkpt lat="44.19191" lon="6.79894">
        <ele>1896.906</ele>
        <time>2011-06-12T08:18:12Z</time>
      </trkpt>
      <trkpt lat="44.19187" lon="6.79884">
        <ele>1900.468</ele>
        <time>2011-06-12T08:18:19Z</time>
      </trkpt>
      <trkpt lat="44.19184" lon="6.79876">
        <ele>1899.114</ele>
        <time>2011-06-12T08:18:25Z</time>
      </trkpt>
      <trkpt lat="44.19183" lon="6.79869">
        <ele>1899.664</ele>
        <time>2011-06-12T08:18:31Z</time>
      </trkpt>
      <trkpt lat="44.19182" lon="6.79859">
        <ele>1899.974</ele>
        <time>2011-06-12T08:18:37Z</time>
      </trkpt>
      <trkpt lat="44.19177" lon="6.79845">
        <ele>1898.136</ele>
        <time>2011-06-12T08:18:45Z</time>
      </trkpt>
      <trkpt lat="44.19171" lon="6.79836">
        <ele>1900.596</ele>
        <time>2011-06-12T08:18:53Z</time>
      </trkpt>
      <trkpt lat="44.1917" lon="6.79821">
        <ele>1909.083</ele>
        <time>2011-06-12T08:19:01Z</time>
      </trkpt>
      <trkpt lat="44.19168" lon="6.79817">
        <ele>1910.571</ele>
        <time>2011-06-12T08:19:04Z</time>
      </trkpt>
      <trkpt lat="44.19167" lon="6.79812">
        <ele>1909.648</ele>
        <time>2011-06-12T08:19:07Z</time>
      </trkpt>
      <trkpt lat="44.19161" lon="6.79804">
        <ele>1911.857</ele>
        <time>2011-06-12T08:19:14Z</time>
      </trkpt>
      <trkpt lat="44.19154" lon="6.79799">
        <ele>1905.403</ele>
        <time>2011-06-12T08:19:21Z</time>
      </trkpt>
      <trkpt lat="44.19152" lon="6.79798">
        <ele>1903.052</ele>
        <time>2011-06-12T08:19:25Z</time>
      </trkpt>
      <trkpt lat="44.19149" lon="6.79796">
        <ele>1903.244</ele>
        <time>2011-06-12T08:19:27Z</time>
      </trkpt>
      <trkpt lat="44.19142" lon="6.79786">
        <ele>1901.153</ele>
        <time>2011-06-12T08:19:35Z</time>
      </trkpt>
      <trkpt lat="44.19141" lon="6.79782">
        <ele>1900.533</ele>
        <time>2011-06-12T08:19:39Z</time>
      </trkpt>
      <trkpt lat="44.19139" lon="6.79775">
        <ele>1909.759</ele>
        <time>2011-06-12T08:20:16Z</time>
      </trkpt>
      <trkpt lat="44.19137" lon="6.79774">
        <ele>1903.519</ele>
        <time>2011-06-12T08:20:23Z</time>
      </trkpt>
      <trkpt lat="44.19136" lon="6.79771">
        <ele>1902.561</ele>
        <time>2011-06-12T08:20:31Z</time>
      </trkpt>
      <trkpt lat="44.19134" lon="6.79774">
        <ele>1898.147</ele>
        <time>2011-06-12T08:20:41Z</time>
      </trkpt>
      <trkpt lat="44.19131" lon="6.79785">
        <ele>1895.12</ele>
        <time>2011-06-12T08:20:49Z</time>
      </trkpt>
      <trkpt lat="44.1913" lon="6.79795">
        <ele>1893.914</ele>
        <time>2011-06-12T08:21:01Z</time>
      </trkpt>
      <trkpt lat="44.19129" lon="6.79806">
        <ele>1898.518</ele>
        <time>2011-06-12T08:21:07Z</time>
      </trkpt>
      <trkpt lat="44.1913" lon="6.79812">
        <ele>1904.542</ele>
        <time>2011-06-12T08:21:11Z</time>
      </trkpt>
      <trkpt lat="44.19126" lon="6.7982">
        <ele>1906.498</ele>
        <time>2011-06-12T08:21:16Z</time>
      </trkpt>
      <trkpt lat="44.19127" lon="6.79824">
        <ele>1906.397</ele>
        <time>2011-06-12T08:21:18Z</time>
      </trkpt>
      <trkpt lat="44.19129" lon="6.79834">
        <ele>1905.652</ele>
        <time>2011-06-12T08:21:22Z</time>
      </trkpt>
      <trkpt lat="44.19131" lon="6.7985">
        <ele>1899.915</ele>
        <time>2011-06-12T08:21:30Z</time>
      </trkpt>
      <trkpt lat="44.19125" lon="6.7986">
        <ele>1899.039</ele>
        <time>2011-06-12T08:21:36Z</time>
      </trkpt>
      <trkpt lat="44.19121" lon="6.79866">
        <ele>1903.166</ele>
        <time>2011-06-12T08:21:42Z</time>
      </trkpt>
      <trkpt lat="44.19122" lon="6.79868">
        <ele>1902.512</ele>
        <time>2011-06-12T08:21:49Z</time>
      </trkpt>
      <trkpt lat="44.19122" lon="6.79872">
        <ele>1901.32</ele>
        <time>2011-06-12T08:22:02Z</time>
      </trkpt>
      <trkpt lat="44.19117" lon="6.79881">
        <ele>1904.625</ele>
        <time>2011-06-12T08:22:11Z</time>
      </trkpt>
      <trkpt lat="44.19114" lon="6.79885">
        <ele>1906.776</ele>
        <time>2011-06-12T08:22:16Z</time>
      </trkpt>
      <trkpt lat="44.1911" lon="6.79895">
        <ele>1909.657</ele>
        <time>2011-06-12T08:22:24Z</time>
      </trkpt>
      <trkpt lat="44.19108" lon="6.79899">
        <ele>1908.253</ele>
        <time>2011-06-12T08:22:26Z</time>
      </trkpt>
      <trkpt lat="44.19108" lon="6.79906">
        <ele>1906.912</ele>
        <time>2011-06-12T08:22:29Z</time>
      </trkpt>
      <trkpt lat="44.19105" lon="6.79915">
        <ele>1909.864</ele>
        <time>2011-06-12T08:22:36Z</time>
      </trkpt>
      <trkpt lat="44.19104" lon="6.7992">
        <ele>1916.67</ele>
        <time>2011-06-12T08:22:43Z</time>
      </trkpt>
      <trkpt lat="44.19104" lon="6.79933">
        <ele>1911.78</ele>
        <time>2011-06-12T08:22:49Z</time>
      </trkpt>
      <trkpt lat="44.191" lon="6.79941">
        <ele>1914.596</ele>
        <time>2011-06-12T08:22:57Z</time>
      </trkpt>
      <trkpt lat="44.19098" lon="6.79943">
        <ele>1915.256</ele>
        <time>2011-06-12T08:23:00Z</time>
      </trkpt>
      <trkpt lat="44.19095" lon="6.79954">
        <ele>1911.743</ele>
        <time>2011-06-12T08:23:06Z</time>
      </trkpt>
      <trkpt lat="44.19093" lon="6.79958">
        <ele>1911.283</ele>
        <time>2011-06-12T08:23:09Z</time>
      </trkpt>
      <trkpt lat="44.19092" lon="6.7996">
        <ele>1912.942</ele>
        <time>2011-06-12T08:23:16Z</time>
      </trkpt>
      <trkpt lat="44.19087" lon="6.79951">
        <ele>1935.767</ele>
        <time>2011-06-12T08:23:37Z</time>
      </trkpt>
      <trkpt lat="44.19084" lon="6.79966">
        <ele>1927.418</ele>
        <time>2011-06-12T08:23:45Z</time>
      </trkpt>
      <trkpt lat="44.19084" lon="6.79968">
        <ele>1926.307</ele>
        <time>2011-06-12T08:23:46Z</time>
      </trkpt>
      <trkpt lat="44.19083" lon="6.79967">
        <ele>1922.968</ele>
        <time>2011-06-12T08:23:52Z</time>
      </trkpt>
      <trkpt lat="44.19082" lon="6.79964">
        <ele>1926.532</ele>
        <time>2011-06-12T08:23:57Z</time>
      </trkpt>
      <trkpt lat="44.1908" lon="6.7996">
        <ele>1925.832</ele>
        <time>2011-06-12T08:24:01Z</time>
      </trkpt>
      <trkpt lat="44.1908" lon="6.79946">
        <ele>1936.823</ele>
        <time>2011-06-12T08:24:10Z</time>
      </trkpt>
      <trkpt lat="44.19079" lon="6.79938">
        <ele>1938.572</ele>
        <time>2011-06-12T08:24:14Z</time>
      </trkpt>
      <trkpt lat="44.19079" lon="6.79928">
        <ele>1939.058</ele>
        <time>2011-06-12T08:24:19Z</time>
      </trkpt>
      <trkpt lat="44.19075" lon="6.79913">
        <ele>1943.751</ele>
        <time>2011-06-12T08:24:26Z</time>
      </trkpt>
      <trkpt lat="44.19072" lon="6.79904">
        <ele>1942.745</ele>
        <time>2011-06-12T08:24:33Z</time>
      </trkpt>
      <trkpt lat="44.19067" lon="6.79891">
        <ele>1940.184</ele>
        <time>2011-06-12T08:24:41Z</time>
      </trkpt>
      <trkpt lat="44.19066" lon="6.79888">
        <ele>1936.75</ele>
        <time>2011-06-12T08:24:46Z</time>
      </trkpt>
      <trkpt lat="44.19066" lon="6.79881">
        <ele>1933.791</ele>
        <time>2011-06-12T08:25:11Z</time>
      </trkpt>
      <trkpt lat="44.19058" lon="6.79869">
        <ele>1933.09</ele>
        <time>2011-06-12T08:25:19Z</time>
      </trkpt>
      <trkpt lat="44.1905" lon="6.79855">
        <ele>1932.722</ele>
        <time>2011-06-12T08:25:28Z</time>
      </trkpt>
      <trkpt lat="44.19043" lon="6.79841">
        <ele>1932.061</ele>
        <time>2011-06-12T08:25:37Z</time>
      </trkpt>
      <trkpt lat="44.19039" lon="6.79829">
        <ele>1937.465</ele>
        <time>2011-06-12T08:25:43Z</time>
      </trkpt>
      <trkpt lat="44.19039" lon="6.79823">
        <ele>1938.834</ele>
        <time>2011-06-12T08:25:47Z</time>
      </trkpt>
      <trkpt lat="44.19033" lon="6.79811">
        <ele>1939.023</ele>
        <time>2011-06-12T08:25:55Z</time>
      </trkpt>
      <trkpt lat="44.19025" lon="6.79798">
        <ele>1942.561</ele>
        <time>2011-06-12T08:26:04Z</time>
      </trkpt>
      <trkpt lat="44.19022" lon="6.79792">
        <ele>1944.971</ele>
        <time>2011-06-12T08:26:09Z</time>
      </trkpt>
      <trkpt lat="44.19016" lon="6.79785">
        <ele>1945.221</ele>
        <time>2011-06-12T08:26:14Z</time>
      </trkpt>
      <trkpt lat="44.19005" lon="6.79774">
        <ele>1947.314</ele>
        <time>2011-06-12T08:26:22Z</time>
      </trkpt>
      <trkpt lat="44.19002" lon="6.79769">
        <ele>1948.144</ele>
        <time>2011-06-12T08:26:27Z</time>
      </trkpt>
      <trkpt lat="44.18999" lon="6.79764">
        <ele>1950.414</ele>
        <time>2011-06-12T08:26:34Z</time>
      </trkpt>
      <trkpt lat="44.18995" lon="6.7976">
        <ele>1951.495</ele>
        <time>2011-06-12T08:26:42Z</time>
      </trkpt>
      <trkpt lat="44.18991" lon="6.79757">
        <ele>1953.074</ele>
        <time>2011-06-12T08:26:49Z</time>
      </trkpt>
      <trkpt lat="44.18987" lon="6.79748">
        <ele>1954.935</ele>
        <time>2011-06-12T08:26:58Z</time>
      </trkpt>
      <trkpt lat="44.18986" lon="6.79742">
        <ele>1955.512</ele>
        <time>2011-06-12T08:27:04Z</time>
      </trkpt>
      <trkpt lat="44.18982" lon="6.79737">
        <ele>1955.5</ele>
        <time>2011-06-12T08:27:11Z</time>
      </trkpt>
      <trkpt lat="44.18978" lon="6.79729">
        <ele>1959.174</ele>
        <time>2011-06-12T08:27:17Z</time>
      </trkpt>
      <trkpt lat="44.18975" lon="6.79725">
        <ele>1963.076</ele>
        <time>2011-06-12T08:27:22Z</time>
      </trkpt>
      <trkpt lat="44.1897" lon="6.79719">
        <ele>1967.546</ele>
        <time>2011-06-12T08:27:33Z</time>
      </trkpt>
      <trkpt lat="44.18967" lon="6.79715">
        <ele>1969.226</ele>
        <time>2011-06-12T08:27:40Z</time>
      </trkpt>
      <trkpt lat="44.18962" lon="6.79711">
        <ele>1971.676</ele>
        <time>2011-06-12T08:27:46Z</time>
      </trkpt>
      <trkpt lat="44.18959" lon="6.7971">
        <ele>1970.533</ele>
        <time>2011-06-12T08:27:49Z</time>
      </trkpt>
      <trkpt lat="44.18956" lon="6.79706">
        <ele>1971.412</ele>
        <time>2011-06-12T08:27:55Z</time>
      </trkpt>
      <trkpt lat="44.18953" lon="6.79704">
        <ele>1972.063</ele>
        <time>2011-06-12T08:28:00Z</time>
      </trkpt>
      <trkpt lat="44.1895" lon="6.79706">
        <ele>1971.902</ele>
        <time>2011-06-12T08:28:06Z</time>
      </trkpt>
      <trkpt lat="44.18949" lon="6.7971">
        <ele>1967.559</ele>
        <time>2011-06-12T08:28:11Z</time>
      </trkpt>
      <trkpt lat="44.18949" lon="6.79713">
        <ele>1966.078</ele>
        <time>2011-06-12T08:28:13Z</time>
      </trkpt>
      <trkpt lat="44.18949" lon="6.79717">
        <ele>1966.44</ele>
        <time>2011-06-12T08:28:19Z</time>
      </trkpt>
      <trkpt lat="44.1895" lon="6.7972">
        <ele>1966.048</ele>
        <time>2011-06-12T08:28:23Z</time>
      </trkpt>
      <trkpt lat="44.18951" lon="6.79729">
        <ele>1964.345</ele>
        <time>2011-06-12T08:28:28Z</time>
      </trkpt>
      <trkpt lat="44.18954" lon="6.79745">
        <ele>1964.97</ele>
        <time>2011-06-12T08:28:36Z</time>
      </trkpt>
      <trkpt lat="44.1895" lon="6.7976">
        <ele>1965.102</ele>
        <time>2011-06-12T08:28:44Z</time>
      </trkpt>
      <trkpt lat="44.1895" lon="6.79775">
        <ele>1967.174</ele>
        <time>2011-06-12T08:28:51Z</time>
      </trkpt>
      <trkpt lat="44.18952" lon="6.79777">
        <ele>1970.518</ele>
        <time>2011-06-12T08:28:53Z</time>
      </trkpt>
      <trkpt lat="44.18956" lon="6.79789">
        <ele>1970.112</ele>
        <time>2011-06-12T08:29:00Z</time>
      </trkpt>
      <trkpt lat="44.18951" lon="6.79804">
        <ele>1971.389</ele>
        <time>2011-06-12T08:29:08Z</time>
      </trkpt>
      <trkpt lat="44.1895" lon="6.79812">
        <ele>1970.52</ele>
        <time>2011-06-12T08:29:12Z</time>
      </trkpt>
      <trkpt lat="44.18949" lon="6.79821">
        <ele>1971.101</ele>
        <time>2011-06-12T08:29:18Z</time>
      </trkpt>
      <trkpt lat="44.18947" lon="6.7983">
        <ele>1971.443</ele>
        <time>2011-06-12T08:29:24Z</time>
      </trkpt>
      <trkpt lat="44.18947" lon="6.79834">
        <ele>1971.972</ele>
        <time>2011-06-12T08:29:26Z</time>
      </trkpt>
      <trkpt lat="44.18947" lon="6.79837">
        <ele>1971.031</ele>
        <time>2011-06-12T08:29:28Z</time>
      </trkpt>
      <trkpt lat="44.18945" lon="6.79844">
        <ele>1972.983</ele>
        <time>2011-06-12T08:29:33Z</time>
      </trkpt>
      <trkpt lat="44.18945" lon="6.79855">
        <ele>1974.651</ele>
        <time>2011-06-12T08:29:40Z</time>
      </trkpt>
      <trkpt lat="44.18948" lon="6.79864">
        <ele>1977.461</ele>
        <time>2011-06-12T08:29:46Z</time>
      </trkpt>
      <trkpt lat="44.1895" lon="6.7988">
        <ele>1978.232</ele>
        <time>2011-06-12T08:29:54Z</time>
      </trkpt>
      <trkpt lat="44.18951" lon="6.79891">
        <ele>1980.183</ele>
        <time>2011-06-12T08:30:02Z</time>
      </trkpt>
      <trkpt lat="44.18951" lon="6.79891">
        <ele>1983.002</ele>
        <time>2011-06-12T08:30:09Z</time>
      </trkpt>
      <trkpt lat="44.1895" lon="6.79894">
        <ele>1981.04</ele>
        <time>2011-06-12T08:30:17Z</time>
      </trkpt>
      <trkpt lat="44.1895" lon="6.79894">
        <ele>1982.172</ele>
        <time>2011-06-12T08:30:24Z</time>
      </trkpt>
      <trkpt lat="44.18952" lon="6.79908">
        <ele>1981.302</ele>
        <time>2011-06-12T08:30:31Z</time>
      </trkpt>
      <trkpt lat="44.18951" lon="6.79915">
        <ele>1981.201</ele>
        <time>2011-06-12T08:30:34Z</time>
      </trkpt>
      <trkpt lat="44.18946" lon="6.79932">
        <ele>1980.211</ele>
        <time>2011-06-12T08:30:42Z</time>
      </trkpt>
      <trkpt lat="44.18944" lon="6.79943">
        <ele>1980.734</ele>
        <time>2011-06-12T08:30:48Z</time>
      </trkpt>
      <trkpt lat="44.18944" lon="6.79952">
        <ele>1983.597</ele>
        <time>2011-06-12T08:30:54Z</time>
      </trkpt>
      <trkpt lat="44.18941" lon="6.79962">
        <ele>1983.886</ele>
        <time>2011-06-12T08:30:59Z</time>
      </trkpt>
      <trkpt lat="44.18939" lon="6.79973">
        <ele>1985.756</ele>
        <time>2011-06-12T08:31:06Z</time>
      </trkpt>
      <trkpt lat="44.18939" lon="6.79977">
        <ele>1986.535</ele>
        <time>2011-06-12T08:31:09Z</time>
      </trkpt>
      <trkpt lat="44.18944" lon="6.79994">
        <ele>1985.36</ele>
        <time>2011-06-12T08:31:18Z</time>
      </trkpt>
      <trkpt lat="44.18946" lon="6.80007">
        <ele>1989.894</ele>
        <time>2011-06-12T08:31:26Z</time>
      </trkpt>
      <trkpt lat="44.18946" lon="6.8002">
        <ele>1990.14</ele>
        <time>2011-06-12T08:31:33Z</time>
      </trkpt>
      <trkpt lat="44.18951" lon="6.80034">
        <ele>1992.821</ele>
        <time>2011-06-12T08:31:40Z</time>
      </trkpt>
      <trkpt lat="44.18953" lon="6.80043">
        <ele>1993.752</ele>
        <time>2011-06-12T08:31:44Z</time>
      </trkpt>
      <trkpt lat="44.18953" lon="6.80056">
        <ele>1991.18</ele>
        <time>2011-06-12T08:31:51Z</time>
      </trkpt>
      <trkpt lat="44.18949" lon="6.80063">
        <ele>1991.102</ele>
        <time>2011-06-12T08:31:57Z</time>
      </trkpt>
      <trkpt lat="44.18947" lon="6.80065">
        <ele>1992.054</ele>
        <time>2011-06-12T08:32:02Z</time>
      </trkpt>
      <trkpt lat="44.18946" lon="6.80068">
        <ele>1994.035</ele>
        <time>2011-06-12T08:32:07Z</time>
      </trkpt>
      <trkpt lat="44.18942" lon="6.80073">
        <ele>1993.825</ele>
        <time>2011-06-12T08:32:15Z</time>
      </trkpt>
      <trkpt lat="44.18942" lon="6.80077">
        <ele>1996.053</ele>
        <time>2011-06-12T08:32:28Z</time>
      </trkpt>
      <trkpt lat="44.18941" lon="6.80079">
        <ele>1994.97</ele>
        <time>2011-06-12T08:32:30Z</time>
      </trkpt>
      <trkpt lat="44.18943" lon="6.80085">
        <ele>1998.763</ele>
        <time>2011-06-12T08:32:36Z</time>
      </trkpt>
      <trkpt lat="44.18948" lon="6.80087">
        <ele>2000.767</ele>
        <time>2011-06-12T08:32:41Z</time>
      </trkpt>
      <trkpt lat="44.18951" lon="6.80087">
        <ele>2007.188</ele>
        <time>2011-06-12T08:32:47Z</time>
      </trkpt>
      <trkpt lat="44.18956" lon="6.80089">
        <ele>2008.075</ele>
        <time>2011-06-12T08:32:54Z</time>
      </trkpt>
      <trkpt lat="44.1896" lon="6.80097">
        <ele>2002.45</ele>
        <time>2011-06-12T08:33:04Z</time>
      </trkpt>
      <trkpt lat="44.18968" lon="6.80109">
        <ele>2001.14</ele>
        <time>2011-06-12T08:33:10Z</time>
      </trkpt>
      <trkpt lat="44.18973" lon="6.80121">
        <ele>2000.531</ele>
        <time>2011-06-12T08:33:16Z</time>
      </trkpt>
      <trkpt lat="44.18979" lon="6.80129">
        <ele>2001.444</ele>
        <time>2011-06-12T08:33:21Z</time>
      </trkpt>
      <trkpt lat="44.18982" lon="6.80144">
        <ele>2003.875</ele>
        <time>2011-06-12T08:33:29Z</time>
      </trkpt>
      <trkpt lat="44.18982" lon="6.80157">
        <ele>2002.344</ele>
        <time>2011-06-12T08:33:35Z</time>
      </trkpt>
      <trkpt lat="44.18985" lon="6.80164">
        <ele>2006.719</ele>
        <time>2011-06-12T08:33:40Z</time>
      </trkpt>
      <trkpt lat="44.18985" lon="6.80167">
        <ele>2007.846</ele>
        <time>2011-06-12T08:33:42Z</time>
      </trkpt>
      <trkpt lat="44.18986" lon="6.80171">
        <ele>2009.207</ele>
        <time>2011-06-12T08:33:45Z</time>
      </trkpt>
      <trkpt lat="44.18989" lon="6.80184">
        <ele>2011.106</ele>
        <time>2011-06-12T08:33:52Z</time>
      </trkpt>
      <trkpt lat="44.18989" lon="6.80186">
        <ele>2009.344</ele>
        <time>2011-06-12T08:33:53Z</time>
      </trkpt>
      <trkpt lat="44.1899" lon="6.80204">
        <ele>2003.179</ele>
        <time>2011-06-12T08:34:00Z</time>
      </trkpt>
      <trkpt lat="44.18989" lon="6.80208">
        <ele>2002.939</ele>
        <time>2011-06-12T08:34:03Z</time>
      </trkpt>
      <trkpt lat="44.18992" lon="6.80218">
        <ele>2003.781</ele>
        <time>2011-06-12T08:34:08Z</time>
      </trkpt>
      <trkpt lat="44.18998" lon="6.80234">
        <ele>2007.954</ele>
        <time>2011-06-12T08:34:15Z</time>
      </trkpt>
      <trkpt lat="44.18999" lon="6.80245">
        <ele>2009.794</ele>
        <time>2011-06-12T08:34:21Z</time>
      </trkpt>
      <trkpt lat="44.19" lon="6.80258">
        <ele>2007.432</ele>
        <time>2011-06-12T08:34:28Z</time>
      </trkpt>
      <trkpt lat="44.19001" lon="6.80266">
        <ele>2005.86</ele>
        <time>2011-06-12T08:34:33Z</time>
      </trkpt>
      <trkpt lat="44.19003" lon="6.80277">
        <ele>2008.882</ele>
        <time>2011-06-12T08:34:41Z</time>
      </trkpt>
      <trkpt lat="44.19006" lon="6.80294">
        <ele>2006.098</ele>
        <time>2011-06-12T08:34:48Z</time>
      </trkpt>
      <trkpt lat="44.19008" lon="6.8031">
        <ele>2004.24</ele>
        <time>2011-06-12T08:34:55Z</time>
      </trkpt>
      <trkpt lat="44.19011" lon="6.80329">
        <ele>2005.923</ele>
        <time>2011-06-12T08:35:03Z</time>
      </trkpt>
      <trkpt lat="44.19013" lon="6.80346">
        <ele>2003.77</ele>
        <time>2011-06-12T08:35:09Z</time>
      </trkpt>
      <trkpt lat="44.19016" lon="6.80359">
        <ele>2005.292</ele>
        <time>2011-06-12T08:35:15Z</time>
      </trkpt>
      <trkpt lat="44.1902" lon="6.80375">
        <ele>2004.882</ele>
        <time>2011-06-12T08:35:21Z</time>
      </trkpt>
      <trkpt lat="44.19023" lon="6.80383">
        <ele>2005.142</ele>
        <time>2011-06-12T08:35:24Z</time>
      </trkpt>
      <trkpt lat="44.19021" lon="6.80399">
        <ele>2005.041</ele>
        <time>2011-06-12T08:35:31Z</time>
      </trkpt>
      <trkpt lat="44.19021" lon="6.80402">
        <ele>2006.203</ele>
        <time>2011-06-12T08:35:32Z</time>
      </trkpt>
      <trkpt lat="44.19016" lon="6.8042">
        <ele>2007.564</ele>
        <time>2011-06-12T08:35:39Z</time>
      </trkpt>
      <trkpt lat="44.19008" lon="6.80434">
        <ele>2004.551</ele>
        <time>2011-06-12T08:35:45Z</time>
      </trkpt>
      <trkpt lat="44.19003" lon="6.80445">
        <ele>2006.423</ele>
        <time>2011-06-12T08:35:51Z</time>
      </trkpt>
      <trkpt lat="44.18995" lon="6.80461">
        <ele>2010.506</ele>
        <time>2011-06-12T08:35:58Z</time>
      </trkpt>
      <trkpt lat="44.18988" lon="6.80473">
        <ele>2008.543</ele>
        <time>2011-06-12T08:36:04Z</time>
      </trkpt>
      <trkpt lat="44.18983" lon="6.80483">
        <ele>2010.904</ele>
        <time>2011-06-12T08:36:10Z</time>
      </trkpt>
      <trkpt lat="44.18982" lon="6.80487">
        <ele>2011.203</ele>
        <time>2011-06-12T08:36:12Z</time>
      </trkpt>
      <trkpt lat="44.18974" lon="6.80495">
        <ele>2007.511</ele>
        <time>2011-06-12T08:36:18Z</time>
      </trkpt>
      <trkpt lat="44.18961" lon="6.80507">
        <ele>2007.612</ele>
        <time>2011-06-12T08:36:25Z</time>
      </trkpt>
      <trkpt lat="44.18966" lon="6.80513">
        <ele>2012.837</ele>
        <time>2011-06-12T08:36:29Z</time>
      </trkpt>
      <trkpt lat="44.18968" lon="6.80517">
        <ele>2013.136</ele>
        <time>2011-06-12T08:36:32Z</time>
      </trkpt>
      <trkpt lat="44.18958" lon="6.80532">
        <ele>2013.013</ele>
        <time>2011-06-12T08:36:38Z</time>
      </trkpt>
      <trkpt lat="44.18952" lon="6.80541">
        <ele>2015.124</ele>
        <time>2011-06-12T08:36:42Z</time>
      </trkpt>
      <trkpt lat="44.18943" lon="6.8055">
        <ele>2013.41</ele>
        <time>2011-06-12T08:36:46Z</time>
      </trkpt>
      <trkpt lat="44.18941" lon="6.80561">
        <ele>2014.631</ele>
        <time>2011-06-12T08:36:51Z</time>
      </trkpt>
      <trkpt lat="44.18943" lon="6.80562">
        <ele>2023.188</ele>
        <time>2011-06-12T08:36:57Z</time>
      </trkpt>
      <trkpt lat="44.18949" lon="6.80569">
        <ele>2025.186</ele>
        <time>2011-06-12T08:37:04Z</time>
      </trkpt>
      <trkpt lat="44.18946" lon="6.80574">
        <ele>2018.297</ele>
        <time>2011-06-12T08:37:12Z</time>
      </trkpt>
      <trkpt lat="44.18947" lon="6.80574">
        <ele>2012.86</ele>
        <time>2011-06-12T08:37:25Z</time>
      </trkpt>
      <trkpt lat="44.18948" lon="6.80575">
        <ele>2013.903</ele>
        <time>2011-06-12T08:37:28Z</time>
      </trkpt>
      <trkpt lat="44.18949" lon="6.80582">
        <ele>2010.03</ele>
        <time>2011-06-12T08:37:33Z</time>
      </trkpt>
      <trkpt lat="44.18949" lon="6.80587">
        <ele>2008.451</ele>
        <time>2011-06-12T08:37:37Z</time>
      </trkpt>
      <trkpt lat="44.18951" lon="6.8059">
        <ele>2005.582</ele>
        <time>2011-06-12T08:37:43Z</time>
      </trkpt>
      <trkpt lat="44.18949" lon="6.80592">
        <ele>2005.281</ele>
        <time>2011-06-12T08:37:48Z</time>
      </trkpt>
      <trkpt lat="44.18951" lon="6.80605">
        <ele>2006.263</ele>
        <time>2011-06-12T08:37:54Z</time>
      </trkpt>
      <trkpt lat="44.18949" lon="6.80618">
        <ele>2006.363</ele>
        <time>2011-06-12T08:38:00Z</time>
      </trkpt>
      <trkpt lat="44.18947" lon="6.80621">
        <ele>2008.062</ele>
        <time>2011-06-12T08:38:08Z</time>
      </trkpt>
      <trkpt lat="44.18946" lon="6.80623">
        <ele>2005.751</ele>
        <time>2011-06-12T08:38:10Z</time>
      </trkpt>
      <trkpt lat="44.18947" lon="6.80626">
        <ele>2004.57</ele>
        <time>2011-06-12T08:38:14Z</time>
      </trkpt>
      <trkpt lat="44.1895" lon="6.8063">
        <ele>2006.474</ele>
        <time>2011-06-12T08:38:21Z</time>
      </trkpt>
      <trkpt lat="44.1895" lon="6.80644">
        <ele>2017.772</ele>
        <time>2011-06-12T08:39:02Z</time>
      </trkpt>
      <trkpt lat="44.18951" lon="6.80649">
        <ele>2013.938</ele>
        <time>2011-06-12T08:39:08Z</time>
      </trkpt>
      <trkpt lat="44.18953" lon="6.80649">
        <ele>2010.69</ele>
        <time>2011-06-12T08:39:17Z</time>
      </trkpt>
      <trkpt lat="44.1896" lon="6.80661">
        <ele>2012.362</ele>
        <time>2011-06-12T08:39:22Z</time>
      </trkpt>
      <trkpt lat="44.18968" lon="6.80672">
        <ele>2013.074</ele>
        <time>2011-06-12T08:39:27Z</time>
      </trkpt>
      <trkpt lat="44.18971" lon="6.8069">
        <ele>2017.476</ele>
        <time>2011-06-12T08:39:34Z</time>
      </trkpt>
      <trkpt lat="44.18978" lon="6.80699">
        <ele>2019.157</ele>
        <time>2011-06-12T08:39:40Z</time>
      </trkpt>
      <trkpt lat="44.1898" lon="6.80704">
        <ele>2019.425</ele>
        <time>2011-06-12T08:39:43Z</time>
      </trkpt>
      <trkpt lat="44.18984" lon="6.8072">
        <ele>2017.634</ele>
        <time>2011-06-12T08:39:51Z</time>
      </trkpt>
      <trkpt lat="44.18988" lon="6.80734">
        <ele>2016.673</ele>
        <time>2011-06-12T08:39:57Z</time>
      </trkpt>
      <trkpt lat="44.18994" lon="6.80751">
        <ele>2012.783</ele>
        <time>2011-06-12T08:40:04Z</time>
      </trkpt>
      <trkpt lat="44.18995" lon="6.80758">
        <ele>2010.141</ele>
        <time>2011-06-12T08:40:06Z</time>
      </trkpt>
      <trkpt lat="44.18992" lon="6.80769">
        <ele>2008.288</ele>
        <time>2011-06-12T08:40:12Z</time>
      </trkpt>
      <trkpt lat="44.1899" lon="6.80774">
        <ele>2006.131</ele>
        <time>2011-06-12T08:40:21Z</time>
      </trkpt>
      <trkpt lat="44.1899" lon="6.80779">
        <ele>2005.099</ele>
        <time>2011-06-12T08:40:24Z</time>
      </trkpt>
      <trkpt lat="44.18994" lon="6.80781">
        <ele>2005.252</ele>
        <time>2011-06-12T08:40:29Z</time>
      </trkpt>
      <trkpt lat="44.18997" lon="6.80785">
        <ele>2002.684</ele>
        <time>2011-06-12T08:40:36Z</time>
      </trkpt>
      <trkpt lat="44.19" lon="6.80787">
        <ele>2005.175</ele>
        <time>2011-06-12T08:40:39Z</time>
      </trkpt>
      <trkpt lat="44.19006" lon="6.80802">
        <ele>2005.765</ele>
        <time>2011-06-12T08:40:43Z</time>
      </trkpt>
      <trkpt lat="44.19012" lon="6.80832">
        <ele>2006.266</ele>
        <time>2011-06-12T08:40:48Z</time>
      </trkpt>
      <trkpt lat="44.19021" lon="6.80851">
        <ele>2005.756</ele>
        <time>2011-06-12T08:40:51Z</time>
      </trkpt>
      <trkpt lat="44.19032" lon="6.80872">
        <ele>2003.513</ele>
        <time>2011-06-12T08:40:56Z</time>
      </trkpt>
      <trkpt lat="44.19032" lon="6.80879">
        <ele>2002.832</ele>
        <time>2011-06-12T08:40:58Z</time>
      </trkpt>
      <trkpt lat="44.19034" lon="6.80885">
        <ele>1999.78</ele>
        <time>2011-06-12T08:41:03Z</time>
      </trkpt>
      <trkpt lat="44.19034" lon="6.80888">
        <ele>1999.6</ele>
        <time>2011-06-12T08:41:08Z</time>
      </trkpt>
      <trkpt lat="44.19035" lon="6.80892">
        <ele>1999.331</ele>
        <time>2011-06-12T08:41:16Z</time>
      </trkpt>
      <trkpt lat="44.19036" lon="6.80893">
        <ele>1999.009</ele>
        <time>2011-06-12T08:41:18Z</time>
      </trkpt>
      <trkpt lat="44.19039" lon="6.80892">
        <ele>1998.582</ele>
        <time>2011-06-12T08:41:23Z</time>
      </trkpt>
      <trkpt lat="44.19043" lon="6.80884">
        <ele>1996.401</ele>
        <time>2011-06-12T08:41:32Z</time>
      </trkpt>
      <trkpt lat="44.19047" lon="6.80881">
        <ele>1994.914</ele>
        <time>2011-06-12T08:41:40Z</time>
      </trkpt>
      <trkpt lat="44.19045" lon="6.80888">
        <ele>1997.236</ele>
        <time>2011-06-12T08:41:48Z</time>
      </trkpt>
      <trkpt lat="44.19044" lon="6.80895">
        <ele>2002.128</ele>
        <time>2011-06-12T08:41:57Z</time>
      </trkpt>
      <trkpt lat="44.19044" lon="6.80897">
        <ele>2002.709</ele>
        <time>2011-06-12T08:41:59Z</time>
      </trkpt>
      <trkpt lat="44.19042" lon="6.80907">
        <ele>2005.027</ele>
        <time>2011-06-12T08:42:08Z</time>
      </trkpt>
      <trkpt lat="44.19044" lon="6.80915">
        <ele>2006.415</ele>
        <time>2011-06-12T08:42:17Z</time>
      </trkpt>
      <trkpt lat="44.19043" lon="6.80918">
        <ele>2005.723</ele>
        <time>2011-06-12T08:42:25Z</time>
      </trkpt>
      <trkpt lat="44.19043" lon="6.80922">
        <ele>2002.311</ele>
        <time>2011-06-12T08:42:34Z</time>
      </trkpt>
      <trkpt lat="44.1904" lon="6.80921">
        <ele>2008.963</ele>
        <time>2011-06-12T08:43:05Z</time>
      </trkpt>
      <trkpt lat="44.19037" lon="6.80931">
        <ele>2009.936</ele>
        <time>2011-06-12T08:43:11Z</time>
      </trkpt>
      <trkpt lat="44.19035" lon="6.80948">
        <ele>2011.067</ele>
        <time>2011-06-12T08:43:19Z</time>
      </trkpt>
      <trkpt lat="44.19038" lon="6.80958">
        <ele>2015.878</ele>
        <time>2011-06-12T08:43:25Z</time>
      </trkpt>
      <trkpt lat="44.19047" lon="6.80967">
        <ele>2022.627</ele>
        <time>2011-06-12T08:43:32Z</time>
      </trkpt>
      <trkpt lat="44.19049" lon="6.8097">
        <ele>2024.128</ele>
        <time>2011-06-12T08:43:34Z</time>
      </trkpt>
      <trkpt lat="44.19053" lon="6.80972">
        <ele>2024.846</ele>
        <time>2011-06-12T08:43:37Z</time>
      </trkpt>
      <trkpt lat="44.19062" lon="6.8098">
        <ele>2025.597</ele>
        <time>2011-06-12T08:43:43Z</time>
      </trkpt>
      <trkpt lat="44.19071" lon="6.80985">
        <ele>2024.765</ele>
        <time>2011-06-12T08:43:49Z</time>
      </trkpt>
      <trkpt lat="44.19079" lon="6.80986">
        <ele>2021.774</ele>
        <time>2011-06-12T08:43:56Z</time>
      </trkpt>
      <trkpt lat="44.19091" lon="6.80987">
        <ele>2022.687</ele>
        <time>2011-06-12T08:44:04Z</time>
      </trkpt>
      <trkpt lat="44.19096" lon="6.8099">
        <ele>2023.796</ele>
        <time>2011-06-12T08:44:08Z</time>
      </trkpt>
      <trkpt lat="44.19098" lon="6.80996">
        <ele>2025.447</ele>
        <time>2011-06-12T08:44:12Z</time>
      </trkpt>
      <trkpt lat="44.19098" lon="6.81007">
        <ele>2027.174</ele>
        <time>2011-06-12T08:44:18Z</time>
      </trkpt>
      <trkpt lat="44.19102" lon="6.81021">
        <ele>2030.027</ele>
        <time>2011-06-12T08:44:25Z</time>
      </trkpt>
      <trkpt lat="44.19103" lon="6.81023">
        <ele>2030.467</ele>
        <time>2011-06-12T08:44:26Z</time>
      </trkpt>
      <trkpt lat="44.19106" lon="6.81035">
        <ele>2029.926</ele>
        <time>2011-06-12T08:44:34Z</time>
      </trkpt>
      <trkpt lat="44.19107" lon="6.81051">
        <ele>2029.057</ele>
        <time>2011-06-12T08:44:42Z</time>
      </trkpt>
      <trkpt lat="44.19107" lon="6.81067">
        <ele>2028.086</ele>
        <time>2011-06-12T08:44:51Z</time>
      </trkpt>
      <trkpt lat="44.19103" lon="6.8108">
        <ele>2026.945</ele>
        <time>2011-06-12T08:44:58Z</time>
      </trkpt>
      <trkpt lat="44.19095" lon="6.81099">
        <ele>2024.493</ele>
        <time>2011-06-12T08:45:09Z</time>
      </trkpt>
      <trkpt lat="44.19092" lon="6.81106">
        <ele>2023.854</ele>
        <time>2011-06-12T08:45:13Z</time>
      </trkpt>
      <trkpt lat="44.19097" lon="6.81119">
        <ele>2024.218</ele>
        <time>2011-06-12T08:45:21Z</time>
      </trkpt>
      <trkpt lat="44.19103" lon="6.81123">
        <ele>2024.136</ele>
        <time>2011-06-12T08:45:26Z</time>
      </trkpt>
      <trkpt lat="44.19105" lon="6.81131">
        <ele>2024.605</ele>
        <time>2011-06-12T08:45:31Z</time>
      </trkpt>
      <trkpt lat="44.19105" lon="6.81142">
        <ele>2024.766</ele>
        <time>2011-06-12T08:45:35Z</time>
      </trkpt>
      <trkpt lat="44.19111" lon="6.81155">
        <ele>2026.188</ele>
        <time>2011-06-12T08:45:43Z</time>
      </trkpt>
      <trkpt lat="44.19116" lon="6.8117">
        <ele>2026.785</ele>
        <time>2011-06-12T08:45:51Z</time>
      </trkpt>
      <trkpt lat="44.19116" lon="6.81171">
        <ele>2026.835</ele>
        <time>2011-06-12T08:45:52Z</time>
      </trkpt>
      <trkpt lat="44.19122" lon="6.81183">
        <ele>2027.436</ele>
        <time>2011-06-12T08:46:00Z</time>
      </trkpt>
      <trkpt lat="44.19127" lon="6.81193">
        <ele>2026.493</ele>
        <time>2011-06-12T08:46:08Z</time>
      </trkpt>
      <trkpt lat="44.1913" lon="6.81196">
        <ele>2027.595</ele>
        <time>2011-06-12T08:46:12Z</time>
      </trkpt>
      <trkpt lat="44.19127" lon="6.81204">
        <ele>2028.206</ele>
        <time>2011-06-12T08:46:17Z</time>
      </trkpt>
      <trkpt lat="44.19125" lon="6.81204">
        <ele>2029.096</ele>
        <time>2011-06-12T08:46:18Z</time>
      </trkpt>
      <trkpt lat="44.19112" lon="6.81213">
        <ele>2030.945</ele>
        <time>2011-06-12T08:46:25Z</time>
      </trkpt>
      <trkpt lat="44.19104" lon="6.81224">
        <ele>2030.525</ele>
        <time>2011-06-12T08:46:31Z</time>
      </trkpt>
      <trkpt lat="44.19103" lon="6.81226">
        <ele>2030.415</ele>
        <time>2011-06-12T08:46:32Z</time>
      </trkpt>
      <trkpt lat="44.19092" lon="6.81228">
        <ele>2030.145</ele>
        <time>2011-06-12T08:46:40Z</time>
      </trkpt>
      <trkpt lat="44.1908" lon="6.81231">
        <ele>2030.894</ele>
        <time>2011-06-12T08:46:48Z</time>
      </trkpt>
      <trkpt lat="44.19072" lon="6.81238">
        <ele>2030.392</ele>
        <time>2011-06-12T08:46:53Z</time>
      </trkpt>
      <trkpt lat="44.19064" lon="6.81253">
        <ele>2028.881</ele>
        <time>2011-06-12T08:46:59Z</time>
      </trkpt>
      <trkpt lat="44.19051" lon="6.81277">
        <ele>2026.37</ele>
        <time>2011-06-12T08:47:07Z</time>
      </trkpt>
      <trkpt lat="44.1904" lon="6.81297">
        <ele>2024.871</ele>
        <time>2011-06-12T08:47:13Z</time>
      </trkpt>
      <trkpt lat="44.19034" lon="6.81309">
        <ele>2024.472</ele>
        <time>2011-06-12T08:47:16Z</time>
      </trkpt>
      <trkpt lat="44.19012" lon="6.81318">
        <ele>2025.079</ele>
        <time>2011-06-12T08:47:23Z</time>
      </trkpt>
      <trkpt lat="44.18995" lon="6.81325">
        <ele>2023.868</ele>
        <time>2011-06-12T08:47:28Z</time>
      </trkpt>
      <trkpt lat="44.18995" lon="6.81323">
        <ele>2021.651</ele>
        <time>2011-06-12T08:47:34Z</time>
      </trkpt>
      <trkpt lat="44.1899" lon="6.81322">
        <ele>2031.287</ele>
        <time>2011-06-12T08:48:08Z</time>
      </trkpt>
      <trkpt lat="44.18991" lon="6.81308">
        <ele>2029.325</ele>
        <time>2011-06-12T08:48:18Z</time>
      </trkpt>
      <trkpt lat="44.18991" lon="6.81308">
        <ele>2027.283</ele>
        <time>2011-06-12T08:48:25Z</time>
      </trkpt>
      <trkpt lat="44.1899" lon="6.8131">
        <ele>2029.854</ele>
        <time>2011-06-12T08:52:26Z</time>
      </trkpt>
      <trkpt lat="44.1899" lon="6.81312">
        <ele>2029.514</ele>
        <time>2011-06-12T08:52:36Z</time>
      </trkpt>
      <trkpt lat="44.18991" lon="6.81312">
        <ele>2028.183</ele>
        <time>2011-06-12T08:52:48Z</time>
      </trkpt>
      <trkpt lat="44.18989" lon="6.81312">
        <ele>2028.314</ele>
        <time>2011-06-12T08:52:55Z</time>
      </trkpt>
      <trkpt lat="44.18985" lon="6.81312">
        <ele>2028.184</ele>
        <time>2011-06-12T08:53:10Z</time>
      </trkpt>
      <trkpt lat="44.18974" lon="6.8132">
        <ele>2028.826</ele>
        <time>2011-06-12T08:53:16Z</time>
      </trkpt>
      <trkpt lat="44.18963" lon="6.81325">
        <ele>2029.646</ele>
        <time>2011-06-12T08:53:22Z</time>
      </trkpt>
      <trkpt lat="44.18948" lon="6.81331">
        <ele>2031.606</ele>
        <time>2011-06-12T08:53:31Z</time>
      </trkpt>
      <trkpt lat="44.18935" lon="6.81337">
        <ele>2032.735</ele>
        <time>2011-06-12T08:53:38Z</time>
      </trkpt>
      <trkpt lat="44.18923" lon="6.81335">
        <ele>2033.466</ele>
        <time>2011-06-12T08:53:44Z</time>
      </trkpt>
      <trkpt lat="44.18911" lon="6.81336">
        <ele>2034.797</ele>
        <time>2011-06-12T08:53:51Z</time>
      </trkpt>
      <trkpt lat="44.18909" lon="6.81337">
        <ele>2034.977</ele>
        <time>2011-06-12T08:53:52Z</time>
      </trkpt>
      <trkpt lat="44.189" lon="6.81339">
        <ele>2036.067</ele>
        <time>2011-06-12T08:53:58Z</time>
      </trkpt>
      <trkpt lat="44.18894" lon="6.8134">
        <ele>2036.716</ele>
        <time>2011-06-12T08:54:02Z</time>
      </trkpt>
      <trkpt lat="44.18881" lon="6.81341">
        <ele>2038.116</ele>
        <time>2011-06-12T08:54:11Z</time>
      </trkpt>
      <trkpt lat="44.18871" lon="6.81337">
        <ele>2038.325</ele>
        <time>2011-06-12T08:54:18Z</time>
      </trkpt>
      <trkpt lat="44.1886" lon="6.81335">
        <ele>2038.725</ele>
        <time>2011-06-12T08:54:25Z</time>
      </trkpt>
      <trkpt lat="44.18849" lon="6.8133">
        <ele>2038.852</ele>
        <time>2011-06-12T08:54:32Z</time>
      </trkpt>
      <trkpt lat="44.18839" lon="6.81323">
        <ele>2036.376</ele>
        <time>2011-06-12T08:54:36Z</time>
      </trkpt>
      <trkpt lat="44.18831" lon="6.81316">
        <ele>2035.079</ele>
        <time>2011-06-12T08:54:39Z</time>
      </trkpt>
      <trkpt lat="44.18823" lon="6.81315">
        <ele>2035.083</ele>
        <time>2011-06-12T08:54:43Z</time>
      </trkpt>
      <trkpt lat="44.1882" lon="6.81314">
        <ele>2035.083</ele>
        <time>2011-06-12T08:54:45Z</time>
      </trkpt>
      <trkpt lat="44.18812" lon="6.81321">
        <ele>2034.803</ele>
        <time>2011-06-12T08:54:50Z</time>
      </trkpt>
      <trkpt lat="44.1881" lon="6.81322">
        <ele>2034.213</ele>
        <time>2011-06-12T08:54:54Z</time>
      </trkpt>
      <trkpt lat="44.18812" lon="6.81324">
        <ele>2030.804</ele>
        <time>2011-06-12T08:55:43Z</time>
      </trkpt>
      <trkpt lat="44.18813" lon="6.81324">
        <ele>2030.813</ele>
        <time>2011-06-12T08:55:45Z</time>
      </trkpt>
      <trkpt lat="44.18808" lon="6.81328">
        <ele>2030.643</ele>
        <time>2011-06-12T08:55:49Z</time>
      </trkpt>
      <trkpt lat="44.18792" lon="6.81331">
        <ele>2031.102</ele>
        <time>2011-06-12T08:55:55Z</time>
      </trkpt>
      <trkpt lat="44.18778" lon="6.81338">
        <ele>2031.273</ele>
        <time>2011-06-12T08:56:00Z</time>
      </trkpt>
      <trkpt lat="44.18763" lon="6.81344">
        <ele>2031.685</ele>
        <time>2011-06-12T08:56:05Z</time>
      </trkpt>
      <trkpt lat="44.18751" lon="6.81354">
        <ele>2031.915</ele>
        <time>2011-06-12T08:56:10Z</time>
      </trkpt>
      <trkpt lat="44.1875" lon="6.81357">
        <ele>2031.865</ele>
        <time>2011-06-12T08:56:11Z</time>
      </trkpt>
      <trkpt lat="44.18739" lon="6.81361">
        <ele>2032.085</ele>
        <time>2011-06-12T08:56:16Z</time>
      </trkpt>
      <trkpt lat="44.18726" lon="6.81363">
        <ele>2033.647</ele>
        <time>2011-06-12T08:56:22Z</time>
      </trkpt>
      <trkpt lat="44.18718" lon="6.81369">
        <ele>2034.787</ele>
        <time>2011-06-12T08:56:27Z</time>
      </trkpt>
      <trkpt lat="44.18707" lon="6.81377">
        <ele>2035.146</ele>
        <time>2011-06-12T08:56:34Z</time>
      </trkpt>
      <trkpt lat="44.18693" lon="6.81384">
        <ele>2035.585</ele>
        <time>2011-06-12T08:56:42Z</time>
      </trkpt>
      <trkpt lat="44.18682" lon="6.81385">
        <ele>2037.195</ele>
        <time>2011-06-12T08:56:49Z</time>
      </trkpt>
      <trkpt lat="44.18668" lon="6.81389">
        <ele>2038.456</ele>
        <time>2011-06-12T08:56:56Z</time>
      </trkpt>
      <trkpt lat="44.18656" lon="6.81398">
        <ele>2039.455</ele>
        <time>2011-06-12T08:57:04Z</time>
      </trkpt>
      <trkpt lat="44.18643" lon="6.81407">
        <ele>2039.113</ele>
        <time>2011-06-12T08:57:11Z</time>
      </trkpt>
      <trkpt lat="44.18631" lon="6.81413">
        <ele>2039.384</ele>
        <time>2011-06-12T08:57:16Z</time>
      </trkpt>
      <trkpt lat="44.18625" lon="6.81416">
        <ele>2039.433</ele>
        <time>2011-06-12T08:57:19Z</time>
      </trkpt>
      <trkpt lat="44.18623" lon="6.81427">
        <ele>2039.363</ele>
        <time>2011-06-12T08:57:23Z</time>
      </trkpt>
      <trkpt lat="44.18623" lon="6.81429">
        <ele>2039.433</ele>
        <time>2011-06-12T08:57:24Z</time>
      </trkpt>
      <trkpt lat="44.18624" lon="6.81448">
        <ele>2038.873</ele>
        <time>2011-06-12T08:57:31Z</time>
      </trkpt>
      <trkpt lat="44.18619" lon="6.81463">
        <ele>2038.122</ele>
        <time>2011-06-12T08:57:36Z</time>
      </trkpt>
      <trkpt lat="44.18608" lon="6.81482">
        <ele>2036.723</ele>
        <time>2011-06-12T08:57:42Z</time>
      </trkpt>
      <trkpt lat="44.18596" lon="6.8151">
        <ele>2035.182</ele>
        <time>2011-06-12T08:57:50Z</time>
      </trkpt>
      <trkpt lat="44.18582" lon="6.8154">
        <ele>2033.782</ele>
        <time>2011-06-12T08:57:59Z</time>
      </trkpt>
      <trkpt lat="44.18565" lon="6.81564">
        <ele>2032.972</ele>
        <time>2011-06-12T08:58:07Z</time>
      </trkpt>
      <trkpt lat="44.18554" lon="6.81587">
        <ele>2031.961</ele>
        <time>2011-06-12T08:58:13Z</time>
      </trkpt>
      <trkpt lat="44.18541" lon="6.81613">
        <ele>2030.671</ele>
        <time>2011-06-12T08:58:20Z</time>
      </trkpt>
      <trkpt lat="44.18529" lon="6.81636">
        <ele>2029.471</ele>
        <time>2011-06-12T08:58:26Z</time>
      </trkpt>
      <trkpt lat="44.18523" lon="6.81649">
        <ele>2028.742</ele>
        <time>2011-06-12T08:58:30Z</time>
      </trkpt>
      <trkpt lat="44.18508" lon="6.81662">
        <ele>2026.488</ele>
        <time>2011-06-12T08:58:36Z</time>
      </trkpt>
      <trkpt lat="44.18495" lon="6.81666">
        <ele>2027.34</ele>
        <time>2011-06-12T08:58:39Z</time>
      </trkpt>
      <trkpt lat="44.18474" lon="6.81667">
        <ele>2026.925</ele>
        <time>2011-06-12T08:58:44Z</time>
      </trkpt>
      <trkpt lat="44.18464" lon="6.81677">
        <ele>2025.436</ele>
        <time>2011-06-12T08:58:47Z</time>
      </trkpt>
      <trkpt lat="44.18456" lon="6.81674">
        <ele>2024.035</ele>
        <time>2011-06-12T08:58:50Z</time>
      </trkpt>
      <trkpt lat="44.18449" lon="6.81664">
        <ele>2023.005</ele>
        <time>2011-06-12T08:58:53Z</time>
      </trkpt>
      <trkpt lat="44.18438" lon="6.81655">
        <ele>2021.717</ele>
        <time>2011-06-12T08:58:57Z</time>
      </trkpt>
      <trkpt lat="44.18431" lon="6.81662">
        <ele>2021.663</ele>
        <time>2011-06-12T08:59:01Z</time>
      </trkpt>
      <trkpt lat="44.18422" lon="6.81679">
        <ele>2023.667</ele>
        <time>2011-06-12T08:59:09Z</time>
      </trkpt>
      <trkpt lat="44.18421" lon="6.81688">
        <ele>2023.797</ele>
        <time>2011-06-12T08:59:13Z</time>
      </trkpt>
      <trkpt lat="44.18424" lon="6.81705">
        <ele>2025.577</ele>
        <time>2011-06-12T08:59:20Z</time>
      </trkpt>
      <trkpt lat="44.18422" lon="6.81721">
        <ele>2025.414</ele>
        <time>2011-06-12T08:59:26Z</time>
      </trkpt>
      <trkpt lat="44.18422" lon="6.81744">
        <ele>2024.614</ele>
        <time>2011-06-12T08:59:34Z</time>
      </trkpt>
      <trkpt lat="44.1842" lon="6.81757">
        <ele>2023.833</ele>
        <time>2011-06-12T08:59:39Z</time>
      </trkpt>
      <trkpt lat="44.18419" lon="6.81783">
        <ele>2023.706</ele>
        <time>2011-06-12T08:59:47Z</time>
      </trkpt>
      <trkpt lat="44.18417" lon="6.81804">
        <ele>2025.087</ele>
        <time>2011-06-12T08:59:55Z</time>
      </trkpt>
      <trkpt lat="44.18409" lon="6.8182">
        <ele>2024.864</ele>
        <time>2011-06-12T09:00:02Z</time>
      </trkpt>
      <trkpt lat="44.18405" lon="6.81834">
        <ele>2024.033</ele>
        <time>2011-06-12T09:00:07Z</time>
      </trkpt>
      <trkpt lat="44.18402" lon="6.81851">
        <ele>2024.087</ele>
        <time>2011-06-12T09:00:13Z</time>
      </trkpt>
      <trkpt lat="44.184" lon="6.81867">
        <ele>2024.546</ele>
        <time>2011-06-12T09:00:19Z</time>
      </trkpt>
      <trkpt lat="44.18396" lon="6.81881">
        <ele>2023.884</ele>
        <time>2011-06-12T09:00:25Z</time>
      </trkpt>
      <trkpt lat="44.18386" lon="6.81899">
        <ele>2022.472</ele>
        <time>2011-06-12T09:00:33Z</time>
      </trkpt>
      <trkpt lat="44.1838" lon="6.81913">
        <ele>2022.033</ele>
        <time>2011-06-12T09:00:39Z</time>
      </trkpt>
      <trkpt lat="44.18375" lon="6.81924">
        <ele>2021.624</ele>
        <time>2011-06-12T09:00:44Z</time>
      </trkpt>
      <trkpt lat="44.18369" lon="6.81932">
        <ele>2021.793</ele>
        <time>2011-06-12T09:00:49Z</time>
      </trkpt>
      <trkpt lat="44.18362" lon="6.81944">
        <ele>2021.132</ele>
        <time>2011-06-12T09:00:55Z</time>
      </trkpt>
      <trkpt lat="44.18359" lon="6.8196">
        <ele>2022.525</ele>
        <time>2011-06-12T09:01:00Z</time>
      </trkpt>
      <trkpt lat="44.1835" lon="6.81974">
        <ele>2024.277</ele>
        <time>2011-06-12T09:01:07Z</time>
      </trkpt>
      <trkpt lat="44.18342" lon="6.81979">
        <ele>2025.147</ele>
        <time>2011-06-12T09:01:13Z</time>
      </trkpt>
      <trkpt lat="44.1834" lon="6.81981">
        <ele>2025.788</ele>
        <time>2011-06-12T09:01:15Z</time>
      </trkpt>
      <trkpt lat="44.18335" lon="6.81992">
        <ele>2026.253</ele>
        <time>2011-06-12T09:01:22Z</time>
      </trkpt>
      <trkpt lat="44.18326" lon="6.81999">
        <ele>2026.553</ele>
        <time>2011-06-12T09:01:27Z</time>
      </trkpt>
      <trkpt lat="44.18324" lon="6.81999">
        <ele>2026.333</ele>
        <time>2011-06-12T09:01:31Z</time>
      </trkpt>
      <trkpt lat="44.18324" lon="6.82001">
        <ele>2028.693</ele>
        <time>2011-06-12T09:03:08Z</time>
      </trkpt>
      <trkpt lat="44.18322" lon="6.82009">
        <ele>2027.704</ele>
        <time>2011-06-12T09:03:12Z</time>
      </trkpt>
      <trkpt lat="44.18321" lon="6.8202">
        <ele>2027.182</ele>
        <time>2011-06-12T09:03:18Z</time>
      </trkpt>
      <trkpt lat="44.18317" lon="6.82035">
        <ele>2024.166</ele>
        <time>2011-06-12T09:03:23Z</time>
      </trkpt>
      <trkpt lat="44.18312" lon="6.82053">
        <ele>2023.083</ele>
        <time>2011-06-12T09:03:29Z</time>
      </trkpt>
      <trkpt lat="44.18312" lon="6.82054">
        <ele>2023.104</ele>
        <time>2011-06-12T09:03:30Z</time>
      </trkpt>
      <trkpt lat="44.18303" lon="6.82061">
        <ele>2023.726</ele>
        <time>2011-06-12T09:03:36Z</time>
      </trkpt>
      <trkpt lat="44.18299" lon="6.82073">
        <ele>2023.555</ele>
        <time>2011-06-12T09:03:43Z</time>
      </trkpt>
      <trkpt lat="44.18299" lon="6.8208">
        <ele>2024.356</ele>
        <time>2011-06-12T09:03:50Z</time>
      </trkpt>
      <trkpt lat="44.18299" lon="6.82082">
        <ele>2024.235</ele>
        <time>2011-06-12T09:03:51Z</time>
      </trkpt>
      <trkpt lat="44.18297" lon="6.82094">
        <ele>2024.637</ele>
        <time>2011-06-12T09:03:59Z</time>
      </trkpt>
      <trkpt lat="44.18293" lon="6.82105">
        <ele>2026.315</ele>
        <time>2011-06-12T09:04:08Z</time>
      </trkpt>
      <trkpt lat="44.18288" lon="6.82115">
        <ele>2026.005</ele>
        <time>2011-06-12T09:04:17Z</time>
      </trkpt>
      <trkpt lat="44.18283" lon="6.82127">
        <ele>2027.749</ele>
        <time>2011-06-12T09:04:26Z</time>
      </trkpt>
      <trkpt lat="44.18283" lon="6.82132">
        <ele>2028.206</ele>
        <time>2011-06-12T09:04:32Z</time>
      </trkpt>
      <trkpt lat="44.18282" lon="6.82138">
        <ele>2023.706</ele>
        <time>2011-06-12T09:05:23Z</time>
      </trkpt>
      <trkpt lat="44.18272" lon="6.82157">
        <ele>2026.107</ele>
        <time>2011-06-12T09:05:32Z</time>
      </trkpt>
      <trkpt lat="44.18258" lon="6.82174">
        <ele>2029.705</ele>
        <time>2011-06-12T09:05:41Z</time>
      </trkpt>
      <trkpt lat="44.18243" lon="6.82181">
        <ele>2032.337</ele>
        <time>2011-06-12T09:05:49Z</time>
      </trkpt>
      <trkpt lat="44.1823" lon="6.82181">
        <ele>2034.501</ele>
        <time>2011-06-12T09:05:54Z</time>
      </trkpt>
      <trkpt lat="44.18218" lon="6.82185">
        <ele>2035.593</ele>
        <time>2011-06-12T09:05:58Z</time>
      </trkpt>
      <trkpt lat="44.18209" lon="6.82193">
        <ele>2035.985</ele>
        <time>2011-06-12T09:06:03Z</time>
      </trkpt>
      <trkpt lat="44.18207" lon="6.82207">
        <ele>2037.328</ele>
        <time>2011-06-12T09:06:08Z</time>
      </trkpt>
      <trkpt lat="44.18206" lon="6.8221">
        <ele>2037.256</ele>
        <time>2011-06-12T09:06:09Z</time>
      </trkpt>
      <trkpt lat="44.18202" lon="6.82231">
        <ele>2034.8</ele>
        <time>2011-06-12T09:06:15Z</time>
      </trkpt>
      <trkpt lat="44.18194" lon="6.82249">
        <ele>2033.223</ele>
        <time>2011-06-12T09:06:21Z</time>
      </trkpt>
      <trkpt lat="44.18189" lon="6.82269">
        <ele>2034.477</ele>
        <time>2011-06-12T09:06:29Z</time>
      </trkpt>
      <trkpt lat="44.18186" lon="6.82284">
        <ele>2035.156</ele>
        <time>2011-06-12T09:06:35Z</time>
      </trkpt>
      <trkpt lat="44.1818" lon="6.823">
        <ele>2036.277</ele>
        <time>2011-06-12T09:06:42Z</time>
      </trkpt>
      <trkpt lat="44.18179" lon="6.82311">
        <ele>2036.224</ele>
        <time>2011-06-12T09:06:48Z</time>
      </trkpt>
      <trkpt lat="44.18178" lon="6.82316">
        <ele>2036.645</ele>
        <time>2011-06-12T09:06:52Z</time>
      </trkpt>
      <trkpt lat="44.18176" lon="6.82323">
        <ele>2037.658</ele>
        <time>2011-06-12T09:06:59Z</time>
      </trkpt>
      <trkpt lat="44.18174" lon="6.82327">
        <ele>2037.406</ele>
        <time>2011-06-12T09:07:06Z</time>
      </trkpt>
      <trkpt lat="44.18173" lon="6.82332">
        <ele>2037.465</ele>
        <time>2011-06-12T09:07:16Z</time>
      </trkpt>
      <trkpt lat="44.18169" lon="6.8234">
        <ele>2037.455</ele>
        <time>2011-06-12T09:07:24Z</time>
      </trkpt>
      <trkpt lat="44.18167" lon="6.82347">
        <ele>2037.425</ele>
        <time>2011-06-12T09:07:30Z</time>
      </trkpt>
      <trkpt lat="44.18162" lon="6.82356">
        <ele>2037.676</ele>
        <time>2011-06-12T09:07:37Z</time>
      </trkpt>
      <trkpt lat="44.18159" lon="6.82362">
        <ele>2037.185</ele>
        <time>2011-06-12T09:07:45Z</time>
      </trkpt>
      <trkpt lat="44.18158" lon="6.82362">
        <ele>2037.175</ele>
        <time>2011-06-12T09:07:46Z</time>
      </trkpt>
      <trkpt lat="44.18152" lon="6.82364">
        <ele>2038.165</ele>
        <time>2011-06-12T09:07:55Z</time>
      </trkpt>
      <trkpt lat="44.18151" lon="6.82363">
        <ele>2040.975</ele>
        <time>2011-06-12T09:08:17Z</time>
      </trkpt>
      <trkpt lat="44.18143" lon="6.82373">
        <ele>2041.146</ele>
        <time>2011-06-12T09:08:24Z</time>
      </trkpt>
      <trkpt lat="44.18142" lon="6.82373">
        <ele>2041.477</ele>
        <time>2011-06-12T09:08:25Z</time>
      </trkpt>
      <trkpt lat="44.18131" lon="6.82378">
        <ele>2042.746</ele>
        <time>2011-06-12T09:08:32Z</time>
      </trkpt>
      <trkpt lat="44.18124" lon="6.82389">
        <ele>2043.036</ele>
        <time>2011-06-12T09:08:38Z</time>
      </trkpt>
      <trkpt lat="44.18116" lon="6.824">
        <ele>2042.904</ele>
        <time>2011-06-12T09:08:44Z</time>
      </trkpt>
      <trkpt lat="44.18103" lon="6.82415">
        <ele>2041.613</ele>
        <time>2011-06-12T09:08:52Z</time>
      </trkpt>
      <trkpt lat="44.18093" lon="6.8243">
        <ele>2040.151</ele>
        <time>2011-06-12T09:08:59Z</time>
      </trkpt>
      <trkpt lat="44.18073" lon="6.82438">
        <ele>2040.138</ele>
        <time>2011-06-12T09:09:06Z</time>
      </trkpt>
      <trkpt lat="44.1806" lon="6.82452">
        <ele>2039.714</ele>
        <time>2011-06-12T09:09:11Z</time>
      </trkpt>
      <trkpt lat="44.18049" lon="6.82466">
        <ele>2038.799</ele>
        <time>2011-06-12T09:09:18Z</time>
      </trkpt>
      <trkpt lat="44.18041" lon="6.82491">
        <ele>2034.707</ele>
        <time>2011-06-12T09:09:24Z</time>
      </trkpt>
      <trkpt lat="44.18028" lon="6.82506">
        <ele>2032.61</ele>
        <time>2011-06-12T09:09:30Z</time>
      </trkpt>
      <trkpt lat="44.18009" lon="6.82519">
        <ele>2031.353</ele>
        <time>2011-06-12T09:09:37Z</time>
      </trkpt>
      <trkpt lat="44.17994" lon="6.82524">
        <ele>2031.504</ele>
        <time>2011-06-12T09:09:43Z</time>
      </trkpt>
      <trkpt lat="44.17975" lon="6.82531">
        <ele>2030.744</ele>
        <time>2011-06-12T09:09:50Z</time>
      </trkpt>
      <trkpt lat="44.17963" lon="6.82531">
        <ele>2032.521</ele>
        <time>2011-06-12T09:09:55Z</time>
      </trkpt>
      <trkpt lat="44.17951" lon="6.82538">
        <ele>2030.789</ele>
        <time>2011-06-12T09:09:59Z</time>
      </trkpt>
      <trkpt lat="44.17932" lon="6.82559">
        <ele>2026.141</ele>
        <time>2011-06-12T09:10:04Z</time>
      </trkpt>
      <trkpt lat="44.17927" lon="6.82564">
        <ele>2025.301</ele>
        <time>2011-06-12T09:10:05Z</time>
      </trkpt>
      <trkpt lat="44.17907" lon="6.82585">
        <ele>2021.875</ele>
        <time>2011-06-12T09:10:09Z</time>
      </trkpt>
      <trkpt lat="44.17904" lon="6.82592">
        <ele>2021.676</ele>
        <time>2011-06-12T09:10:10Z</time>
      </trkpt>
      <trkpt lat="44.17898" lon="6.8261">
        <ele>2022.707</ele>
        <time>2011-06-12T09:10:15Z</time>
      </trkpt>
      <trkpt lat="44.17888" lon="6.82618">
        <ele>2024.448</ele>
        <time>2011-06-12T09:10:21Z</time>
      </trkpt>
      <trkpt lat="44.17878" lon="6.82625">
        <ele>2025.176</ele>
        <time>2011-06-12T09:10:28Z</time>
      </trkpt>
      <trkpt lat="44.17866" lon="6.82631">
        <ele>2024.533</ele>
        <time>2011-06-12T09:10:35Z</time>
      </trkpt>
      <trkpt lat="44.17855" lon="6.8263">
        <ele>2023.33</ele>
        <time>2011-06-12T09:10:39Z</time>
      </trkpt>
      <trkpt lat="44.17843" lon="6.82646">
        <ele>2020.845</ele>
        <time>2011-06-12T09:10:43Z</time>
      </trkpt>
      <trkpt lat="44.17841" lon="6.82653">
        <ele>2020.327</ele>
        <time>2011-06-12T09:10:44Z</time>
      </trkpt>
      <trkpt lat="44.17827" lon="6.82678">
        <ele>2019.4</ele>
        <time>2011-06-12T09:10:49Z</time>
      </trkpt>
      <trkpt lat="44.17819" lon="6.82695">
        <ele>2018.431</ele>
        <time>2011-06-12T09:10:54Z</time>
      </trkpt>
      <trkpt lat="44.17813" lon="6.82716">
        <ele>2017.722</ele>
        <time>2011-06-12T09:11:01Z</time>
      </trkpt>
      <trkpt lat="44.17802" lon="6.82727">
        <ele>2016.841</ele>
        <time>2011-06-12T09:11:06Z</time>
      </trkpt>
      <trkpt lat="44.17787" lon="6.82731">
        <ele>2018.293</ele>
        <time>2011-06-12T09:11:12Z</time>
      </trkpt>
      <trkpt lat="44.17767" lon="6.82734">
        <ele>2021.385</ele>
        <time>2011-06-12T09:11:21Z</time>
      </trkpt>
      <trkpt lat="44.1775" lon="6.82737">
        <ele>2022.976</ele>
        <time>2011-06-12T09:11:29Z</time>
      </trkpt>
      <trkpt lat="44.17727" lon="6.82736">
        <ele>2024.054</ele>
        <time>2011-06-12T09:11:39Z</time>
      </trkpt>
      <trkpt lat="44.17714" lon="6.82737">
        <ele>2024.855</ele>
        <time>2011-06-12T09:11:45Z</time>
      </trkpt>
      <trkpt lat="44.17705" lon="6.82749">
        <ele>2025.207</ele>
        <time>2011-06-12T09:11:51Z</time>
      </trkpt>
      <trkpt lat="44.17699" lon="6.82763">
        <ele>2026.588</ele>
        <time>2011-06-12T09:11:58Z</time>
      </trkpt>
      <trkpt lat="44.17695" lon="6.82762">
        <ele>2027.558</ele>
        <time>2011-06-12T09:12:03Z</time>
      </trkpt>
      <trkpt lat="44.17691" lon="6.82761">
        <ele>2028.037</ele>
        <time>2011-06-12T09:12:06Z</time>
      </trkpt>
      <trkpt lat="44.17688" lon="6.82759">
        <ele>2029.364</ele>
        <time>2011-06-12T09:12:12Z</time>
      </trkpt>
      <trkpt lat="44.17688" lon="6.82758">
        <ele>2029.216</ele>
        <time>2011-06-12T09:12:23Z</time>
      </trkpt>
      <trkpt lat="44.17687" lon="6.82757">
        <ele>2029.054</ele>
        <time>2011-06-12T09:12:31Z</time>
      </trkpt>
      <trkpt lat="44.17683" lon="6.82755">
        <ele>2029.887</ele>
        <time>2011-06-12T09:12:50Z</time>
      </trkpt>
      <trkpt lat="44.17679" lon="6.82751">
        <ele>2030.186</ele>
        <time>2011-06-12T09:12:59Z</time>
      </trkpt>
      <trkpt lat="44.17668" lon="6.82743">
        <ele>2030.406</ele>
        <time>2011-06-12T09:13:10Z</time>
      </trkpt>
      <trkpt lat="44.1766" lon="6.82736">
        <ele>2031.897</ele>
        <time>2011-06-12T09:13:19Z</time>
      </trkpt>
      <trkpt lat="44.17653" lon="6.82731">
        <ele>2033.349</ele>
        <time>2011-06-12T09:13:28Z</time>
      </trkpt>
      <trkpt lat="44.17643" lon="6.82725">
        <ele>2035.788</ele>
        <time>2011-06-12T09:13:38Z</time>
      </trkpt>
      <trkpt lat="44.17633" lon="6.8272">
        <ele>2037.117</ele>
        <time>2011-06-12T09:13:50Z</time>
      </trkpt>
      <trkpt lat="44.17623" lon="6.82713">
        <ele>2038.717</ele>
        <time>2011-06-12T09:14:01Z</time>
      </trkpt>
      <trkpt lat="44.17615" lon="6.8271">
        <ele>2039.987</ele>
        <time>2011-06-12T09:14:09Z</time>
      </trkpt>
      <trkpt lat="44.17606" lon="6.82702">
        <ele>2041.297</ele>
        <time>2011-06-12T09:14:21Z</time>
      </trkpt>
      <trkpt lat="44.17597" lon="6.82695">
        <ele>2043.486</ele>
        <time>2011-06-12T09:14:32Z</time>
      </trkpt>
      <trkpt lat="44.17591" lon="6.82689">
        <ele>2043.316</ele>
        <time>2011-06-12T09:14:41Z</time>
      </trkpt>
      <trkpt lat="44.17581" lon="6.82681">
        <ele>2045.417</ele>
        <time>2011-06-12T09:14:52Z</time>
      </trkpt>
      <trkpt lat="44.17572" lon="6.82676">
        <ele>2046.687</ele>
        <time>2011-06-12T09:15:01Z</time>
      </trkpt>
      <trkpt lat="44.1756" lon="6.82669">
        <ele>2049.885</ele>
        <time>2011-06-12T09:15:13Z</time>
      </trkpt>
      <trkpt lat="44.1756" lon="6.8267">
        <ele>2051.195</ele>
        <time>2011-06-12T09:15:24Z</time>
      </trkpt>
      <trkpt lat="44.17558" lon="6.82668">
        <ele>2052.444</ele>
        <time>2011-06-12T09:15:44Z</time>
      </trkpt>
      <trkpt lat="44.17547" lon="6.82662">
        <ele>2052.985</ele>
        <time>2011-06-12T09:15:51Z</time>
      </trkpt>
      <trkpt lat="44.1753" lon="6.82652">
        <ele>2052.412</ele>
        <time>2011-06-12T09:15:59Z</time>
      </trkpt>
      <trkpt lat="44.17512" lon="6.82641">
        <ele>2051.783</ele>
        <time>2011-06-12T09:16:07Z</time>
      </trkpt>
      <trkpt lat="44.17494" lon="6.82627">
        <ele>2052.616</ele>
        <time>2011-06-12T09:16:15Z</time>
      </trkpt>
      <trkpt lat="44.17479" lon="6.82611">
        <ele>2052.203</ele>
        <time>2011-06-12T09:16:23Z</time>
      </trkpt>
      <trkpt lat="44.17464" lon="6.82593">
        <ele>2052.677</ele>
        <time>2011-06-12T09:16:31Z</time>
      </trkpt>
      <trkpt lat="44.17456" lon="6.82584">
        <ele>2053.823</ele>
        <time>2011-06-12T09:16:37Z</time>
      </trkpt>
      <trkpt lat="44.17443" lon="6.82569">
        <ele>2052.509</ele>
        <time>2011-06-12T09:16:42Z</time>
      </trkpt>
      <trkpt lat="44.17429" lon="6.82551">
        <ele>2052.264</ele>
        <time>2011-06-12T09:16:48Z</time>
      </trkpt>
      <trkpt lat="44.1741" lon="6.82537">
        <ele>2053.165</ele>
        <time>2011-06-12T09:16:57Z</time>
      </trkpt>
      <trkpt lat="44.17394" lon="6.82525">
        <ele>2053.345</ele>
        <time>2011-06-12T09:17:06Z</time>
      </trkpt>
      <trkpt lat="44.1738" lon="6.82514">
        <ele>2054.326</ele>
        <time>2011-06-12T09:17:15Z</time>
      </trkpt>
      <trkpt lat="44.17368" lon="6.82504">
        <ele>2056.327</ele>
        <time>2011-06-12T09:17:24Z</time>
      </trkpt>
      <trkpt lat="44.17355" lon="6.82493">
        <ele>2058.146</ele>
        <time>2011-06-12T09:17:34Z</time>
      </trkpt>
      <trkpt lat="44.17341" lon="6.82481">
        <ele>2059.315</ele>
        <time>2011-06-12T09:17:44Z</time>
      </trkpt>
      <trkpt lat="44.1733" lon="6.82471">
        <ele>2061.888</ele>
        <time>2011-06-12T09:17:53Z</time>
      </trkpt>
      <trkpt lat="44.17326" lon="6.82467">
        <ele>2063.056</ele>
        <time>2011-06-12T09:18:00Z</time>
      </trkpt>
      <trkpt lat="44.1732" lon="6.82463">
        <ele>2063.577</ele>
        <time>2011-06-12T09:18:07Z</time>
      </trkpt>
      <trkpt lat="44.1732" lon="6.82462">
        <ele>2063.777</ele>
        <time>2011-06-12T09:18:08Z</time>
      </trkpt>
      <trkpt lat="44.17318" lon="6.82457">
        <ele>2063.414</ele>
        <time>2011-06-12T09:18:12Z</time>
      </trkpt>
      <trkpt lat="44.17315" lon="6.82455">
        <ele>2063.374</ele>
        <time>2011-06-12T09:18:20Z</time>
      </trkpt>
      <trkpt lat="44.17311" lon="6.82452">
        <ele>2064.335</ele>
        <time>2011-06-12T09:18:27Z</time>
      </trkpt>
      <trkpt lat="44.17302" lon="6.82446">
        <ele>2066.147</ele>
        <time>2011-06-12T09:18:38Z</time>
      </trkpt>
      <trkpt lat="44.17295" lon="6.82438">
        <ele>2064.725</ele>
        <time>2011-06-12T09:18:50Z</time>
      </trkpt>
      <trkpt lat="44.17288" lon="6.82432">
        <ele>2065.056</ele>
        <time>2011-06-12T09:18:59Z</time>
      </trkpt>
      <trkpt lat="44.17281" lon="6.82423">
        <ele>2066.506</ele>
        <time>2011-06-12T09:19:12Z</time>
      </trkpt>
      <trkpt lat="44.17274" lon="6.82418">
        <ele>2069.445</ele>
        <time>2011-06-12T09:19:22Z</time>
      </trkpt>
      <trkpt lat="44.17265" lon="6.82409">
        <ele>2070.236</ele>
        <time>2011-06-12T09:19:33Z</time>
      </trkpt>
      <trkpt lat="44.1726" lon="6.82403">
        <ele>2070.045</ele>
        <time>2011-06-12T09:19:41Z</time>
      </trkpt>
      <trkpt lat="44.17255" lon="6.824">
        <ele>2071.836</ele>
        <time>2011-06-12T09:19:46Z</time>
      </trkpt>
      <trkpt lat="44.1725" lon="6.82397">
        <ele>2075.107</ele>
        <time>2011-06-12T09:19:53Z</time>
      </trkpt>
      <trkpt lat="44.17241" lon="6.82394">
        <ele>2079.388</ele>
        <time>2011-06-12T09:20:03Z</time>
      </trkpt>
      <trkpt lat="44.17235" lon="6.82389">
        <ele>2080.754</ele>
        <time>2011-06-12T09:20:14Z</time>
      </trkpt>
      <trkpt lat="44.17229" lon="6.82384">
        <ele>2082.676</ele>
        <time>2011-06-12T09:20:26Z</time>
      </trkpt>
      <trkpt lat="44.17225" lon="6.82381">
        <ele>2083.016</ele>
        <time>2011-06-12T09:20:35Z</time>
      </trkpt>
      <trkpt lat="44.17218" lon="6.82378">
        <ele>2084.687</ele>
        <time>2011-06-12T09:20:46Z</time>
      </trkpt>
      <trkpt lat="44.17209" lon="6.82374">
        <ele>2086.586</ele>
        <time>2011-06-12T09:20:56Z</time>
      </trkpt>
      <trkpt lat="44.17203" lon="6.82372">
        <ele>2087.075</ele>
        <time>2011-06-12T09:21:02Z</time>
      </trkpt>
      <trkpt lat="44.17199" lon="6.82372">
        <ele>2088.364</ele>
        <time>2011-06-12T09:21:10Z</time>
      </trkpt>
      <trkpt lat="44.17196" lon="6.82371">
        <ele>2092.363</ele>
        <time>2011-06-12T09:22:00Z</time>
      </trkpt>
      <trkpt lat="44.17196" lon="6.8237">
        <ele>2092.062</ele>
        <time>2011-06-12T09:22:02Z</time>
      </trkpt>
      <trkpt lat="44.17182" lon="6.82367">
        <ele>2094.064</ele>
        <time>2011-06-12T09:22:11Z</time>
      </trkpt>
      <trkpt lat="44.17166" lon="6.82362">
        <ele>2095.634</ele>
        <time>2011-06-12T09:22:21Z</time>
      </trkpt>
      <trkpt lat="44.17151" lon="6.82358">
        <ele>2097.054</ele>
        <time>2011-06-12T09:22:30Z</time>
      </trkpt>
      <trkpt lat="44.1714" lon="6.82353">
        <ele>2098.986</ele>
        <time>2011-06-12T09:22:37Z</time>
      </trkpt>
      <trkpt lat="44.1713" lon="6.82346">
        <ele>2099.855</ele>
        <time>2011-06-12T09:22:43Z</time>
      </trkpt>
      <trkpt lat="44.17116" lon="6.82337">
        <ele>2100.073</ele>
        <time>2011-06-12T09:22:51Z</time>
      </trkpt>
      <trkpt lat="44.17103" lon="6.82326">
        <ele>2100.854</ele>
        <time>2011-06-12T09:23:01Z</time>
      </trkpt>
      <trkpt lat="44.17091" lon="6.82314">
        <ele>2102.845</ele>
        <time>2011-06-12T09:23:11Z</time>
      </trkpt>
      <trkpt lat="44.17081" lon="6.82303">
        <ele>2104.177</ele>
        <time>2011-06-12T09:23:20Z</time>
      </trkpt>
      <trkpt lat="44.1707" lon="6.82293">
        <ele>2104.285</ele>
        <time>2011-06-12T09:23:29Z</time>
      </trkpt>
      <trkpt lat="44.17058" lon="6.82286">
        <ele>2104.765</ele>
        <time>2011-06-12T09:23:38Z</time>
      </trkpt>
      <trkpt lat="44.17048" lon="6.82278">
        <ele>2106.626</ele>
        <time>2011-06-12T09:23:47Z</time>
      </trkpt>
      <trkpt lat="44.17038" lon="6.82265">
        <ele>2108.575</ele>
        <time>2011-06-12T09:23:57Z</time>
      </trkpt>
      <trkpt lat="44.17029" lon="6.82249">
        <ele>2111.176</ele>
        <time>2011-06-12T09:24:08Z</time>
      </trkpt>
      <trkpt lat="44.1702" lon="6.82237">
        <ele>2113.195</ele>
        <time>2011-06-12T09:24:16Z</time>
      </trkpt>
      <trkpt lat="44.17011" lon="6.82229">
        <ele>2112.89</ele>
        <time>2011-06-12T09:24:22Z</time>
      </trkpt>
      <trkpt lat="44.16996" lon="6.82223">
        <ele>2111.157</ele>
        <time>2011-06-12T09:24:27Z</time>
      </trkpt>
      <trkpt lat="44.16978" lon="6.82214">
        <ele>2107.53</ele>
        <time>2011-06-12T09:24:33Z</time>
      </trkpt>
      <trkpt lat="44.1696" lon="6.82202">
        <ele>2103.239</ele>
        <time>2011-06-12T09:24:37Z</time>
      </trkpt>
      <trkpt lat="44.16939" lon="6.82189">
        <ele>2101.549</ele>
        <time>2011-06-12T09:24:42Z</time>
      </trkpt>
      <trkpt lat="44.16915" lon="6.82179">
        <ele>2099.88</ele>
        <time>2011-06-12T09:24:49Z</time>
      </trkpt>
      <trkpt lat="44.16892" lon="6.82165">
        <ele>2098.299</ele>
        <time>2011-06-12T09:24:57Z</time>
      </trkpt>
      <trkpt lat="44.16873" lon="6.82151">
        <ele>2097.372</ele>
        <time>2011-06-12T09:25:03Z</time>
      </trkpt>
      <trkpt lat="44.16859" lon="6.82145">
        <ele>2097.904</ele>
        <time>2011-06-12T09:25:10Z</time>
      </trkpt>
      <trkpt lat="44.1684" lon="6.8214">
        <ele>2098.023</ele>
        <time>2011-06-12T09:25:20Z</time>
      </trkpt>
      <trkpt lat="44.16822" lon="6.82133">
        <ele>2098.834</ele>
        <time>2011-06-12T09:25:30Z</time>
      </trkpt>
      <trkpt lat="44.16812" lon="6.82127">
        <ele>2100.995</ele>
        <time>2011-06-12T09:25:37Z</time>
      </trkpt>
      <trkpt lat="44.16798" lon="6.82122">
        <ele>2102.334</ele>
        <time>2011-06-12T09:25:47Z</time>
      </trkpt>
      <trkpt lat="44.16784" lon="6.82117">
        <ele>2104.285</ele>
        <time>2011-06-12T09:25:57Z</time>
      </trkpt>
      <trkpt lat="44.16775" lon="6.82113">
        <ele>2105.495</ele>
        <time>2011-06-12T09:26:04Z</time>
      </trkpt>
      <trkpt lat="44.16765" lon="6.82109">
        <ele>2106.433</ele>
        <time>2011-06-12T09:26:12Z</time>
      </trkpt>
      <trkpt lat="44.16762" lon="6.82107">
        <ele>2106.572</ele>
        <time>2011-06-12T09:26:18Z</time>
      </trkpt>
      <trkpt lat="44.16764" lon="6.82104">
        <ele>2108.591</ele>
        <time>2011-06-12T09:27:03Z</time>
      </trkpt>
      <trkpt lat="44.16762" lon="6.82093">
        <ele>2108.263</ele>
        <time>2011-06-12T09:27:08Z</time>
      </trkpt>
      <trkpt lat="44.16763" lon="6.82068">
        <ele>2107.922</ele>
        <time>2011-06-12T09:27:17Z</time>
      </trkpt>
      <trkpt lat="44.16762" lon="6.8206">
        <ele>2108.063</ele>
        <time>2011-06-12T09:27:20Z</time>
      </trkpt>
      <trkpt lat="44.16757" lon="6.82042">
        <ele>2110.013</ele>
        <time>2011-06-12T09:27:28Z</time>
      </trkpt>
      <trkpt lat="44.16751" lon="6.82023">
        <ele>2109.481</ele>
        <time>2011-06-12T09:27:35Z</time>
      </trkpt>
      <trkpt lat="44.16743" lon="6.82006">
        <ele>2107.65</ele>
        <time>2011-06-12T09:27:41Z</time>
      </trkpt>
      <trkpt lat="44.16732" lon="6.81995">
        <ele>2106.731</ele>
        <time>2011-06-12T09:27:47Z</time>
      </trkpt>
      <trkpt lat="44.16721" lon="6.81984">
        <ele>2105.91</ele>
        <time>2011-06-12T09:27:52Z</time>
      </trkpt>
      <trkpt lat="44.16705" lon="6.8197">
        <ele>2105.572</ele>
        <time>2011-06-12T09:27:59Z</time>
      </trkpt>
      <trkpt lat="44.16688" lon="6.81955">
        <ele>2105.143</ele>
        <time>2011-06-12T09:28:06Z</time>
      </trkpt>
      <trkpt lat="44.16672" lon="6.81941">
        <ele>2105.683</ele>
        <time>2011-06-12T09:28:13Z</time>
      </trkpt>
      <trkpt lat="44.16658" lon="6.81927">
        <ele>2106.503</ele>
        <time>2011-06-12T09:28:22Z</time>
      </trkpt>
      <trkpt lat="44.16652" lon="6.81913">
        <ele>2107.283</ele>
        <time>2011-06-12T09:28:29Z</time>
      </trkpt>
      <trkpt lat="44.16647" lon="6.81898">
        <ele>2107.823</ele>
        <time>2011-06-12T09:28:36Z</time>
      </trkpt>
      <trkpt lat="44.16643" lon="6.81894">
        <ele>2107.963</ele>
        <time>2011-06-12T09:28:39Z</time>
      </trkpt>
      <trkpt lat="44.1664" lon="6.81881">
        <ele>2108.512</ele>
        <time>2011-06-12T09:28:45Z</time>
      </trkpt>
      <trkpt lat="44.16634" lon="6.8186">
        <ele>2108.561</ele>
        <time>2011-06-12T09:28:54Z</time>
      </trkpt>
      <trkpt lat="44.16625" lon="6.81849">
        <ele>2110.194</ele>
        <time>2011-06-12T09:29:01Z</time>
      </trkpt>
      <trkpt lat="44.16613" lon="6.81842">
        <ele>2112.405</ele>
        <time>2011-06-12T09:29:09Z</time>
      </trkpt>
      <trkpt lat="44.16602" lon="6.8183">
        <ele>2112.088</ele>
        <time>2011-06-12T09:29:16Z</time>
      </trkpt>
      <trkpt lat="44.1659" lon="6.81814">
        <ele>2110.317</ele>
        <time>2011-06-12T09:29:20Z</time>
      </trkpt>
      <trkpt lat="44.16571" lon="6.81793">
        <ele>2108.469</ele>
        <time>2011-06-12T09:29:27Z</time>
      </trkpt>
      <trkpt lat="44.16561" lon="6.81786">
        <ele>2107.951</ele>
        <time>2011-06-12T09:29:32Z</time>
      </trkpt>
      <trkpt lat="44.1655" lon="6.81782">
        <ele>2108.152</ele>
        <time>2011-06-12T09:29:39Z</time>
      </trkpt>
      <trkpt lat="44.16543" lon="6.81781">
        <ele>2108.502</ele>
        <time>2011-06-12T09:29:43Z</time>
      </trkpt>
      <trkpt lat="44.16532" lon="6.81775">
        <ele>2109.601</ele>
        <time>2011-06-12T09:29:50Z</time>
      </trkpt>
      <trkpt lat="44.16516" lon="6.81765">
        <ele>2109.721</ele>
        <time>2011-06-12T09:30:00Z</time>
      </trkpt>
      <trkpt lat="44.16505" lon="6.8176">
        <ele>2110.792</ele>
        <time>2011-06-12T09:30:08Z</time>
      </trkpt>
      <trkpt lat="44.16491" lon="6.81755">
        <ele>2111.902</ele>
        <time>2011-06-12T09:30:17Z</time>
      </trkpt>
      <trkpt lat="44.16485" lon="6.81748">
        <ele>2112.983</ele>
        <time>2011-06-12T09:30:23Z</time>
      </trkpt>
      <trkpt lat="44.16476" lon="6.81741">
        <ele>2113.302</ele>
        <time>2011-06-12T09:30:29Z</time>
      </trkpt>
      <trkpt lat="44.16464" lon="6.81731">
        <ele>2114.001</ele>
        <time>2011-06-12T09:30:37Z</time>
      </trkpt>
      <trkpt lat="44.16453" lon="6.81719">
        <ele>2113.74</ele>
        <time>2011-06-12T09:30:44Z</time>
      </trkpt>
      <trkpt lat="44.16437" lon="6.81707">
        <ele>2114.192</ele>
        <time>2011-06-12T09:30:54Z</time>
      </trkpt>
      <trkpt lat="44.16425" lon="6.81701">
        <ele>2114.231</ele>
        <time>2011-06-12T09:31:01Z</time>
      </trkpt>
      <trkpt lat="44.16413" lon="6.81694">
        <ele>2114.221</ele>
        <time>2011-06-12T09:31:09Z</time>
      </trkpt>
      <trkpt lat="44.164" lon="6.8169">
        <ele>2113.831</ele>
        <time>2011-06-12T09:31:17Z</time>
      </trkpt>
      <trkpt lat="44.16386" lon="6.81692">
        <ele>2113.35</ele>
        <time>2011-06-12T09:31:25Z</time>
      </trkpt>
      <trkpt lat="44.16376" lon="6.81692">
        <ele>2113.431</ele>
        <time>2011-06-12T09:31:31Z</time>
      </trkpt>
      <trkpt lat="44.16362" lon="6.81693">
        <ele>2112.91</ele>
        <time>2011-06-12T09:31:39Z</time>
      </trkpt>
      <trkpt lat="44.16349" lon="6.81695">
        <ele>2112.29</ele>
        <time>2011-06-12T09:31:46Z</time>
      </trkpt>
      <trkpt lat="44.16335" lon="6.81694">
        <ele>2113.502</ele>
        <time>2011-06-12T09:31:54Z</time>
      </trkpt>
      <trkpt lat="44.16322" lon="6.81693">
        <ele>2114.662</ele>
        <time>2011-06-12T09:32:02Z</time>
      </trkpt>
      <trkpt lat="44.16306" lon="6.81692">
        <ele>2115.422</ele>
        <time>2011-06-12T09:32:11Z</time>
      </trkpt>
      <trkpt lat="44.1629" lon="6.8169">
        <ele>2115.84</ele>
        <time>2011-06-12T09:32:20Z</time>
      </trkpt>
      <trkpt lat="44.16276" lon="6.81688">
        <ele>2115.79</ele>
        <time>2011-06-12T09:32:27Z</time>
      </trkpt>
      <trkpt lat="44.16263" lon="6.81687">
        <ele>2115.711</ele>
        <time>2011-06-12T09:32:34Z</time>
      </trkpt>
      <trkpt lat="44.16249" lon="6.81687">
        <ele>2115.401</ele>
        <time>2011-06-12T09:32:40Z</time>
      </trkpt>
      <trkpt lat="44.16231" lon="6.81685">
        <ele>2114.729</ele>
        <time>2011-06-12T09:32:49Z</time>
      </trkpt>
      <trkpt lat="44.16214" lon="6.81686">
        <ele>2113.93</ele>
        <time>2011-06-12T09:32:58Z</time>
      </trkpt>
      <trkpt lat="44.16199" lon="6.81686">
        <ele>2113.188</ele>
        <time>2011-06-12T09:33:05Z</time>
      </trkpt>
      <trkpt lat="44.16177" lon="6.81688">
        <ele>2111.348</ele>
        <time>2011-06-12T09:33:12Z</time>
      </trkpt>
      <trkpt lat="44.1616" lon="6.81688">
        <ele>2109.888</ele>
        <time>2011-06-12T09:33:18Z</time>
      </trkpt>
      <trkpt lat="44.16144" lon="6.81685">
        <ele>2109.317</ele>
        <time>2011-06-12T09:33:24Z</time>
      </trkpt>
      <trkpt lat="44.16128" lon="6.81686">
        <ele>2108.72</ele>
        <time>2011-06-12T09:33:30Z</time>
      </trkpt>
      <trkpt lat="44.1611" lon="6.81684">
        <ele>2109.25</ele>
        <time>2011-06-12T09:33:40Z</time>
      </trkpt>
      <trkpt lat="44.16093" lon="6.81678">
        <ele>2110.561</ele>
        <time>2011-06-12T09:33:49Z</time>
      </trkpt>
      <trkpt lat="44.16077" lon="6.8167">
        <ele>2112.801</ele>
        <time>2011-06-12T09:33:58Z</time>
      </trkpt>
      <trkpt lat="44.16062" lon="6.81662">
        <ele>2113.741</ele>
        <time>2011-06-12T09:34:06Z</time>
      </trkpt>
      <trkpt lat="44.16048" lon="6.81655">
        <ele>2114.571</ele>
        <time>2011-06-12T09:34:15Z</time>
      </trkpt>
      <trkpt lat="44.16034" lon="6.81651">
        <ele>2114.94</ele>
        <time>2011-06-12T09:34:23Z</time>
      </trkpt>
      <trkpt lat="44.16021" lon="6.81646">
        <ele>2115.16</ele>
        <time>2011-06-12T09:34:30Z</time>
      </trkpt>
      <trkpt lat="44.16011" lon="6.81641">
        <ele>2115.49</ele>
        <time>2011-06-12T09:34:36Z</time>
      </trkpt>
      <trkpt lat="44.15999" lon="6.81635">
        <ele>2115.578</ele>
        <time>2011-06-12T09:34:43Z</time>
      </trkpt>
      <trkpt lat="44.15987" lon="6.81628">
        <ele>2115.319</ele>
        <time>2011-06-12T09:34:49Z</time>
      </trkpt>
      <trkpt lat="44.15976" lon="6.81623">
        <ele>2117.354</ele>
        <time>2011-06-12T09:34:55Z</time>
      </trkpt>
      <trkpt lat="44.15966" lon="6.81619">
        <ele>2118.512</ele>
        <time>2011-06-12T09:35:02Z</time>
      </trkpt>
      <trkpt lat="44.15965" lon="6.81615">
        <ele>2119.852</ele>
        <time>2011-06-12T09:35:07Z</time>
      </trkpt>
      <trkpt lat="44.15966" lon="6.81617">
        <ele>2125.26</ele>
        <time>2011-06-12T09:36:21Z</time>
      </trkpt>
      <trkpt lat="44.1596" lon="6.81615">
        <ele>2125.171</ele>
        <time>2011-06-12T09:36:26Z</time>
      </trkpt>
      <trkpt lat="44.15947" lon="6.81608">
        <ele>2125.85</ele>
        <time>2011-06-12T09:36:34Z</time>
      </trkpt>
      <trkpt lat="44.15939" lon="6.81604">
        <ele>2126.753</ele>
        <time>2011-06-12T09:36:38Z</time>
      </trkpt>
      <trkpt lat="44.15924" lon="6.81597">
        <ele>2128.003</ele>
        <time>2011-06-12T09:36:48Z</time>
      </trkpt>
      <trkpt lat="44.15915" lon="6.81589">
        <ele>2128.892</ele>
        <time>2011-06-12T09:36:55Z</time>
      </trkpt>
      <trkpt lat="44.1591" lon="6.81584">
        <ele>2129.27</ele>
        <time>2011-06-12T09:37:01Z</time>
      </trkpt>
      <trkpt lat="44.1591" lon="6.81584">
        <ele>2129.13</ele>
        <time>2011-06-12T09:37:03Z</time>
      </trkpt>
      <trkpt lat="44.15908" lon="6.8158">
        <ele>2129.521</ele>
        <time>2011-06-12T09:37:08Z</time>
      </trkpt>
      <trkpt lat="44.15906" lon="6.81578">
        <ele>2130.071</ele>
        <time>2011-06-12T09:37:14Z</time>
      </trkpt>
      <trkpt lat="44.15906" lon="6.81578">
        <ele>2129.889</ele>
        <time>2011-06-12T09:37:19Z</time>
      </trkpt>
      <trkpt lat="44.15906" lon="6.81574">
        <ele>2129.941</ele>
        <time>2011-06-12T09:37:22Z</time>
      </trkpt>
      <trkpt lat="44.159" lon="6.81566">
        <ele>2129.912</ele>
        <time>2011-06-12T09:37:30Z</time>
      </trkpt>
      <trkpt lat="44.15892" lon="6.81558">
        <ele>2130.883</ele>
        <time>2011-06-12T09:37:39Z</time>
      </trkpt>
      <trkpt lat="44.15892" lon="6.81557">
        <ele>2131.004</ele>
        <time>2011-06-12T09:37:40Z</time>
      </trkpt>
      <trkpt lat="44.15897" lon="6.81548">
        <ele>2132.183</ele>
        <time>2011-06-12T09:37:48Z</time>
      </trkpt>
      <trkpt lat="44.159" lon="6.81539">
        <ele>2133.823</ele>
        <time>2011-06-12T09:37:57Z</time>
      </trkpt>
      <trkpt lat="44.15893" lon="6.81534">
        <ele>2135.262</ele>
        <time>2011-06-12T09:38:05Z</time>
      </trkpt>
      <trkpt lat="44.15887" lon="6.81529">
        <ele>2137.182</ele>
        <time>2011-06-12T09:38:13Z</time>
      </trkpt>
      <trkpt lat="44.15883" lon="6.81524">
        <ele>2137.591</ele>
        <time>2011-06-12T09:38:20Z</time>
      </trkpt>
      <trkpt lat="44.1589" lon="6.81519">
        <ele>2138.372</ele>
        <time>2011-06-12T09:38:29Z</time>
      </trkpt>
      <trkpt lat="44.15891" lon="6.81517">
        <ele>2138.893</ele>
        <time>2011-06-12T09:38:31Z</time>
      </trkpt>
      <trkpt lat="44.15879" lon="6.81512">
        <ele>2138.981</ele>
        <time>2011-06-12T09:38:43Z</time>
      </trkpt>
      <trkpt lat="44.15873" lon="6.81505">
        <ele>2136.881</ele>
        <time>2011-06-12T09:38:53Z</time>
      </trkpt>
      <trkpt lat="44.15873" lon="6.81503">
        <ele>2128.748</ele>
        <time>2011-06-12T09:40:03Z</time>
      </trkpt>
      <trkpt lat="44.15873" lon="6.81505">
        <ele>2129.891</ele>
        <time>2011-06-12T09:40:37Z</time>
      </trkpt>
      <trkpt lat="44.15866" lon="6.81507">
        <ele>2129.569</ele>
        <time>2011-06-12T09:40:43Z</time>
      </trkpt>
      <trkpt lat="44.15852" lon="6.81509">
        <ele>2128.2</ele>
        <time>2011-06-12T09:40:52Z</time>
      </trkpt>
      <trkpt lat="44.15838" lon="6.81509">
        <ele>2131.213</ele>
        <time>2011-06-12T09:41:02Z</time>
      </trkpt>
      <trkpt lat="44.1583" lon="6.8151">
        <ele>2132.982</ele>
        <time>2011-06-12T09:41:10Z</time>
      </trkpt>
      <trkpt lat="44.15822" lon="6.8151">
        <ele>2135.513</ele>
        <time>2011-06-12T09:41:19Z</time>
      </trkpt>
      <trkpt lat="44.15812" lon="6.81511">
        <ele>2139.253</ele>
        <time>2011-06-12T09:41:29Z</time>
      </trkpt>
      <trkpt lat="44.15809" lon="6.8151">
        <ele>2140.75</ele>
        <time>2011-06-12T09:41:36Z</time>
      </trkpt>
      <trkpt lat="44.15808" lon="6.81511">
        <ele>2133.201</ele>
        <time>2011-06-12T09:42:23Z</time>
      </trkpt>
      <trkpt lat="44.15799" lon="6.81511">
        <ele>2139.263</ele>
        <time>2011-06-12T09:42:34Z</time>
      </trkpt>
      <trkpt lat="44.15791" lon="6.81511">
        <ele>2142.383</ele>
        <time>2011-06-12T09:42:44Z</time>
      </trkpt>
      <trkpt lat="44.1578" lon="6.81511">
        <ele>2146.932</ele>
        <time>2011-06-12T09:42:55Z</time>
      </trkpt>
      <trkpt lat="44.15771" lon="6.81511">
        <ele>2149.781</ele>
        <time>2011-06-12T09:43:06Z</time>
      </trkpt>
      <trkpt lat="44.15761" lon="6.8151">
        <ele>2154.143</ele>
        <time>2011-06-12T09:43:17Z</time>
      </trkpt>
      <trkpt lat="44.15752" lon="6.81507">
        <ele>2157.872</ele>
        <time>2011-06-12T09:43:26Z</time>
      </trkpt>
      <trkpt lat="44.15746" lon="6.81504">
        <ele>2160.513</ele>
        <time>2011-06-12T09:43:34Z</time>
      </trkpt>
      <trkpt lat="44.15743" lon="6.81502">
        <ele>2162.229</ele>
        <time>2011-06-12T09:43:43Z</time>
      </trkpt>
      <trkpt lat="44.15743" lon="6.81504">
        <ele>2161.999</ele>
        <time>2011-06-12T09:43:49Z</time>
      </trkpt>
      <trkpt lat="44.15743" lon="6.81509">
        <ele>2170.469</ele>
        <time>2011-06-12T09:50:46Z</time>
      </trkpt>
      <trkpt lat="44.15742" lon="6.81508">
        <ele>2169.82</ele>
        <time>2011-06-12T09:50:55Z</time>
      </trkpt>
      <trkpt lat="44.15741" lon="6.81507">
        <ele>2168.809</ele>
        <time>2011-06-12T09:51:27Z</time>
      </trkpt>
      <trkpt lat="44.15731" lon="6.81497">
        <ele>2167.886</ele>
        <time>2011-06-12T09:51:32Z</time>
      </trkpt>
      <trkpt lat="44.15723" lon="6.81486">
        <ele>2168.1</ele>
        <time>2011-06-12T09:51:37Z</time>
      </trkpt>
      <trkpt lat="44.15722" lon="6.81484">
        <ele>2168.41</ele>
        <time>2011-06-12T09:51:43Z</time>
      </trkpt>
      <trkpt lat="44.15721" lon="6.81483">
        <ele>2168.109</ele>
        <time>2011-06-12T09:51:51Z</time>
      </trkpt>
      <trkpt lat="44.15717" lon="6.81477">
        <ele>2167.772</ele>
        <time>2011-06-12T09:52:57Z</time>
      </trkpt>
      <trkpt lat="44.15717" lon="6.81476">
        <ele>2167.804</ele>
        <time>2011-06-12T09:52:58Z</time>
      </trkpt>
      <trkpt lat="44.15708" lon="6.81464">
        <ele>2164.937</ele>
        <time>2011-06-12T09:53:05Z</time>
      </trkpt>
      <trkpt lat="44.15696" lon="6.81456">
        <ele>2159.848</ele>
        <time>2011-06-12T09:53:11Z</time>
      </trkpt>
      <trkpt lat="44.15681" lon="6.81448">
        <ele>2153.455</ele>
        <time>2011-06-12T09:53:18Z</time>
      </trkpt>
      <trkpt lat="44.15671" lon="6.81442">
        <ele>2148.043</ele>
        <time>2011-06-12T09:53:23Z</time>
      </trkpt>
      <trkpt lat="44.15659" lon="6.81431">
        <ele>2140.954</ele>
        <time>2011-06-12T09:53:30Z</time>
      </trkpt>
      <trkpt lat="44.15651" lon="6.81422">
        <ele>2136.55</ele>
        <time>2011-06-12T09:53:34Z</time>
      </trkpt>
      <trkpt lat="44.15631" lon="6.81415">
        <ele>2129.837</ele>
        <time>2011-06-12T09:53:41Z</time>
      </trkpt>
      <trkpt lat="44.15629" lon="6.81416">
        <ele>2128.718</ele>
        <time>2011-06-12T09:53:44Z</time>
      </trkpt>
      <trkpt lat="44.15627" lon="6.81416">
        <ele>2127.009</ele>
        <time>2011-06-12T09:54:04Z</time>
      </trkpt>
      <trkpt lat="44.15622" lon="6.81418">
        <ele>2127.212</ele>
        <time>2011-06-12T09:54:12Z</time>
      </trkpt>
      <trkpt lat="44.15611" lon="6.81424">
        <ele>2125.142</ele>
        <time>2011-06-12T09:54:16Z</time>
      </trkpt>
      <trkpt lat="44.15598" lon="6.8143">
        <ele>2122.468</ele>
        <time>2011-06-12T09:54:20Z</time>
      </trkpt>
      <trkpt lat="44.15583" lon="6.8144">
        <ele>2116.23</ele>
        <time>2011-06-12T09:54:25Z</time>
      </trkpt>
      <trkpt lat="44.15566" lon="6.81449">
        <ele>2109.693</ele>
        <time>2011-06-12T09:54:30Z</time>
      </trkpt>
      <trkpt lat="44.15556" lon="6.81451">
        <ele>2104.268</ele>
        <time>2011-06-12T09:54:35Z</time>
      </trkpt>
      <trkpt lat="44.15548" lon="6.81458">
        <ele>2098.463</ele>
        <time>2011-06-12T09:54:40Z</time>
      </trkpt>
      <trkpt lat="44.15538" lon="6.81466">
        <ele>2092.198</ele>
        <time>2011-06-12T09:54:45Z</time>
      </trkpt>
      <trkpt lat="44.15527" lon="6.81475">
        <ele>2085.791</ele>
        <time>2011-06-12T09:54:50Z</time>
      </trkpt>
      <trkpt lat="44.15511" lon="6.81485">
        <ele>2082.138</ele>
        <time>2011-06-12T09:54:54Z</time>
      </trkpt>
      <trkpt lat="44.15509" lon="6.81486">
        <ele>2080.688</ele>
        <time>2011-06-12T09:54:56Z</time>
      </trkpt>
      <trkpt lat="44.1551" lon="6.81486">
        <ele>2079.648</ele>
        <time>2011-06-12T09:55:05Z</time>
      </trkpt>
      <trkpt lat="44.15509" lon="6.81487">
        <ele>2085.79</ele>
        <time>2011-06-12T09:55:46Z</time>
      </trkpt>
      <trkpt lat="44.15499" lon="6.81492">
        <ele>2082.887</ele>
        <time>2011-06-12T09:55:51Z</time>
      </trkpt>
      <trkpt lat="44.15488" lon="6.81497">
        <ele>2078.007</ele>
        <time>2011-06-12T09:55:55Z</time>
      </trkpt>
      <trkpt lat="44.15465" lon="6.81508">
        <ele>2072.001</ele>
        <time>2011-06-12T09:55:59Z</time>
      </trkpt>
      <trkpt lat="44.15458" lon="6.81512">
        <ele>2068.73</ele>
        <time>2011-06-12T09:56:03Z</time>
      </trkpt>
      <trkpt lat="44.15459" lon="6.81512">
        <ele>2068.073</ele>
        <time>2011-06-12T09:56:08Z</time>
      </trkpt>
      <trkpt lat="44.15451" lon="6.81515">
        <ele>2067.519</ele>
        <time>2011-06-12T09:56:13Z</time>
      </trkpt>
      <trkpt lat="44.15439" lon="6.81522">
        <ele>2066.599</ele>
        <time>2011-06-12T09:56:19Z</time>
      </trkpt>
      <trkpt lat="44.15424" lon="6.8153">
        <ele>2065.474</ele>
        <time>2011-06-12T09:56:25Z</time>
      </trkpt>
      <trkpt lat="44.15423" lon="6.81531">
        <ele>2065.228</ele>
        <time>2011-06-12T09:56:29Z</time>
      </trkpt>
      <trkpt lat="44.15424" lon="6.8153">
        <ele>2065.349</ele>
        <time>2011-06-12T09:56:48Z</time>
      </trkpt>
      <trkpt lat="44.15423" lon="6.81543">
        <ele>2061.481</ele>
        <time>2011-06-12T09:56:54Z</time>
      </trkpt>
      <trkpt lat="44.15419" lon="6.81553">
        <ele>2058.045</ele>
        <time>2011-06-12T09:56:57Z</time>
      </trkpt>
      <trkpt lat="44.15406" lon="6.81578">
        <ele>2050.581</ele>
        <time>2011-06-12T09:57:03Z</time>
      </trkpt>
      <trkpt lat="44.15403" lon="6.81583">
        <ele>2049.454</ele>
        <time>2011-06-12T09:57:04Z</time>
      </trkpt>
      <trkpt lat="44.15392" lon="6.81595">
        <ele>2044.951</ele>
        <time>2011-06-12T09:57:07Z</time>
      </trkpt>
      <trkpt lat="44.15384" lon="6.816">
        <ele>2042.7</ele>
        <time>2011-06-12T09:57:09Z</time>
      </trkpt>
      <trkpt lat="44.15366" lon="6.81605">
        <ele>2038.702</ele>
        <time>2011-06-12T09:57:13Z</time>
      </trkpt>
      <trkpt lat="44.15354" lon="6.81613">
        <ele>2036.155</ele>
        <time>2011-06-12T09:57:16Z</time>
      </trkpt>
      <trkpt lat="44.1534" lon="6.81611">
        <ele>2032.363</ele>
        <time>2011-06-12T09:57:20Z</time>
      </trkpt>
      <trkpt lat="44.15334" lon="6.81617">
        <ele>2030.165</ele>
        <time>2011-06-12T09:57:24Z</time>
      </trkpt>
      <trkpt lat="44.15336" lon="6.8162">
        <ele>2029.85</ele>
        <time>2011-06-12T09:57:28Z</time>
      </trkpt>
      <trkpt lat="44.15336" lon="6.8162">
        <ele>2029.29</ele>
        <time>2011-06-12T09:57:30Z</time>
      </trkpt>
      <trkpt lat="44.15332" lon="6.81619">
        <ele>2029.563</ele>
        <time>2011-06-12T09:57:35Z</time>
      </trkpt>
      <trkpt lat="44.15321" lon="6.81618">
        <ele>2027.704</ele>
        <time>2011-06-12T09:57:40Z</time>
      </trkpt>
      <trkpt lat="44.15314" lon="6.8162">
        <ele>2025.771</ele>
        <time>2011-06-12T09:57:42Z</time>
      </trkpt>
      <trkpt lat="44.15297" lon="6.81607">
        <ele>2020.509</ele>
        <time>2011-06-12T09:57:48Z</time>
      </trkpt>
      <trkpt lat="44.15293" lon="6.81604">
        <ele>2019.245</ele>
        <time>2011-06-12T09:57:50Z</time>
      </trkpt>
      <trkpt lat="44.15291" lon="6.81601">
        <ele>2019.204</ele>
        <time>2011-06-12T09:57:56Z</time>
      </trkpt>
      <trkpt lat="44.15291" lon="6.81601">
        <ele>2019.547</ele>
        <time>2011-06-12T09:57:57Z</time>
      </trkpt>
      <trkpt lat="44.15282" lon="6.81609">
        <ele>2015.257</ele>
        <time>2011-06-12T09:58:03Z</time>
      </trkpt>
      <trkpt lat="44.15268" lon="6.8161">
        <ele>2009.382</ele>
        <time>2011-06-12T09:58:09Z</time>
      </trkpt>
      <trkpt lat="44.15259" lon="6.81604">
        <ele>2005.545</ele>
        <time>2011-06-12T09:58:14Z</time>
      </trkpt>
      <trkpt lat="44.15247" lon="6.81595">
        <ele>1999.716</ele>
        <time>2011-06-12T09:58:21Z</time>
      </trkpt>
      <trkpt lat="44.15244" lon="6.81593">
        <ele>1997.816</ele>
        <time>2011-06-12T09:58:23Z</time>
      </trkpt>
      <trkpt lat="44.15235" lon="6.81596">
        <ele>1993.681</ele>
        <time>2011-06-12T09:58:27Z</time>
      </trkpt>
      <trkpt lat="44.15227" lon="6.8161">
        <ele>1989.321</ele>
        <time>2011-06-12T09:58:33Z</time>
      </trkpt>
      <trkpt lat="44.15226" lon="6.81612">
        <ele>1987.452</ele>
        <time>2011-06-12T09:58:37Z</time>
      </trkpt>
      <trkpt lat="44.15227" lon="6.81613">
        <ele>1985.08</ele>
        <time>2011-06-12T09:59:10Z</time>
      </trkpt>
      <trkpt lat="44.1523" lon="6.81613">
        <ele>1985.656</ele>
        <time>2011-06-12T09:59:14Z</time>
      </trkpt>
      <trkpt lat="44.15231" lon="6.81616">
        <ele>1986.149</ele>
        <time>2011-06-12T09:59:19Z</time>
      </trkpt>
      <trkpt lat="44.15231" lon="6.81617">
        <ele>1986.157</ele>
        <time>2011-06-12T09:59:26Z</time>
      </trkpt>
      <trkpt lat="44.15227" lon="6.81621">
        <ele>1984.976</ele>
        <time>2011-06-12T09:59:31Z</time>
      </trkpt>
      <trkpt lat="44.15227" lon="6.81621">
        <ele>1984.916</ele>
        <time>2011-06-12T09:59:32Z</time>
      </trkpt>
      <trkpt lat="44.15227" lon="6.81627">
        <ele>1986.521</ele>
        <time>2011-06-12T09:59:39Z</time>
      </trkpt>
      <trkpt lat="44.15225" lon="6.81633">
        <ele>1987.103</ele>
        <time>2011-06-12T09:59:45Z</time>
      </trkpt>
      <trkpt lat="44.15222" lon="6.81638">
        <ele>1987.913</ele>
        <time>2011-06-12T09:59:48Z</time>
      </trkpt>
      <trkpt lat="44.15214" lon="6.81642">
        <ele>1989.16</ele>
        <time>2011-06-12T09:59:55Z</time>
      </trkpt>
      <trkpt lat="44.1521" lon="6.81644">
        <ele>1989.227</ele>
        <time>2011-06-12T10:00:12Z</time>
      </trkpt>
      <trkpt lat="44.15199" lon="6.81653">
        <ele>1987.98</ele>
        <time>2011-06-12T10:00:17Z</time>
      </trkpt>
      <trkpt lat="44.15182" lon="6.81655">
        <ele>1986.185</ele>
        <time>2011-06-12T10:00:22Z</time>
      </trkpt>
      <trkpt lat="44.15179" lon="6.81655">
        <ele>1985.766</ele>
        <time>2011-06-12T10:00:23Z</time>
      </trkpt>
      <trkpt lat="44.15165" lon="6.81657">
        <ele>1984.462</ele>
        <time>2011-06-12T10:00:27Z</time>
      </trkpt>
      <trkpt lat="44.15152" lon="6.81645">
        <ele>1983.672</ele>
        <time>2011-06-12T10:00:32Z</time>
      </trkpt>
      <trkpt lat="44.15149" lon="6.81645">
        <ele>1983.525</ele>
        <time>2011-06-12T10:00:33Z</time>
      </trkpt>
      <trkpt lat="44.15137" lon="6.81642">
        <ele>1983.445</ele>
        <time>2011-06-12T10:00:38Z</time>
      </trkpt>
      <trkpt lat="44.1513" lon="6.81649">
        <ele>1983.47</ele>
        <time>2011-06-12T10:00:42Z</time>
      </trkpt>
      <trkpt lat="44.1513" lon="6.81653">
        <ele>1983.389</ele>
        <time>2011-06-12T10:00:43Z</time>
      </trkpt>
      <trkpt lat="44.15126" lon="6.81681">
        <ele>1981.405</ele>
        <time>2011-06-12T10:00:51Z</time>
      </trkpt>
      <trkpt lat="44.15123" lon="6.81693">
        <ele>1980.884</ele>
        <time>2011-06-12T10:00:54Z</time>
      </trkpt>
      <trkpt lat="44.15125" lon="6.81714">
        <ele>1979.079</ele>
        <time>2011-06-12T10:00:59Z</time>
      </trkpt>
      <trkpt lat="44.15125" lon="6.81732">
        <ele>1977.539</ele>
        <time>2011-06-12T10:01:03Z</time>
      </trkpt>
      <trkpt lat="44.15123" lon="6.81752">
        <ele>1976.552</ele>
        <time>2011-06-12T10:01:08Z</time>
      </trkpt>
      <trkpt lat="44.15116" lon="6.81763">
        <ele>1978.948</ele>
        <time>2011-06-12T10:01:14Z</time>
      </trkpt>
      <trkpt lat="44.1511" lon="6.81781">
        <ele>1981.335</ele>
        <time>2011-06-12T10:01:23Z</time>
      </trkpt>
      <trkpt lat="44.15105" lon="6.81787">
        <ele>1982.865</ele>
        <time>2011-06-12T10:01:28Z</time>
      </trkpt>
      <trkpt lat="44.15105" lon="6.81787">
        <ele>1983.369</ele>
        <time>2011-06-12T10:01:57Z</time>
      </trkpt>
      <trkpt lat="44.15104" lon="6.81792">
        <ele>1982.21</ele>
        <time>2011-06-12T10:02:01Z</time>
      </trkpt>
      <trkpt lat="44.15096" lon="6.81809">
        <ele>1978.82</ele>
        <time>2011-06-12T10:02:07Z</time>
      </trkpt>
      <trkpt lat="44.15089" lon="6.81826">
        <ele>1978.158</ele>
        <time>2011-06-12T10:02:11Z</time>
      </trkpt>
      <trkpt lat="44.15085" lon="6.81833">
        <ele>1977.87</ele>
        <time>2011-06-12T10:02:14Z</time>
      </trkpt>
      <trkpt lat="44.1507" lon="6.81854">
        <ele>1977.999</ele>
        <time>2011-06-12T10:02:22Z</time>
      </trkpt>
      <trkpt lat="44.15056" lon="6.81863">
        <ele>1976.308</ele>
        <time>2011-06-12T10:02:28Z</time>
      </trkpt>
      <trkpt lat="44.15043" lon="6.81876">
        <ele>1975.709</ele>
        <time>2011-06-12T10:02:34Z</time>
      </trkpt>
      <trkpt lat="44.15036" lon="6.81878">
        <ele>1974.549</ele>
        <time>2011-06-12T10:02:37Z</time>
      </trkpt>
      <trkpt lat="44.15018" lon="6.81877">
        <ele>1973.273</ele>
        <time>2011-06-12T10:02:44Z</time>
      </trkpt>
      <trkpt lat="44.15007" lon="6.81879">
        <ele>1971.345</ele>
        <time>2011-06-12T10:02:47Z</time>
      </trkpt>
      <trkpt lat="44.14989" lon="6.81891">
        <ele>1969.633</ele>
        <time>2011-06-12T10:02:53Z</time>
      </trkpt>
      <trkpt lat="44.14988" lon="6.81892">
        <ele>1969.733</ele>
        <time>2011-06-12T10:02:54Z</time>
      </trkpt>
      <trkpt lat="44.14978" lon="6.81909">
        <ele>1970.091</ele>
        <time>2011-06-12T10:02:59Z</time>
      </trkpt>
      <trkpt lat="44.1497" lon="6.81919">
        <ele>1971.752</ele>
        <time>2011-06-12T10:03:05Z</time>
      </trkpt>
      <trkpt lat="44.14962" lon="6.81929">
        <ele>1971.076</ele>
        <time>2011-06-12T10:03:11Z</time>
      </trkpt>
      <trkpt lat="44.14958" lon="6.81931">
        <ele>1977.803</ele>
        <time>2011-06-12T10:03:40Z</time>
      </trkpt>
      <trkpt lat="44.14949" lon="6.81929">
        <ele>1977.921</ele>
        <time>2011-06-12T10:03:47Z</time>
      </trkpt>
      <trkpt lat="44.14941" lon="6.81929">
        <ele>1978.351</ele>
        <time>2011-06-12T10:03:54Z</time>
      </trkpt>
      <trkpt lat="44.14941" lon="6.81928">
        <ele>1978.319</ele>
        <time>2011-06-12T10:04:20Z</time>
      </trkpt>
      <trkpt lat="44.14933" lon="6.81936">
        <ele>1976.853</ele>
        <time>2011-06-12T10:04:25Z</time>
      </trkpt>
      <trkpt lat="44.14921" lon="6.81942">
        <ele>1974.617</ele>
        <time>2011-06-12T10:04:30Z</time>
      </trkpt>
      <trkpt lat="44.14912" lon="6.81949">
        <ele>1969.786</ele>
        <time>2011-06-12T10:04:35Z</time>
      </trkpt>
      <trkpt lat="44.149" lon="6.81968">
        <ele>1962.314</ele>
        <time>2011-06-12T10:04:41Z</time>
      </trkpt>
      <trkpt lat="44.14889" lon="6.81985">
        <ele>1956.068</ele>
        <time>2011-06-12T10:04:46Z</time>
      </trkpt>
      <trkpt lat="44.14878" lon="6.81996">
        <ele>1950.468</ele>
        <time>2011-06-12T10:04:50Z</time>
      </trkpt>
      <trkpt lat="44.14865" lon="6.82005">
        <ele>1945.177</ele>
        <time>2011-06-12T10:04:56Z</time>
      </trkpt>
      <trkpt lat="44.14857" lon="6.82008">
        <ele>1941.813</ele>
        <time>2011-06-12T10:05:01Z</time>
      </trkpt>
      <trkpt lat="44.14849" lon="6.82011">
        <ele>1937.627</ele>
        <time>2011-06-12T10:05:07Z</time>
      </trkpt>
      <trkpt lat="44.1484" lon="6.82014">
        <ele>1935.363</ele>
        <time>2011-06-12T10:05:12Z</time>
      </trkpt>
      <trkpt lat="44.14828" lon="6.82017">
        <ele>1933.124</ele>
        <time>2011-06-12T10:05:18Z</time>
      </trkpt>
      <trkpt lat="44.14821" lon="6.82014">
        <ele>1933.798</ele>
        <time>2011-06-12T10:05:22Z</time>
      </trkpt>
      <trkpt lat="44.14812" lon="6.82023">
        <ele>1931.431</ele>
        <time>2011-06-12T10:05:27Z</time>
      </trkpt>
      <trkpt lat="44.14796" lon="6.82031">
        <ele>1931.32</ele>
        <time>2011-06-12T10:05:33Z</time>
      </trkpt>
      <trkpt lat="44.14792" lon="6.82033">
        <ele>1930.737</ele>
        <time>2011-06-12T10:05:34Z</time>
      </trkpt>
      <trkpt lat="44.14778" lon="6.82038">
        <ele>1928.549</ele>
        <time>2011-06-12T10:05:39Z</time>
      </trkpt>
      <trkpt lat="44.14777" lon="6.82037">
        <ele>1927.203</ele>
        <time>2011-06-12T10:05:44Z</time>
      </trkpt>
      <trkpt lat="44.14777" lon="6.82035">
        <ele>1921.161</ele>
        <time>2011-06-12T10:05:53Z</time>
      </trkpt>
      <trkpt lat="44.14774" lon="6.82033">
        <ele>1920.736</ele>
        <time>2011-06-12T10:05:59Z</time>
      </trkpt>
      <trkpt lat="44.14768" lon="6.82036">
        <ele>1923.993</ele>
        <time>2011-06-12T10:06:04Z</time>
      </trkpt>
      <trkpt lat="44.14766" lon="6.82036">
        <ele>1924.423</ele>
        <time>2011-06-12T10:06:05Z</time>
      </trkpt>
      <trkpt lat="44.14755" lon="6.82039">
        <ele>1922.417</ele>
        <time>2011-06-12T10:06:10Z</time>
      </trkpt>
      <trkpt lat="44.14754" lon="6.82041">
        <ele>1922.235</ele>
        <time>2011-06-12T10:06:15Z</time>
      </trkpt>
      <trkpt lat="44.14751" lon="6.82041">
        <ele>1923.149</ele>
        <time>2011-06-12T10:06:20Z</time>
      </trkpt>
      <trkpt lat="44.14738" lon="6.82046">
        <ele>1921.41</ele>
        <time>2011-06-12T10:06:27Z</time>
      </trkpt>
      <trkpt lat="44.14735" lon="6.82049">
        <ele>1920.414</ele>
        <time>2011-06-12T10:06:28Z</time>
      </trkpt>
      <trkpt lat="44.14718" lon="6.82053">
        <ele>1918.975</ele>
        <time>2011-06-12T10:06:33Z</time>
      </trkpt>
      <trkpt lat="44.14692" lon="6.82058">
        <ele>1914.671</ele>
        <time>2011-06-12T10:06:39Z</time>
      </trkpt>
      <trkpt lat="44.14671" lon="6.82062">
        <ele>1911.827</ele>
        <time>2011-06-12T10:06:44Z</time>
      </trkpt>
      <trkpt lat="44.14667" lon="6.82063">
        <ele>1911.377</ele>
        <time>2011-06-12T10:06:45Z</time>
      </trkpt>
      <trkpt lat="44.1464" lon="6.82076">
        <ele>1908.826</ele>
        <time>2011-06-12T10:06:51Z</time>
      </trkpt>
      <trkpt lat="44.14636" lon="6.82082">
        <ele>1907.791</ele>
        <time>2011-06-12T10:06:54Z</time>
      </trkpt>
      <trkpt lat="44.14626" lon="6.82086">
        <ele>1906.544</ele>
        <time>2011-06-12T10:06:59Z</time>
      </trkpt>
      <trkpt lat="44.14619" lon="6.82083">
        <ele>1906.052</ele>
        <time>2011-06-12T10:07:03Z</time>
      </trkpt>
      <trkpt lat="44.14615" lon="6.82081">
        <ele>1905.533</ele>
        <time>2011-06-12T10:07:04Z</time>
      </trkpt>
      <trkpt lat="44.14607" lon="6.82081">
        <ele>1903.672</ele>
        <time>2011-06-12T10:07:08Z</time>
      </trkpt>
      <trkpt lat="44.14607" lon="6.82082">
        <ele>1903.781</ele>
        <time>2011-06-12T10:07:12Z</time>
      </trkpt>
      <trkpt lat="44.14607" lon="6.82094">
        <ele>1904.671</ele>
        <time>2011-06-12T10:07:19Z</time>
      </trkpt>
      <trkpt lat="44.14607" lon="6.82109">
        <ele>1906.852</ele>
        <time>2011-06-12T10:07:27Z</time>
      </trkpt>
      <trkpt lat="44.14609" lon="6.82112">
        <ele>1907.18</ele>
        <time>2011-06-12T10:07:32Z</time>
      </trkpt>
      <trkpt lat="44.14609" lon="6.82113">
        <ele>1906.498</ele>
        <time>2011-06-12T10:07:42Z</time>
      </trkpt>
      <trkpt lat="44.14609" lon="6.82118">
        <ele>1909.258</ele>
        <time>2011-06-12T10:29:31Z</time>
      </trkpt>
      <trkpt lat="44.14604" lon="6.82122">
        <ele>1908.519</ele>
        <time>2011-06-12T10:29:39Z</time>
      </trkpt>
      <trkpt lat="44.14604" lon="6.82122">
        <ele>1908.488</ele>
        <time>2011-06-12T10:29:42Z</time>
      </trkpt>
      <trkpt lat="44.146" lon="6.82133">
        <ele>1907.205</ele>
        <time>2011-06-12T10:29:48Z</time>
      </trkpt>
      <trkpt lat="44.14594" lon="6.82148">
        <ele>1905.594</ele>
        <time>2011-06-12T10:29:53Z</time>
      </trkpt>
      <trkpt lat="44.14589" lon="6.8216">
        <ele>1903.463</ele>
        <time>2011-06-12T10:29:57Z</time>
      </trkpt>
      <trkpt lat="44.14583" lon="6.8219">
        <ele>1899.34</ele>
        <time>2011-06-12T10:30:04Z</time>
      </trkpt>
      <trkpt lat="44.14579" lon="6.82214">
        <ele>1896.721</ele>
        <time>2011-06-12T10:30:09Z</time>
      </trkpt>
      <trkpt lat="44.14573" lon="6.82235">
        <ele>1894.211</ele>
        <time>2011-06-12T10:30:15Z</time>
      </trkpt>
      <trkpt lat="44.14571" lon="6.82238">
        <ele>1892.794</ele>
        <time>2011-06-12T10:30:19Z</time>
      </trkpt>
      <trkpt lat="44.14567" lon="6.82244">
        <ele>1891.664</ele>
        <time>2011-06-12T10:30:24Z</time>
      </trkpt>
      <trkpt lat="44.14559" lon="6.82255">
        <ele>1889.401</ele>
        <time>2011-06-12T10:30:29Z</time>
      </trkpt>
      <trkpt lat="44.14549" lon="6.82269">
        <ele>1887.935</ele>
        <time>2011-06-12T10:30:34Z</time>
      </trkpt>
      <trkpt lat="44.14536" lon="6.82287">
        <ele>1882.947</ele>
        <time>2011-06-12T10:30:40Z</time>
      </trkpt>
      <trkpt lat="44.14521" lon="6.82307">
        <ele>1877.437</ele>
        <time>2011-06-12T10:30:47Z</time>
      </trkpt>
      <trkpt lat="44.14507" lon="6.82324">
        <ele>1873.728</ele>
        <time>2011-06-12T10:30:52Z</time>
      </trkpt>
      <trkpt lat="44.14503" lon="6.82328">
        <ele>1873.047</ele>
        <time>2011-06-12T10:30:53Z</time>
      </trkpt>
      <trkpt lat="44.14488" lon="6.82345">
        <ele>1869.436</ele>
        <time>2011-06-12T10:30:57Z</time>
      </trkpt>
      <trkpt lat="44.14475" lon="6.82367">
        <ele>1866.961</ele>
        <time>2011-06-12T10:31:02Z</time>
      </trkpt>
      <trkpt lat="44.14467" lon="6.82366">
        <ele>1865.264</ele>
        <time>2011-06-12T10:31:08Z</time>
      </trkpt>
      <trkpt lat="44.14463" lon="6.82366">
        <ele>1866.485</ele>
        <time>2011-06-12T10:31:18Z</time>
      </trkpt>
      <trkpt lat="44.14455" lon="6.82374">
        <ele>1863.87</ele>
        <time>2011-06-12T10:31:22Z</time>
      </trkpt>
      <trkpt lat="44.14453" lon="6.82388">
        <ele>1861.458</ele>
        <time>2011-06-12T10:31:27Z</time>
      </trkpt>
      <trkpt lat="44.14449" lon="6.82399">
        <ele>1857.635</ele>
        <time>2011-06-12T10:31:32Z</time>
      </trkpt>
      <trkpt lat="44.14444" lon="6.82411">
        <ele>1853.269</ele>
        <time>2011-06-12T10:31:36Z</time>
      </trkpt>
      <trkpt lat="44.1444" lon="6.82418">
        <ele>1850.374</ele>
        <time>2011-06-12T10:31:38Z</time>
      </trkpt>
      <trkpt lat="44.14426" lon="6.82421">
        <ele>1846.937</ele>
        <time>2011-06-12T10:31:42Z</time>
      </trkpt>
      <trkpt lat="44.14406" lon="6.8242">
        <ele>1842.088</ele>
        <time>2011-06-12T10:31:49Z</time>
      </trkpt>
      <trkpt lat="44.144" lon="6.82429">
        <ele>1840.321</ele>
        <time>2011-06-12T10:31:53Z</time>
      </trkpt>
      <trkpt lat="44.14401" lon="6.8243">
        <ele>1843.859</ele>
        <time>2011-06-12T10:32:15Z</time>
      </trkpt>
      <trkpt lat="44.14397" lon="6.82443">
        <ele>1842.081</ele>
        <time>2011-06-12T10:32:20Z</time>
      </trkpt>
      <trkpt lat="44.14399" lon="6.82472">
        <ele>1837.717</ele>
        <time>2011-06-12T10:32:25Z</time>
      </trkpt>
      <trkpt lat="44.144" lon="6.82477">
        <ele>1836.617</ele>
        <time>2011-06-12T10:32:26Z</time>
      </trkpt>
      <trkpt lat="44.14402" lon="6.82487">
        <ele>1834.495</ele>
        <time>2011-06-12T10:32:28Z</time>
      </trkpt>
      <trkpt lat="44.14414" lon="6.82509">
        <ele>1831.371</ele>
        <time>2011-06-12T10:32:33Z</time>
      </trkpt>
      <trkpt lat="44.14431" lon="6.82519">
        <ele>1828.241</ele>
        <time>2011-06-12T10:32:38Z</time>
      </trkpt>
      <trkpt lat="44.14438" lon="6.82525">
        <ele>1827.099</ele>
        <time>2011-06-12T10:32:40Z</time>
      </trkpt>
      <trkpt lat="44.14454" lon="6.82534">
        <ele>1822.982</ele>
        <time>2011-06-12T10:32:45Z</time>
      </trkpt>
      <trkpt lat="44.14466" lon="6.8253">
        <ele>1820.876</ele>
        <time>2011-06-12T10:32:49Z</time>
      </trkpt>
      <trkpt lat="44.14483" lon="6.82538">
        <ele>1817.339</ele>
        <time>2011-06-12T10:32:54Z</time>
      </trkpt>
      <trkpt lat="44.14495" lon="6.8255">
        <ele>1813.496</ele>
        <time>2011-06-12T10:32:58Z</time>
      </trkpt>
      <trkpt lat="44.14513" lon="6.82553">
        <ele>1809.296</ele>
        <time>2011-06-12T10:33:03Z</time>
      </trkpt>
      <trkpt lat="44.14533" lon="6.82559">
        <ele>1804.676</ele>
        <time>2011-06-12T10:33:09Z</time>
      </trkpt>
      <trkpt lat="44.14536" lon="6.82573">
        <ele>1804.139</ele>
        <time>2011-06-12T10:33:12Z</time>
      </trkpt>
      <trkpt lat="44.14547" lon="6.82578">
        <ele>1802.641</ele>
        <time>2011-06-12T10:33:15Z</time>
      </trkpt>
      <trkpt lat="44.14553" lon="6.82585">
        <ele>1799.838</ele>
        <time>2011-06-12T10:33:19Z</time>
      </trkpt>
      <trkpt lat="44.14559" lon="6.82595">
        <ele>1796.847</ele>
        <time>2011-06-12T10:33:22Z</time>
      </trkpt>
      <trkpt lat="44.14576" lon="6.82597">
        <ele>1795.262</ele>
        <time>2011-06-12T10:33:27Z</time>
      </trkpt>
      <trkpt lat="44.14578" lon="6.82596">
        <ele>1795.113</ele>
        <time>2011-06-12T10:33:28Z</time>
      </trkpt>
      <trkpt lat="44.14591" lon="6.82588">
        <ele>1794.008</ele>
        <time>2011-06-12T10:33:33Z</time>
      </trkpt>
      <trkpt lat="44.14605" lon="6.82585">
        <ele>1792.453</ele>
        <time>2011-06-12T10:33:40Z</time>
      </trkpt>
      <trkpt lat="44.14606" lon="6.82583">
        <ele>1796.81</ele>
        <time>2011-06-12T10:33:45Z</time>
      </trkpt>
      <trkpt lat="44.14613" lon="6.82583">
        <ele>1800.759</ele>
        <time>2011-06-12T10:33:54Z</time>
      </trkpt>
      <trkpt lat="44.14627" lon="6.82578">
        <ele>1797.805</ele>
        <time>2011-06-12T10:34:00Z</time>
      </trkpt>
      <trkpt lat="44.14629" lon="6.82578">
        <ele>1797.195</ele>
        <time>2011-06-12T10:34:01Z</time>
      </trkpt>
      <trkpt lat="44.14636" lon="6.82587">
        <ele>1794.625</ele>
        <time>2011-06-12T10:34:06Z</time>
      </trkpt>
      <trkpt lat="44.14638" lon="6.82587">
        <ele>1794.145</ele>
        <time>2011-06-12T10:34:07Z</time>
      </trkpt>
      <trkpt lat="44.14642" lon="6.82588">
        <ele>1793.004</ele>
        <time>2011-06-12T10:34:09Z</time>
      </trkpt>
      <trkpt lat="44.14645" lon="6.82597">
        <ele>1789.391</ele>
        <time>2011-06-12T10:34:14Z</time>
      </trkpt>
      <trkpt lat="44.14648" lon="6.82598">
        <ele>1788.614</ele>
        <time>2011-06-12T10:34:17Z</time>
      </trkpt>
      <trkpt lat="44.14654" lon="6.82595">
        <ele>1785.075</ele>
        <time>2011-06-12T10:34:30Z</time>
      </trkpt>
      <trkpt lat="44.14667" lon="6.82591">
        <ele>1784.204</ele>
        <time>2011-06-12T10:34:34Z</time>
      </trkpt>
      <trkpt lat="44.14674" lon="6.82585">
        <ele>1781.533</ele>
        <time>2011-06-12T10:34:38Z</time>
      </trkpt>
      <trkpt lat="44.14686" lon="6.82592">
        <ele>1774.98</ele>
        <time>2011-06-12T10:34:43Z</time>
      </trkpt>
      <trkpt lat="44.14693" lon="6.82596">
        <ele>1772.344</ele>
        <time>2011-06-12T10:34:46Z</time>
      </trkpt>
      <trkpt lat="44.14704" lon="6.8259">
        <ele>1764.392</ele>
        <time>2011-06-12T10:34:52Z</time>
      </trkpt>
      <trkpt lat="44.14711" lon="6.82593">
        <ele>1760.803</ele>
        <time>2011-06-12T10:34:55Z</time>
      </trkpt>
      <trkpt lat="44.14706" lon="6.82606">
        <ele>1757.605</ele>
        <time>2011-06-12T10:34:59Z</time>
      </trkpt>
      <trkpt lat="44.14704" lon="6.82617">
        <ele>1756.837</ele>
        <time>2011-06-12T10:35:01Z</time>
      </trkpt>
      <trkpt lat="44.14701" lon="6.82629">
        <ele>1756.459</ele>
        <time>2011-06-12T10:35:03Z</time>
      </trkpt>
      <trkpt lat="44.14696" lon="6.82649">
        <ele>1757.614</ele>
        <time>2011-06-12T10:35:06Z</time>
      </trkpt>
      <trkpt lat="44.14688" lon="6.82683">
        <ele>1756.577</ele>
        <time>2011-06-12T10:35:12Z</time>
      </trkpt>
      <trkpt lat="44.14687" lon="6.82688">
        <ele>1755.876</ele>
        <time>2011-06-12T10:35:13Z</time>
      </trkpt>
      <trkpt lat="44.14675" lon="6.82712">
        <ele>1752.777</ele>
        <time>2011-06-12T10:35:18Z</time>
      </trkpt>
      <trkpt lat="44.14673" lon="6.82718">
        <ele>1752.198</ele>
        <time>2011-06-12T10:35:19Z</time>
      </trkpt>
      <trkpt lat="44.1466" lon="6.82747">
        <ele>1750.118</ele>
        <time>2011-06-12T10:35:24Z</time>
      </trkpt>
      <trkpt lat="44.14658" lon="6.82783">
        <ele>1748.769</ele>
        <time>2011-06-12T10:35:29Z</time>
      </trkpt>
      <trkpt lat="44.14647" lon="6.82813">
        <ele>1750.688</ele>
        <time>2011-06-12T10:35:33Z</time>
      </trkpt>
      <trkpt lat="44.14626" lon="6.82841">
        <ele>1747.999</ele>
        <time>2011-06-12T10:35:38Z</time>
      </trkpt>
      <trkpt lat="44.14617" lon="6.82862">
        <ele>1746.227</ele>
        <time>2011-06-12T10:35:42Z</time>
      </trkpt>
      <trkpt lat="44.14612" lon="6.82889">
        <ele>1746.1</ele>
        <time>2011-06-12T10:35:47Z</time>
      </trkpt>
      <trkpt lat="44.14615" lon="6.82922">
        <ele>1740.927</ele>
        <time>2011-06-12T10:35:52Z</time>
      </trkpt>
      <trkpt lat="44.14618" lon="6.82934">
        <ele>1733.714</ele>
        <time>2011-06-12T10:35:56Z</time>
      </trkpt>
      <trkpt lat="44.14622" lon="6.82938">
        <ele>1726.904</ele>
        <time>2011-06-12T10:36:01Z</time>
      </trkpt>
      <trkpt lat="44.14622" lon="6.82936">
        <ele>1723.476</ele>
        <time>2011-06-12T10:36:09Z</time>
      </trkpt>
      <trkpt lat="44.1462" lon="6.82928">
        <ele>1721.728</ele>
        <time>2011-06-12T10:36:16Z</time>
      </trkpt>
      <trkpt lat="44.14619" lon="6.82929">
        <ele>1728.432</ele>
        <time>2011-06-12T10:36:22Z</time>
      </trkpt>
      <trkpt lat="44.14622" lon="6.82934">
        <ele>1727.79</ele>
        <time>2011-06-12T10:36:26Z</time>
      </trkpt>
      <trkpt lat="44.1463" lon="6.82945">
        <ele>1723.589</ele>
        <time>2011-06-12T10:36:32Z</time>
      </trkpt>
      <trkpt lat="44.14634" lon="6.8296">
        <ele>1719.033</ele>
        <time>2011-06-12T10:36:35Z</time>
      </trkpt>
      <trkpt lat="44.14639" lon="6.82984">
        <ele>1711.687</ele>
        <time>2011-06-12T10:36:39Z</time>
      </trkpt>
      <trkpt lat="44.14637" lon="6.83">
        <ele>1708.106</ele>
        <time>2011-06-12T10:36:41Z</time>
      </trkpt>
      <trkpt lat="44.14621" lon="6.83034">
        <ele>1702.295</ele>
        <time>2011-06-12T10:36:46Z</time>
      </trkpt>
      <trkpt lat="44.14598" lon="6.83082">
        <ele>1700.981</ele>
        <time>2011-06-12T10:36:52Z</time>
      </trkpt>
      <trkpt lat="44.14593" lon="6.83099">
        <ele>1699.732</ele>
        <time>2011-06-12T10:36:54Z</time>
      </trkpt>
      <trkpt lat="44.14588" lon="6.83115">
        <ele>1698.603</ele>
        <time>2011-06-12T10:36:56Z</time>
      </trkpt>
      <trkpt lat="44.14582" lon="6.83136">
        <ele>1696.003</ele>
        <time>2011-06-12T10:37:00Z</time>
      </trkpt>
      <trkpt lat="44.14582" lon="6.83141">
        <ele>1693.621</ele>
        <time>2011-06-12T10:37:01Z</time>
      </trkpt>
      <trkpt lat="44.14582" lon="6.83159">
        <ele>1690.781</ele>
        <time>2011-06-12T10:37:04Z</time>
      </trkpt>
      <trkpt lat="44.14582" lon="6.83172">
        <ele>1688.23</ele>
        <time>2011-06-12T10:37:06Z</time>
      </trkpt>
      <trkpt lat="44.14581" lon="6.83185">
        <ele>1685.709</ele>
        <time>2011-06-12T10:37:08Z</time>
      </trkpt>
      <trkpt lat="44.1458" lon="6.83199">
        <ele>1683.678</ele>
        <time>2011-06-12T10:37:10Z</time>
      </trkpt>
      <trkpt lat="44.1459" lon="6.83232">
        <ele>1674.142</ele>
        <time>2011-06-12T10:37:15Z</time>
      </trkpt>
      <trkpt lat="44.14607" lon="6.83267">
        <ele>1666.509</ele>
        <time>2011-06-12T10:37:20Z</time>
      </trkpt>
      <trkpt lat="44.14617" lon="6.83287">
        <ele>1663.241</ele>
        <time>2011-06-12T10:37:23Z</time>
      </trkpt>
      <trkpt lat="44.14622" lon="6.83311">
        <ele>1659.172</ele>
        <time>2011-06-12T10:37:27Z</time>
      </trkpt>
      <trkpt lat="44.14624" lon="6.83329">
        <ele>1652.169</ele>
        <time>2011-06-12T10:37:31Z</time>
      </trkpt>
      <trkpt lat="44.1462" lon="6.83339">
        <ele>1650.161</ele>
        <time>2011-06-12T10:37:33Z</time>
      </trkpt>
      <trkpt lat="44.14616" lon="6.83385">
        <ele>1641.906</ele>
        <time>2011-06-12T10:37:38Z</time>
      </trkpt>
      <trkpt lat="44.14618" lon="6.83392">
        <ele>1640.626</ele>
        <time>2011-06-12T10:37:39Z</time>
      </trkpt>
      <trkpt lat="44.1462" lon="6.83399">
        <ele>1642.095</ele>
        <time>2011-06-12T10:37:43Z</time>
      </trkpt>
      <trkpt lat="44.1462" lon="6.834">
        <ele>1645.24</ele>
        <time>2011-06-12T10:37:44Z</time>
      </trkpt>
      <trkpt lat="44.14624" lon="6.83402">
        <ele>1647.828</ele>
        <time>2011-06-12T10:37:51Z</time>
      </trkpt>
      <trkpt lat="44.14622" lon="6.83401">
        <ele>1651.11</ele>
        <time>2011-06-12T10:38:01Z</time>
      </trkpt>
      <trkpt lat="44.14622" lon="6.83397">
        <ele>1646.027</ele>
        <time>2011-06-12T10:38:10Z</time>
      </trkpt>
      <trkpt lat="44.14623" lon="6.83396">
        <ele>1643.277</ele>
        <time>2011-06-12T10:38:33Z</time>
      </trkpt>
      <trkpt lat="44.14616" lon="6.83406">
        <ele>1642.289</ele>
        <time>2011-06-12T10:38:37Z</time>
      </trkpt>
      <trkpt lat="44.14609" lon="6.83403">
        <ele>1642.289</ele>
        <time>2011-06-12T10:38:40Z</time>
      </trkpt>
      <trkpt lat="44.14598" lon="6.83392">
        <ele>1644.203</ele>
        <time>2011-06-12T10:38:43Z</time>
      </trkpt>
      <trkpt lat="44.14586" lon="6.83377">
        <ele>1645.644</ele>
        <time>2011-06-12T10:38:46Z</time>
      </trkpt>
      <trkpt lat="44.14577" lon="6.83352">
        <ele>1642.067</ele>
        <time>2011-06-12T10:38:50Z</time>
      </trkpt>
      <trkpt lat="44.14562" lon="6.83326">
        <ele>1640.547</ele>
        <time>2011-06-12T10:38:55Z</time>
      </trkpt>
      <trkpt lat="44.14542" lon="6.83312">
        <ele>1638.857</ele>
        <time>2011-06-12T10:39:01Z</time>
      </trkpt>
      <trkpt lat="44.14537" lon="6.83308">
        <ele>1637.626</ele>
        <time>2011-06-12T10:39:04Z</time>
      </trkpt>
      <trkpt lat="44.1453" lon="6.83305">
        <ele>1636.203</ele>
        <time>2011-06-12T10:39:06Z</time>
      </trkpt>
      <trkpt lat="44.14501" lon="6.83304">
        <ele>1631.731</ele>
        <time>2011-06-12T10:39:12Z</time>
      </trkpt>
      <trkpt lat="44.14478" lon="6.83303">
        <ele>1627.979</ele>
        <time>2011-06-12T10:39:17Z</time>
      </trkpt>
      <trkpt lat="44.14466" lon="6.83302">
        <ele>1624.877</ele>
        <time>2011-06-12T10:39:20Z</time>
      </trkpt>
      <trkpt lat="44.14458" lon="6.83287">
        <ele>1616.566</ele>
        <time>2011-06-12T10:39:25Z</time>
      </trkpt>
      <trkpt lat="44.14466" lon="6.83262">
        <ele>1612.556</ele>
        <time>2011-06-12T10:39:31Z</time>
      </trkpt>
      <trkpt lat="44.14462" lon="6.83248">
        <ele>1613.775</ele>
        <time>2011-06-12T10:39:36Z</time>
      </trkpt>
      <trkpt lat="44.14455" lon="6.83237">
        <ele>1614.097</ele>
        <time>2011-06-12T10:39:39Z</time>
      </trkpt>
      <trkpt lat="44.14429" lon="6.83201">
        <ele>1618.253</ele>
        <time>2011-06-12T10:39:45Z</time>
      </trkpt>
      <trkpt lat="44.14415" lon="6.83174">
        <ele>1616.57</ele>
        <time>2011-06-12T10:39:50Z</time>
      </trkpt>
      <trkpt lat="44.14413" lon="6.83167">
        <ele>1616.009</ele>
        <time>2011-06-12T10:39:51Z</time>
      </trkpt>
      <trkpt lat="44.14408" lon="6.83147">
        <ele>1612.245</ele>
        <time>2011-06-12T10:39:55Z</time>
      </trkpt>
      <trkpt lat="44.14407" lon="6.83161">
        <ele>1608.2</ele>
        <time>2011-06-12T10:39:59Z</time>
      </trkpt>
      <trkpt lat="44.14406" lon="6.83189">
        <ele>1602.869</ele>
        <time>2011-06-12T10:40:04Z</time>
      </trkpt>
      <trkpt lat="44.14409" lon="6.83204">
        <ele>1598.509</ele>
        <time>2011-06-12T10:40:08Z</time>
      </trkpt>
      <trkpt lat="44.1442" lon="6.83221">
        <ele>1593.336</ele>
        <time>2011-06-12T10:40:12Z</time>
      </trkpt>
      <trkpt lat="44.1442" lon="6.83224">
        <ele>1592.024</ele>
        <time>2011-06-12T10:40:14Z</time>
      </trkpt>
      <trkpt lat="44.14416" lon="6.83219">
        <ele>1589.039</ele>
        <time>2011-06-12T10:40:19Z</time>
      </trkpt>
      <trkpt lat="44.14409" lon="6.83213">
        <ele>1586.198</ele>
        <time>2011-06-12T10:40:43Z</time>
      </trkpt>
      <trkpt lat="44.14387" lon="6.83201">
        <ele>1585.917</ele>
        <time>2011-06-12T10:40:48Z</time>
      </trkpt>
      <trkpt lat="44.14385" lon="6.83189">
        <ele>1584.966</ele>
        <time>2011-06-12T10:40:51Z</time>
      </trkpt>
      <trkpt lat="44.14386" lon="6.83186">
        <ele>1584.456</ele>
        <time>2011-06-12T10:40:52Z</time>
      </trkpt>
      <trkpt lat="44.14385" lon="6.83165">
        <ele>1579.114</ele>
        <time>2011-06-12T10:40:58Z</time>
      </trkpt>
      <trkpt lat="44.14374" lon="6.8315">
        <ele>1576.332</ele>
        <time>2011-06-12T10:41:03Z</time>
      </trkpt>
      <trkpt lat="44.14369" lon="6.83148">
        <ele>1574.693</ele>
        <time>2011-06-12T10:41:04Z</time>
      </trkpt>
      <trkpt lat="44.14354" lon="6.83138">
        <ele>1571.953</ele>
        <time>2011-06-12T10:41:09Z</time>
      </trkpt>
      <trkpt lat="44.14342" lon="6.83137">
        <ele>1569.865</ele>
        <time>2011-06-12T10:41:14Z</time>
      </trkpt>
      <trkpt lat="44.14334" lon="6.83127">
        <ele>1570.851</ele>
        <time>2011-06-12T10:41:20Z</time>
      </trkpt>
      <trkpt lat="44.1433" lon="6.83122">
        <ele>1569.028</ele>
        <time>2011-06-12T10:41:24Z</time>
      </trkpt>
      <trkpt lat="44.1433" lon="6.83119">
        <ele>1567.638</ele>
        <time>2011-06-12T10:41:31Z</time>
      </trkpt>
      <trkpt lat="44.14331" lon="6.83119">
        <ele>1568.92</ele>
        <time>2011-06-12T10:42:04Z</time>
      </trkpt>
      <trkpt lat="44.1433" lon="6.83119">
        <ele>1568.62</ele>
        <time>2011-06-12T10:42:09Z</time>
      </trkpt>
      <trkpt lat="44.14322" lon="6.83112">
        <ele>1567.046</ele>
        <time>2011-06-12T10:42:14Z</time>
      </trkpt>
      <trkpt lat="44.14311" lon="6.83105">
        <ele>1565.084</ele>
        <time>2011-06-12T10:42:19Z</time>
      </trkpt>
      <trkpt lat="44.14305" lon="6.83093">
        <ele>1562.361</ele>
        <time>2011-06-12T10:42:23Z</time>
      </trkpt>
      <trkpt lat="44.14298" lon="6.8308">
        <ele>1561.504</ele>
        <time>2011-06-12T10:42:28Z</time>
      </trkpt>
      <trkpt lat="44.14288" lon="6.83071">
        <ele>1560.734</ele>
        <time>2011-06-12T10:42:32Z</time>
      </trkpt>
      <trkpt lat="44.14277" lon="6.83055">
        <ele>1558.384</ele>
        <time>2011-06-12T10:42:36Z</time>
      </trkpt>
      <trkpt lat="44.14268" lon="6.8304">
        <ele>1555.982</ele>
        <time>2011-06-12T10:42:39Z</time>
      </trkpt>
      <trkpt lat="44.14256" lon="6.83009">
        <ele>1553.021</ele>
        <time>2011-06-12T10:42:44Z</time>
      </trkpt>
      <trkpt lat="44.14243" lon="6.82998">
        <ele>1551.443</ele>
        <time>2011-06-12T10:42:48Z</time>
      </trkpt>
      <trkpt lat="44.1422" lon="6.82987">
        <ele>1548.442</ele>
        <time>2011-06-12T10:42:53Z</time>
      </trkpt>
      <trkpt lat="44.14216" lon="6.82984">
        <ele>1548.283</ele>
        <time>2011-06-12T10:42:54Z</time>
      </trkpt>
      <trkpt lat="44.14202" lon="6.82967">
        <ele>1546.146</ele>
        <time>2011-06-12T10:43:00Z</time>
      </trkpt>
      <trkpt lat="44.14194" lon="6.82972">
        <ele>1546.196</ele>
        <time>2011-06-12T10:43:04Z</time>
      </trkpt>
      <trkpt lat="44.14191" lon="6.82978">
        <ele>1546.868</ele>
        <time>2011-06-12T10:43:06Z</time>
      </trkpt>
      <trkpt lat="44.14187" lon="6.82993">
        <ele>1547.679</ele>
        <time>2011-06-12T10:43:10Z</time>
      </trkpt>
      <trkpt lat="44.1418" lon="6.83006">
        <ele>1548.281</ele>
        <time>2011-06-12T10:43:14Z</time>
      </trkpt>
      <trkpt lat="44.14165" lon="6.83024">
        <ele>1546.248</ele>
        <time>2011-06-12T10:43:20Z</time>
      </trkpt>
      <trkpt lat="44.14157" lon="6.83032">
        <ele>1545.859</ele>
        <time>2011-06-12T10:43:24Z</time>
      </trkpt>
      <trkpt lat="44.1415" lon="6.83039">
        <ele>1549.282</ele>
        <time>2011-06-12T10:43:29Z</time>
      </trkpt>
      <trkpt lat="44.14145" lon="6.83046">
        <ele>1553.671</ele>
        <time>2011-06-12T10:43:34Z</time>
      </trkpt>
      <trkpt lat="44.1414" lon="6.83049">
        <ele>1551.181</ele>
        <time>2011-06-12T10:43:40Z</time>
      </trkpt>
      <trkpt lat="44.14135" lon="6.83052">
        <ele>1550.131</ele>
        <time>2011-06-12T10:43:51Z</time>
      </trkpt>
      <trkpt lat="44.14128" lon="6.83059">
        <ele>1548.833</ele>
        <time>2011-06-12T10:43:58Z</time>
      </trkpt>
      <trkpt lat="44.14126" lon="6.83062">
        <ele>1548.559</ele>
        <time>2011-06-12T10:44:03Z</time>
      </trkpt>
      <trkpt lat="44.14128" lon="6.83062">
        <ele>1553.58</ele>
        <time>2011-06-12T10:44:25Z</time>
      </trkpt>
      <trkpt lat="44.14126" lon="6.83062">
        <ele>1550.921</ele>
        <time>2011-06-12T10:50:49Z</time>
      </trkpt>
      <trkpt lat="44.14121" lon="6.83061">
        <ele>1550.609</ele>
        <time>2011-06-12T10:50:55Z</time>
      </trkpt>
      <trkpt lat="44.14115" lon="6.83061">
        <ele>1550.791</ele>
        <time>2011-06-12T10:51:01Z</time>
      </trkpt>
      <trkpt lat="44.14101" lon="6.8306">
        <ele>1550.06</ele>
        <time>2011-06-12T10:51:07Z</time>
      </trkpt>
      <trkpt lat="44.14079" lon="6.83058">
        <ele>1546.664</ele>
        <time>2011-06-12T10:51:13Z</time>
      </trkpt>
      <trkpt lat="44.14075" lon="6.83058">
        <ele>1545.923</ele>
        <time>2011-06-12T10:51:14Z</time>
      </trkpt>
      <trkpt lat="44.14059" lon="6.83048">
        <ele>1542.231</ele>
        <time>2011-06-12T10:51:19Z</time>
      </trkpt>
      <trkpt lat="44.14041" lon="6.83033">
        <ele>1539.1</ele>
        <time>2011-06-12T10:51:23Z</time>
      </trkpt>
      <trkpt lat="44.14034" lon="6.83028">
        <ele>1538.751</ele>
        <time>2011-06-12T10:51:25Z</time>
      </trkpt>
      <trkpt lat="44.14033" lon="6.83024">
        <ele>1539.275</ele>
        <time>2011-06-12T10:51:29Z</time>
      </trkpt>
      <trkpt lat="44.14034" lon="6.83021">
        <ele>1538.927</ele>
        <time>2011-06-12T10:51:32Z</time>
      </trkpt>
      <trkpt lat="44.14032" lon="6.83015">
        <ele>1537.487</ele>
        <time>2011-06-12T10:51:36Z</time>
      </trkpt>
      <trkpt lat="44.14031" lon="6.83011">
        <ele>1534.787</ele>
        <time>2011-06-12T10:51:42Z</time>
      </trkpt>
      <trkpt lat="44.14031" lon="6.83009">
        <ele>1532.698</ele>
        <time>2011-06-12T10:51:52Z</time>
      </trkpt>
      <trkpt lat="44.14031" lon="6.83005">
        <ele>1532.868</ele>
        <time>2011-06-12T10:51:56Z</time>
      </trkpt>
      <trkpt lat="44.14029" lon="6.83004">
        <ele>1533.008</ele>
        <time>2011-06-12T10:51:59Z</time>
      </trkpt>
      <trkpt lat="44.14026" lon="6.83002">
        <ele>1532.045</ele>
        <time>2011-06-12T10:52:03Z</time>
      </trkpt>
      <trkpt lat="44.14026" lon="6.83">
        <ele>1532.358</ele>
        <time>2011-06-12T10:52:07Z</time>
      </trkpt>
      <trkpt lat="44.14029" lon="6.8299">
        <ele>1531.516</ele>
        <time>2011-06-12T10:52:12Z</time>
      </trkpt>
      <trkpt lat="44.14029" lon="6.82987">
        <ele>1531.286</ele>
        <time>2011-06-12T10:52:13Z</time>
      </trkpt>
      <trkpt lat="44.14021" lon="6.82965">
        <ele>1529.593</ele>
        <time>2011-06-12T10:52:19Z</time>
      </trkpt>
      <trkpt lat="44.14018" lon="6.82962">
        <ele>1528.192</ele>
        <time>2011-06-12T10:52:20Z</time>
      </trkpt>
      <trkpt lat="44.14" lon="6.82945">
        <ele>1526.532</ele>
        <time>2011-06-12T10:52:26Z</time>
      </trkpt>
      <trkpt lat="44.14001" lon="6.82945">
        <ele>1524.073</ele>
        <time>2011-06-12T10:52:30Z</time>
      </trkpt>
      <trkpt lat="44.13999" lon="6.82941">
        <ele>1525.287</ele>
        <time>2011-06-12T10:52:40Z</time>
      </trkpt>
      <trkpt lat="44.13994" lon="6.82937">
        <ele>1524.597</ele>
        <time>2011-06-12T10:52:47Z</time>
      </trkpt>
      <trkpt lat="44.13989" lon="6.82936">
        <ele>1523.577</ele>
        <time>2011-06-12T10:52:53Z</time>
      </trkpt>
      <trkpt lat="44.13987" lon="6.82936">
        <ele>1522.496</ele>
        <time>2011-06-12T10:52:57Z</time>
      </trkpt>
      <trkpt lat="44.13983" lon="6.82937">
        <ele>1522.167</ele>
        <time>2011-06-12T10:53:05Z</time>
      </trkpt>
      <trkpt lat="44.13977" lon="6.82939">
        <ele>1520.051</ele>
        <time>2011-06-12T10:53:08Z</time>
      </trkpt>
      <trkpt lat="44.13965" lon="6.82938">
        <ele>1516.859</ele>
        <time>2011-06-12T10:53:12Z</time>
      </trkpt>
      <trkpt lat="44.13959" lon="6.82933">
        <ele>1514.228</ele>
        <time>2011-06-12T10:53:15Z</time>
      </trkpt>
      <trkpt lat="44.13955" lon="6.82937">
        <ele>1511.984</ele>
        <time>2011-06-12T10:53:19Z</time>
      </trkpt>
      <trkpt lat="44.13958" lon="6.82947">
        <ele>1509.991</ele>
        <time>2011-06-12T10:53:21Z</time>
      </trkpt>
      <trkpt lat="44.13962" lon="6.82957">
        <ele>1507.22</ele>
        <time>2011-06-12T10:53:25Z</time>
      </trkpt>
      <trkpt lat="44.13952" lon="6.82951">
        <ele>1505.21</ele>
        <time>2011-06-12T10:53:28Z</time>
      </trkpt>
      <trkpt lat="44.13948" lon="6.82948">
        <ele>1505.072</ele>
        <time>2011-06-12T10:53:29Z</time>
      </trkpt>
      <trkpt lat="44.13942" lon="6.8294">
        <ele>1502.42</ele>
        <time>2011-06-12T10:53:32Z</time>
      </trkpt>
      <trkpt lat="44.13934" lon="6.82946">
        <ele>1502.351</ele>
        <time>2011-06-12T10:53:36Z</time>
      </trkpt>
      <trkpt lat="44.13932" lon="6.82944">
        <ele>1500.951</ele>
        <time>2011-06-12T10:53:39Z</time>
      </trkpt>
      <trkpt lat="44.13934" lon="6.8294">
        <ele>1499.503</ele>
        <time>2011-06-12T10:53:42Z</time>
      </trkpt>
      <trkpt lat="44.13933" lon="6.82934">
        <ele>1498.347</ele>
        <time>2011-06-12T10:53:47Z</time>
      </trkpt>
      <trkpt lat="44.13928" lon="6.82927">
        <ele>1497.765</ele>
        <time>2011-06-12T10:53:52Z</time>
      </trkpt>
      <trkpt lat="44.13926" lon="6.82919">
        <ele>1497.897</ele>
        <time>2011-06-12T10:53:57Z</time>
      </trkpt>
      <trkpt lat="44.13925" lon="6.82915">
        <ele>1497.187</ele>
        <time>2011-06-12T10:54:02Z</time>
      </trkpt>
      <trkpt lat="44.13923" lon="6.82914">
        <ele>1495.926</ele>
        <time>2011-06-12T10:54:06Z</time>
      </trkpt>
      <trkpt lat="44.13918" lon="6.82913">
        <ele>1495.776</ele>
        <time>2011-06-12T10:54:13Z</time>
      </trkpt>
      <trkpt lat="44.13914" lon="6.82913">
        <ele>1496.177</ele>
        <time>2011-06-12T10:54:24Z</time>
      </trkpt>
      <trkpt lat="44.13912" lon="6.82912">
        <ele>1496.819</ele>
        <time>2011-06-12T10:54:26Z</time>
      </trkpt>
      <trkpt lat="44.13905" lon="6.82914">
        <ele>1496.836</ele>
        <time>2011-06-12T10:54:31Z</time>
      </trkpt>
      <trkpt lat="44.13897" lon="6.82916">
        <ele>1499.257</ele>
        <time>2011-06-12T10:54:38Z</time>
      </trkpt>
      <trkpt lat="44.13894" lon="6.82918">
        <ele>1498.046</ele>
        <time>2011-06-12T10:54:42Z</time>
      </trkpt>
      <trkpt lat="44.13881" lon="6.82918">
        <ele>1494.293</ele>
        <time>2011-06-12T10:54:47Z</time>
      </trkpt>
      <trkpt lat="44.13875" lon="6.82918">
        <ele>1493.453</ele>
        <time>2011-06-12T10:54:49Z</time>
      </trkpt>
      <trkpt lat="44.13856" lon="6.82927">
        <ele>1489.192</ele>
        <time>2011-06-12T10:54:54Z</time>
      </trkpt>
      <trkpt lat="44.13837" lon="6.82939">
        <ele>1485.952</ele>
        <time>2011-06-12T10:54:59Z</time>
      </trkpt>
      <trkpt lat="44.13822" lon="6.82925">
        <ele>1480.928</ele>
        <time>2011-06-12T10:55:03Z</time>
      </trkpt>
      <trkpt lat="44.13782" lon="6.82901">
        <ele>1471.923</ele>
        <time>2011-06-12T10:55:10Z</time>
      </trkpt>
      <trkpt lat="44.13778" lon="6.82899">
        <ele>1469.761</ele>
        <time>2011-06-12T10:55:11Z</time>
      </trkpt>
      <trkpt lat="44.13755" lon="6.82886">
        <ele>1464.968</ele>
        <time>2011-06-12T10:55:15Z</time>
      </trkpt>
      <trkpt lat="44.13737" lon="6.82867">
        <ele>1458.34</ele>
        <time>2011-06-12T10:55:19Z</time>
      </trkpt>
      <trkpt lat="44.1371" lon="6.82845">
        <ele>1452.792</ele>
        <time>2011-06-12T10:55:24Z</time>
      </trkpt>
      <trkpt lat="44.13702" lon="6.82837">
        <ele>1450.952</ele>
        <time>2011-06-12T10:55:26Z</time>
      </trkpt>
      <trkpt lat="44.13684" lon="6.82816">
        <ele>1446.926</ele>
        <time>2011-06-12T10:55:31Z</time>
      </trkpt>
      <trkpt lat="44.13683" lon="6.82816">
        <ele>1446.044</ele>
        <time>2011-06-12T10:55:32Z</time>
      </trkpt>
      <trkpt lat="44.13688" lon="6.82833">
        <ele>1444.525</ele>
        <time>2011-06-12T10:55:37Z</time>
      </trkpt>
      <trkpt lat="44.13699" lon="6.82858">
        <ele>1440.454</ele>
        <time>2011-06-12T10:55:41Z</time>
      </trkpt>
      <trkpt lat="44.13704" lon="6.82871">
        <ele>1438.544</ele>
        <time>2011-06-12T10:55:43Z</time>
      </trkpt>
      <trkpt lat="44.13717" lon="6.82891">
        <ele>1435.193</ele>
        <time>2011-06-12T10:55:47Z</time>
      </trkpt>
      <trkpt lat="44.1373" lon="6.8291">
        <ele>1432.103</ele>
        <time>2011-06-12T10:55:52Z</time>
      </trkpt>
      <trkpt lat="44.13731" lon="6.82915">
        <ele>1431.362</ele>
        <time>2011-06-12T10:55:55Z</time>
      </trkpt>
      <trkpt lat="44.13721" lon="6.82911">
        <ele>1429.541</ele>
        <time>2011-06-12T10:55:59Z</time>
      </trkpt>
      <trkpt lat="44.13707" lon="6.82909">
        <ele>1426.699</ele>
        <time>2011-06-12T10:56:02Z</time>
      </trkpt>
      <trkpt lat="44.13684" lon="6.82898">
        <ele>1422.657</ele>
        <time>2011-06-12T10:56:06Z</time>
      </trkpt>
      <trkpt lat="44.13669" lon="6.82891">
        <ele>1420.188</ele>
        <time>2011-06-12T10:56:10Z</time>
      </trkpt>
      <trkpt lat="44.13657" lon="6.82881">
        <ele>1417.41</ele>
        <time>2011-06-12T10:56:14Z</time>
      </trkpt>
      <trkpt lat="44.13656" lon="6.82884">
        <ele>1415.256</ele>
        <time>2011-06-12T10:56:17Z</time>
      </trkpt>
      <trkpt lat="44.1366" lon="6.82897">
        <ele>1413.13</ele>
        <time>2011-06-12T10:56:21Z</time>
      </trkpt>
      <trkpt lat="44.13656" lon="6.82898">
        <ele>1410.436</ele>
        <time>2011-06-12T10:56:24Z</time>
      </trkpt>
      <trkpt lat="44.13642" lon="6.82892">
        <ele>1405.357</ele>
        <time>2011-06-12T10:56:28Z</time>
      </trkpt>
      <trkpt lat="44.13628" lon="6.82878">
        <ele>1401.665</ele>
        <time>2011-06-12T10:56:31Z</time>
      </trkpt>
      <trkpt lat="44.13625" lon="6.82861">
        <ele>1397.955</ele>
        <time>2011-06-12T10:56:34Z</time>
      </trkpt>
      <trkpt lat="44.13623" lon="6.82855">
        <ele>1396.583</ele>
        <time>2011-06-12T10:56:35Z</time>
      </trkpt>
      <trkpt lat="44.13605" lon="6.8284">
        <ele>1391.019</ele>
        <time>2011-06-12T10:56:40Z</time>
      </trkpt>
      <trkpt lat="44.13592" lon="6.82835">
        <ele>1388.404</ele>
        <time>2011-06-12T10:56:43Z</time>
      </trkpt>
      <trkpt lat="44.13583" lon="6.82831">
        <ele>1386.135</ele>
        <time>2011-06-12T10:56:45Z</time>
      </trkpt>
      <trkpt lat="44.13568" lon="6.82828">
        <ele>1383.958</ele>
        <time>2011-06-12T10:56:49Z</time>
      </trkpt>
      <trkpt lat="44.13558" lon="6.82835">
        <ele>1382.569</ele>
        <time>2011-06-12T10:56:52Z</time>
      </trkpt>
      <trkpt lat="44.13557" lon="6.82837">
        <ele>1382.873</ele>
        <time>2011-06-12T10:56:55Z</time>
      </trkpt>
      <trkpt lat="44.13558" lon="6.82836">
        <ele>1389.578</ele>
        <time>2011-06-12T10:59:15Z</time>
      </trkpt>
      <trkpt lat="44.1357" lon="6.82846">
        <ele>1386.811</ele>
        <time>2011-06-12T10:59:19Z</time>
      </trkpt>
      <trkpt lat="44.13578" lon="6.82852">
        <ele>1385.14</ele>
        <time>2011-06-12T10:59:22Z</time>
      </trkpt>
      <trkpt lat="44.13576" lon="6.82855">
        <ele>1384.051</ele>
        <time>2011-06-12T10:59:25Z</time>
      </trkpt>
      <trkpt lat="44.13566" lon="6.82864">
        <ele>1381.427</ele>
        <time>2011-06-12T10:59:28Z</time>
      </trkpt>
      <trkpt lat="44.13559" lon="6.82864">
        <ele>1379.467</ele>
        <time>2011-06-12T10:59:30Z</time>
      </trkpt>
      <trkpt lat="44.13545" lon="6.82861">
        <ele>1375.886</ele>
        <time>2011-06-12T10:59:33Z</time>
      </trkpt>
      <trkpt lat="44.13535" lon="6.82875">
        <ele>1372.515</ele>
        <time>2011-06-12T10:59:36Z</time>
      </trkpt>
      <trkpt lat="44.13526" lon="6.82878">
        <ele>1369.051</ele>
        <time>2011-06-12T10:59:42Z</time>
      </trkpt>
      <trkpt lat="44.1352" lon="6.82878">
        <ele>1366.571</ele>
        <time>2011-06-12T10:59:47Z</time>
      </trkpt>
      <trkpt lat="44.13514" lon="6.82882">
        <ele>1364.369</ele>
        <time>2011-06-12T10:59:50Z</time>
      </trkpt>
      <trkpt lat="44.13506" lon="6.82887">
        <ele>1361.179</ele>
        <time>2011-06-12T10:59:55Z</time>
      </trkpt>
      <trkpt lat="44.13504" lon="6.82887">
        <ele>1360.34</ele>
        <time>2011-06-12T10:59:57Z</time>
      </trkpt>
      <trkpt lat="44.135" lon="6.82871">
        <ele>1357.71</ele>
        <time>2011-06-12T11:00:01Z</time>
      </trkpt>
      <trkpt lat="44.13488" lon="6.82861">
        <ele>1354.135</ele>
        <time>2011-06-12T11:00:05Z</time>
      </trkpt>
      <trkpt lat="44.13484" lon="6.82872">
        <ele>1352.597</ele>
        <time>2011-06-12T11:00:07Z</time>
      </trkpt>
      <trkpt lat="44.13472" lon="6.82893">
        <ele>1350.288</ele>
        <time>2011-06-12T11:00:10Z</time>
      </trkpt>
      <trkpt lat="44.13455" lon="6.82911">
        <ele>1347.015</ele>
        <time>2011-06-12T11:00:13Z</time>
      </trkpt>
      <trkpt lat="44.13432" lon="6.82919">
        <ele>1342.906</ele>
        <time>2011-06-12T11:00:18Z</time>
      </trkpt>
      <trkpt lat="44.13422" lon="6.8292">
        <ele>1339.984</ele>
        <time>2011-06-12T11:00:21Z</time>
      </trkpt>
      <trkpt lat="44.13418" lon="6.82921">
        <ele>1338.693</ele>
        <time>2011-06-12T11:00:22Z</time>
      </trkpt>
      <trkpt lat="44.13405" lon="6.82927">
        <ele>1334.489</ele>
        <time>2011-06-12T11:00:25Z</time>
      </trkpt>
      <trkpt lat="44.13383" lon="6.82935">
        <ele>1329.861</ele>
        <time>2011-06-12T11:00:29Z</time>
      </trkpt>
      <trkpt lat="44.13378" lon="6.82939">
        <ele>1328.506</ele>
        <time>2011-06-12T11:00:31Z</time>
      </trkpt>
      <trkpt lat="44.13368" lon="6.82945">
        <ele>1325.584</ele>
        <time>2011-06-12T11:00:35Z</time>
      </trkpt>
      <trkpt lat="44.13363" lon="6.82931">
        <ele>1322.836</ele>
        <time>2011-06-12T11:00:39Z</time>
      </trkpt>
      <trkpt lat="44.13361" lon="6.82923">
        <ele>1321.168</ele>
        <time>2011-06-12T11:00:42Z</time>
      </trkpt>
      <trkpt lat="44.13344" lon="6.82926">
        <ele>1319.057</ele>
        <time>2011-06-12T11:00:45Z</time>
      </trkpt>
      <trkpt lat="44.13338" lon="6.82932">
        <ele>1318.488</ele>
        <time>2011-06-12T11:00:46Z</time>
      </trkpt>
      <trkpt lat="44.13318" lon="6.82953">
        <ele>1316.179</ele>
        <time>2011-06-12T11:00:50Z</time>
      </trkpt>
      <trkpt lat="44.13295" lon="6.82969">
        <ele>1312.656</ele>
        <time>2011-06-12T11:00:54Z</time>
      </trkpt>
      <trkpt lat="44.13278" lon="6.82986">
        <ele>1310.425</ele>
        <time>2011-06-12T11:00:57Z</time>
      </trkpt>
      <trkpt lat="44.13263" lon="6.83002">
        <ele>1308.555</ele>
        <time>2011-06-12T11:01:00Z</time>
      </trkpt>
      <trkpt lat="44.13247" lon="6.83013">
        <ele>1305.326</ele>
        <time>2011-06-12T11:01:05Z</time>
      </trkpt>
      <trkpt lat="44.13243" lon="6.83014">
        <ele>1304.575</ele>
        <time>2011-06-12T11:01:06Z</time>
      </trkpt>
      <trkpt lat="44.1323" lon="6.83016">
        <ele>1301.381</ele>
        <time>2011-06-12T11:01:09Z</time>
      </trkpt>
      <trkpt lat="44.13213" lon="6.83025">
        <ele>1297.324</ele>
        <time>2011-06-12T11:01:13Z</time>
      </trkpt>
      <trkpt lat="44.13205" lon="6.83038">
        <ele>1295.366</ele>
        <time>2011-06-12T11:01:16Z</time>
      </trkpt>
      <trkpt lat="44.1318" lon="6.83067">
        <ele>1290.726</ele>
        <time>2011-06-12T11:01:23Z</time>
      </trkpt>
      <trkpt lat="44.13171" lon="6.83075">
        <ele>1289.196</ele>
        <time>2011-06-12T11:01:25Z</time>
      </trkpt>
      <trkpt lat="44.13145" lon="6.83093">
        <ele>1283.575</ele>
        <time>2011-06-12T11:01:31Z</time>
      </trkpt>
      <trkpt lat="44.13141" lon="6.83096">
        <ele>1282.645</ele>
        <time>2011-06-12T11:01:32Z</time>
      </trkpt>
      <trkpt lat="44.13122" lon="6.83099">
        <ele>1278.737</ele>
        <time>2011-06-12T11:01:37Z</time>
      </trkpt>
      <trkpt lat="44.13118" lon="6.83099">
        <ele>1278.177</ele>
        <time>2011-06-12T11:01:38Z</time>
      </trkpt>
      <trkpt lat="44.13101" lon="6.83096">
        <ele>1278.273</ele>
        <time>2011-06-12T11:01:42Z</time>
      </trkpt>
      <trkpt lat="44.13079" lon="6.83101">
        <ele>1279.058</ele>
        <time>2011-06-12T11:01:49Z</time>
      </trkpt>
      <trkpt lat="44.13066" lon="6.83105">
        <ele>1280.409</ele>
        <time>2011-06-12T11:01:55Z</time>
      </trkpt>
      <trkpt lat="44.13056" lon="6.83097">
        <ele>1281.3</ele>
        <time>2011-06-12T11:02:01Z</time>
      </trkpt>
      <trkpt lat="44.13053" lon="6.83088">
        <ele>1282.49</ele>
        <time>2011-06-12T11:02:07Z</time>
      </trkpt>
      <trkpt lat="44.13052" lon="6.83092">
        <ele>1284.57</ele>
        <time>2011-06-12T11:02:24Z</time>
      </trkpt>
      <trkpt lat="44.13051" lon="6.83093">
        <ele>1283.608</ele>
        <time>2011-06-12T11:02:28Z</time>
      </trkpt>
      <trkpt lat="44.13057" lon="6.83098">
        <ele>1282.966</ele>
        <time>2011-06-12T11:02:33Z</time>
      </trkpt>
      <trkpt lat="44.1306" lon="6.83111">
        <ele>1282.977</ele>
        <time>2011-06-12T11:02:37Z</time>
      </trkpt>
      <trkpt lat="44.13053" lon="6.83124">
        <ele>1284.21</ele>
        <time>2011-06-12T11:02:42Z</time>
      </trkpt>
      <trkpt lat="44.13046" lon="6.83128">
        <ele>1286.082</ele>
        <time>2011-06-12T11:02:45Z</time>
      </trkpt>
      <trkpt lat="44.13032" lon="6.8314">
        <ele>1286.931</ele>
        <time>2011-06-12T11:02:54Z</time>
      </trkpt>
      <trkpt lat="44.13019" lon="6.83144">
        <ele>1287.471</ele>
        <time>2011-06-12T11:03:00Z</time>
      </trkpt>
      <trkpt lat="44.13008" lon="6.83158">
        <ele>1286.669</ele>
        <time>2011-06-12T11:03:06Z</time>
      </trkpt>
      <trkpt lat="44.12993" lon="6.83179">
        <ele>1288.37</ele>
        <time>2011-06-12T11:03:14Z</time>
      </trkpt>
      <trkpt lat="44.12984" lon="6.83192">
        <ele>1288.701</ele>
        <time>2011-06-12T11:03:19Z</time>
      </trkpt>
      <trkpt lat="44.1297" lon="6.83207">
        <ele>1291.312</ele>
        <time>2011-06-12T11:03:26Z</time>
      </trkpt>
      <trkpt lat="44.12951" lon="6.8322">
        <ele>1291.051</ele>
        <time>2011-06-12T11:03:34Z</time>
      </trkpt>
      <trkpt lat="44.1293" lon="6.83227">
        <ele>1291.25</ele>
        <time>2011-06-12T11:03:42Z</time>
      </trkpt>
      <trkpt lat="44.12909" lon="6.83233">
        <ele>1290.999</ele>
        <time>2011-06-12T11:03:50Z</time>
      </trkpt>
      <trkpt lat="44.12891" lon="6.83245">
        <ele>1291.318</ele>
        <time>2011-06-12T11:03:58Z</time>
      </trkpt>
      <trkpt lat="44.12882" lon="6.83249">
        <ele>1292.098</ele>
        <time>2011-06-12T11:04:02Z</time>
      </trkpt>
      <trkpt lat="44.12873" lon="6.83245">
        <ele>1294.021</ele>
        <time>2011-06-12T11:04:07Z</time>
      </trkpt>
      <trkpt lat="44.12865" lon="6.83243">
        <ele>1296.141</ele>
        <time>2011-06-12T11:04:14Z</time>
      </trkpt>
      <trkpt lat="44.12864" lon="6.83242">
        <ele>1296.029</ele>
        <time>2011-06-12T11:04:16Z</time>
      </trkpt>
      <trkpt lat="44.12861" lon="6.83232">
        <ele>1297.448</ele>
        <time>2011-06-12T11:04:21Z</time>
      </trkpt>
      <trkpt lat="44.12863" lon="6.83224">
        <ele>1299.711</ele>
        <time>2011-06-12T11:04:25Z</time>
      </trkpt>
      <trkpt lat="44.12863" lon="6.83221">
        <ele>1304.712</ele>
        <time>2011-06-12T11:04:32Z</time>
      </trkpt>
      <trkpt lat="44.12871" lon="6.83229">
        <ele>1319.552</ele>
        <time>2011-06-12T11:04:51Z</time>
      </trkpt>
      <trkpt lat="44.12858" lon="6.83228">
        <ele>1312.055</ele>
        <time>2011-06-12T11:05:40Z</time>
      </trkpt>
      <trkpt lat="44.12848" lon="6.83225">
        <ele>1301.413</ele>
        <time>2011-06-12T11:06:20Z</time>
      </trkpt>
      <trkpt lat="44.12843" lon="6.83227">
        <ele>1298.48</ele>
        <time>2011-06-12T11:07:43Z</time>
      </trkpt>
      <trkpt lat="44.12836" lon="6.83226">
        <ele>1290.409</ele>
        <time>2011-06-12T11:07:51Z</time>
      </trkpt>
      <trkpt lat="44.12842" lon="6.83234">
        <ele>1301.416</ele>
        <time>2011-06-12T11:09:08Z</time>
      </trkpt>
      <trkpt lat="44.12827" lon="6.83232">
        <ele>1305.107</ele>
        <time>2011-06-12T11:09:15Z</time>
      </trkpt>
      <trkpt lat="44.1281" lon="6.83226">
        <ele>1313.644</ele>
        <time>2011-06-12T11:09:20Z</time>
      </trkpt>
      <trkpt lat="44.12791" lon="6.8322">
        <ele>1328.642</ele>
        <time>2011-06-12T11:09:25Z</time>
      </trkpt>
      <trkpt lat="44.12788" lon="6.83219">
        <ele>1341.055</ele>
        <time>2011-06-12T11:09:30Z</time>
      </trkpt>
      <trkpt lat="44.12785" lon="6.83216">
        <ele>1354.063</ele>
        <time>2011-06-12T11:09:36Z</time>
      </trkpt>
      <trkpt lat="44.12802" lon="6.83216">
        <ele>1354.094</ele>
        <time>2011-06-12T11:09:42Z</time>
      </trkpt>
      <trkpt lat="44.12871" lon="6.83209">
        <ele>1289.099</ele>
        <time>2011-06-12T11:10:44Z</time>
      </trkpt>
      <trkpt lat="44.12874" lon="6.8321">
        <ele>1288.674</ele>
        <time>2011-06-12T11:10:50Z</time>
      </trkpt>
      <trkpt lat="44.12875" lon="6.83211">
        <ele>1294.575</ele>
        <time>2011-06-12T11:11:20Z</time>
      </trkpt>
      <trkpt lat="44.12859" lon="6.83208">
        <ele>1277.559</ele>
        <time>2011-06-12T11:11:35Z</time>
      </trkpt>
      <trkpt lat="44.12872" lon="6.8322">
        <ele>1292.694</ele>
        <time>2011-06-12T11:12:35Z</time>
      </trkpt>
      <trkpt lat="44.12844" lon="6.83225">
        <ele>1289.115</ele>
        <time>2011-06-12T11:18:57Z</time>
      </trkpt>
      <trkpt lat="44.12852" lon="6.83223">
        <ele>1295.17</ele>
        <time>2011-06-12T11:19:03Z</time>
      </trkpt>
      <trkpt lat="44.12854" lon="6.83222">
        <ele>1295.48</ele>
        <time>2011-06-12T11:19:04Z</time>
      </trkpt>
      <trkpt lat="44.1286" lon="6.83215">
        <ele>1299.021</ele>
        <time>2011-06-12T11:19:08Z</time>
      </trkpt>
      <trkpt lat="44.12867" lon="6.83202">
        <ele>1300.487</ele>
        <time>2011-06-12T11:19:14Z</time>
      </trkpt>
      <trkpt lat="44.12872" lon="6.83189">
        <ele>1301.1</ele>
        <time>2011-06-12T11:19:19Z</time>
      </trkpt>
      <trkpt lat="44.12872" lon="6.83178">
        <ele>1302.156</ele>
        <time>2011-06-12T11:19:22Z</time>
      </trkpt>
      <trkpt lat="44.12882" lon="6.83169">
        <ele>1305.911</ele>
        <time>2011-06-12T11:19:25Z</time>
      </trkpt>
      <trkpt lat="44.12894" lon="6.83153">
        <ele>1304.902</ele>
        <time>2011-06-12T11:19:29Z</time>
      </trkpt>
      <trkpt lat="44.12909" lon="6.83141">
        <ele>1304.995</ele>
        <time>2011-06-12T11:19:34Z</time>
      </trkpt>
      <trkpt lat="44.12913" lon="6.8314">
        <ele>1307.038</ele>
        <time>2011-06-12T11:19:36Z</time>
      </trkpt>
      <trkpt lat="44.12925" lon="6.83137">
        <ele>1312.189</ele>
        <time>2011-06-12T11:19:42Z</time>
      </trkpt>
      <trkpt lat="44.12932" lon="6.83142">
        <ele>1314.56</ele>
        <time>2011-06-12T11:19:46Z</time>
      </trkpt>
      <trkpt lat="44.12948" lon="6.83148">
        <ele>1317.243</ele>
        <time>2011-06-12T11:19:53Z</time>
      </trkpt>
      <trkpt lat="44.12968" lon="6.8315">
        <ele>1315.051</ele>
        <time>2011-06-12T11:19:59Z</time>
      </trkpt>
      <trkpt lat="44.1299" lon="6.83141">
        <ele>1310.667</ele>
        <time>2011-06-12T11:20:03Z</time>
      </trkpt>
      <trkpt lat="44.13015" lon="6.83129">
        <ele>1304.901</ele>
        <time>2011-06-12T11:20:07Z</time>
      </trkpt>
      <trkpt lat="44.13022" lon="6.83126">
        <ele>1302.876</ele>
        <time>2011-06-12T11:20:08Z</time>
      </trkpt>
      <trkpt lat="44.13042" lon="6.83117">
        <ele>1297.217</ele>
        <time>2011-06-12T11:20:11Z</time>
      </trkpt>
      <trkpt lat="44.13062" lon="6.83103">
        <ele>1291.103</ele>
        <time>2011-06-12T11:20:15Z</time>
      </trkpt>
      <trkpt lat="44.13067" lon="6.83097">
        <ele>1289.342</ele>
        <time>2011-06-12T11:20:17Z</time>
      </trkpt>
      <trkpt lat="44.13067" lon="6.83096">
        <ele>1288.073</ele>
        <time>2011-06-12T11:20:22Z</time>
      </trkpt>
      <trkpt lat="44.13065" lon="6.83097">
        <ele>1287.966</ele>
        <time>2011-06-12T11:20:31Z</time>
      </trkpt>
      <trkpt lat="44.13058" lon="6.83084">
        <ele>1285.072</ele>
        <time>2011-06-12T11:20:35Z</time>
      </trkpt>
      <trkpt lat="44.13057" lon="6.83078">
        <ele>1283.771</ele>
        <time>2011-06-12T11:20:36Z</time>
      </trkpt>
      <trkpt lat="44.13061" lon="6.83051">
        <ele>1276.667</ele>
        <time>2011-06-12T11:20:41Z</time>
      </trkpt>
      <trkpt lat="44.13056" lon="6.83034">
        <ele>1272.976</ele>
        <time>2011-06-12T11:20:44Z</time>
      </trkpt>
      <trkpt lat="44.13055" lon="6.83028">
        <ele>1271.212</ele>
        <time>2011-06-12T11:20:45Z</time>
      </trkpt>
      <trkpt lat="44.13049" lon="6.83002">
        <ele>1264.573</ele>
        <time>2011-06-12T11:20:49Z</time>
      </trkpt>
      <trkpt lat="44.13041" lon="6.82986">
        <ele>1259.77</ele>
        <time>2011-06-12T11:20:52Z</time>
      </trkpt>
      <trkpt lat="44.13028" lon="6.82976">
        <ele>1257.167</ele>
        <time>2011-06-12T11:20:56Z</time>
      </trkpt>
      <trkpt lat="44.13031" lon="6.82973">
        <ele>1255.565</ele>
        <time>2011-06-12T11:20:59Z</time>
      </trkpt>
      <trkpt lat="44.13036" lon="6.82973">
        <ele>1254.927</ele>
        <time>2011-06-12T11:21:01Z</time>
      </trkpt>
      <trkpt lat="44.13045" lon="6.82972">
        <ele>1253.001</ele>
        <time>2011-06-12T11:21:06Z</time>
      </trkpt>
      <trkpt lat="44.13045" lon="6.82972">
        <ele>1251.944</ele>
        <time>2011-06-12T11:21:09Z</time>
      </trkpt>
      <trkpt lat="44.13044" lon="6.82958">
        <ele>1249.922</ele>
        <time>2011-06-12T11:21:13Z</time>
      </trkpt>
      <trkpt lat="44.13044" lon="6.82942">
        <ele>1248.467</ele>
        <time>2011-06-12T11:21:16Z</time>
      </trkpt>
      <trkpt lat="44.13054" lon="6.82937">
        <ele>1245.861</ele>
        <time>2011-06-12T11:21:20Z</time>
      </trkpt>
      <trkpt lat="44.13051" lon="6.82929">
        <ele>1243.73</ele>
        <time>2011-06-12T11:21:24Z</time>
      </trkpt>
      <trkpt lat="44.13052" lon="6.82921">
        <ele>1242.393</ele>
        <time>2011-06-12T11:21:27Z</time>
      </trkpt>
      <trkpt lat="44.13061" lon="6.82921">
        <ele>1241.263</ele>
        <time>2011-06-12T11:21:30Z</time>
      </trkpt>
      <trkpt lat="44.13063" lon="6.82913">
        <ele>1239.08</ele>
        <time>2011-06-12T11:21:33Z</time>
      </trkpt>
      <trkpt lat="44.13062" lon="6.82907">
        <ele>1238.079</ele>
        <time>2011-06-12T11:21:34Z</time>
      </trkpt>
      <trkpt lat="44.13058" lon="6.82895">
        <ele>1236.79</ele>
        <time>2011-06-12T11:21:36Z</time>
      </trkpt>
      <trkpt lat="44.13062" lon="6.8288">
        <ele>1236.109</ele>
        <time>2011-06-12T11:21:40Z</time>
      </trkpt>
      <trkpt lat="44.13067" lon="6.82861">
        <ele>1233.924</ele>
        <time>2011-06-12T11:21:44Z</time>
      </trkpt>
      <trkpt lat="44.1307" lon="6.82844">
        <ele>1233.723</ele>
        <time>2011-06-12T11:21:47Z</time>
      </trkpt>
      <trkpt lat="44.13062" lon="6.82821">
        <ele>1233.253</ele>
        <time>2011-06-12T11:21:50Z</time>
      </trkpt>
      <trkpt lat="44.1305" lon="6.82794">
        <ele>1232.142</ele>
        <time>2011-06-12T11:21:54Z</time>
      </trkpt>
      <trkpt lat="44.13048" lon="6.82788">
        <ele>1230.692</ele>
        <time>2011-06-12T11:21:57Z</time>
      </trkpt>
      <trkpt lat="44.13045" lon="6.82769">
        <ele>1231.066</ele>
        <time>2011-06-12T11:22:04Z</time>
      </trkpt>
      <trkpt lat="44.13044" lon="6.82768">
        <ele>1234.43</ele>
        <time>2011-06-12T11:22:13Z</time>
      </trkpt>
      <trkpt lat="44.13042" lon="6.82763">
        <ele>1233.735</ele>
        <time>2011-06-12T11:22:19Z</time>
      </trkpt>
      <trkpt lat="44.13039" lon="6.82755">
        <ele>1233.826</ele>
        <time>2011-06-12T11:22:22Z</time>
      </trkpt>
      <trkpt lat="44.1303" lon="6.82746">
        <ele>1233.974</ele>
        <time>2011-06-12T11:22:25Z</time>
      </trkpt>
      <trkpt lat="44.13017" lon="6.8272">
        <ele>1230.719</ele>
        <time>2011-06-12T11:22:30Z</time>
      </trkpt>
      <trkpt lat="44.13015" lon="6.82695">
        <ele>1226.867</ele>
        <time>2011-06-12T11:22:34Z</time>
      </trkpt>
      <trkpt lat="44.13005" lon="6.8268">
        <ele>1224.318</ele>
        <time>2011-06-12T11:22:37Z</time>
      </trkpt>
      <trkpt lat="44.12987" lon="6.82661">
        <ele>1223.011</ele>
        <time>2011-06-12T11:22:41Z</time>
      </trkpt>
      <trkpt lat="44.12982" lon="6.82656">
        <ele>1222.091</ele>
        <time>2011-06-12T11:22:42Z</time>
      </trkpt>
      <trkpt lat="44.12953" lon="6.82622">
        <ele>1217.078</ele>
        <time>2011-06-12T11:22:48Z</time>
      </trkpt>
      <trkpt lat="44.1293" lon="6.82587">
        <ele>1211.265</ele>
        <time>2011-06-12T11:22:54Z</time>
      </trkpt>
      <trkpt lat="44.12914" lon="6.82567">
        <ele>1206.823</ele>
        <time>2011-06-12T11:22:58Z</time>
      </trkpt>
      <trkpt lat="44.12899" lon="6.82556">
        <ele>1205.378</ele>
        <time>2011-06-12T11:23:01Z</time>
      </trkpt>
      <trkpt lat="44.12887" lon="6.82551">
        <ele>1204.972</ele>
        <time>2011-06-12T11:23:05Z</time>
      </trkpt>
      <trkpt lat="44.12885" lon="6.82557">
        <ele>1204.644</ele>
        <time>2011-06-12T11:23:09Z</time>
      </trkpt>
      <trkpt lat="44.12885" lon="6.82557">
        <ele>1204.532</ele>
        <time>2011-06-12T11:23:10Z</time>
      </trkpt>
      <trkpt lat="44.12888" lon="6.82552">
        <ele>1203.853</ele>
        <time>2011-06-12T11:23:14Z</time>
      </trkpt>
      <trkpt lat="44.12892" lon="6.82544">
        <ele>1203.116</ele>
        <time>2011-06-12T11:23:20Z</time>
      </trkpt>
      <trkpt lat="44.1289" lon="6.82539">
        <ele>1202.934</ele>
        <time>2011-06-12T11:23:24Z</time>
      </trkpt>
      <trkpt lat="44.12884" lon="6.82535">
        <ele>1204.431</ele>
        <time>2011-06-12T11:23:32Z</time>
      </trkpt>
      <trkpt lat="44.12882" lon="6.82533">
        <ele>1203.203</ele>
        <time>2011-06-12T11:23:38Z</time>
      </trkpt>
      <trkpt lat="44.12879" lon="6.82528">
        <ele>1201.844</ele>
        <time>2011-06-12T11:23:42Z</time>
      </trkpt>
      <trkpt lat="44.12863" lon="6.82523">
        <ele>1199.545</ele>
        <time>2011-06-12T11:23:47Z</time>
      </trkpt>
      <trkpt lat="44.12856" lon="6.82519">
        <ele>1198.57</ele>
        <time>2011-06-12T11:23:50Z</time>
      </trkpt>
      <trkpt lat="44.12849" lon="6.82516">
        <ele>1195.743</ele>
        <time>2011-06-12T11:24:01Z</time>
      </trkpt>
      <trkpt lat="44.12838" lon="6.82512">
        <ele>1193.137</ele>
        <time>2011-06-12T11:24:04Z</time>
      </trkpt>
      <trkpt lat="44.12828" lon="6.82507">
        <ele>1190.394</ele>
        <time>2011-06-12T11:24:07Z</time>
      </trkpt>
      <trkpt lat="44.12814" lon="6.82505">
        <ele>1186.104</ele>
        <time>2011-06-12T11:24:11Z</time>
      </trkpt>
      <trkpt lat="44.12804" lon="6.82509">
        <ele>1183.144</ele>
        <time>2011-06-12T11:24:14Z</time>
      </trkpt>
      <trkpt lat="44.12789" lon="6.82512">
        <ele>1178.833</ele>
        <time>2011-06-12T11:24:18Z</time>
      </trkpt>
      <trkpt lat="44.12781" lon="6.82513">
        <ele>1174.536</ele>
        <time>2011-06-12T11:24:23Z</time>
      </trkpt>
      <trkpt lat="44.12777" lon="6.82517">
        <ele>1172.318</ele>
        <time>2011-06-12T11:24:27Z</time>
      </trkpt>
      <trkpt lat="44.12773" lon="6.82524">
        <ele>1170.082</ele>
        <time>2011-06-12T11:24:49Z</time>
      </trkpt>
      <trkpt lat="44.12762" lon="6.82528">
        <ele>1166.317</ele>
        <time>2011-06-12T11:24:54Z</time>
      </trkpt>
      <trkpt lat="44.12754" lon="6.82521">
        <ele>1163.799</ele>
        <time>2011-06-12T11:24:59Z</time>
      </trkpt>
      <trkpt lat="44.12751" lon="6.82521">
        <ele>1162.801</ele>
        <time>2011-06-12T11:25:03Z</time>
      </trkpt>
      <trkpt lat="44.12753" lon="6.82521">
        <ele>1162.294</ele>
        <time>2011-06-12T11:25:10Z</time>
      </trkpt>
      <trkpt lat="44.12753" lon="6.82521">
        <ele>1162.325</ele>
        <time>2011-06-12T11:25:11Z</time>
      </trkpt>
      <trkpt lat="44.12752" lon="6.82524">
        <ele>1162.355</ele>
        <time>2011-06-12T11:25:18Z</time>
      </trkpt>
      <trkpt lat="44.12755" lon="6.82522">
        <ele>1154.262</ele>
        <time>2011-06-12T11:29:12Z</time>
      </trkpt>
      <trkpt lat="44.12756" lon="6.82521">
        <ele>1157.227</ele>
        <time>2011-06-12T11:29:20Z</time>
      </trkpt>
      <trkpt lat="44.12758" lon="6.82524">
        <ele>1158.588</ele>
        <time>2011-06-12T11:29:28Z</time>
      </trkpt>
      <trkpt lat="44.12759" lon="6.82525">
        <ele>1162.799</ele>
        <time>2011-06-12T11:29:34Z</time>
      </trkpt>
      <trkpt lat="44.12761" lon="6.82527">
        <ele>1165.406</ele>
        <time>2011-06-12T11:29:40Z</time>
      </trkpt>
      <trkpt lat="44.12769" lon="6.82523">
        <ele>1168.636</ele>
        <time>2011-06-12T11:29:47Z</time>
      </trkpt>
      <trkpt lat="44.12772" lon="6.82521">
        <ele>1170.389</ele>
        <time>2011-06-12T11:29:50Z</time>
      </trkpt>
      <trkpt lat="44.1278" lon="6.82521">
        <ele>1173.505</ele>
        <time>2011-06-12T11:29:58Z</time>
      </trkpt>
      <trkpt lat="44.12784" lon="6.82515">
        <ele>1176.663</ele>
        <time>2011-06-12T11:30:06Z</time>
      </trkpt>
      <trkpt lat="44.12787" lon="6.8251">
        <ele>1177.968</ele>
        <time>2011-06-12T11:30:11Z</time>
      </trkpt>
      <trkpt lat="44.12794" lon="6.82507">
        <ele>1178.225</ele>
        <time>2011-06-12T11:30:18Z</time>
      </trkpt>
      <trkpt lat="44.12794" lon="6.82508">
        <ele>1178.338</ele>
        <time>2011-06-12T11:30:19Z</time>
      </trkpt>
      <trkpt lat="44.12801" lon="6.82512">
        <ele>1178.554</ele>
        <time>2011-06-12T11:30:26Z</time>
      </trkpt>
      <trkpt lat="44.12803" lon="6.82511">
        <ele>1178.844</ele>
        <time>2011-06-12T11:30:29Z</time>
      </trkpt>
      <trkpt lat="44.12807" lon="6.82502">
        <ele>1181.101</ele>
        <time>2011-06-12T11:30:38Z</time>
      </trkpt>
      <trkpt lat="44.12809" lon="6.82499">
        <ele>1181.11</ele>
        <time>2011-06-12T11:30:41Z</time>
      </trkpt>
      <trkpt lat="44.1281" lon="6.82496">
        <ele>1181.7</ele>
        <time>2011-06-12T11:30:44Z</time>
      </trkpt>
      <trkpt lat="44.12815" lon="6.82489">
        <ele>1182.218</ele>
        <time>2011-06-12T11:30:51Z</time>
      </trkpt>
      <trkpt lat="44.1282" lon="6.82484">
        <ele>1183.863</ele>
        <time>2011-06-12T11:30:57Z</time>
      </trkpt>
      <trkpt lat="44.12825" lon="6.82478">
        <ele>1184.957</ele>
        <time>2011-06-12T11:31:05Z</time>
      </trkpt>
      <trkpt lat="44.12826" lon="6.8248">
        <ele>1185.798</ele>
        <time>2011-06-12T11:31:11Z</time>
      </trkpt>
      <trkpt lat="44.12831" lon="6.82483">
        <ele>1188.049</ele>
        <time>2011-06-12T11:31:18Z</time>
      </trkpt>
      <trkpt lat="44.12832" lon="6.82483">
        <ele>1189.328</ele>
        <time>2011-06-12T11:31:23Z</time>
      </trkpt>
      <trkpt lat="44.12832" lon="6.82482">
        <ele>1191.156</ele>
        <time>2011-06-12T11:31:36Z</time>
      </trkpt>
      <trkpt lat="44.12836" lon="6.82482">
        <ele>1192.433</ele>
        <time>2011-06-12T11:31:44Z</time>
      </trkpt>
      <trkpt lat="44.12837" lon="6.82483">
        <ele>1193.059</ele>
        <time>2011-06-12T11:31:46Z</time>
      </trkpt>
      <trkpt lat="44.12841" lon="6.82489">
        <ele>1195.411</ele>
        <time>2011-06-12T11:31:53Z</time>
      </trkpt>
      <trkpt lat="44.12846" lon="6.82496">
        <ele>1197.688</ele>
        <time>2011-06-12T11:32:03Z</time>
      </trkpt>
      <trkpt lat="44.12852" lon="6.82503">
        <ele>1199.819</ele>
        <time>2011-06-12T11:32:11Z</time>
      </trkpt>
      <trkpt lat="44.12858" lon="6.82511">
        <ele>1201.829</ele>
        <time>2011-06-12T11:32:20Z</time>
      </trkpt>
      <trkpt lat="44.12859" lon="6.82523">
        <ele>1202.247</ele>
        <time>2011-06-12T11:32:27Z</time>
      </trkpt>
      <trkpt lat="44.12859" lon="6.82527">
        <ele>1202.627</ele>
        <time>2011-06-12T11:32:29Z</time>
      </trkpt>
      <trkpt lat="44.1286" lon="6.82534">
        <ele>1203.428</ele>
        <time>2011-06-12T11:32:33Z</time>
      </trkpt>
      <trkpt lat="44.12865" lon="6.82533">
        <ele>1204.753</ele>
        <time>2011-06-12T11:32:38Z</time>
      </trkpt>
      <trkpt lat="44.12872" lon="6.82524">
        <ele>1205.562</ele>
        <time>2011-06-12T11:32:45Z</time>
      </trkpt>
      <trkpt lat="44.12878" lon="6.82523">
        <ele>1206.254</ele>
        <time>2011-06-12T11:32:50Z</time>
      </trkpt>
      <trkpt lat="44.12883" lon="6.8253">
        <ele>1207.656</ele>
        <time>2011-06-12T11:32:57Z</time>
      </trkpt>
      <trkpt lat="44.12887" lon="6.8254">
        <ele>1208.218</ele>
        <time>2011-06-12T11:33:04Z</time>
      </trkpt>
      <trkpt lat="44.12896" lon="6.82553">
        <ele>1208.268</ele>
        <time>2011-06-12T11:33:13Z</time>
      </trkpt>
      <trkpt lat="44.12905" lon="6.82559">
        <ele>1208.317</ele>
        <time>2011-06-12T11:33:20Z</time>
      </trkpt>
      <trkpt lat="44.12912" lon="6.82563">
        <ele>1207.946</ele>
        <time>2011-06-12T11:33:28Z</time>
      </trkpt>
      <trkpt lat="44.12916" lon="6.8257">
        <ele>1209.867</ele>
        <time>2011-06-12T11:34:08Z</time>
      </trkpt>
      <trkpt lat="44.12923" lon="6.82581">
        <ele>1211.638</ele>
        <time>2011-06-12T11:34:17Z</time>
      </trkpt>
      <trkpt lat="44.12932" lon="6.82592">
        <ele>1212.495</ele>
        <time>2011-06-12T11:34:27Z</time>
      </trkpt>
      <trkpt lat="44.12939" lon="6.82604">
        <ele>1216.182</ele>
        <time>2011-06-12T11:34:37Z</time>
      </trkpt>
      <trkpt lat="44.12945" lon="6.82612">
        <ele>1218.13</ele>
        <time>2011-06-12T11:34:44Z</time>
      </trkpt>
      <trkpt lat="44.1295" lon="6.82623">
        <ele>1219.617</ele>
        <time>2011-06-12T11:34:52Z</time>
      </trkpt>
      <trkpt lat="44.1296" lon="6.82633">
        <ele>1219.774</ele>
        <time>2011-06-12T11:35:01Z</time>
      </trkpt>
      <trkpt lat="44.12965" lon="6.82639">
        <ele>1222.319</ele>
        <time>2011-06-12T11:35:08Z</time>
      </trkpt>
      <trkpt lat="44.12966" lon="6.82644">
        <ele>1223.046</ele>
        <time>2011-06-12T11:35:15Z</time>
      </trkpt>
      <trkpt lat="44.12977" lon="6.82657">
        <ele>1224.157</ele>
        <time>2011-06-12T11:35:22Z</time>
      </trkpt>
      <trkpt lat="44.12989" lon="6.8267">
        <ele>1225.484</ele>
        <time>2011-06-12T11:35:30Z</time>
      </trkpt>
      <trkpt lat="44.12999" lon="6.82681">
        <ele>1226.838</ele>
        <time>2011-06-12T11:35:36Z</time>
      </trkpt>
      <trkpt lat="44.13006" lon="6.8269">
        <ele>1228.279</ele>
        <time>2011-06-12T11:35:41Z</time>
      </trkpt>
      <trkpt lat="44.13011" lon="6.82701">
        <ele>1230.901</ele>
        <time>2011-06-12T11:35:47Z</time>
      </trkpt>
      <trkpt lat="44.1301" lon="6.82715">
        <ele>1233.031</ele>
        <time>2011-06-12T11:35:54Z</time>
      </trkpt>
      <trkpt lat="44.13014" lon="6.82731">
        <ele>1236.122</ele>
        <time>2011-06-12T11:36:03Z</time>
      </trkpt>
      <trkpt lat="44.1302" lon="6.82747">
        <ele>1238.118</ele>
        <time>2011-06-12T11:36:12Z</time>
      </trkpt>
      <trkpt lat="44.13029" lon="6.82752">
        <ele>1238.477</ele>
        <time>2011-06-12T11:36:19Z</time>
      </trkpt>
      <trkpt lat="44.13031" lon="6.82754">
        <ele>1238.848</ele>
        <time>2011-06-12T11:36:21Z</time>
      </trkpt>
      <trkpt lat="44.13038" lon="6.82767">
        <ele>1241.392</ele>
        <time>2011-06-12T11:36:29Z</time>
      </trkpt>
      <trkpt lat="44.13042" lon="6.82783">
        <ele>1240.996</ele>
        <time>2011-06-12T11:36:36Z</time>
      </trkpt>
      <trkpt lat="44.13048" lon="6.828">
        <ele>1240.392</ele>
        <time>2011-06-12T11:36:42Z</time>
      </trkpt>
      <trkpt lat="44.13053" lon="6.82812">
        <ele>1241.627</ele>
        <time>2011-06-12T11:36:48Z</time>
      </trkpt>
      <trkpt lat="44.13057" lon="6.8283">
        <ele>1244.61</ele>
        <time>2011-06-12T11:36:56Z</time>
      </trkpt>
      <trkpt lat="44.13062" lon="6.82843">
        <ele>1245.787</ele>
        <time>2011-06-12T11:37:02Z</time>
      </trkpt>
      <trkpt lat="44.13063" lon="6.8286">
        <ele>1245.227</ele>
        <time>2011-06-12T11:37:08Z</time>
      </trkpt>
      <trkpt lat="44.13063" lon="6.82862">
        <ele>1244.987</ele>
        <time>2011-06-12T11:37:09Z</time>
      </trkpt>
      <trkpt lat="44.13059" lon="6.82865">
        <ele>1244.774</ele>
        <time>2011-06-12T11:37:12Z</time>
      </trkpt>
      <trkpt lat="44.13058" lon="6.82869">
        <ele>1244.458</ele>
        <time>2011-06-12T11:37:18Z</time>
      </trkpt>
      <trkpt lat="44.13059" lon="6.82875">
        <ele>1240.237</ele>
        <time>2011-06-12T11:37:37Z</time>
      </trkpt>
      <trkpt lat="44.13057" lon="6.82886">
        <ele>1240.166</ele>
        <time>2011-06-12T11:37:41Z</time>
      </trkpt>
      <trkpt lat="44.13054" lon="6.82897">
        <ele>1241.876</ele>
        <time>2011-06-12T11:37:47Z</time>
      </trkpt>
      <trkpt lat="44.13055" lon="6.82899">
        <ele>1242.217</ele>
        <time>2011-06-12T11:37:48Z</time>
      </trkpt>
      <trkpt lat="44.13059" lon="6.82915">
        <ele>1244.704</ele>
        <time>2011-06-12T11:37:55Z</time>
      </trkpt>
      <trkpt lat="44.13055" lon="6.82922">
        <ele>1246.071</ele>
        <time>2011-06-12T11:38:00Z</time>
      </trkpt>
      <trkpt lat="44.13048" lon="6.82922">
        <ele>1246.55</ele>
        <time>2011-06-12T11:38:05Z</time>
      </trkpt>
      <trkpt lat="44.13046" lon="6.82929">
        <ele>1248.152</ele>
        <time>2011-06-12T11:38:09Z</time>
      </trkpt>
      <trkpt lat="44.13054" lon="6.82935">
        <ele>1249.764</ele>
        <time>2011-06-12T11:38:15Z</time>
      </trkpt>
      <trkpt lat="44.13052" lon="6.8294">
        <ele>1250.492</ele>
        <time>2011-06-12T11:38:18Z</time>
      </trkpt>
      <trkpt lat="44.13045" lon="6.82942">
        <ele>1253.732</ele>
        <time>2011-06-12T11:38:23Z</time>
      </trkpt>
      <trkpt lat="44.13041" lon="6.82953">
        <ele>1256.232</ele>
        <time>2011-06-12T11:38:30Z</time>
      </trkpt>
      <trkpt lat="44.13041" lon="6.82962">
        <ele>1262.645</ele>
        <time>2011-06-12T11:38:37Z</time>
      </trkpt>
      <trkpt lat="44.1304" lon="6.82973">
        <ele>1263.761</ele>
        <time>2011-06-12T11:38:44Z</time>
      </trkpt>
      <trkpt lat="44.13036" lon="6.82975">
        <ele>1263.39</ele>
        <time>2011-06-12T11:38:49Z</time>
      </trkpt>
      <trkpt lat="44.13029" lon="6.82974">
        <ele>1263.85</ele>
        <time>2011-06-12T11:38:56Z</time>
      </trkpt>
      <trkpt lat="44.13029" lon="6.82977">
        <ele>1264.294</ele>
        <time>2011-06-12T11:39:01Z</time>
      </trkpt>
      <trkpt lat="44.13033" lon="6.82974">
        <ele>1266.764</ele>
        <time>2011-06-12T11:39:18Z</time>
      </trkpt>
      <trkpt lat="44.13038" lon="6.82979">
        <ele>1266.731</ele>
        <time>2011-06-12T11:39:23Z</time>
      </trkpt>
      <trkpt lat="44.13045" lon="6.82992">
        <ele>1267.681</ele>
        <time>2011-06-12T11:39:30Z</time>
      </trkpt>
      <trkpt lat="44.1305" lon="6.83004">
        <ele>1270.272</ele>
        <time>2011-06-12T11:39:38Z</time>
      </trkpt>
      <trkpt lat="44.13051" lon="6.83014">
        <ele>1273.923</ele>
        <time>2011-06-12T11:39:45Z</time>
      </trkpt>
      <trkpt lat="44.13052" lon="6.83026">
        <ele>1274.91</ele>
        <time>2011-06-12T11:39:53Z</time>
      </trkpt>
      <trkpt lat="44.13052" lon="6.83027">
        <ele>1274.959</ele>
        <time>2011-06-12T11:39:54Z</time>
      </trkpt>
      <trkpt lat="44.13053" lon="6.83037">
        <ele>1272.737</ele>
        <time>2011-06-12T11:40:02Z</time>
      </trkpt>
      <trkpt lat="44.13056" lon="6.83047">
        <ele>1272.359</ele>
        <time>2011-06-12T11:40:09Z</time>
      </trkpt>
      <trkpt lat="44.13058" lon="6.83053">
        <ele>1274.821</ele>
        <time>2011-06-12T11:40:15Z</time>
      </trkpt>
      <trkpt lat="44.13057" lon="6.83057">
        <ele>1277.642</ele>
        <time>2011-06-12T11:40:19Z</time>
      </trkpt>
      <trkpt lat="44.13056" lon="6.83065">
        <ele>1279.71</ele>
        <time>2011-06-12T11:40:29Z</time>
      </trkpt>
      <trkpt lat="44.13058" lon="6.83077">
        <ele>1283.33</ele>
        <time>2011-06-12T11:40:38Z</time>
      </trkpt>
      <trkpt lat="44.13059" lon="6.83083">
        <ele>1286.374</ele>
        <time>2011-06-12T11:40:44Z</time>
      </trkpt>
      <trkpt lat="44.13062" lon="6.83088">
        <ele>1287.331</ele>
        <time>2011-06-12T11:40:49Z</time>
      </trkpt>
      <trkpt lat="44.13062" lon="6.83094">
        <ele>1288.208</ele>
        <time>2011-06-12T11:40:57Z</time>
      </trkpt>
      <trkpt lat="44.13063" lon="6.83096">
        <ele>1288.48</ele>
        <time>2011-06-12T11:40:59Z</time>
      </trkpt>
      <trkpt lat="44.13062" lon="6.83099">
        <ele>1288.079</ele>
        <time>2011-06-12T11:41:03Z</time>
      </trkpt>
      <trkpt lat="44.13061" lon="6.83103">
        <ele>1288.458</ele>
        <time>2011-06-12T11:41:10Z</time>
      </trkpt>
      <trkpt lat="44.1306" lon="6.83103">
        <ele>1288.128</ele>
        <time>2011-06-12T11:41:13Z</time>
      </trkpt>
      <trkpt lat="44.13061" lon="6.83099">
        <ele>1287.508</ele>
        <time>2011-06-12T11:41:20Z</time>
      </trkpt>
      <trkpt lat="44.13063" lon="6.83098">
        <ele>1285.647</ele>
        <time>2011-06-12T11:41:38Z</time>
      </trkpt>
      <trkpt lat="44.13057" lon="6.83088">
        <ele>1286.941</ele>
        <time>2011-06-12T11:41:44Z</time>
      </trkpt>
      <trkpt lat="44.13052" lon="6.83068">
        <ele>1288.671</ele>
        <time>2011-06-12T11:41:51Z</time>
      </trkpt>
      <trkpt lat="44.13045" lon="6.83043">
        <ele>1290.62</ele>
        <time>2011-06-12T11:42:00Z</time>
      </trkpt>
      <trkpt lat="44.13036" lon="6.83035">
        <ele>1291.18</ele>
        <time>2011-06-12T11:42:05Z</time>
      </trkpt>
      <trkpt lat="44.13027" lon="6.83029">
        <ele>1288.928</ele>
        <time>2011-06-12T11:42:12Z</time>
      </trkpt>
      <trkpt lat="44.13025" lon="6.83029">
        <ele>1288.308</ele>
        <time>2011-06-12T11:42:14Z</time>
      </trkpt>
      <trkpt lat="44.13015" lon="6.83043">
        <ele>1285.721</ele>
        <time>2011-06-12T11:42:20Z</time>
      </trkpt>
      <trkpt lat="44.13004" lon="6.83058">
        <ele>1283.628</ele>
        <time>2011-06-12T11:42:26Z</time>
      </trkpt>
      <trkpt lat="44.12997" lon="6.83064">
        <ele>1282.74</ele>
        <time>2011-06-12T11:42:30Z</time>
      </trkpt>
      <trkpt lat="44.12988" lon="6.83065">
        <ele>1281.889</ele>
        <time>2011-06-12T11:42:35Z</time>
      </trkpt>
      <trkpt lat="44.12984" lon="6.83067">
        <ele>1282.161</ele>
        <time>2011-06-12T11:42:37Z</time>
      </trkpt>
      <trkpt lat="44.12969" lon="6.83073">
        <ele>1283.873</ele>
        <time>2011-06-12T11:42:46Z</time>
      </trkpt>
      <trkpt lat="44.12951" lon="6.83089">
        <ele>1283.741</ele>
        <time>2011-06-12T11:42:54Z</time>
      </trkpt>
      <trkpt lat="44.12932" lon="6.83109">
        <ele>1285.771</ele>
        <time>2011-06-12T11:43:02Z</time>
      </trkpt>
      <trkpt lat="44.12916" lon="6.83124">
        <ele>1287.559</ele>
        <time>2011-06-12T11:43:09Z</time>
      </trkpt>
      <trkpt lat="44.12904" lon="6.83136">
        <ele>1288.38</ele>
        <time>2011-06-12T11:43:16Z</time>
      </trkpt>
      <trkpt lat="44.12897" lon="6.83142">
        <ele>1289.301</ele>
        <time>2011-06-12T11:43:20Z</time>
      </trkpt>
      <trkpt lat="44.12891" lon="6.83145">
        <ele>1290.909</ele>
        <time>2011-06-12T11:43:25Z</time>
      </trkpt>
      <trkpt lat="44.12891" lon="6.83144">
        <ele>1291.882</ele>
        <time>2011-06-12T11:43:26Z</time>
      </trkpt>
      <trkpt lat="44.12897" lon="6.83141">
        <ele>1293.158</ele>
        <time>2011-06-12T11:43:33Z</time>
      </trkpt>
      <trkpt lat="44.12904" lon="6.83138">
        <ele>1291.623</ele>
        <time>2011-06-12T11:43:37Z</time>
      </trkpt>
      <trkpt lat="44.12906" lon="6.83135">
        <ele>1288.854</ele>
        <time>2011-06-12T11:43:39Z</time>
      </trkpt>
      <trkpt lat="44.12898" lon="6.83142">
        <ele>1290.598</ele>
        <time>2011-06-12T11:43:45Z</time>
      </trkpt>
      <trkpt lat="44.12894" lon="6.83145">
        <ele>1291.918</ele>
        <time>2011-06-12T11:43:49Z</time>
      </trkpt>
      <trkpt lat="44.1289" lon="6.83145">
        <ele>1291.749</ele>
        <time>2011-06-12T11:43:53Z</time>
      </trkpt>
      <trkpt lat="44.12891" lon="6.83143">
        <ele>1293.418</ele>
        <time>2011-06-12T11:43:58Z</time>
      </trkpt>
      <trkpt lat="44.1289" lon="6.83142">
        <ele>1296.159</ele>
        <time>2011-06-12T11:44:22Z</time>
      </trkpt>
      <trkpt lat="44.12895" lon="6.83127">
        <ele>1294.012</ele>
        <time>2011-06-12T11:44:28Z</time>
      </trkpt>
      <trkpt lat="44.12898" lon="6.83113">
        <ele>1285.566</ele>
        <time>2011-06-12T11:44:32Z</time>
      </trkpt>
      <trkpt lat="44.1289" lon="6.83095">
        <ele>1274.624</ele>
        <time>2011-06-12T11:44:38Z</time>
      </trkpt>
      <trkpt lat="44.12886" lon="6.83084">
        <ele>1271.696</ele>
        <time>2011-06-12T11:44:41Z</time>
      </trkpt>
      <trkpt lat="44.12883" lon="6.83074">
        <ele>1266.706</ele>
        <time>2011-06-12T11:44:45Z</time>
      </trkpt>
      <trkpt lat="44.12882" lon="6.83067">
        <ele>1264.015</ele>
        <time>2011-06-12T11:44:47Z</time>
      </trkpt>
      <trkpt lat="44.12873" lon="6.83041">
        <ele>1255.622</ele>
        <time>2011-06-12T11:44:53Z</time>
      </trkpt>
      <trkpt lat="44.12865" lon="6.83022">
        <ele>1249.612</ele>
        <time>2011-06-12T11:44:57Z</time>
      </trkpt>
      <trkpt lat="44.12853" lon="6.83007">
        <ele>1245.861</ele>
        <time>2011-06-12T11:45:01Z</time>
      </trkpt>
      <trkpt lat="44.12847" lon="6.83002">
        <ele>1243.382</ele>
        <time>2011-06-12T11:45:04Z</time>
      </trkpt>
      <trkpt lat="44.12848" lon="6.83003">
        <ele>1240.434</ele>
        <time>2011-06-12T11:45:11Z</time>
      </trkpt>
      <trkpt lat="44.12847" lon="6.83001">
        <ele>1241.175</ele>
        <time>2011-06-12T11:45:14Z</time>
      </trkpt>
      <trkpt lat="44.12845" lon="6.82993">
        <ele>1241.172</ele>
        <time>2011-06-12T11:45:19Z</time>
      </trkpt>
      <trkpt lat="44.12836" lon="6.82982">
        <ele>1237.969</ele>
        <time>2011-06-12T11:45:24Z</time>
      </trkpt>
      <trkpt lat="44.12823" lon="6.82966">
        <ele>1230.213</ele>
        <time>2011-06-12T11:45:31Z</time>
      </trkpt>
      <trkpt lat="44.12803" lon="6.8295">
        <ele>1226.513</ele>
        <time>2011-06-12T11:45:36Z</time>
      </trkpt>
      <trkpt lat="44.12799" lon="6.8295">
        <ele>1225.594</ele>
        <time>2011-06-12T11:45:37Z</time>
      </trkpt>
      <trkpt lat="44.12761" lon="6.8295">
        <ele>1222.512</ele>
        <time>2011-06-12T11:45:45Z</time>
      </trkpt>
      <trkpt lat="44.12744" lon="6.82946">
        <ele>1224.538</ele>
        <time>2011-06-12T11:45:50Z</time>
      </trkpt>
      <trkpt lat="44.12731" lon="6.82942">
        <ele>1229.263</ele>
        <time>2011-06-12T11:45:55Z</time>
      </trkpt>
      <trkpt lat="44.12722" lon="6.82944">
        <ele>1232.954</ele>
        <time>2011-06-12T11:46:00Z</time>
      </trkpt>
      <trkpt lat="44.12718" lon="6.82947">
        <ele>1231.2</ele>
        <time>2011-06-12T11:46:04Z</time>
      </trkpt>
      <trkpt lat="44.12711" lon="6.82952">
        <ele>1232.77</ele>
        <time>2011-06-12T11:46:12Z</time>
      </trkpt>
      <trkpt lat="44.12706" lon="6.8295">
        <ele>1234.588</ele>
        <time>2011-06-12T11:46:20Z</time>
      </trkpt>
      <trkpt lat="44.12702" lon="6.82947">
        <ele>1237.448</ele>
        <time>2011-06-12T11:46:33Z</time>
      </trkpt>
      <trkpt lat="44.12685" lon="6.82944">
        <ele>1237.92</ele>
        <time>2011-06-12T11:46:41Z</time>
      </trkpt>
      <trkpt lat="44.12679" lon="6.82945">
        <ele>1238.93</ele>
        <time>2011-06-12T11:46:44Z</time>
      </trkpt>
      <trkpt lat="44.12671" lon="6.82954">
        <ele>1240.012</ele>
        <time>2011-06-12T11:46:50Z</time>
      </trkpt>
      <trkpt lat="44.12665" lon="6.82957">
        <ele>1240.523</ele>
        <time>2011-06-12T11:46:54Z</time>
      </trkpt>
      <trkpt lat="44.12662" lon="6.8296">
        <ele>1242.265</ele>
        <time>2011-06-12T11:46:57Z</time>
      </trkpt>
      <trkpt lat="44.12652" lon="6.82959">
        <ele>1243.792</ele>
        <time>2011-06-12T11:47:01Z</time>
      </trkpt>
      <trkpt lat="44.12636" lon="6.82953">
        <ele>1247.163</ele>
        <time>2011-06-12T11:47:09Z</time>
      </trkpt>
      <trkpt lat="44.1262" lon="6.82951">
        <ele>1249.67</ele>
        <time>2011-06-12T11:47:17Z</time>
      </trkpt>
      <trkpt lat="44.1261" lon="6.82958">
        <ele>1248.066</ele>
        <time>2011-06-12T11:47:21Z</time>
      </trkpt>
      <trkpt lat="44.12595" lon="6.82965">
        <ele>1248.769</ele>
        <time>2011-06-12T11:47:26Z</time>
      </trkpt>
      <trkpt lat="44.12574" lon="6.82975">
        <ele>1247.151</ele>
        <time>2011-06-12T11:47:32Z</time>
      </trkpt>
      <trkpt lat="44.12558" lon="6.82983">
        <ele>1244.409</ele>
        <time>2011-06-12T11:47:35Z</time>
      </trkpt>
      <trkpt lat="44.12532" lon="6.82987">
        <ele>1242.68</ele>
        <time>2011-06-12T11:47:40Z</time>
      </trkpt>
      <trkpt lat="44.12521" lon="6.82987">
        <ele>1241.199</ele>
        <time>2011-06-12T11:47:42Z</time>
      </trkpt>
      <trkpt lat="44.12497" lon="6.82993">
        <ele>1238.418</ele>
        <time>2011-06-12T11:47:46Z</time>
      </trkpt>
      <trkpt lat="44.12471" lon="6.82996">
        <ele>1235.887</ele>
        <time>2011-06-12T11:47:51Z</time>
      </trkpt>
      <trkpt lat="44.1245" lon="6.82995">
        <ele>1235.162</ele>
        <time>2011-06-12T11:47:55Z</time>
      </trkpt>
      <trkpt lat="44.12429" lon="6.82994">
        <ele>1233.098</ele>
        <time>2011-06-12T11:48:00Z</time>
      </trkpt>
      <trkpt lat="44.12411" lon="6.83001">
        <ele>1229.625</ele>
        <time>2011-06-12T11:48:04Z</time>
      </trkpt>
      <trkpt lat="44.12382" lon="6.8301">
        <ele>1224.065</ele>
        <time>2011-06-12T11:48:10Z</time>
      </trkpt>
      <trkpt lat="44.12366" lon="6.83009">
        <ele>1221.969</ele>
        <time>2011-06-12T11:48:14Z</time>
      </trkpt>
      <trkpt lat="44.1235" lon="6.83015">
        <ele>1217.986</ele>
        <time>2011-06-12T11:48:18Z</time>
      </trkpt>
      <trkpt lat="44.12323" lon="6.8302">
        <ele>1211.782</ele>
        <time>2011-06-12T11:48:24Z</time>
      </trkpt>
      <trkpt lat="44.1232" lon="6.83021">
        <ele>1210.432</ele>
        <time>2011-06-12T11:48:25Z</time>
      </trkpt>
      <trkpt lat="44.12312" lon="6.8303">
        <ele>1205.276</ele>
        <time>2011-06-12T11:48:30Z</time>
      </trkpt>
      <trkpt lat="44.12316" lon="6.83041">
        <ele>1201.585</ele>
        <time>2011-06-12T11:48:34Z</time>
      </trkpt>
      <trkpt lat="44.12308" lon="6.83039">
        <ele>1200.888</ele>
        <time>2011-06-12T11:48:36Z</time>
      </trkpt>
      <trkpt lat="44.12293" lon="6.8303">
        <ele>1200.211</ele>
        <time>2011-06-12T11:48:39Z</time>
      </trkpt>
      <trkpt lat="44.12285" lon="6.83021">
        <ele>1199.029</ele>
        <time>2011-06-12T11:48:41Z</time>
      </trkpt>
      <trkpt lat="44.12272" lon="6.83011">
        <ele>1196.479</ele>
        <time>2011-06-12T11:48:45Z</time>
      </trkpt>
      <trkpt lat="44.12264" lon="6.83007">
        <ele>1194.139</ele>
        <time>2011-06-12T11:48:49Z</time>
      </trkpt>
      <trkpt lat="44.12252" lon="6.83">
        <ele>1191.752</ele>
        <time>2011-06-12T11:48:55Z</time>
      </trkpt>
      <trkpt lat="44.12249" lon="6.82996">
        <ele>1190.972</ele>
        <time>2011-06-12T11:48:57Z</time>
      </trkpt>
      <trkpt lat="44.12246" lon="6.8298">
        <ele>1190.785</ele>
        <time>2011-06-12T11:49:01Z</time>
      </trkpt>
      <trkpt lat="44.12242" lon="6.82959">
        <ele>1190.334</ele>
        <time>2011-06-12T11:49:06Z</time>
      </trkpt>
      <trkpt lat="44.12235" lon="6.82943">
        <ele>1187.398</ele>
        <time>2011-06-12T11:49:09Z</time>
      </trkpt>
      <trkpt lat="44.12221" lon="6.82919">
        <ele>1182.104</ele>
        <time>2011-06-12T11:49:14Z</time>
      </trkpt>
      <trkpt lat="44.12218" lon="6.82914">
        <ele>1180.893</ele>
        <time>2011-06-12T11:49:15Z</time>
      </trkpt>
      <trkpt lat="44.12206" lon="6.82907">
        <ele>1176.758</ele>
        <time>2011-06-12T11:49:18Z</time>
      </trkpt>
      <trkpt lat="44.12186" lon="6.82893">
        <ele>1171.448</ele>
        <time>2011-06-12T11:49:23Z</time>
      </trkpt>
      <trkpt lat="44.12178" lon="6.82891">
        <ele>1169.319</ele>
        <time>2011-06-12T11:49:25Z</time>
      </trkpt>
      <trkpt lat="44.12157" lon="6.82883">
        <ele>1165.542</ele>
        <time>2011-06-12T11:49:29Z</time>
      </trkpt>
      <trkpt lat="44.12146" lon="6.82877">
        <ele>1164.103</ele>
        <time>2011-06-12T11:49:31Z</time>
      </trkpt>
      <trkpt lat="44.12132" lon="6.82868">
        <ele>1159.217</ele>
        <time>2011-06-12T11:49:36Z</time>
      </trkpt>
      <trkpt lat="44.12122" lon="6.82858">
        <ele>1154.5</ele>
        <time>2011-06-12T11:49:40Z</time>
      </trkpt>
      <trkpt lat="44.12112" lon="6.82852">
        <ele>1151.801</ele>
        <time>2011-06-12T11:49:42Z</time>
      </trkpt>
      <trkpt lat="44.12095" lon="6.82837">
        <ele>1148.547</ele>
        <time>2011-06-12T11:49:46Z</time>
      </trkpt>
      <trkpt lat="44.12093" lon="6.82833">
        <ele>1146.514</ele>
        <time>2011-06-12T11:49:51Z</time>
      </trkpt>
      <trkpt lat="44.12093" lon="6.82834">
        <ele>1146.396</ele>
        <time>2011-06-12T11:49:53Z</time>
      </trkpt>
      <trkpt lat="44.12084" lon="6.82834">
        <ele>1145.232</ele>
        <time>2011-06-12T11:49:59Z</time>
      </trkpt>
      <trkpt lat="44.12071" lon="6.82826">
        <ele>1142.707</ele>
        <time>2011-06-12T11:50:04Z</time>
      </trkpt>
      <trkpt lat="44.12058" lon="6.82823">
        <ele>1141.998</ele>
        <time>2011-06-12T11:50:08Z</time>
      </trkpt>
      <trkpt lat="44.1205" lon="6.82822">
        <ele>1141.517</ele>
        <time>2011-06-12T11:50:10Z</time>
      </trkpt>
      <trkpt lat="44.12028" lon="6.82814">
        <ele>1139.135</ele>
        <time>2011-06-12T11:50:14Z</time>
      </trkpt>
      <trkpt lat="44.12018" lon="6.82809">
        <ele>1137.704</ele>
        <time>2011-06-12T11:50:16Z</time>
      </trkpt>
      <trkpt lat="44.11997" lon="6.8281">
        <ele>1136.898</ele>
        <time>2011-06-12T11:50:20Z</time>
      </trkpt>
      <trkpt lat="44.11981" lon="6.82803">
        <ele>1137.777</ele>
        <time>2011-06-12T11:50:25Z</time>
      </trkpt>
      <trkpt lat="44.11979" lon="6.82802">
        <ele>1138.077</ele>
        <time>2011-06-12T11:50:26Z</time>
      </trkpt>
      <trkpt lat="44.11972" lon="6.82797">
        <ele>1138.988</ele>
        <time>2011-06-12T11:50:29Z</time>
      </trkpt>
      <trkpt lat="44.11965" lon="6.82798">
        <ele>1140.38</ele>
        <time>2011-06-12T11:50:32Z</time>
      </trkpt>
      <trkpt lat="44.11954" lon="6.82797">
        <ele>1140.647</ele>
        <time>2011-06-12T11:50:37Z</time>
      </trkpt>
      <trkpt lat="44.11938" lon="6.82792">
        <ele>1138.472</ele>
        <time>2011-06-12T11:50:40Z</time>
      </trkpt>
      <trkpt lat="44.11919" lon="6.82783">
        <ele>1136.101</ele>
        <time>2011-06-12T11:50:43Z</time>
      </trkpt>
      <trkpt lat="44.11895" lon="6.82776">
        <ele>1133.249</ele>
        <time>2011-06-12T11:50:48Z</time>
      </trkpt>
      <trkpt lat="44.11891" lon="6.82777">
        <ele>1132.498</ele>
        <time>2011-06-12T11:50:49Z</time>
      </trkpt>
      <trkpt lat="44.11877" lon="6.82769">
        <ele>1130.719</ele>
        <time>2011-06-12T11:50:53Z</time>
      </trkpt>
      <trkpt lat="44.11868" lon="6.82763">
        <ele>1128.067</ele>
        <time>2011-06-12T11:50:56Z</time>
      </trkpt>
      <trkpt lat="44.11856" lon="6.82761">
        <ele>1124.084</ele>
        <time>2011-06-12T11:51:00Z</time>
      </trkpt>
      <trkpt lat="44.11852" lon="6.82766">
        <ele>1120.456</ele>
        <time>2011-06-12T11:51:04Z</time>
      </trkpt>
      <trkpt lat="44.11851" lon="6.82767">
        <ele>1120.372</ele>
        <time>2011-06-12T11:51:05Z</time>
      </trkpt>
      <trkpt lat="44.11854" lon="6.8277">
        <ele>1118.903</ele>
        <time>2011-06-12T11:51:09Z</time>
      </trkpt>
      <trkpt lat="44.11857" lon="6.8278">
        <ele>1117.201</ele>
        <time>2011-06-12T11:51:15Z</time>
      </trkpt>
      <trkpt lat="44.11851" lon="6.82782">
        <ele>1115.801</ele>
        <time>2011-06-12T11:51:19Z</time>
      </trkpt>
      <trkpt lat="44.11837" lon="6.82781">
        <ele>1111.081</ele>
        <time>2011-06-12T11:51:23Z</time>
      </trkpt>
      <trkpt lat="44.11824" lon="6.8278">
        <ele>1108.071</ele>
        <time>2011-06-12T11:51:26Z</time>
      </trkpt>
      <trkpt lat="44.11819" lon="6.82777">
        <ele>1107.462</ele>
        <time>2011-06-12T11:51:27Z</time>
      </trkpt>
      <trkpt lat="44.11787" lon="6.82775">
        <ele>1104.226</ele>
        <time>2011-06-12T11:51:32Z</time>
      </trkpt>
      <trkpt lat="44.11771" lon="6.82776">
        <ele>1103.648</ele>
        <time>2011-06-12T11:51:35Z</time>
      </trkpt>
      <trkpt lat="44.11755" lon="6.82773">
        <ele>1101.659</ele>
        <time>2011-06-12T11:51:40Z</time>
      </trkpt>
      <trkpt lat="44.11754" lon="6.82773">
        <ele>1101.33</ele>
        <time>2011-06-12T11:51:41Z</time>
      </trkpt>
      <trkpt lat="44.1175" lon="6.82775">
        <ele>1100.351</ele>
        <time>2011-06-12T11:51:44Z</time>
      </trkpt>
      <trkpt lat="44.11748" lon="6.82777">
        <ele>1099.701</ele>
        <time>2011-06-12T11:51:46Z</time>
      </trkpt>
      <trkpt lat="44.11746" lon="6.82775">
        <ele>1099.169</ele>
        <time>2011-06-12T11:51:48Z</time>
      </trkpt>
      <trkpt lat="44.11742" lon="6.82776">
        <ele>1097.693</ele>
        <time>2011-06-12T11:51:53Z</time>
      </trkpt>
      <trkpt lat="44.11742" lon="6.82776">
        <ele>1097.925</ele>
        <time>2011-06-12T11:52:04Z</time>
      </trkpt>
      <trkpt lat="44.11741" lon="6.82781">
        <ele>1097.885</ele>
        <time>2011-06-12T11:52:09Z</time>
      </trkpt>
      <trkpt lat="44.11732" lon="6.82781">
        <ele>1096.792</ele>
        <time>2011-06-12T11:52:14Z</time>
      </trkpt>
      <trkpt lat="44.11725" lon="6.8278">
        <ele>1095.518</ele>
        <time>2011-06-12T11:52:16Z</time>
      </trkpt>
      <trkpt lat="44.11707" lon="6.82767">
        <ele>1090.371</ele>
        <time>2011-06-12T11:52:21Z</time>
      </trkpt>
      <trkpt lat="44.11703" lon="6.82763">
        <ele>1089.221</ele>
        <time>2011-06-12T11:52:22Z</time>
      </trkpt>
      <trkpt lat="44.11691" lon="6.82751">
        <ele>1085.357</ele>
        <time>2011-06-12T11:52:25Z</time>
      </trkpt>
      <trkpt lat="44.11669" lon="6.82741">
        <ele>1082.012</ele>
        <time>2011-06-12T11:52:29Z</time>
      </trkpt>
      <trkpt lat="44.11661" lon="6.8274">
        <ele>1081.521</ele>
        <time>2011-06-12T11:52:30Z</time>
      </trkpt>
      <trkpt lat="44.11643" lon="6.82734">
        <ele>1079.826</ele>
        <time>2011-06-12T11:52:34Z</time>
      </trkpt>
      <trkpt lat="44.11645" lon="6.82735">
        <ele>1080.415</ele>
        <time>2011-06-12T11:52:43Z</time>
      </trkpt>
      <trkpt lat="44.11647" lon="6.82737">
        <ele>1082.857</ele>
        <time>2011-06-12T11:53:33Z</time>
      </trkpt>
      <trkpt lat="44.11637" lon="6.82742">
        <ele>1081.419</ele>
        <time>2011-06-12T11:53:38Z</time>
      </trkpt>
      <trkpt lat="44.11627" lon="6.82741">
        <ele>1081.009</ele>
        <time>2011-06-12T11:53:40Z</time>
      </trkpt>
      <trkpt lat="44.11608" lon="6.82733">
        <ele>1080.02</ele>
        <time>2011-06-12T11:53:44Z</time>
      </trkpt>
      <trkpt lat="44.11599" lon="6.82714">
        <ele>1077.004</ele>
        <time>2011-06-12T11:53:48Z</time>
      </trkpt>
      <trkpt lat="44.11594" lon="6.82705">
        <ele>1075.195</ele>
        <time>2011-06-12T11:53:50Z</time>
      </trkpt>
      <trkpt lat="44.11561" lon="6.82681">
        <ele>1068.02</ele>
        <time>2011-06-12T11:53:56Z</time>
      </trkpt>
      <trkpt lat="44.11544" lon="6.82664">
        <ele>1065.403</ele>
        <time>2011-06-12T11:53:59Z</time>
      </trkpt>
      <trkpt lat="44.11538" lon="6.8266">
        <ele>1064.242</ele>
        <time>2011-06-12T11:54:00Z</time>
      </trkpt>
      <trkpt lat="44.1151" lon="6.82658">
        <ele>1059.957</ele>
        <time>2011-06-12T11:54:05Z</time>
      </trkpt>
      <trkpt lat="44.11493" lon="6.82663">
        <ele>1057.312</ele>
        <time>2011-06-12T11:54:08Z</time>
      </trkpt>
      <trkpt lat="44.11474" lon="6.82657">
        <ele>1055.124</ele>
        <time>2011-06-12T11:54:11Z</time>
      </trkpt>
      <trkpt lat="44.11469" lon="6.82652">
        <ele>1054.333</ele>
        <time>2011-06-12T11:54:12Z</time>
      </trkpt>
      <trkpt lat="44.11459" lon="6.8264">
        <ele>1052.321</ele>
        <time>2011-06-12T11:54:14Z</time>
      </trkpt>
      <trkpt lat="44.11426" lon="6.82617">
        <ele>1048.19</ele>
        <time>2011-06-12T11:54:19Z</time>
      </trkpt>
      <trkpt lat="44.11405" lon="6.82602">
        <ele>1045.303</ele>
        <time>2011-06-12T11:54:23Z</time>
      </trkpt>
      <trkpt lat="44.11382" lon="6.82572">
        <ele>1041.836</ele>
        <time>2011-06-12T11:54:28Z</time>
      </trkpt>
      <trkpt lat="44.11369" lon="6.82556">
        <ele>1040.849</ele>
        <time>2011-06-12T11:54:31Z</time>
      </trkpt>
      <trkpt lat="44.1135" lon="6.82542">
        <ele>1040.643</ele>
        <time>2011-06-12T11:54:36Z</time>
      </trkpt>
      <trkpt lat="44.11336" lon="6.8254">
        <ele>1040.794</ele>
        <time>2011-06-12T11:54:41Z</time>
      </trkpt>
      <trkpt lat="44.11323" lon="6.82532">
        <ele>1040.594</ele>
        <time>2011-06-12T11:54:47Z</time>
      </trkpt>
      <trkpt lat="44.11312" lon="6.82523">
        <ele>1041.055</ele>
        <time>2011-06-12T11:54:52Z</time>
      </trkpt>
      <trkpt lat="44.11307" lon="6.82501">
        <ele>1040.412</ele>
        <time>2011-06-12T11:54:59Z</time>
      </trkpt>
      <trkpt lat="44.11306" lon="6.82499">
        <ele>1040.262</ele>
        <time>2011-06-12T11:55:00Z</time>
      </trkpt>
      <trkpt lat="44.11301" lon="6.82505">
        <ele>1040.786</ele>
        <time>2011-06-12T11:55:04Z</time>
      </trkpt>
      <trkpt lat="44.113" lon="6.82507">
        <ele>1040.906</ele>
        <time>2011-06-12T11:55:05Z</time>
      </trkpt>
      <trkpt lat="44.11301" lon="6.82522">
        <ele>1041.236</ele>
        <time>2011-06-12T11:55:10Z</time>
      </trkpt>
      <trkpt lat="44.11299" lon="6.82534">
        <ele>1040.883</ele>
        <time>2011-06-12T11:55:16Z</time>
      </trkpt>
      <trkpt lat="44.11281" lon="6.82523">
        <ele>1040.773</ele>
        <time>2011-06-12T11:55:23Z</time>
      </trkpt>
      <trkpt lat="44.11264" lon="6.82518">
        <ele>1039.63</ele>
        <time>2011-06-12T11:55:29Z</time>
      </trkpt>
      <trkpt lat="44.11259" lon="6.82516">
        <ele>1038.778</ele>
        <time>2011-06-12T11:55:31Z</time>
      </trkpt>
      <trkpt lat="44.11253" lon="6.82505">
        <ele>1037.459</ele>
        <time>2011-06-12T11:55:35Z</time>
      </trkpt>
      <trkpt lat="44.11253" lon="6.82504">
        <ele>1036.641</ele>
        <time>2011-06-12T11:55:39Z</time>
      </trkpt>
      <trkpt lat="44.11251" lon="6.82497">
        <ele>1034.789</ele>
        <time>2011-06-12T11:55:47Z</time>
      </trkpt>
      <trkpt lat="44.1125" lon="6.82493">
        <ele>1033.216</ele>
        <time>2011-06-12T11:55:49Z</time>
      </trkpt>
      <trkpt lat="44.1124" lon="6.82489">
        <ele>1029.063</ele>
        <time>2011-06-12T11:55:54Z</time>
      </trkpt>
      <trkpt lat="44.11241" lon="6.82475">
        <ele>1026.063</ele>
        <time>2011-06-12T11:55:58Z</time>
      </trkpt>
      <trkpt lat="44.11238" lon="6.82466">
        <ele>1023.534</ele>
        <time>2011-06-12T11:56:02Z</time>
      </trkpt>
      <trkpt lat="44.11232" lon="6.82466">
        <ele>1021.615</ele>
        <time>2011-06-12T11:56:05Z</time>
      </trkpt>
      <trkpt lat="44.11222" lon="6.82465">
        <ele>1019.435</ele>
        <time>2011-06-12T11:56:08Z</time>
      </trkpt>
      <trkpt lat="44.1121" lon="6.8246">
        <ele>1016.67</ele>
        <time>2011-06-12T11:56:11Z</time>
      </trkpt>
      <trkpt lat="44.11194" lon="6.82451">
        <ele>1011.508</ele>
        <time>2011-06-12T11:56:16Z</time>
      </trkpt>
      <trkpt lat="44.11179" lon="6.82439">
        <ele>1007.5</ele>
        <time>2011-06-12T11:56:20Z</time>
      </trkpt>
      <trkpt lat="44.11162" lon="6.82421">
        <ele>1004.083</ele>
        <time>2011-06-12T11:56:25Z</time>
      </trkpt>
      <trkpt lat="44.11156" lon="6.82415">
        <ele>1003.164</ele>
        <time>2011-06-12T11:56:27Z</time>
      </trkpt>
      <trkpt lat="44.11145" lon="6.824">
        <ele>1001.447</ele>
        <time>2011-06-12T11:56:32Z</time>
      </trkpt>
      <trkpt lat="44.11151" lon="6.82391">
        <ele>999.115</ele>
        <time>2011-06-12T11:56:37Z</time>
      </trkpt>
      <trkpt lat="44.11153" lon="6.82384">
        <ele>997.382</ele>
        <time>2011-06-12T11:56:39Z</time>
      </trkpt>
      <trkpt lat="44.11165" lon="6.82376">
        <ele>994.971</ele>
        <time>2011-06-12T11:56:43Z</time>
      </trkpt>
      <trkpt lat="44.11169" lon="6.82368">
        <ele>991.617</ele>
        <time>2011-06-12T11:56:48Z</time>
      </trkpt>
      <trkpt lat="44.11159" lon="6.82357">
        <ele>989.556</ele>
        <time>2011-06-12T11:56:52Z</time>
      </trkpt>
      <trkpt lat="44.11152" lon="6.82348">
        <ele>987.675</ele>
        <time>2011-06-12T11:56:56Z</time>
      </trkpt>
      <trkpt lat="44.11157" lon="6.82341">
        <ele>985.405</ele>
        <time>2011-06-12T11:57:00Z</time>
      </trkpt>
      <trkpt lat="44.11168" lon="6.82336">
        <ele>983.986</ele>
        <time>2011-06-12T11:57:04Z</time>
      </trkpt>
      <trkpt lat="44.11164" lon="6.82324">
        <ele>980.844</ele>
        <time>2011-06-12T11:57:09Z</time>
      </trkpt>
      <trkpt lat="44.11156" lon="6.82318">
        <ele>980.045</ele>
        <time>2011-06-12T11:57:11Z</time>
      </trkpt>
      <trkpt lat="44.11148" lon="6.82311">
        <ele>978.476</ele>
        <time>2011-06-12T11:57:14Z</time>
      </trkpt>
      <trkpt lat="44.11154" lon="6.82305">
        <ele>977.308</ele>
        <time>2011-06-12T11:57:18Z</time>
      </trkpt>
      <trkpt lat="44.11171" lon="6.82297">
        <ele>974.203</ele>
        <time>2011-06-12T11:57:22Z</time>
      </trkpt>
      <trkpt lat="44.11191" lon="6.82288">
        <ele>971.455</ele>
        <time>2011-06-12T11:57:27Z</time>
      </trkpt>
      <trkpt lat="44.11212" lon="6.82272">
        <ele>967.142</ele>
        <time>2011-06-12T11:57:32Z</time>
      </trkpt>
      <trkpt lat="44.11212" lon="6.82263">
        <ele>963.283</ele>
        <time>2011-06-12T11:57:36Z</time>
      </trkpt>
      <trkpt lat="44.11206" lon="6.82259">
        <ele>962.193</ele>
        <time>2011-06-12T11:57:38Z</time>
      </trkpt>
      <trkpt lat="44.11188" lon="6.82257">
        <ele>959.505</ele>
        <time>2011-06-12T11:57:42Z</time>
      </trkpt>
      <trkpt lat="44.11171" lon="6.82253">
        <ele>957.586</ele>
        <time>2011-06-12T11:57:46Z</time>
      </trkpt>
      <trkpt lat="44.11152" lon="6.8225">
        <ele>954.234</ele>
        <time>2011-06-12T11:57:51Z</time>
      </trkpt>
      <trkpt lat="44.11146" lon="6.82249">
        <ele>952.633</ele>
        <time>2011-06-12T11:57:53Z</time>
      </trkpt>
      <trkpt lat="44.11148" lon="6.82241">
        <ele>951.114</ele>
        <time>2011-06-12T11:57:57Z</time>
      </trkpt>
      <trkpt lat="44.11154" lon="6.82236">
        <ele>951.278</ele>
        <time>2011-06-12T11:58:00Z</time>
      </trkpt>
      <trkpt lat="44.11159" lon="6.82231">
        <ele>951.5</ele>
        <time>2011-06-12T11:58:04Z</time>
      </trkpt>
      <trkpt lat="44.11155" lon="6.82225">
        <ele>950.569</ele>
        <time>2011-06-12T11:58:08Z</time>
      </trkpt>
      <trkpt lat="44.11142" lon="6.82222">
        <ele>948.466</ele>
        <time>2011-06-12T11:58:11Z</time>
      </trkpt>
      <trkpt lat="44.11139" lon="6.82218">
        <ele>946.845</ele>
        <time>2011-06-12T11:58:14Z</time>
      </trkpt>
      <trkpt lat="44.11145" lon="6.82205">
        <ele>944.394</ele>
        <time>2011-06-12T11:58:18Z</time>
      </trkpt>
      <trkpt lat="44.11142" lon="6.82197">
        <ele>942.516</ele>
        <time>2011-06-12T11:58:22Z</time>
      </trkpt>
      <trkpt lat="44.1114" lon="6.82198">
        <ele>942.262</ele>
        <time>2011-06-12T11:58:31Z</time>
      </trkpt>
      <trkpt lat="44.11136" lon="6.82197">
        <ele>938.329</ele>
        <time>2011-06-12T11:58:55Z</time>
      </trkpt>
      <trkpt lat="44.11135" lon="6.82194">
        <ele>937.728</ele>
        <time>2011-06-12T11:58:57Z</time>
      </trkpt>
      <trkpt lat="44.11136" lon="6.82191">
        <ele>937.158</ele>
        <time>2011-06-12T11:58:59Z</time>
      </trkpt>
      <trkpt lat="44.11132" lon="6.82185">
        <ele>935.015</ele>
        <time>2011-06-12T11:59:03Z</time>
      </trkpt>
      <trkpt lat="44.11128" lon="6.8218">
        <ele>934.257</ele>
        <time>2011-06-12T11:59:07Z</time>
      </trkpt>
      <trkpt lat="44.11135" lon="6.82167">
        <ele>932.335</ele>
        <time>2011-06-12T11:59:11Z</time>
      </trkpt>
      <trkpt lat="44.11158" lon="6.82142">
        <ele>928.193</ele>
        <time>2011-06-12T11:59:18Z</time>
      </trkpt>
      <trkpt lat="44.1116" lon="6.8214">
        <ele>927.624</ele>
        <time>2011-06-12T11:59:19Z</time>
      </trkpt>
      <trkpt lat="44.11163" lon="6.8213">
        <ele>925.884</ele>
        <time>2011-06-12T11:59:24Z</time>
      </trkpt>
      <trkpt lat="44.11161" lon="6.82126">
        <ele>924.883</ele>
        <time>2011-06-12T11:59:25Z</time>
      </trkpt>
      <trkpt lat="44.11155" lon="6.82113">
        <ele>920.83</ele>
        <time>2011-06-12T11:59:29Z</time>
      </trkpt>
      <trkpt lat="44.11151" lon="6.82112">
        <ele>917.065</ele>
        <time>2011-06-12T11:59:34Z</time>
      </trkpt>
      <trkpt lat="44.11143" lon="6.82112">
        <ele>915.075</ele>
        <time>2011-06-12T11:59:37Z</time>
      </trkpt>
      <trkpt lat="44.11131" lon="6.82115">
        <ele>912.817</ele>
        <time>2011-06-12T11:59:41Z</time>
      </trkpt>
      <trkpt lat="44.1113" lon="6.8211">
        <ele>910.184</ele>
        <time>2011-06-12T11:59:45Z</time>
      </trkpt>
      <trkpt lat="44.11131" lon="6.82107">
        <ele>910.045</ele>
        <time>2011-06-12T11:59:46Z</time>
      </trkpt>
      <trkpt lat="44.11145" lon="6.82094">
        <ele>907.423</ele>
        <time>2011-06-12T11:59:52Z</time>
      </trkpt>
      <trkpt lat="44.11156" lon="6.82087">
        <ele>904.553</ele>
        <time>2011-06-12T11:59:56Z</time>
      </trkpt>
      <trkpt lat="44.11156" lon="6.82079">
        <ele>902.043</ele>
        <time>2011-06-12T12:00:00Z</time>
      </trkpt>
      <trkpt lat="44.1115" lon="6.82066">
        <ele>900.333</ele>
        <time>2011-06-12T12:00:04Z</time>
      </trkpt>
      <trkpt lat="44.11147" lon="6.82065">
        <ele>899.955</ele>
        <time>2011-06-12T12:00:05Z</time>
      </trkpt>
      <trkpt lat="44.11142" lon="6.82063">
        <ele>898.225</ele>
        <time>2011-06-12T12:00:08Z</time>
      </trkpt>
      <trkpt lat="44.11136" lon="6.82067">
        <ele>897.139</ele>
        <time>2011-06-12T12:00:14Z</time>
      </trkpt>
      <trkpt lat="44.11134" lon="6.82065">
        <ele>900.102</ele>
        <time>2011-06-12T12:00:27Z</time>
      </trkpt>
      <trkpt lat="44.11138" lon="6.82063">
        <ele>899.444</ele>
        <time>2011-06-12T12:00:32Z</time>
      </trkpt>
      <trkpt lat="44.11144" lon="6.82065">
        <ele>900.778</ele>
        <time>2011-06-12T12:00:40Z</time>
      </trkpt>
      <trkpt lat="44.11145" lon="6.82065">
        <ele>901.816</ele>
        <time>2011-06-12T12:00:44Z</time>
      </trkpt>
      <trkpt lat="44.11156" lon="6.82062">
        <ele>898.578</ele>
        <time>2011-06-12T12:00:50Z</time>
      </trkpt>
      <trkpt lat="44.11165" lon="6.82065">
        <ele>895.666</ele>
        <time>2011-06-12T12:00:55Z</time>
      </trkpt>
      <trkpt lat="44.11168" lon="6.82063">
        <ele>895.608</ele>
        <time>2011-06-12T12:00:59Z</time>
      </trkpt>
      <trkpt lat="44.11167" lon="6.82052">
        <ele>894.159</ele>
        <time>2011-06-12T12:01:04Z</time>
      </trkpt>
      <trkpt lat="44.11164" lon="6.82044">
        <ele>892.809</ele>
        <time>2011-06-12T12:01:07Z</time>
      </trkpt>
      <trkpt lat="44.11158" lon="6.82043">
        <ele>892.942</ele>
        <time>2011-06-12T12:01:09Z</time>
      </trkpt>
      <trkpt lat="44.11143" lon="6.82037">
        <ele>890.518</ele>
        <time>2011-06-12T12:01:15Z</time>
      </trkpt>
      <trkpt lat="44.11128" lon="6.82038">
        <ele>887.664</ele>
        <time>2011-06-12T12:01:19Z</time>
      </trkpt>
      <trkpt lat="44.11095" lon="6.82049">
        <ele>883.615</ele>
        <time>2011-06-12T12:01:26Z</time>
      </trkpt>
      <trkpt lat="44.1108" lon="6.82056">
        <ele>881.474</ele>
        <time>2011-06-12T12:01:29Z</time>
      </trkpt>
      <trkpt lat="44.11068" lon="6.82065">
        <ele>877.419</ele>
        <time>2011-06-12T12:01:32Z</time>
      </trkpt>
      <trkpt lat="44.11054" lon="6.8206">
        <ele>872.312</ele>
        <time>2011-06-12T12:01:36Z</time>
      </trkpt>
      <trkpt lat="44.11038" lon="6.8205">
        <ele>870.087</ele>
        <time>2011-06-12T12:01:42Z</time>
      </trkpt>
      <trkpt lat="44.11037" lon="6.82049">
        <ele>869.859</ele>
        <time>2011-06-12T12:01:43Z</time>
      </trkpt>
      <trkpt lat="44.11025" lon="6.82053">
        <ele>869.271</ele>
        <time>2011-06-12T12:01:49Z</time>
      </trkpt>
      <trkpt lat="44.11018" lon="6.82058">
        <ele>869.403</ele>
        <time>2011-06-12T12:01:52Z</time>
      </trkpt>
      <trkpt lat="44.11005" lon="6.82074">
        <ele>872.807</ele>
        <time>2011-06-12T12:01:59Z</time>
      </trkpt>
      <trkpt lat="44.11001" lon="6.82082">
        <ele>876.249</ele>
        <time>2011-06-12T12:02:03Z</time>
      </trkpt>
      <trkpt lat="44.10992" lon="6.82088">
        <ele>881.04</ele>
        <time>2011-06-12T12:02:10Z</time>
      </trkpt>
      <trkpt lat="44.1098" lon="6.82099">
        <ele>886.901</ele>
        <time>2011-06-12T12:02:15Z</time>
      </trkpt>
      <trkpt lat="44.10976" lon="6.82107">
        <ele>889.972</ele>
        <time>2011-06-12T12:02:18Z</time>
      </trkpt>
      <trkpt lat="44.10976" lon="6.82109">
        <ele>891.251</ele>
        <time>2011-06-12T12:02:20Z</time>
      </trkpt>
      <trkpt lat="44.10977" lon="6.82125">
        <ele>890.318</ele>
        <time>2011-06-12T12:02:27Z</time>
      </trkpt>
      <trkpt lat="44.10978" lon="6.82139">
        <ele>887.832</ele>
        <time>2011-06-12T12:02:32Z</time>
      </trkpt>
      <trkpt lat="44.1098" lon="6.8215">
        <ele>887.013</ele>
        <time>2011-06-12T12:02:36Z</time>
      </trkpt>
      <trkpt lat="44.10976" lon="6.82175">
        <ele>882.822</ele>
        <time>2011-06-12T12:02:44Z</time>
      </trkpt>
      <trkpt lat="44.10967" lon="6.82189">
        <ele>879.991</ele>
        <time>2011-06-12T12:02:49Z</time>
      </trkpt>
      <trkpt lat="44.10958" lon="6.82191">
        <ele>882.207</ele>
        <time>2011-06-12T12:02:55Z</time>
      </trkpt>
      <trkpt lat="44.10962" lon="6.8219">
        <ele>883.842</ele>
        <time>2011-06-12T12:03:17Z</time>
      </trkpt>
      <trkpt lat="44.1096" lon="6.82188">
        <ele>887.238</ele>
        <time>2011-06-12T12:03:25Z</time>
      </trkpt>
      <trkpt lat="44.10959" lon="6.82187">
        <ele>890.315</ele>
        <time>2011-06-12T12:03:36Z</time>
      </trkpt>
      <trkpt lat="44.10964" lon="6.82186">
        <ele>890.609</ele>
        <time>2011-06-12T12:03:45Z</time>
      </trkpt>
      <trkpt lat="44.10967" lon="6.82181">
        <ele>888.646</ele>
        <time>2011-06-12T12:03:50Z</time>
      </trkpt>
      <trkpt lat="44.10967" lon="6.82176">
        <ele>889.005</ele>
        <time>2011-06-12T12:03:56Z</time>
      </trkpt>
      <trkpt lat="44.10965" lon="6.82173">
        <ele>889.097</ele>
        <time>2011-06-12T12:03:59Z</time>
      </trkpt>
      <trkpt lat="44.10961" lon="6.82169">
        <ele>887.408</ele>
        <time>2011-06-12T12:04:07Z</time>
      </trkpt>
      <trkpt lat="44.10958" lon="6.82166">
        <ele>887.935</ele>
        <time>2011-06-12T12:04:11Z</time>
      </trkpt>
      <trkpt lat="44.10953" lon="6.8216">
        <ele>889.725</ele>
        <time>2011-06-12T12:04:17Z</time>
      </trkpt>
      <trkpt lat="44.10945" lon="6.82155">
        <ele>891.096</ele>
        <time>2011-06-12T12:04:25Z</time>
      </trkpt>
      <trkpt lat="44.10942" lon="6.82152">
        <ele>893.314</ele>
        <time>2011-06-12T12:04:34Z</time>
      </trkpt>
      <trkpt lat="44.10938" lon="6.82144">
        <ele>900.489</ele>
        <time>2011-06-12T12:08:40Z</time>
      </trkpt>
      <trkpt lat="44.10936" lon="6.82142">
        <ele>900.353</ele>
        <time>2011-06-12T12:08:44Z</time>
      </trkpt>
      <trkpt lat="44.10935" lon="6.82141">
        <ele>900.964</ele>
        <time>2011-06-12T12:08:45Z</time>
      </trkpt>
      <trkpt lat="44.10932" lon="6.82142">
        <ele>902.497</ele>
        <time>2011-06-12T12:08:51Z</time>
      </trkpt>
      <trkpt lat="44.10929" lon="6.82143">
        <ele>903.154</ele>
        <time>2011-06-12T12:08:56Z</time>
      </trkpt>
      <trkpt lat="44.10926" lon="6.82144">
        <ele>902.902</ele>
        <time>2011-06-12T12:09:01Z</time>
      </trkpt>
      <trkpt lat="44.10922" lon="6.82142">
        <ele>902.573</ele>
        <time>2011-06-12T12:09:07Z</time>
      </trkpt>
      <trkpt lat="44.10922" lon="6.82142">
        <ele>902.523</ele>
        <time>2011-06-12T12:09:08Z</time>
      </trkpt>
      <trkpt lat="44.10913" lon="6.82143">
        <ele>902.412</ele>
        <time>2011-06-12T12:09:16Z</time>
      </trkpt>
      <trkpt lat="44.10911" lon="6.82139">
        <ele>905.605</ele>
        <time>2011-06-12T12:09:23Z</time>
      </trkpt>
      <trkpt lat="44.1091" lon="6.82135">
        <ele>907.926</ele>
        <time>2011-06-12T12:09:28Z</time>
      </trkpt>
      <trkpt lat="44.1091" lon="6.82133">
        <ele>908.094</ele>
        <time>2011-06-12T12:09:30Z</time>
      </trkpt>
      <trkpt lat="44.1091" lon="6.82122">
        <ele>908.652</ele>
        <time>2011-06-12T12:09:38Z</time>
      </trkpt>
      <trkpt lat="44.10907" lon="6.82108">
        <ele>911.643</ele>
        <time>2011-06-12T12:09:50Z</time>
      </trkpt>
      <trkpt lat="44.10906" lon="6.82104">
        <ele>913.275</ele>
        <time>2011-06-12T12:09:55Z</time>
      </trkpt>
      <trkpt lat="44.10905" lon="6.82106">
        <ele>914.012</ele>
        <time>2011-06-12T12:09:59Z</time>
      </trkpt>
      <trkpt lat="44.10904" lon="6.8211">
        <ele>916.214</ele>
        <time>2011-06-12T12:10:07Z</time>
      </trkpt>
      <trkpt lat="44.10903" lon="6.8211">
        <ele>919.463</ele>
        <time>2011-06-12T12:10:13Z</time>
      </trkpt>
      <trkpt lat="44.109" lon="6.82104">
        <ele>919.752</ele>
        <time>2011-06-12T12:10:27Z</time>
      </trkpt>
      <trkpt lat="44.10899" lon="6.82103">
        <ele>919.682</ele>
        <time>2011-06-12T12:10:32Z</time>
      </trkpt>
      <trkpt lat="44.10895" lon="6.82102">
        <ele>919.211</ele>
        <time>2011-06-12T12:10:40Z</time>
      </trkpt>
      <trkpt lat="44.10893" lon="6.82107">
        <ele>918.741</ele>
        <time>2011-06-12T12:10:47Z</time>
      </trkpt>
      <trkpt lat="44.10892" lon="6.82109">
        <ele>918.462</ele>
        <time>2011-06-12T12:10:49Z</time>
      </trkpt>
      <trkpt lat="44.10888" lon="6.82115">
        <ele>918.424</ele>
        <time>2011-06-12T12:10:58Z</time>
      </trkpt>
      <trkpt lat="44.10886" lon="6.82113">
        <ele>920.275</ele>
        <time>2011-06-12T12:11:03Z</time>
      </trkpt>
      <trkpt lat="44.10886" lon="6.8211">
        <ele>922.075</ele>
        <time>2011-06-12T12:11:07Z</time>
      </trkpt>
      <trkpt lat="44.10884" lon="6.82107">
        <ele>924.827</ele>
        <time>2011-06-12T12:11:12Z</time>
      </trkpt>
      <trkpt lat="44.10881" lon="6.82106">
        <ele>929.486</ele>
        <time>2011-06-12T12:11:18Z</time>
      </trkpt>
      <trkpt lat="44.10875" lon="6.82108">
        <ele>929.485</ele>
        <time>2011-06-12T12:11:25Z</time>
      </trkpt>
      <trkpt lat="44.1087" lon="6.8211">
        <ele>928.732</ele>
        <time>2011-06-12T12:11:32Z</time>
      </trkpt>
      <trkpt lat="44.10867" lon="6.82112">
        <ele>929.633</ele>
        <time>2011-06-12T12:11:38Z</time>
      </trkpt>
      <trkpt lat="44.10863" lon="6.82113">
        <ele>929.962</ele>
        <time>2011-06-12T12:11:44Z</time>
      </trkpt>
      <trkpt lat="44.10857" lon="6.82117">
        <ele>931.064</ele>
        <time>2011-06-12T12:11:52Z</time>
      </trkpt>
      <trkpt lat="44.10857" lon="6.82118">
        <ele>931.324</ele>
        <time>2011-06-12T12:11:53Z</time>
      </trkpt>
      <trkpt lat="44.10853" lon="6.82122">
        <ele>931.244</ele>
        <time>2011-06-12T12:12:00Z</time>
      </trkpt>
      <trkpt lat="44.10849" lon="6.82122">
        <ele>932.083</ele>
        <time>2011-06-12T12:12:06Z</time>
      </trkpt>
      <trkpt lat="44.10848" lon="6.82122">
        <ele>932.093</ele>
        <time>2011-06-12T12:12:07Z</time>
      </trkpt>
      <trkpt lat="44.1084" lon="6.82125">
        <ele>934.233</ele>
        <time>2011-06-12T12:12:15Z</time>
      </trkpt>
      <trkpt lat="44.10836" lon="6.82128">
        <ele>937.235</ele>
        <time>2011-06-12T12:12:20Z</time>
      </trkpt>
      <trkpt lat="44.10836" lon="6.8214">
        <ele>943.485</ele>
        <time>2011-06-12T12:12:28Z</time>
      </trkpt>
      <trkpt lat="44.10835" lon="6.8214">
        <ele>945.345</ele>
        <time>2011-06-12T12:12:34Z</time>
      </trkpt>
      <trkpt lat="44.10833" lon="6.82136">
        <ele>946.994</ele>
        <time>2011-06-12T12:12:40Z</time>
      </trkpt>
      <trkpt lat="44.10831" lon="6.82136">
        <ele>948.794</ele>
        <time>2011-06-12T12:12:46Z</time>
      </trkpt>
      <trkpt lat="44.10827" lon="6.82134">
        <ele>949.781</ele>
        <time>2011-06-12T12:12:52Z</time>
      </trkpt>
      <trkpt lat="44.10825" lon="6.82124">
        <ele>947.111</ele>
        <time>2011-06-12T12:13:01Z</time>
      </trkpt>
      <trkpt lat="44.10822" lon="6.82124">
        <ele>949.794</ele>
        <time>2011-06-12T12:13:07Z</time>
      </trkpt>
      <trkpt lat="44.1082" lon="6.82122">
        <ele>951.874</ele>
        <time>2011-06-12T12:13:14Z</time>
      </trkpt>
      <trkpt lat="44.10816" lon="6.82123">
        <ele>952.795</ele>
        <time>2011-06-12T12:13:19Z</time>
      </trkpt>
      <trkpt lat="44.10813" lon="6.82124">
        <ele>953.704</ele>
        <time>2011-06-12T12:13:23Z</time>
      </trkpt>
      <trkpt lat="44.10812" lon="6.82127">
        <ele>954.364</ele>
        <time>2011-06-12T12:13:26Z</time>
      </trkpt>
      <trkpt lat="44.10812" lon="6.82135">
        <ele>955.403</ele>
        <time>2011-06-12T12:13:32Z</time>
      </trkpt>
      <trkpt lat="44.10809" lon="6.82138">
        <ele>955.623</ele>
        <time>2011-06-12T12:13:38Z</time>
      </trkpt>
      <trkpt lat="44.10809" lon="6.82134">
        <ele>955.273</ele>
        <time>2011-06-12T12:13:43Z</time>
      </trkpt>
      <trkpt lat="44.10807" lon="6.82125">
        <ele>954.441</ele>
        <time>2011-06-12T12:13:51Z</time>
      </trkpt>
      <trkpt lat="44.10806" lon="6.82123">
        <ele>954.201</ele>
        <time>2011-06-12T12:13:53Z</time>
      </trkpt>
      <trkpt lat="44.10805" lon="6.82116">
        <ele>954.052</ele>
        <time>2011-06-12T12:13:59Z</time>
      </trkpt>
      <trkpt lat="44.10804" lon="6.82114">
        <ele>957.364</ele>
        <time>2011-06-12T12:14:04Z</time>
      </trkpt>
      <trkpt lat="44.10802" lon="6.8212">
        <ele>959.925</ele>
        <time>2011-06-12T12:14:10Z</time>
      </trkpt>
      <trkpt lat="44.10801" lon="6.82129">
        <ele>963.527</ele>
        <time>2011-06-12T12:14:17Z</time>
      </trkpt>
      <trkpt lat="44.10801" lon="6.82137">
        <ele>965.976</ele>
        <time>2011-06-12T12:14:25Z</time>
      </trkpt>
      <trkpt lat="44.10799" lon="6.82143">
        <ele>966.314</ele>
        <time>2011-06-12T12:14:32Z</time>
      </trkpt>
      <trkpt lat="44.10796" lon="6.82146">
        <ele>966.153</ele>
        <time>2011-06-12T12:14:38Z</time>
      </trkpt>
      <trkpt lat="44.10793" lon="6.82144">
        <ele>966.873</ele>
        <time>2011-06-12T12:14:43Z</time>
      </trkpt>
      <trkpt lat="44.1079" lon="6.82141">
        <ele>968.872</ele>
        <time>2011-06-12T12:14:50Z</time>
      </trkpt>
      <trkpt lat="44.10788" lon="6.82137">
        <ele>968.601</ele>
        <time>2011-06-12T12:14:54Z</time>
      </trkpt>
      <trkpt lat="44.10786" lon="6.8214">
        <ele>971.753</ele>
        <time>2011-06-12T12:15:00Z</time>
      </trkpt>
      <trkpt lat="44.10788" lon="6.82145">
        <ele>976.215</ele>
        <time>2011-06-12T12:15:06Z</time>
      </trkpt>
      <trkpt lat="44.10785" lon="6.82149">
        <ele>976.744</ele>
        <time>2011-06-12T12:15:13Z</time>
      </trkpt>
      <trkpt lat="44.10781" lon="6.82154">
        <ele>977.595</ele>
        <time>2011-06-12T12:15:22Z</time>
      </trkpt>
      <trkpt lat="44.10778" lon="6.82151">
        <ele>976.452</ele>
        <time>2011-06-12T12:15:31Z</time>
      </trkpt>
      <trkpt lat="44.10774" lon="6.82151">
        <ele>975.232</ele>
        <time>2011-06-12T12:15:38Z</time>
      </trkpt>
      <trkpt lat="44.10772" lon="6.82153">
        <ele>975.053</ele>
        <time>2011-06-12T12:15:41Z</time>
      </trkpt>
      <trkpt lat="44.10768" lon="6.82157">
        <ele>974.146</ele>
        <time>2011-06-12T12:15:48Z</time>
      </trkpt>
      <trkpt lat="44.10769" lon="6.82161">
        <ele>974.666</ele>
        <time>2011-06-12T12:15:53Z</time>
      </trkpt>
      <trkpt lat="44.10769" lon="6.82165">
        <ele>976.027</ele>
        <time>2011-06-12T12:15:59Z</time>
      </trkpt>
      <trkpt lat="44.10769" lon="6.8217">
        <ele>978.338</ele>
        <time>2011-06-12T12:16:06Z</time>
      </trkpt>
      <trkpt lat="44.1076" lon="6.82177">
        <ele>983.657</ele>
        <time>2011-06-12T12:16:21Z</time>
      </trkpt>
      <trkpt lat="44.10759" lon="6.82182">
        <ele>985.895</ele>
        <time>2011-06-12T12:16:30Z</time>
      </trkpt>
      <trkpt lat="44.10758" lon="6.8219">
        <ele>988.335</ele>
        <time>2011-06-12T12:16:39Z</time>
      </trkpt>
      <trkpt lat="44.10755" lon="6.82189">
        <ele>985.281</ele>
        <time>2011-06-12T12:16:50Z</time>
      </trkpt>
      <trkpt lat="44.1075" lon="6.82189">
        <ele>986.085</ele>
        <time>2011-06-12T12:16:57Z</time>
      </trkpt>
      <trkpt lat="44.1075" lon="6.82193">
        <ele>988.734</ele>
        <time>2011-06-12T12:17:02Z</time>
      </trkpt>
      <trkpt lat="44.10747" lon="6.82197">
        <ele>991.625</ele>
        <time>2011-06-12T12:17:09Z</time>
      </trkpt>
      <trkpt lat="44.10745" lon="6.82204">
        <ele>991.603</ele>
        <time>2011-06-12T12:17:16Z</time>
      </trkpt>
      <trkpt lat="44.10742" lon="6.82215">
        <ele>991.875</ele>
        <time>2011-06-12T12:17:33Z</time>
      </trkpt>
      <trkpt lat="44.10742" lon="6.82221">
        <ele>993.516</ele>
        <time>2011-06-12T12:17:39Z</time>
      </trkpt>
      <trkpt lat="44.10742" lon="6.82227">
        <ele>995.616</ele>
        <time>2011-06-12T12:17:44Z</time>
      </trkpt>
      <trkpt lat="44.10737" lon="6.82237">
        <ele>997.715</ele>
        <time>2011-06-12T12:17:54Z</time>
      </trkpt>
      <trkpt lat="44.10733" lon="6.82245">
        <ele>999.675</ele>
        <time>2011-06-12T12:18:04Z</time>
      </trkpt>
      <trkpt lat="44.10729" lon="6.82248">
        <ele>1000.314</ele>
        <time>2011-06-12T12:18:10Z</time>
      </trkpt>
      <trkpt lat="44.10726" lon="6.82249">
        <ele>1001.013</ele>
        <time>2011-06-12T12:18:17Z</time>
      </trkpt>
      <trkpt lat="44.10725" lon="6.82242">
        <ele>1001.683</ele>
        <time>2011-06-12T12:18:24Z</time>
      </trkpt>
      <trkpt lat="44.10724" lon="6.8224">
        <ele>1001.411</ele>
        <time>2011-06-12T12:18:26Z</time>
      </trkpt>
      <trkpt lat="44.10723" lon="6.82235">
        <ele>1001.031</ele>
        <time>2011-06-12T12:18:32Z</time>
      </trkpt>
      <trkpt lat="44.10726" lon="6.82232">
        <ele>1002.154</ele>
        <time>2011-06-12T12:18:35Z</time>
      </trkpt>
      <trkpt lat="44.10727" lon="6.82222">
        <ele>1003.562</ele>
        <time>2011-06-12T12:18:41Z</time>
      </trkpt>
      <trkpt lat="44.10722" lon="6.82218">
        <ele>1004.225</ele>
        <time>2011-06-12T12:18:46Z</time>
      </trkpt>
      <trkpt lat="44.10717" lon="6.82217">
        <ele>1005.875</ele>
        <time>2011-06-12T12:18:52Z</time>
      </trkpt>
      <trkpt lat="44.10711" lon="6.82215">
        <ele>1005.685</ele>
        <time>2011-06-12T12:19:00Z</time>
      </trkpt>
      <trkpt lat="44.10707" lon="6.82215">
        <ele>1006.595</ele>
        <time>2011-06-12T12:19:07Z</time>
      </trkpt>
      <trkpt lat="44.10704" lon="6.82216">
        <ele>1006.282</ele>
        <time>2011-06-12T12:19:14Z</time>
      </trkpt>
      <trkpt lat="44.10701" lon="6.82212">
        <ele>1004.943</ele>
        <time>2011-06-12T12:19:31Z</time>
      </trkpt>
      <trkpt lat="44.10701" lon="6.8221">
        <ele>1008.004</ele>
        <time>2011-06-12T12:19:39Z</time>
      </trkpt>
      <trkpt lat="44.10697" lon="6.8221">
        <ele>1007.715</ele>
        <time>2011-06-12T12:19:44Z</time>
      </trkpt>
      <trkpt lat="44.10694" lon="6.82207">
        <ele>1010.786</ele>
        <time>2011-06-12T12:19:51Z</time>
      </trkpt>
      <trkpt lat="44.10685" lon="6.82204">
        <ele>1011.404</ele>
        <time>2011-06-12T12:19:59Z</time>
      </trkpt>
      <trkpt lat="44.1068" lon="6.82204">
        <ele>1012.173</ele>
        <time>2011-06-12T12:20:04Z</time>
      </trkpt>
      <trkpt lat="44.10675" lon="6.82204">
        <ele>1012.342</ele>
        <time>2011-06-12T12:20:11Z</time>
      </trkpt>
      <trkpt lat="44.1067" lon="6.82201">
        <ele>1014.946</ele>
        <time>2011-06-12T12:20:19Z</time>
      </trkpt>
      <trkpt lat="44.10669" lon="6.82203">
        <ele>1016.455</ele>
        <time>2011-06-12T12:20:24Z</time>
      </trkpt>
      <trkpt lat="44.10661" lon="6.82201">
        <ele>1017.794</ele>
        <time>2011-06-12T12:20:32Z</time>
      </trkpt>
      <trkpt lat="44.10657" lon="6.82201">
        <ele>1019.344</ele>
        <time>2011-06-12T12:20:38Z</time>
      </trkpt>
      <trkpt lat="44.10655" lon="6.82199">
        <ele>1022.235</ele>
        <time>2011-06-12T12:20:44Z</time>
      </trkpt>
      <trkpt lat="44.10651" lon="6.82198">
        <ele>1024.485</ele>
        <time>2011-06-12T12:20:49Z</time>
      </trkpt>
      <trkpt lat="44.10648" lon="6.82196">
        <ele>1025.464</ele>
        <time>2011-06-12T12:20:54Z</time>
      </trkpt>
      <trkpt lat="44.10644" lon="6.82194">
        <ele>1025.753</ele>
        <time>2011-06-12T12:21:00Z</time>
      </trkpt>
      <trkpt lat="44.10639" lon="6.82192">
        <ele>1024.254</ele>
        <time>2011-06-12T12:21:06Z</time>
      </trkpt>
      <trkpt lat="44.10631" lon="6.82191">
        <ele>1024.733</ele>
        <time>2011-06-12T12:21:14Z</time>
      </trkpt>
      <trkpt lat="44.10624" lon="6.8219">
        <ele>1024.302</ele>
        <time>2011-06-12T12:21:21Z</time>
      </trkpt>
      <trkpt lat="44.10618" lon="6.82187">
        <ele>1024.124</ele>
        <time>2011-06-12T12:21:30Z</time>
      </trkpt>
      <trkpt lat="44.10617" lon="6.82186">
        <ele>1024.554</ele>
        <time>2011-06-12T12:21:32Z</time>
      </trkpt>
      <trkpt lat="44.10618" lon="6.82183">
        <ele>1029.877</ele>
        <time>2011-06-12T12:21:38Z</time>
      </trkpt>
      <trkpt lat="44.1062" lon="6.82182">
        <ele>1032.208</ele>
        <time>2011-06-12T12:21:41Z</time>
      </trkpt>
      <trkpt lat="44.10627" lon="6.82177">
        <ele>1036.669</ele>
        <time>2011-06-12T12:21:48Z</time>
      </trkpt>
      <trkpt lat="44.10627" lon="6.82176">
        <ele>1037.189</ele>
        <time>2011-06-12T12:21:49Z</time>
      </trkpt>
      <trkpt lat="44.10633" lon="6.82177">
        <ele>1043.9</ele>
        <time>2011-06-12T12:21:56Z</time>
      </trkpt>
      <trkpt lat="44.10633" lon="6.82176">
        <ele>1048.134</ele>
        <time>2011-06-12T12:22:11Z</time>
      </trkpt>
      <trkpt lat="44.10636" lon="6.82167">
        <ele>1049.677</ele>
        <time>2011-06-12T12:22:19Z</time>
      </trkpt>
      <trkpt lat="44.10639" lon="6.82159">
        <ele>1052.125</ele>
        <time>2011-06-12T12:22:29Z</time>
      </trkpt>
      <trkpt lat="44.1064" lon="6.82155">
        <ele>1053.156</ele>
        <time>2011-06-12T12:22:34Z</time>
      </trkpt>
      <trkpt lat="44.10641" lon="6.8215">
        <ele>1051.895</ele>
        <time>2011-06-12T12:22:39Z</time>
      </trkpt>
      <trkpt lat="44.10643" lon="6.82142">
        <ele>1049.503</ele>
        <time>2011-06-12T12:22:47Z</time>
      </trkpt>
      <trkpt lat="44.10646" lon="6.82135">
        <ele>1046.555</ele>
        <time>2011-06-12T12:22:56Z</time>
      </trkpt>
      <trkpt lat="44.10645" lon="6.82129">
        <ele>1046.343</ele>
        <time>2011-06-12T12:23:03Z</time>
      </trkpt>
      <trkpt lat="44.10644" lon="6.82123">
        <ele>1047.183</ele>
        <time>2011-06-12T12:23:10Z</time>
      </trkpt>
      <trkpt lat="44.10641" lon="6.82124">
        <ele>1047.034</ele>
        <time>2011-06-12T12:23:14Z</time>
      </trkpt>
      <trkpt lat="44.1064" lon="6.82127">
        <ele>1049.385</ele>
        <time>2011-06-12T12:23:22Z</time>
      </trkpt>
      <trkpt lat="44.10638" lon="6.82124">
        <ele>1051.044</ele>
        <time>2011-06-12T12:23:30Z</time>
      </trkpt>
      <trkpt lat="44.10635" lon="6.82125">
        <ele>1052.053</ele>
        <time>2011-06-12T12:23:38Z</time>
      </trkpt>
      <trkpt lat="44.1063" lon="6.82122">
        <ele>1051.362</ele>
        <time>2011-06-12T12:23:46Z</time>
      </trkpt>
      <trkpt lat="44.10626" lon="6.82124">
        <ele>1052.535</ele>
        <time>2011-06-12T12:23:53Z</time>
      </trkpt>
      <trkpt lat="44.10625" lon="6.82122">
        <ele>1054.194</ele>
        <time>2011-06-12T12:24:01Z</time>
      </trkpt>
      <trkpt lat="44.10622" lon="6.82119">
        <ele>1054.423</ele>
        <time>2011-06-12T12:24:07Z</time>
      </trkpt>
      <trkpt lat="44.10621" lon="6.82119">
        <ele>1056.622</ele>
        <time>2011-06-12T12:24:14Z</time>
      </trkpt>
      <trkpt lat="44.1062" lon="6.82115">
        <ele>1057.792</ele>
        <time>2011-06-12T12:24:21Z</time>
      </trkpt>
      <trkpt lat="44.10619" lon="6.82113">
        <ele>1058.923</ele>
        <time>2011-06-12T12:24:26Z</time>
      </trkpt>
      <trkpt lat="44.10615" lon="6.82112">
        <ele>1059.111</ele>
        <time>2011-06-12T12:24:32Z</time>
      </trkpt>
      <trkpt lat="44.10614" lon="6.82115">
        <ele>1059.791</ele>
        <time>2011-06-12T12:24:37Z</time>
      </trkpt>
      <trkpt lat="44.10612" lon="6.82119">
        <ele>1062.195</ele>
        <time>2011-06-12T12:24:43Z</time>
      </trkpt>
      <trkpt lat="44.10608" lon="6.82115">
        <ele>1064.033</ele>
        <time>2011-06-12T12:24:51Z</time>
      </trkpt>
      <trkpt lat="44.10607" lon="6.82114">
        <ele>1064.551</ele>
        <time>2011-06-12T12:24:53Z</time>
      </trkpt>
      <trkpt lat="44.10604" lon="6.82112">
        <ele>1066.352</ele>
        <time>2011-06-12T12:24:58Z</time>
      </trkpt>
      <trkpt lat="44.106" lon="6.82112">
        <ele>1067.502</ele>
        <time>2011-06-12T12:25:05Z</time>
      </trkpt>
      <trkpt lat="44.10598" lon="6.82114">
        <ele>1069.174</ele>
        <time>2011-06-12T12:25:09Z</time>
      </trkpt>
      <trkpt lat="44.10596" lon="6.82118">
        <ele>1070.904</ele>
        <time>2011-06-12T12:25:17Z</time>
      </trkpt>
      <trkpt lat="44.10592" lon="6.82117">
        <ele>1072.111</ele>
        <time>2011-06-12T12:25:25Z</time>
      </trkpt>
      <trkpt lat="44.10589" lon="6.82118">
        <ele>1072.512</ele>
        <time>2011-06-12T12:25:30Z</time>
      </trkpt>
      <trkpt lat="44.10587" lon="6.82122">
        <ele>1074.064</ele>
        <time>2011-06-12T12:25:38Z</time>
      </trkpt>
      <trkpt lat="44.10585" lon="6.82123">
        <ele>1075.505</ele>
        <time>2011-06-12T12:25:43Z</time>
      </trkpt>
      <trkpt lat="44.10582" lon="6.82127">
        <ele>1076.473</ele>
        <time>2011-06-12T12:25:51Z</time>
      </trkpt>
      <trkpt lat="44.10578" lon="6.82127">
        <ele>1075.782</ele>
        <time>2011-06-12T12:25:56Z</time>
      </trkpt>
      <trkpt lat="44.10576" lon="6.82126">
        <ele>1076.702</ele>
        <time>2011-06-12T12:26:01Z</time>
      </trkpt>
      <trkpt lat="44.10572" lon="6.82126">
        <ele>1078.893</ele>
        <time>2011-06-12T12:26:09Z</time>
      </trkpt>
      <trkpt lat="44.10568" lon="6.82127">
        <ele>1079.572</ele>
        <time>2011-06-12T12:26:16Z</time>
      </trkpt>
      <trkpt lat="44.10566" lon="6.82127">
        <ele>1082.083</ele>
        <time>2011-06-12T12:26:23Z</time>
      </trkpt>
      <trkpt lat="44.10562" lon="6.82123">
        <ele>1084.702</ele>
        <time>2011-06-12T12:26:30Z</time>
      </trkpt>
      <trkpt lat="44.1056" lon="6.8212">
        <ele>1087.304</ele>
        <time>2011-06-12T12:26:36Z</time>
      </trkpt>
      <trkpt lat="44.10556" lon="6.82121">
        <ele>1086.295</ele>
        <time>2011-06-12T12:26:43Z</time>
      </trkpt>
      <trkpt lat="44.10552" lon="6.82124">
        <ele>1085.132</ele>
        <time>2011-06-12T12:26:50Z</time>
      </trkpt>
      <trkpt lat="44.10549" lon="6.82129">
        <ele>1085.452</ele>
        <time>2011-06-12T12:26:58Z</time>
      </trkpt>
      <trkpt lat="44.10545" lon="6.82128">
        <ele>1086.101</ele>
        <time>2011-06-12T12:27:04Z</time>
      </trkpt>
      <trkpt lat="44.10543" lon="6.82128">
        <ele>1089.183</ele>
        <time>2011-06-12T12:27:09Z</time>
      </trkpt>
      <trkpt lat="44.10538" lon="6.82124">
        <ele>1090.991</ele>
        <time>2011-06-12T12:27:17Z</time>
      </trkpt>
      <trkpt lat="44.10534" lon="6.82123">
        <ele>1093.683</ele>
        <time>2011-06-12T12:27:25Z</time>
      </trkpt>
      <trkpt lat="44.10534" lon="6.82128">
        <ele>1095.082</ele>
        <time>2011-06-12T12:27:32Z</time>
      </trkpt>
      <trkpt lat="44.10531" lon="6.82129">
        <ele>1095.922</ele>
        <time>2011-06-12T12:27:38Z</time>
      </trkpt>
      <trkpt lat="44.10529" lon="6.82128">
        <ele>1096.461</ele>
        <time>2011-06-12T12:27:43Z</time>
      </trkpt>
      <trkpt lat="44.10527" lon="6.82131">
        <ele>1099.283</ele>
        <time>2011-06-12T12:27:48Z</time>
      </trkpt>
      <trkpt lat="44.10522" lon="6.82133">
        <ele>1098.342</ele>
        <time>2011-06-12T12:27:54Z</time>
      </trkpt>
      <trkpt lat="44.1052" lon="6.82131">
        <ele>1102.403</ele>
        <time>2011-06-12T12:28:00Z</time>
      </trkpt>
      <trkpt lat="44.10514" lon="6.8213">
        <ele>1102.82</ele>
        <time>2011-06-12T12:28:06Z</time>
      </trkpt>
      <trkpt lat="44.10512" lon="6.82133">
        <ele>1103.582</ele>
        <time>2011-06-12T12:28:10Z</time>
      </trkpt>
      <trkpt lat="44.1051" lon="6.82137">
        <ele>1104.822</ele>
        <time>2011-06-12T12:28:17Z</time>
      </trkpt>
      <trkpt lat="44.10504" lon="6.82133">
        <ele>1106.072</ele>
        <time>2011-06-12T12:28:35Z</time>
      </trkpt>
      <trkpt lat="44.105" lon="6.82134">
        <ele>1106.554</ele>
        <time>2011-06-12T12:28:41Z</time>
      </trkpt>
      <trkpt lat="44.10495" lon="6.82136">
        <ele>1106.214</ele>
        <time>2011-06-12T12:28:50Z</time>
      </trkpt>
      <trkpt lat="44.10493" lon="6.82135">
        <ele>1106.864</ele>
        <time>2011-06-12T12:28:56Z</time>
      </trkpt>
      <trkpt lat="44.10489" lon="6.82134">
        <ele>1108.325</ele>
        <time>2011-06-12T12:29:03Z</time>
      </trkpt>
      <trkpt lat="44.10488" lon="6.82136">
        <ele>1112.036</ele>
        <time>2011-06-12T12:29:09Z</time>
      </trkpt>
      <trkpt lat="44.10486" lon="6.82142">
        <ele>1111.003</ele>
        <time>2011-06-12T12:29:16Z</time>
      </trkpt>
      <trkpt lat="44.1048" lon="6.82147">
        <ele>1114.827</ele>
        <time>2011-06-12T12:29:33Z</time>
      </trkpt>
      <trkpt lat="44.10478" lon="6.82148">
        <ele>1115.484</ele>
        <time>2011-06-12T12:29:39Z</time>
      </trkpt>
      <trkpt lat="44.10474" lon="6.82149">
        <ele>1116.194</ele>
        <time>2011-06-12T12:29:45Z</time>
      </trkpt>
      <trkpt lat="44.10476" lon="6.82153">
        <ele>1117.244</ele>
        <time>2011-06-12T12:29:51Z</time>
      </trkpt>
      <trkpt lat="44.1047" lon="6.82156">
        <ele>1117.904</ele>
        <time>2011-06-12T12:29:57Z</time>
      </trkpt>
      <trkpt lat="44.10468" lon="6.82157">
        <ele>1120.405</ele>
        <time>2011-06-12T12:30:07Z</time>
      </trkpt>
      <trkpt lat="44.10467" lon="6.82159">
        <ele>1130.337</ele>
        <time>2011-06-12T12:31:07Z</time>
      </trkpt>
      <trkpt lat="44.10462" lon="6.82163">
        <ele>1127.057</ele>
        <time>2011-06-12T12:31:14Z</time>
      </trkpt>
      <trkpt lat="44.10455" lon="6.82162">
        <ele>1127.508</ele>
        <time>2011-06-12T12:31:20Z</time>
      </trkpt>
      <trkpt lat="44.1045" lon="6.82162">
        <ele>1127.919</ele>
        <time>2011-06-12T12:31:25Z</time>
      </trkpt>
      <trkpt lat="44.10446" lon="6.82161">
        <ele>1127.72</ele>
        <time>2011-06-12T12:31:31Z</time>
      </trkpt>
      <trkpt lat="44.10444" lon="6.82165">
        <ele>1128.951</ele>
        <time>2011-06-12T12:31:38Z</time>
      </trkpt>
      <trkpt lat="44.10439" lon="6.82167">
        <ele>1129.652</ele>
        <time>2011-06-12T12:31:47Z</time>
      </trkpt>
      <trkpt lat="44.10439" lon="6.82172">
        <ele>1131.392</ele>
        <time>2011-06-12T12:31:53Z</time>
      </trkpt>
      <trkpt lat="44.10437" lon="6.82174">
        <ele>1131.041</ele>
        <time>2011-06-12T12:31:59Z</time>
      </trkpt>
      <trkpt lat="44.10435" lon="6.82173">
        <ele>1131.851</ele>
        <time>2011-06-12T12:32:05Z</time>
      </trkpt>
      <trkpt lat="44.10432" lon="6.82175">
        <ele>1131.502</ele>
        <time>2011-06-12T12:32:11Z</time>
      </trkpt>
      <trkpt lat="44.10432" lon="6.82181">
        <ele>1134.154</ele>
        <time>2011-06-12T12:32:19Z</time>
      </trkpt>
      <trkpt lat="44.10428" lon="6.82178">
        <ele>1136.234</ele>
        <time>2011-06-12T12:32:24Z</time>
      </trkpt>
      <trkpt lat="44.10426" lon="6.82176">
        <ele>1137.243</ele>
        <time>2011-06-12T12:32:28Z</time>
      </trkpt>
      <trkpt lat="44.10425" lon="6.82178">
        <ele>1137.053</ele>
        <time>2011-06-12T12:32:32Z</time>
      </trkpt>
      <trkpt lat="44.10423" lon="6.82184">
        <ele>1137.032</ele>
        <time>2011-06-12T12:32:40Z</time>
      </trkpt>
      <trkpt lat="44.10421" lon="6.82182">
        <ele>1138.662</ele>
        <time>2011-06-12T12:32:46Z</time>
      </trkpt>
      <trkpt lat="44.10419" lon="6.8218">
        <ele>1140.632</ele>
        <time>2011-06-12T12:32:52Z</time>
      </trkpt>
      <trkpt lat="44.10417" lon="6.8218">
        <ele>1142.132</ele>
        <time>2011-06-12T12:32:57Z</time>
      </trkpt>
      <trkpt lat="44.10415" lon="6.82182">
        <ele>1144.253</ele>
        <time>2011-06-12T12:33:04Z</time>
      </trkpt>
      <trkpt lat="44.10412" lon="6.8218">
        <ele>1144.633</ele>
        <time>2011-06-12T12:33:13Z</time>
      </trkpt>
      <trkpt lat="44.1041" lon="6.82178">
        <ele>1144.772</ele>
        <time>2011-06-12T12:33:16Z</time>
      </trkpt>
      <trkpt lat="44.10407" lon="6.82182">
        <ele>1143.89</ele>
        <time>2011-06-12T12:33:22Z</time>
      </trkpt>
      <trkpt lat="44.10404" lon="6.82185">
        <ele>1143.382</ele>
        <time>2011-06-12T12:33:30Z</time>
      </trkpt>
      <trkpt lat="44.104" lon="6.82183">
        <ele>1144.573</ele>
        <time>2011-06-12T12:33:36Z</time>
      </trkpt>
      <trkpt lat="44.10398" lon="6.82186">
        <ele>1147.674</ele>
        <time>2011-06-12T12:33:44Z</time>
      </trkpt>
      <trkpt lat="44.10394" lon="6.82186">
        <ele>1148.873</ele>
        <time>2011-06-12T12:33:50Z</time>
      </trkpt>
      <trkpt lat="44.10391" lon="6.82185">
        <ele>1150.553</ele>
        <time>2011-06-12T12:33:57Z</time>
      </trkpt>
      <trkpt lat="44.10389" lon="6.82185">
        <ele>1151.633</ele>
        <time>2011-06-12T12:34:02Z</time>
      </trkpt>
      <trkpt lat="44.10386" lon="6.82186">
        <ele>1152.833</ele>
        <time>2011-06-12T12:34:08Z</time>
      </trkpt>
      <trkpt lat="44.10384" lon="6.82186">
        <ele>1154.321</ele>
        <time>2011-06-12T12:34:14Z</time>
      </trkpt>
      <trkpt lat="44.10381" lon="6.8219">
        <ele>1156.393</ele>
        <time>2011-06-12T12:34:21Z</time>
      </trkpt>
      <trkpt lat="44.10379" lon="6.82188">
        <ele>1160.363</ele>
        <time>2011-06-12T12:34:30Z</time>
      </trkpt>
      <trkpt lat="44.10376" lon="6.82192">
        <ele>1161.183</ele>
        <time>2011-06-12T12:34:37Z</time>
      </trkpt>
      <trkpt lat="44.10372" lon="6.82189">
        <ele>1161.252</ele>
        <time>2011-06-12T12:34:46Z</time>
      </trkpt>
      <trkpt lat="44.10372" lon="6.82189">
        <ele>1161.452</ele>
        <time>2011-06-12T12:34:47Z</time>
      </trkpt>
      <trkpt lat="44.10371" lon="6.82188">
        <ele>1163.013</ele>
        <time>2011-06-12T12:34:51Z</time>
      </trkpt>
      <trkpt lat="44.10368" lon="6.82193">
        <ele>1163.011</ele>
        <time>2011-06-12T12:34:58Z</time>
      </trkpt>
      <trkpt lat="44.10364" lon="6.82193">
        <ele>1161.851</ele>
        <time>2011-06-12T12:35:05Z</time>
      </trkpt>
      <trkpt lat="44.1036" lon="6.82186">
        <ele>1162.613</ele>
        <time>2011-06-12T12:35:13Z</time>
      </trkpt>
      <trkpt lat="44.10358" lon="6.82188">
        <ele>1168.646</ele>
        <time>2011-06-12T12:35:23Z</time>
      </trkpt>
      <trkpt lat="44.10356" lon="6.82192">
        <ele>1169.164</ele>
        <time>2011-06-12T12:35:29Z</time>
      </trkpt>
      <trkpt lat="44.1035" lon="6.82191">
        <ele>1171.923</ele>
        <time>2011-06-12T12:35:37Z</time>
      </trkpt>
      <trkpt lat="44.10349" lon="6.82191">
        <ele>1170.442</ele>
        <time>2011-06-12T12:35:38Z</time>
      </trkpt>
      <trkpt lat="44.10344" lon="6.8219">
        <ele>1170.644</ele>
        <time>2011-06-12T12:35:44Z</time>
      </trkpt>
      <trkpt lat="44.10342" lon="6.82189">
        <ele>1172.835</ele>
        <time>2011-06-12T12:35:47Z</time>
      </trkpt>
      <trkpt lat="44.1034" lon="6.8219">
        <ele>1173.153</ele>
        <time>2011-06-12T12:35:53Z</time>
      </trkpt>
      <trkpt lat="44.10336" lon="6.82196">
        <ele>1180.533</ele>
        <time>2011-06-12T12:39:18Z</time>
      </trkpt>
      <trkpt lat="44.10334" lon="6.82201">
        <ele>1180.561</ele>
        <time>2011-06-12T12:39:26Z</time>
      </trkpt>
      <trkpt lat="44.10335" lon="6.82208">
        <ele>1182.293</ele>
        <time>2011-06-12T12:39:33Z</time>
      </trkpt>
      <trkpt lat="44.10335" lon="6.8221">
        <ele>1182.043</ele>
        <time>2011-06-12T12:39:34Z</time>
      </trkpt>
      <trkpt lat="44.10335" lon="6.82215">
        <ele>1183.113</ele>
        <time>2011-06-12T12:39:41Z</time>
      </trkpt>
      <trkpt lat="44.10333" lon="6.82223">
        <ele>1181.831</ele>
        <time>2011-06-12T12:39:48Z</time>
      </trkpt>
      <trkpt lat="44.1033" lon="6.82228">
        <ele>1183.894</ele>
        <time>2011-06-12T12:39:54Z</time>
      </trkpt>
      <trkpt lat="44.10327" lon="6.82233">
        <ele>1187.456</ele>
        <time>2011-06-12T12:40:01Z</time>
      </trkpt>
      <trkpt lat="44.10324" lon="6.82239">
        <ele>1186.253</ele>
        <time>2011-06-12T12:40:05Z</time>
      </trkpt>
      <trkpt lat="44.10316" lon="6.82246">
        <ele>1188.084</ele>
        <time>2011-06-12T12:40:14Z</time>
      </trkpt>
      <trkpt lat="44.10313" lon="6.82252">
        <ele>1190.365</ele>
        <time>2011-06-12T12:40:19Z</time>
      </trkpt>
      <trkpt lat="44.10315" lon="6.82258">
        <ele>1192.117</ele>
        <time>2011-06-12T12:40:23Z</time>
      </trkpt>
      <trkpt lat="44.10312" lon="6.82262">
        <ele>1191.803</ele>
        <time>2011-06-12T12:40:28Z</time>
      </trkpt>
      <trkpt lat="44.10306" lon="6.8227">
        <ele>1190.611</ele>
        <time>2011-06-12T12:40:37Z</time>
      </trkpt>
      <trkpt lat="44.10305" lon="6.82277">
        <ele>1190.173</ele>
        <time>2011-06-12T12:40:44Z</time>
      </trkpt>
      <trkpt lat="44.10303" lon="6.82284">
        <ele>1186.14</ele>
        <time>2011-06-12T12:40:49Z</time>
      </trkpt>
      <trkpt lat="44.10302" lon="6.82285">
        <ele>1185.179</ele>
        <time>2011-06-12T12:40:50Z</time>
      </trkpt>
      <trkpt lat="44.10303" lon="6.82292">
        <ele>1186.823</ele>
        <time>2011-06-12T12:40:55Z</time>
      </trkpt>
      <trkpt lat="44.10297" lon="6.82296">
        <ele>1186.88</ele>
        <time>2011-06-12T12:41:00Z</time>
      </trkpt>
      <trkpt lat="44.10286" lon="6.82299">
        <ele>1183.17</ele>
        <time>2011-06-12T12:41:09Z</time>
      </trkpt>
      <trkpt lat="44.10284" lon="6.823">
        <ele>1183.441</ele>
        <time>2011-06-12T12:41:11Z</time>
      </trkpt>
      <trkpt lat="44.10282" lon="6.82301">
        <ele>1186.194</ele>
        <time>2011-06-12T12:41:16Z</time>
      </trkpt>
      <trkpt lat="44.1028" lon="6.823">
        <ele>1188.144</ele>
        <time>2011-06-12T12:41:22Z</time>
      </trkpt>
      <trkpt lat="44.1028" lon="6.82299">
        <ele>1189.564</ele>
        <time>2011-06-12T12:41:27Z</time>
      </trkpt>
      <trkpt lat="44.10278" lon="6.82294">
        <ele>1192.278</ele>
        <time>2011-06-12T12:41:32Z</time>
      </trkpt>
      <trkpt lat="44.10274" lon="6.8229">
        <ele>1192.906</ele>
        <time>2011-06-12T12:41:35Z</time>
      </trkpt>
      <trkpt lat="44.10265" lon="6.82288">
        <ele>1196.548</ele>
        <time>2011-06-12T12:41:43Z</time>
      </trkpt>
      <trkpt lat="44.10253" lon="6.82286">
        <ele>1193.633</ele>
        <time>2011-06-12T12:41:51Z</time>
      </trkpt>
      <trkpt lat="44.10246" lon="6.82286">
        <ele>1192.565</ele>
        <time>2011-06-12T12:41:57Z</time>
      </trkpt>
      <trkpt lat="44.10237" lon="6.82286">
        <ele>1191.743</ele>
        <time>2011-06-12T12:42:02Z</time>
      </trkpt>
      <trkpt lat="44.10224" lon="6.82288">
        <ele>1188.15</ele>
        <time>2011-06-12T12:42:09Z</time>
      </trkpt>
      <trkpt lat="44.10215" lon="6.82288">
        <ele>1186.839</ele>
        <time>2011-06-12T12:42:14Z</time>
      </trkpt>
      <trkpt lat="44.10206" lon="6.82289">
        <ele>1187.533</ele>
        <time>2011-06-12T12:42:19Z</time>
      </trkpt>
      <trkpt lat="44.10193" lon="6.82297">
        <ele>1186.781</ele>
        <time>2011-06-12T12:42:25Z</time>
      </trkpt>
      <trkpt lat="44.10183" lon="6.82305">
        <ele>1187.492</ele>
        <time>2011-06-12T12:42:31Z</time>
      </trkpt>
      <trkpt lat="44.10171" lon="6.82314">
        <ele>1186.131</ele>
        <time>2011-06-12T12:42:37Z</time>
      </trkpt>
      <trkpt lat="44.10158" lon="6.8232">
        <ele>1184.86</ele>
        <time>2011-06-12T12:42:42Z</time>
      </trkpt>
      <trkpt lat="44.10152" lon="6.82326">
        <ele>1184.109</ele>
        <time>2011-06-12T12:42:44Z</time>
      </trkpt>
      <trkpt lat="44.10146" lon="6.82339">
        <ele>1183.219</ele>
        <time>2011-06-12T12:42:46Z</time>
      </trkpt>
      <trkpt lat="44.10133" lon="6.82367">
        <ele>1183.621</ele>
        <time>2011-06-12T12:42:51Z</time>
      </trkpt>
      <trkpt lat="44.10131" lon="6.82376">
        <ele>1184.752</ele>
        <time>2011-06-12T12:42:55Z</time>
      </trkpt>
      <trkpt lat="44.1013" lon="6.82388">
        <ele>1187.383</ele>
        <time>2011-06-12T12:43:01Z</time>
      </trkpt>
      <trkpt lat="44.10131" lon="6.82397">
        <ele>1188.183</ele>
        <time>2011-06-12T12:43:06Z</time>
      </trkpt>
      <trkpt lat="44.10141" lon="6.82414">
        <ele>1189.712</ele>
        <time>2011-06-12T12:43:13Z</time>
      </trkpt>
      <trkpt lat="44.10145" lon="6.82432">
        <ele>1188.722</ele>
        <time>2011-06-12T12:43:20Z</time>
      </trkpt>
      <trkpt lat="44.10145" lon="6.82449">
        <ele>1188.651</ele>
        <time>2011-06-12T12:43:27Z</time>
      </trkpt>
      <trkpt lat="44.10142" lon="6.82467">
        <ele>1187.769</ele>
        <time>2011-06-12T12:43:34Z</time>
      </trkpt>
      <trkpt lat="44.10138" lon="6.82484">
        <ele>1188.29</ele>
        <time>2011-06-12T12:43:41Z</time>
      </trkpt>
      <trkpt lat="44.10134" lon="6.82499">
        <ele>1189.321</ele>
        <time>2011-06-12T12:43:48Z</time>
      </trkpt>
      <trkpt lat="44.10132" lon="6.82514">
        <ele>1190.302</ele>
        <time>2011-06-12T12:43:55Z</time>
      </trkpt>
      <trkpt lat="44.10128" lon="6.82524">
        <ele>1193.666</ele>
        <time>2011-06-12T12:44:02Z</time>
      </trkpt>
      <trkpt lat="44.10123" lon="6.82532">
        <ele>1197.436</ele>
        <time>2011-06-12T12:44:10Z</time>
      </trkpt>
      <trkpt lat="44.10122" lon="6.82537">
        <ele>1201.109</ele>
        <time>2011-06-12T12:44:14Z</time>
      </trkpt>
      <trkpt lat="44.10118" lon="6.82542">
        <ele>1202.248</ele>
        <time>2011-06-12T12:44:18Z</time>
      </trkpt>
      <trkpt lat="44.10111" lon="6.82549">
        <ele>1200.494</ele>
        <time>2011-06-12T12:44:25Z</time>
      </trkpt>
      <trkpt lat="44.10105" lon="6.82556">
        <ele>1198.811</ele>
        <time>2011-06-12T12:44:30Z</time>
      </trkpt>
      <trkpt lat="44.10101" lon="6.82562">
        <ele>1200.712</ele>
        <time>2011-06-12T12:44:34Z</time>
      </trkpt>
      <trkpt lat="44.10093" lon="6.82569">
        <ele>1200.711</ele>
        <time>2011-06-12T12:44:41Z</time>
      </trkpt>
      <trkpt lat="44.10086" lon="6.82576">
        <ele>1201.451</ele>
        <time>2011-06-12T12:44:48Z</time>
      </trkpt>
      <trkpt lat="44.10076" lon="6.82584">
        <ele>1200.579</ele>
        <time>2011-06-12T12:44:56Z</time>
      </trkpt>
      <trkpt lat="44.10072" lon="6.82592">
        <ele>1204.874</ele>
        <time>2011-06-12T12:45:02Z</time>
      </trkpt>
      <trkpt lat="44.1007" lon="6.82594">
        <ele>1206.143</ele>
        <time>2011-06-12T12:45:04Z</time>
      </trkpt>
      <trkpt lat="44.10065" lon="6.82599">
        <ele>1207.433</ele>
        <time>2011-06-12T12:45:09Z</time>
      </trkpt>
      <trkpt lat="44.10056" lon="6.82606">
        <ele>1207.392</ele>
        <time>2011-06-12T12:45:17Z</time>
      </trkpt>
      <trkpt lat="44.10045" lon="6.82611">
        <ele>1207.332</ele>
        <time>2011-06-12T12:45:24Z</time>
      </trkpt>
      <trkpt lat="44.10038" lon="6.82614">
        <ele>1206.282</ele>
        <time>2011-06-12T12:45:29Z</time>
      </trkpt>
      <trkpt lat="44.10027" lon="6.82618">
        <ele>1209.385</ele>
        <time>2011-06-12T12:45:36Z</time>
      </trkpt>
      <trkpt lat="44.10016" lon="6.82616">
        <ele>1211.767</ele>
        <time>2011-06-12T12:45:43Z</time>
      </trkpt>
      <trkpt lat="44.10002" lon="6.82614">
        <ele>1211.913</ele>
        <time>2011-06-12T12:45:51Z</time>
      </trkpt>
      <trkpt lat="44.09989" lon="6.82614">
        <ele>1210.532</ele>
        <time>2011-06-12T12:45:58Z</time>
      </trkpt>
      <trkpt lat="44.09978" lon="6.82615">
        <ele>1215.086</ele>
        <time>2011-06-12T12:46:05Z</time>
      </trkpt>
      <trkpt lat="44.09962" lon="6.82616">
        <ele>1211.701</ele>
        <time>2011-06-12T12:46:12Z</time>
      </trkpt>
      <trkpt lat="44.09951" lon="6.82618">
        <ele>1211.22</ele>
        <time>2011-06-12T12:46:18Z</time>
      </trkpt>
      <trkpt lat="44.09939" lon="6.82621">
        <ele>1212.282</ele>
        <time>2011-06-12T12:46:26Z</time>
      </trkpt>
      <trkpt lat="44.09927" lon="6.82624">
        <ele>1214.854</ele>
        <time>2011-06-12T12:46:33Z</time>
      </trkpt>
      <trkpt lat="44.09916" lon="6.82625">
        <ele>1219.368</ele>
        <time>2011-06-12T12:46:39Z</time>
      </trkpt>
      <trkpt lat="44.099" lon="6.82623">
        <ele>1219.956</ele>
        <time>2011-06-12T12:46:44Z</time>
      </trkpt>
      <trkpt lat="44.09884" lon="6.8263">
        <ele>1218.11</ele>
        <time>2011-06-12T12:46:49Z</time>
      </trkpt>
      <trkpt lat="44.09872" lon="6.8264">
        <ele>1216.478</ele>
        <time>2011-06-12T12:46:55Z</time>
      </trkpt>
      <trkpt lat="44.09867" lon="6.82652">
        <ele>1217.469</ele>
        <time>2011-06-12T12:47:01Z</time>
      </trkpt>
      <trkpt lat="44.0986" lon="6.82664">
        <ele>1220.55</ele>
        <time>2011-06-12T12:47:08Z</time>
      </trkpt>
      <trkpt lat="44.0985" lon="6.8267">
        <ele>1222.261</ele>
        <time>2011-06-12T12:47:15Z</time>
      </trkpt>
      <trkpt lat="44.09835" lon="6.82679">
        <ele>1217.597</ele>
        <time>2011-06-12T12:47:24Z</time>
      </trkpt>
      <trkpt lat="44.09822" lon="6.82684">
        <ele>1215.756</ele>
        <time>2011-06-12T12:47:30Z</time>
      </trkpt>
      <trkpt lat="44.09808" lon="6.82692">
        <ele>1213.844</ele>
        <time>2011-06-12T12:47:35Z</time>
      </trkpt>
      <trkpt lat="44.09798" lon="6.82694">
        <ele>1214.207</ele>
        <time>2011-06-12T12:47:38Z</time>
      </trkpt>
      <trkpt lat="44.09783" lon="6.82684">
        <ele>1218.181</ele>
        <time>2011-06-12T12:47:43Z</time>
      </trkpt>
      <trkpt lat="44.09778" lon="6.82689">
        <ele>1219.632</ele>
        <time>2011-06-12T12:47:46Z</time>
      </trkpt>
      <trkpt lat="44.09779" lon="6.827">
        <ele>1227.66</ele>
        <time>2011-06-12T12:47:51Z</time>
      </trkpt>
      <trkpt lat="44.09778" lon="6.82702">
        <ele>1228.756</ele>
        <time>2011-06-12T12:47:56Z</time>
      </trkpt>
      <trkpt lat="44.09776" lon="6.82708">
        <ele>1231.327</ele>
        <time>2011-06-12T12:48:07Z</time>
      </trkpt>
      <trkpt lat="44.09774" lon="6.82712">
        <ele>1234.227</ele>
        <time>2011-06-12T12:48:12Z</time>
      </trkpt>
      <trkpt lat="44.09773" lon="6.82719">
        <ele>1241.322</ele>
        <time>2011-06-12T12:48:19Z</time>
      </trkpt>
      <trkpt lat="44.0977" lon="6.82724">
        <ele>1240.507</ele>
        <time>2011-06-12T12:48:24Z</time>
      </trkpt>
      <trkpt lat="44.09769" lon="6.82727">
        <ele>1239.193</ele>
        <time>2011-06-12T12:48:28Z</time>
      </trkpt>
      <trkpt lat="44.09767" lon="6.82739">
        <ele>1236.802</ele>
        <time>2011-06-12T12:48:39Z</time>
      </trkpt>
      <trkpt lat="44.09766" lon="6.82744">
        <ele>1237.744</ele>
        <time>2011-06-12T12:48:44Z</time>
      </trkpt>
      <trkpt lat="44.09763" lon="6.82747">
        <ele>1233.77</ele>
        <time>2011-06-12T12:48:50Z</time>
      </trkpt>
      <trkpt lat="44.09762" lon="6.82751">
        <ele>1231.962</ele>
        <time>2011-06-12T12:48:58Z</time>
      </trkpt>
      <trkpt lat="44.09758" lon="6.82757">
        <ele>1234.125</ele>
        <time>2011-06-12T12:49:04Z</time>
      </trkpt>
      <trkpt lat="44.09749" lon="6.82765">
        <ele>1232.782</ele>
        <time>2011-06-12T12:49:11Z</time>
      </trkpt>
      <trkpt lat="44.09746" lon="6.82769">
        <ele>1234.424</ele>
        <time>2011-06-12T12:49:15Z</time>
      </trkpt>
      <trkpt lat="44.09741" lon="6.82775">
        <ele>1238.528</ele>
        <time>2011-06-12T12:49:22Z</time>
      </trkpt>
      <trkpt lat="44.0974" lon="6.82776">
        <ele>1238.918</ele>
        <time>2011-06-12T12:49:23Z</time>
      </trkpt>
      <trkpt lat="44.09726" lon="6.82781">
        <ele>1235.202</ele>
        <time>2011-06-12T12:49:31Z</time>
      </trkpt>
      <trkpt lat="44.09717" lon="6.82787">
        <ele>1234.021</ele>
        <time>2011-06-12T12:49:37Z</time>
      </trkpt>
      <trkpt lat="44.09707" lon="6.82794">
        <ele>1233.799</ele>
        <time>2011-06-12T12:49:43Z</time>
      </trkpt>
      <trkpt lat="44.09697" lon="6.82803">
        <ele>1233.838</ele>
        <time>2011-06-12T12:49:50Z</time>
      </trkpt>
      <trkpt lat="44.09687" lon="6.82812">
        <ele>1233.517</ele>
        <time>2011-06-12T12:49:57Z</time>
      </trkpt>
      <trkpt lat="44.09681" lon="6.82818">
        <ele>1236.812</ele>
        <time>2011-06-12T12:50:02Z</time>
      </trkpt>
      <trkpt lat="44.09678" lon="6.82822">
        <ele>1239.214</ele>
        <time>2011-06-12T12:50:05Z</time>
      </trkpt>
      <trkpt lat="44.09675" lon="6.82831">
        <ele>1243.954</ele>
        <time>2011-06-12T12:50:11Z</time>
      </trkpt>
      <trkpt lat="44.09671" lon="6.8284">
        <ele>1244.983</ele>
        <time>2011-06-12T12:50:16Z</time>
      </trkpt>
      <trkpt lat="44.09665" lon="6.82852">
        <ele>1247.392</ele>
        <time>2011-06-12T12:50:23Z</time>
      </trkpt>
      <trkpt lat="44.09663" lon="6.82855">
        <ele>1250.564</ele>
        <time>2011-06-12T12:50:26Z</time>
      </trkpt>
      <trkpt lat="44.09659" lon="6.82858">
        <ele>1253.084</ele>
        <time>2011-06-12T12:50:30Z</time>
      </trkpt>
      <trkpt lat="44.09647" lon="6.82865">
        <ele>1249.61</ele>
        <time>2011-06-12T12:50:38Z</time>
      </trkpt>
      <trkpt lat="44.09639" lon="6.8287">
        <ele>1246.748</ele>
        <time>2011-06-12T12:50:44Z</time>
      </trkpt>
      <trkpt lat="44.09628" lon="6.82875">
        <ele>1245.121</ele>
        <time>2011-06-12T12:50:51Z</time>
      </trkpt>
      <trkpt lat="44.09618" lon="6.82881">
        <ele>1247.213</ele>
        <time>2011-06-12T12:50:58Z</time>
      </trkpt>
      <trkpt lat="44.09608" lon="6.82885">
        <ele>1248.764</ele>
        <time>2011-06-12T12:51:04Z</time>
      </trkpt>
      <trkpt lat="44.09594" lon="6.82891">
        <ele>1244.79</ele>
        <time>2011-06-12T12:51:10Z</time>
      </trkpt>
      <trkpt lat="44.09586" lon="6.82896">
        <ele>1248.354</ele>
        <time>2011-06-12T12:51:17Z</time>
      </trkpt>
      <trkpt lat="44.09579" lon="6.82901">
        <ele>1248.844</ele>
        <time>2011-06-12T12:51:21Z</time>
      </trkpt>
      <trkpt lat="44.09574" lon="6.82906">
        <ele>1246.921</ele>
        <time>2011-06-12T12:51:26Z</time>
      </trkpt>
      <trkpt lat="44.09569" lon="6.82917">
        <ele>1247.914</ele>
        <time>2011-06-12T12:51:31Z</time>
      </trkpt>
      <trkpt lat="44.0956" lon="6.82926">
        <ele>1250.873</ele>
        <time>2011-06-12T12:51:38Z</time>
      </trkpt>
      <trkpt lat="44.09551" lon="6.82933">
        <ele>1249.851</ele>
        <time>2011-06-12T12:51:44Z</time>
      </trkpt>
      <trkpt lat="44.0955" lon="6.82934">
        <ele>1249.36</ele>
        <time>2011-06-12T12:51:45Z</time>
      </trkpt>
      <trkpt lat="44.09546" lon="6.82946">
        <ele>1254.845</ele>
        <time>2011-06-12T12:51:51Z</time>
      </trkpt>
      <trkpt lat="44.09545" lon="6.82948">
        <ele>1257.586</ele>
        <time>2011-06-12T12:51:52Z</time>
      </trkpt>
      <trkpt lat="44.09543" lon="6.82955">
        <ele>1259.204</ele>
        <time>2011-06-12T12:51:56Z</time>
      </trkpt>
      <trkpt lat="44.09536" lon="6.82965">
        <ele>1257.32</ele>
        <time>2011-06-12T12:52:01Z</time>
      </trkpt>
      <trkpt lat="44.09528" lon="6.82974">
        <ele>1256.69</ele>
        <time>2011-06-12T12:52:07Z</time>
      </trkpt>
      <trkpt lat="44.09529" lon="6.8298">
        <ele>1260.306</ele>
        <time>2011-06-12T12:52:11Z</time>
      </trkpt>
      <trkpt lat="44.09524" lon="6.82994">
        <ele>1264.496</ele>
        <time>2011-06-12T12:52:17Z</time>
      </trkpt>
      <trkpt lat="44.09523" lon="6.83">
        <ele>1269.47</ele>
        <time>2011-06-12T12:52:20Z</time>
      </trkpt>
      <trkpt lat="44.0952" lon="6.83007">
        <ele>1270.719</ele>
        <time>2011-06-12T12:52:24Z</time>
      </trkpt>
      <trkpt lat="44.09518" lon="6.83015">
        <ele>1272.219</ele>
        <time>2011-06-12T12:52:28Z</time>
      </trkpt>
      <trkpt lat="44.09513" lon="6.83021">
        <ele>1269.402</ele>
        <time>2011-06-12T12:52:32Z</time>
      </trkpt>
      <trkpt lat="44.09508" lon="6.8303">
        <ele>1264.919</ele>
        <time>2011-06-12T12:52:37Z</time>
      </trkpt>
      <trkpt lat="44.0951" lon="6.83032">
        <ele>1264.168</ele>
        <time>2011-06-12T12:52:38Z</time>
      </trkpt>
      <trkpt lat="44.09511" lon="6.83039">
        <ele>1262.948</ele>
        <time>2011-06-12T12:52:41Z</time>
      </trkpt>
      <trkpt lat="44.09501" lon="6.83052">
        <ele>1259.077</ele>
        <time>2011-06-12T12:52:49Z</time>
      </trkpt>
      <trkpt lat="44.09498" lon="6.83054">
        <ele>1259.399</ele>
        <time>2011-06-12T12:52:51Z</time>
      </trkpt>
      <trkpt lat="44.09488" lon="6.83065">
        <ele>1260.231</ele>
        <time>2011-06-12T12:52:59Z</time>
      </trkpt>
      <trkpt lat="44.0948" lon="6.83073">
        <ele>1259.711</ele>
        <time>2011-06-12T12:53:06Z</time>
      </trkpt>
      <trkpt lat="44.09469" lon="6.83075">
        <ele>1263.176</ele>
        <time>2011-06-12T12:53:13Z</time>
      </trkpt>
      <trkpt lat="44.0946" lon="6.83083">
        <ele>1267.086</ele>
        <time>2011-06-12T12:53:20Z</time>
      </trkpt>
      <trkpt lat="44.09459" lon="6.83085">
        <ele>1267.336</ele>
        <time>2011-06-12T12:53:21Z</time>
      </trkpt>
      <trkpt lat="44.09461" lon="6.83091">
        <ele>1269.997</ele>
        <time>2011-06-12T12:53:27Z</time>
      </trkpt>
      <trkpt lat="44.09462" lon="6.83093">
        <ele>1270.235</ele>
        <time>2011-06-12T12:53:29Z</time>
      </trkpt>
      <trkpt lat="44.09466" lon="6.83096">
        <ele>1271.705</ele>
        <time>2011-06-12T12:53:35Z</time>
      </trkpt>
      <trkpt lat="44.09468" lon="6.83094">
        <ele>1274.418</ele>
        <time>2011-06-12T12:54:48Z</time>
      </trkpt>
      <trkpt lat="44.09471" lon="6.83101">
        <ele>1273.27</ele>
        <time>2011-06-12T12:54:52Z</time>
      </trkpt>
      <trkpt lat="44.09482" lon="6.83114">
        <ele>1274.646</ele>
        <time>2011-06-12T12:55:01Z</time>
      </trkpt>
      <trkpt lat="44.0949" lon="6.83121">
        <ele>1278.888</ele>
        <time>2011-06-12T12:55:07Z</time>
      </trkpt>
      <trkpt lat="44.09492" lon="6.83129">
        <ele>1281.496</ele>
        <time>2011-06-12T12:55:13Z</time>
      </trkpt>
      <trkpt lat="44.09492" lon="6.83144">
        <ele>1283.615</ele>
        <time>2011-06-12T12:55:21Z</time>
      </trkpt>
      <trkpt lat="44.09494" lon="6.83161">
        <ele>1282.862</ele>
        <time>2011-06-12T12:55:27Z</time>
      </trkpt>
      <trkpt lat="44.09493" lon="6.83164">
        <ele>1283.242</ele>
        <time>2011-06-12T12:55:29Z</time>
      </trkpt>
      <trkpt lat="44.09493" lon="6.83172">
        <ele>1284.344</ele>
        <time>2011-06-12T12:55:34Z</time>
      </trkpt>
      <trkpt lat="44.09491" lon="6.8318">
        <ele>1287.315</ele>
        <time>2011-06-12T12:55:39Z</time>
      </trkpt>
      <trkpt lat="44.09491" lon="6.83191">
        <ele>1289.403</ele>
        <time>2011-06-12T12:55:46Z</time>
      </trkpt>
      <trkpt lat="44.09491" lon="6.83202">
        <ele>1292.246</ele>
        <time>2011-06-12T12:55:52Z</time>
      </trkpt>
      <trkpt lat="44.09492" lon="6.83216">
        <ele>1292.459</ele>
        <time>2011-06-12T12:55:58Z</time>
      </trkpt>
      <trkpt lat="44.09492" lon="6.83228">
        <ele>1292.867</ele>
        <time>2011-06-12T12:56:03Z</time>
      </trkpt>
      <trkpt lat="44.0949" lon="6.83241">
        <ele>1292.454</ele>
        <time>2011-06-12T12:56:10Z</time>
      </trkpt>
      <trkpt lat="44.09488" lon="6.83259">
        <ele>1288.71</ele>
        <time>2011-06-12T12:56:17Z</time>
      </trkpt>
      <trkpt lat="44.09483" lon="6.8327">
        <ele>1283.097</ele>
        <time>2011-06-12T12:56:23Z</time>
      </trkpt>
      <trkpt lat="44.09472" lon="6.83281">
        <ele>1279.16</ele>
        <time>2011-06-12T12:56:31Z</time>
      </trkpt>
      <trkpt lat="44.09466" lon="6.83287">
        <ele>1279.211</ele>
        <time>2011-06-12T12:56:36Z</time>
      </trkpt>
      <trkpt lat="44.09458" lon="6.83291">
        <ele>1280.623</ele>
        <time>2011-06-12T12:56:41Z</time>
      </trkpt>
      <trkpt lat="44.09448" lon="6.83296">
        <ele>1281.044</ele>
        <time>2011-06-12T12:56:48Z</time>
      </trkpt>
      <trkpt lat="44.09445" lon="6.83295">
        <ele>1281.784</ele>
        <time>2011-06-12T12:56:50Z</time>
      </trkpt>
      <trkpt lat="44.09434" lon="6.83297">
        <ele>1283.563</ele>
        <time>2011-06-12T12:56:56Z</time>
      </trkpt>
      <trkpt lat="44.09432" lon="6.83297">
        <ele>1283.743</ele>
        <time>2011-06-12T12:56:57Z</time>
      </trkpt>
      <trkpt lat="44.09418" lon="6.83296">
        <ele>1281.842</ele>
        <time>2011-06-12T12:57:05Z</time>
      </trkpt>
      <trkpt lat="44.09411" lon="6.83295">
        <ele>1282.543</ele>
        <time>2011-06-12T12:57:10Z</time>
      </trkpt>
      <trkpt lat="44.09406" lon="6.83295">
        <ele>1285.387</ele>
        <time>2011-06-12T12:57:14Z</time>
      </trkpt>
      <trkpt lat="44.09401" lon="6.83295">
        <ele>1289.952</ele>
        <time>2011-06-12T12:57:18Z</time>
      </trkpt>
      <trkpt lat="44.09392" lon="6.83297">
        <ele>1292.96</ele>
        <time>2011-06-12T12:57:23Z</time>
      </trkpt>
      <trkpt lat="44.09384" lon="6.83306">
        <ele>1297.788</ele>
        <time>2011-06-12T12:57:32Z</time>
      </trkpt>
      <trkpt lat="44.09377" lon="6.8331">
        <ele>1299.675</ele>
        <time>2011-06-12T12:57:38Z</time>
      </trkpt>
      <trkpt lat="44.09367" lon="6.83319">
        <ele>1300.564</ele>
        <time>2011-06-12T12:57:46Z</time>
      </trkpt>
      <trkpt lat="44.09361" lon="6.83322">
        <ele>1297.761</ele>
        <time>2011-06-12T12:57:48Z</time>
      </trkpt>
      <trkpt lat="44.09351" lon="6.83317">
        <ele>1295.242</ele>
        <time>2011-06-12T12:57:52Z</time>
      </trkpt>
      <trkpt lat="44.09343" lon="6.83308">
        <ele>1293.702</ele>
        <time>2011-06-12T12:57:57Z</time>
      </trkpt>
      <trkpt lat="44.09334" lon="6.833">
        <ele>1293.533</ele>
        <time>2011-06-12T12:58:01Z</time>
      </trkpt>
      <trkpt lat="44.0932" lon="6.83295">
        <ele>1295.227</ele>
        <time>2011-06-12T12:58:06Z</time>
      </trkpt>
      <trkpt lat="44.09311" lon="6.83291">
        <ele>1295.375</ele>
        <time>2011-06-12T12:58:11Z</time>
      </trkpt>
      <trkpt lat="44.09302" lon="6.83293">
        <ele>1296.085</ele>
        <time>2011-06-12T12:58:15Z</time>
      </trkpt>
      <trkpt lat="44.09292" lon="6.83294">
        <ele>1295.914</ele>
        <time>2011-06-12T12:58:19Z</time>
      </trkpt>
      <trkpt lat="44.09281" lon="6.83297">
        <ele>1296.042</ele>
        <time>2011-06-12T12:58:24Z</time>
      </trkpt>
      <trkpt lat="44.09274" lon="6.83287">
        <ele>1294.783</ele>
        <time>2011-06-12T12:58:29Z</time>
      </trkpt>
      <trkpt lat="44.09265" lon="6.83279">
        <ele>1294.37</ele>
        <time>2011-06-12T12:58:34Z</time>
      </trkpt>
      <trkpt lat="44.09251" lon="6.83271">
        <ele>1293.589</ele>
        <time>2011-06-12T12:58:39Z</time>
      </trkpt>
      <trkpt lat="44.09251" lon="6.8327">
        <ele>1292.78</ele>
        <time>2011-06-12T12:58:44Z</time>
      </trkpt>
      <trkpt lat="44.09256" lon="6.83266">
        <ele>1289.352</ele>
        <time>2011-06-12T12:59:33Z</time>
      </trkpt>
      <trkpt lat="44.09254" lon="6.83267">
        <ele>1288.451</ele>
        <time>2011-06-12T12:59:41Z</time>
      </trkpt>
      <trkpt lat="44.09247" lon="6.83273">
        <ele>1286.276</ele>
        <time>2011-06-12T12:59:46Z</time>
      </trkpt>
      <trkpt lat="44.09248" lon="6.83283">
        <ele>1286.286</ele>
        <time>2011-06-12T12:59:50Z</time>
      </trkpt>
      <trkpt lat="44.09249" lon="6.83302">
        <ele>1285.197</ele>
        <time>2011-06-12T12:59:56Z</time>
      </trkpt>
      <trkpt lat="44.09244" lon="6.8332">
        <ele>1284.87</ele>
        <time>2011-06-12T13:00:01Z</time>
      </trkpt>
      <trkpt lat="44.09239" lon="6.83336">
        <ele>1288.294</ele>
        <time>2011-06-12T13:00:06Z</time>
      </trkpt>
      <trkpt lat="44.09233" lon="6.83354">
        <ele>1287.932</ele>
        <time>2011-06-12T13:00:11Z</time>
      </trkpt>
      <trkpt lat="44.09226" lon="6.83362">
        <ele>1285.941</ele>
        <time>2011-06-12T13:00:15Z</time>
      </trkpt>
      <trkpt lat="44.0922" lon="6.83372">
        <ele>1285.641</ele>
        <time>2011-06-12T13:00:19Z</time>
      </trkpt>
      <trkpt lat="44.09205" lon="6.83381">
        <ele>1286.573</ele>
        <time>2011-06-12T13:00:25Z</time>
      </trkpt>
      <trkpt lat="44.09199" lon="6.8338">
        <ele>1288.266</ele>
        <time>2011-06-12T13:00:29Z</time>
      </trkpt>
      <trkpt lat="44.09189" lon="6.8337">
        <ele>1289.305</ele>
        <time>2011-06-12T13:00:33Z</time>
      </trkpt>
      <trkpt lat="44.09179" lon="6.83364">
        <ele>1290.044</ele>
        <time>2011-06-12T13:00:36Z</time>
      </trkpt>
      <trkpt lat="44.09173" lon="6.83356">
        <ele>1290.193</ele>
        <time>2011-06-12T13:00:38Z</time>
      </trkpt>
      <trkpt lat="44.09154" lon="6.83349">
        <ele>1290.401</ele>
        <time>2011-06-12T13:00:43Z</time>
      </trkpt>
      <trkpt lat="44.09147" lon="6.83344">
        <ele>1289.851</ele>
        <time>2011-06-12T13:00:46Z</time>
      </trkpt>
      <trkpt lat="44.09134" lon="6.83338">
        <ele>1289.3</ele>
        <time>2011-06-12T13:00:50Z</time>
      </trkpt>
      <trkpt lat="44.09127" lon="6.83347">
        <ele>1291.842</ele>
        <time>2011-06-12T13:00:54Z</time>
      </trkpt>
      <trkpt lat="44.09119" lon="6.83346">
        <ele>1291.545</ele>
        <time>2011-06-12T13:00:59Z</time>
      </trkpt>
      <trkpt lat="44.09109" lon="6.83346">
        <ele>1291.204</ele>
        <time>2011-06-12T13:01:04Z</time>
      </trkpt>
      <trkpt lat="44.09107" lon="6.83349">
        <ele>1293.006</ele>
        <time>2011-06-12T13:01:06Z</time>
      </trkpt>
      <trkpt lat="44.091" lon="6.8335">
        <ele>1295.267</ele>
        <time>2011-06-12T13:01:11Z</time>
      </trkpt>
      <trkpt lat="44.0909" lon="6.83351">
        <ele>1297.789</ele>
        <time>2011-06-12T13:01:18Z</time>
      </trkpt>
      <trkpt lat="44.09084" lon="6.83351">
        <ele>1299.566</ele>
        <time>2011-06-12T13:01:23Z</time>
      </trkpt>
      <trkpt lat="44.09079" lon="6.83351">
        <ele>1300.774</ele>
        <time>2011-06-12T13:01:30Z</time>
      </trkpt>
      <trkpt lat="44.09074" lon="6.83354">
        <ele>1304.182</ele>
        <time>2011-06-12T13:01:46Z</time>
      </trkpt>
      <trkpt lat="44.0907" lon="6.83357">
        <ele>1303.098</ele>
        <time>2011-06-12T13:01:51Z</time>
      </trkpt>
      <trkpt lat="44.09065" lon="6.8336">
        <ele>1302.892</ele>
        <time>2011-06-12T13:01:58Z</time>
      </trkpt>
      <trkpt lat="44.09064" lon="6.83366">
        <ele>1300.968</ele>
        <time>2011-06-12T13:02:04Z</time>
      </trkpt>
      <trkpt lat="44.09063" lon="6.83368">
        <ele>1299.916</ele>
        <time>2011-06-12T13:02:05Z</time>
      </trkpt>
      <trkpt lat="44.09053" lon="6.83376">
        <ele>1298.439</ele>
        <time>2011-06-12T13:02:12Z</time>
      </trkpt>
      <trkpt lat="44.09044" lon="6.83377">
        <ele>1296.167</ele>
        <time>2011-06-12T13:02:17Z</time>
      </trkpt>
      <trkpt lat="44.09031" lon="6.83379">
        <ele>1295.649</ele>
        <time>2011-06-12T13:02:25Z</time>
      </trkpt>
      <trkpt lat="44.09026" lon="6.8338">
        <ele>1294.852</ele>
        <time>2011-06-12T13:02:31Z</time>
      </trkpt>
      <trkpt lat="44.09023" lon="6.83381">
        <ele>1297.534</ele>
        <time>2011-06-12T13:02:37Z</time>
      </trkpt>
      <trkpt lat="44.09018" lon="6.83382">
        <ele>1298.082</ele>
        <time>2011-06-12T13:02:43Z</time>
      </trkpt>
      <trkpt lat="44.09009" lon="6.8338">
        <ele>1300.853</ele>
        <time>2011-06-12T13:02:51Z</time>
      </trkpt>
      <trkpt lat="44.08999" lon="6.83378">
        <ele>1303.373</ele>
        <time>2011-06-12T13:03:00Z</time>
      </trkpt>
      <trkpt lat="44.08993" lon="6.83378">
        <ele>1305.524</ele>
        <time>2011-06-12T13:03:06Z</time>
      </trkpt>
      <trkpt lat="44.08989" lon="6.83379">
        <ele>1307.806</ele>
        <time>2011-06-12T13:03:12Z</time>
      </trkpt>
      <trkpt lat="44.08986" lon="6.83381">
        <ele>1307.192</ele>
        <time>2011-06-12T13:03:17Z</time>
      </trkpt>
      <trkpt lat="44.08977" lon="6.8338">
        <ele>1306.842</ele>
        <time>2011-06-12T13:03:25Z</time>
      </trkpt>
      <trkpt lat="44.08971" lon="6.8338">
        <ele>1308.393</ele>
        <time>2011-06-12T13:03:31Z</time>
      </trkpt>
      <trkpt lat="44.08959" lon="6.83376">
        <ele>1309.492</ele>
        <time>2011-06-12T13:03:41Z</time>
      </trkpt>
      <trkpt lat="44.08951" lon="6.83368">
        <ele>1312.164</ele>
        <time>2011-06-12T13:03:50Z</time>
      </trkpt>
      <trkpt lat="44.08949" lon="6.83365">
        <ele>1313.774</ele>
        <time>2011-06-12T13:03:58Z</time>
      </trkpt>
      <trkpt lat="44.08945" lon="6.83362">
        <ele>1311.762</ele>
        <time>2011-06-12T13:04:17Z</time>
      </trkpt>
      <trkpt lat="44.08935" lon="6.83364">
        <ele>1312.071</ele>
        <time>2011-06-12T13:04:23Z</time>
      </trkpt>
      <trkpt lat="44.08925" lon="6.83364">
        <ele>1314.503</ele>
        <time>2011-06-12T13:04:31Z</time>
      </trkpt>
      <trkpt lat="44.08914" lon="6.83364">
        <ele>1312.282</ele>
        <time>2011-06-12T13:04:38Z</time>
      </trkpt>
      <trkpt lat="44.08904" lon="6.8337">
        <ele>1312.035</ele>
        <time>2011-06-12T13:04:44Z</time>
      </trkpt>
      <trkpt lat="44.08894" lon="6.83373">
        <ele>1312.794</ele>
        <time>2011-06-12T13:04:50Z</time>
      </trkpt>
      <trkpt lat="44.08883" lon="6.83372">
        <ele>1315.273</ele>
        <time>2011-06-12T13:04:58Z</time>
      </trkpt>
      <trkpt lat="44.08873" lon="6.83371">
        <ele>1316.394</ele>
        <time>2011-06-12T13:05:04Z</time>
      </trkpt>
      <trkpt lat="44.08861" lon="6.8337">
        <ele>1316.612</ele>
        <time>2011-06-12T13:05:11Z</time>
      </trkpt>
      <trkpt lat="44.08857" lon="6.83367">
        <ele>1318.153</ele>
        <time>2011-06-12T13:05:16Z</time>
      </trkpt>
      <trkpt lat="44.08857" lon="6.83369">
        <ele>1325.725</ele>
        <time>2011-06-12T13:05:27Z</time>
      </trkpt>
      <trkpt lat="44.08859" lon="6.83366">
        <ele>1327.787</ele>
        <time>2011-06-12T13:05:31Z</time>
      </trkpt>
      <trkpt lat="44.08867" lon="6.83364">
        <ele>1331.881</ele>
        <time>2011-06-12T13:05:40Z</time>
      </trkpt>
      <trkpt lat="44.08872" lon="6.83362">
        <ele>1330.265</ele>
        <time>2011-06-12T13:05:47Z</time>
      </trkpt>
      <trkpt lat="44.08882" lon="6.83357">
        <ele>1331.975</ele>
        <time>2011-06-12T13:05:53Z</time>
      </trkpt>
      <trkpt lat="44.08891" lon="6.8335">
        <ele>1335.899</ele>
        <time>2011-06-12T13:05:59Z</time>
      </trkpt>
      <trkpt lat="44.08898" lon="6.8334">
        <ele>1343.104</ele>
        <time>2011-06-12T13:06:05Z</time>
      </trkpt>
      <trkpt lat="44.08899" lon="6.83337">
        <ele>1345.66</ele>
        <time>2011-06-12T13:06:10Z</time>
      </trkpt>
      <trkpt lat="44.08899" lon="6.83336">
        <ele>1346.06</ele>
        <time>2011-06-12T13:06:11Z</time>
      </trkpt>
      <trkpt lat="44.08905" lon="6.83328">
        <ele>1346.879</ele>
        <time>2011-06-12T13:06:16Z</time>
      </trkpt>
      <trkpt lat="44.08915" lon="6.83324">
        <ele>1351.322</ele>
        <time>2011-06-12T13:06:23Z</time>
      </trkpt>
      <trkpt lat="44.0892" lon="6.8332">
        <ele>1352.542</ele>
        <time>2011-06-12T13:06:27Z</time>
      </trkpt>
      <trkpt lat="44.08931" lon="6.83313">
        <ele>1355.14</ele>
        <time>2011-06-12T13:06:34Z</time>
      </trkpt>
      <trkpt lat="44.08939" lon="6.83302">
        <ele>1342.081</ele>
        <time>2011-06-12T13:06:41Z</time>
      </trkpt>
      <trkpt lat="44.08946" lon="6.83293">
        <ele>1341.255</ele>
        <time>2011-06-12T13:06:47Z</time>
      </trkpt>
      <trkpt lat="44.0895" lon="6.83287">
        <ele>1342.764</ele>
        <time>2011-06-12T13:06:54Z</time>
      </trkpt>
      <trkpt lat="44.08951" lon="6.83286">
        <ele>1342.802</ele>
        <time>2011-06-12T13:07:01Z</time>
      </trkpt>
      <trkpt lat="44.08953" lon="6.83281">
        <ele>1343.536</ele>
        <time>2011-06-12T13:07:07Z</time>
      </trkpt>
      <trkpt lat="44.08954" lon="6.83278">
        <ele>1345.849</ele>
        <time>2011-06-12T13:07:12Z</time>
      </trkpt>
      <trkpt lat="44.08956" lon="6.83273">
        <ele>1345.194</ele>
        <time>2011-06-12T13:07:17Z</time>
      </trkpt>
      <trkpt lat="44.08958" lon="6.83272">
        <ele>1345.895</ele>
        <time>2011-06-12T13:07:20Z</time>
      </trkpt>
      <trkpt lat="44.08964" lon="6.83266">
        <ele>1349.508</ele>
        <time>2011-06-12T13:07:29Z</time>
      </trkpt>
      <trkpt lat="44.08964" lon="6.83266">
        <ele>1349.487</ele>
        <time>2011-06-12T13:07:30Z</time>
      </trkpt>
      <trkpt lat="44.08962" lon="6.83256">
        <ele>1348.153</ele>
        <time>2011-06-12T13:07:40Z</time>
      </trkpt>
      <trkpt lat="44.08962" lon="6.83255">
        <ele>1348.252</ele>
        <time>2011-06-12T13:07:41Z</time>
      </trkpt>
      <trkpt lat="44.08962" lon="6.83246">
        <ele>1350.367</ele>
        <time>2011-06-12T13:07:49Z</time>
      </trkpt>
      <trkpt lat="44.08965" lon="6.8324">
        <ele>1353.551</ele>
        <time>2011-06-12T13:07:57Z</time>
      </trkpt>
      <trkpt lat="44.08966" lon="6.83237">
        <ele>1356.56</ele>
        <time>2011-06-12T13:08:02Z</time>
      </trkpt>
      <trkpt lat="44.08972" lon="6.83231">
        <ele>1362.722</ele>
        <time>2011-06-12T13:08:11Z</time>
      </trkpt>
      <trkpt lat="44.08977" lon="6.83224">
        <ele>1363.744</ele>
        <time>2011-06-12T13:08:21Z</time>
      </trkpt>
      <trkpt lat="44.08981" lon="6.83218">
        <ele>1364.898</ele>
        <time>2011-06-12T13:08:29Z</time>
      </trkpt>
      <trkpt lat="44.08985" lon="6.83213">
        <ele>1368.732</ele>
        <time>2011-06-12T13:08:35Z</time>
      </trkpt>
      <trkpt lat="44.08987" lon="6.83209">
        <ele>1369.771</ele>
        <time>2011-06-12T13:08:39Z</time>
      </trkpt>
      <trkpt lat="44.08991" lon="6.83203">
        <ele>1370.147</ele>
        <time>2011-06-12T13:08:47Z</time>
      </trkpt>
      <trkpt lat="44.08993" lon="6.83193">
        <ele>1361.789</ele>
        <time>2011-06-12T13:08:57Z</time>
      </trkpt>
      <trkpt lat="44.08995" lon="6.8318">
        <ele>1354.222</ele>
        <time>2011-06-12T13:09:09Z</time>
      </trkpt>
      <trkpt lat="44.09" lon="6.83175">
        <ele>1355.757</ele>
        <time>2011-06-12T13:09:17Z</time>
      </trkpt>
      <trkpt lat="44.09005" lon="6.8317">
        <ele>1355.805</ele>
        <time>2011-06-12T13:09:24Z</time>
      </trkpt>
      <trkpt lat="44.09012" lon="6.83163">
        <ele>1355.696</ele>
        <time>2011-06-12T13:09:33Z</time>
      </trkpt>
      <trkpt lat="44.0902" lon="6.83158">
        <ele>1358.507</ele>
        <time>2011-06-12T13:09:43Z</time>
      </trkpt>
      <trkpt lat="44.09027" lon="6.8315">
        <ele>1361.887</ele>
        <time>2011-06-12T13:09:51Z</time>
      </trkpt>
      <trkpt lat="44.09031" lon="6.83143">
        <ele>1364.219</ele>
        <time>2011-06-12T13:09:58Z</time>
      </trkpt>
      <trkpt lat="44.09034" lon="6.83136">
        <ele>1368.826</ele>
        <time>2011-06-12T13:10:06Z</time>
      </trkpt>
      <trkpt lat="44.09037" lon="6.83131">
        <ele>1374.198</ele>
        <time>2011-06-12T13:10:14Z</time>
      </trkpt>
      <trkpt lat="44.0904" lon="6.83128">
        <ele>1376.388</ele>
        <time>2011-06-12T13:10:19Z</time>
      </trkpt>
      <trkpt lat="44.09044" lon="6.83119">
        <ele>1377.155</ele>
        <time>2011-06-12T13:10:27Z</time>
      </trkpt>
      <trkpt lat="44.09046" lon="6.83115">
        <ele>1378.542</ele>
        <time>2011-06-12T13:10:33Z</time>
      </trkpt>
      <trkpt lat="44.09048" lon="6.83103">
        <ele>1379.748</ele>
        <time>2011-06-12T13:10:46Z</time>
      </trkpt>
      <trkpt lat="44.09049" lon="6.831">
        <ele>1378.242</ele>
        <time>2011-06-12T13:10:55Z</time>
      </trkpt>
      <trkpt lat="44.09051" lon="6.83096">
        <ele>1385.428</ele>
        <time>2011-06-12T13:12:56Z</time>
      </trkpt>
      <trkpt lat="44.09047" lon="6.8309">
        <ele>1386.032</ele>
        <time>2011-06-12T13:13:04Z</time>
      </trkpt>
      <trkpt lat="44.09047" lon="6.83084">
        <ele>1386.323</ele>
        <time>2011-06-12T13:13:09Z</time>
      </trkpt>
      <trkpt lat="44.09048" lon="6.83076">
        <ele>1388.354</ele>
        <time>2011-06-12T13:13:16Z</time>
      </trkpt>
      <trkpt lat="44.09047" lon="6.83072">
        <ele>1385.432</ele>
        <time>2011-06-12T13:13:18Z</time>
      </trkpt>
      <trkpt lat="44.09046" lon="6.83064">
        <ele>1385.382</ele>
        <time>2011-06-12T13:13:26Z</time>
      </trkpt>
      <trkpt lat="44.09045" lon="6.83058">
        <ele>1383.182</ele>
        <time>2011-06-12T13:13:33Z</time>
      </trkpt>
      <trkpt lat="44.09044" lon="6.83051">
        <ele>1382.724</ele>
        <time>2011-06-12T13:13:40Z</time>
      </trkpt>
      <trkpt lat="44.09046" lon="6.83044">
        <ele>1382.724</ele>
        <time>2011-06-12T13:13:46Z</time>
      </trkpt>
      <trkpt lat="44.09048" lon="6.83038">
        <ele>1385.084</ele>
        <time>2011-06-12T13:13:54Z</time>
      </trkpt>
      <trkpt lat="44.09047" lon="6.83032">
        <ele>1386.255</ele>
        <time>2011-06-12T13:14:01Z</time>
      </trkpt>
      <trkpt lat="44.09049" lon="6.83028">
        <ele>1394.747</ele>
        <time>2011-06-12T13:14:10Z</time>
      </trkpt>
      <trkpt lat="44.09051" lon="6.83021">
        <ele>1393.502</ele>
        <time>2011-06-12T13:14:17Z</time>
      </trkpt>
      <trkpt lat="44.09056" lon="6.83015">
        <ele>1393.842</ele>
        <time>2011-06-12T13:14:27Z</time>
      </trkpt>
      <trkpt lat="44.09057" lon="6.83009">
        <ele>1391.731</ele>
        <time>2011-06-12T13:14:33Z</time>
      </trkpt>
      <trkpt lat="44.09058" lon="6.83005">
        <ele>1392.934</ele>
        <time>2011-06-12T13:14:39Z</time>
      </trkpt>
      <trkpt lat="44.0906" lon="6.83003">
        <ele>1394.564</ele>
        <time>2011-06-12T13:14:44Z</time>
      </trkpt>
      <trkpt lat="44.09062" lon="6.83">
        <ele>1397.765</ele>
        <time>2011-06-12T13:14:50Z</time>
      </trkpt>
      <trkpt lat="44.09064" lon="6.82997">
        <ele>1399.624</ele>
        <time>2011-06-12T13:14:57Z</time>
      </trkpt>
      <trkpt lat="44.09067" lon="6.82993">
        <ele>1402.462</ele>
        <time>2011-06-12T13:15:08Z</time>
      </trkpt>
      <trkpt lat="44.09069" lon="6.8299">
        <ele>1403.132</ele>
        <time>2011-06-12T13:15:13Z</time>
      </trkpt>
      <trkpt lat="44.09073" lon="6.82985">
        <ele>1403.483</ele>
        <time>2011-06-12T13:15:20Z</time>
      </trkpt>
      <trkpt lat="44.09075" lon="6.82981">
        <ele>1403.752</ele>
        <time>2011-06-12T13:15:27Z</time>
      </trkpt>
      <trkpt lat="44.09078" lon="6.82977">
        <ele>1401.869</ele>
        <time>2011-06-12T13:15:32Z</time>
      </trkpt>
      <trkpt lat="44.09081" lon="6.82973">
        <ele>1401.031</ele>
        <time>2011-06-12T13:15:38Z</time>
      </trkpt>
      <trkpt lat="44.09085" lon="6.82967">
        <ele>1401.381</ele>
        <time>2011-06-12T13:15:47Z</time>
      </trkpt>
      <trkpt lat="44.09085" lon="6.8296">
        <ele>1403.641</ele>
        <time>2011-06-12T13:15:55Z</time>
      </trkpt>
      <trkpt lat="44.09084" lon="6.8295">
        <ele>1402.051</ele>
        <time>2011-06-12T13:16:03Z</time>
      </trkpt>
      <trkpt lat="44.09085" lon="6.82944">
        <ele>1403.581</ele>
        <time>2011-06-12T13:16:10Z</time>
      </trkpt>
      <trkpt lat="44.09085" lon="6.82938">
        <ele>1404.282</ele>
        <time>2011-06-12T13:16:17Z</time>
      </trkpt>
      <trkpt lat="44.09086" lon="6.82932">
        <ele>1405.282</ele>
        <time>2011-06-12T13:16:24Z</time>
      </trkpt>
      <trkpt lat="44.09087" lon="6.82927">
        <ele>1407.714</ele>
        <time>2011-06-12T13:16:30Z</time>
      </trkpt>
      <trkpt lat="44.09089" lon="6.82923">
        <ele>1413.705</ele>
        <time>2011-06-12T13:16:39Z</time>
      </trkpt>
      <trkpt lat="44.09087" lon="6.82918">
        <ele>1412.302</ele>
        <time>2011-06-12T13:16:44Z</time>
      </trkpt>
      <trkpt lat="44.09089" lon="6.82912">
        <ele>1411.421</ele>
        <time>2011-06-12T13:16:52Z</time>
      </trkpt>
      <trkpt lat="44.09091" lon="6.82907">
        <ele>1412.723</ele>
        <time>2011-06-12T13:16:59Z</time>
      </trkpt>
      <trkpt lat="44.0909" lon="6.82899">
        <ele>1415.084</ele>
        <time>2011-06-12T13:17:07Z</time>
      </trkpt>
      <trkpt lat="44.09091" lon="6.82892">
        <ele>1418.104</ele>
        <time>2011-06-12T13:17:16Z</time>
      </trkpt>
      <trkpt lat="44.09091" lon="6.82884">
        <ele>1419.612</ele>
        <time>2011-06-12T13:17:25Z</time>
      </trkpt>
      <trkpt lat="44.09092" lon="6.82877">
        <ele>1419.6</ele>
        <time>2011-06-12T13:17:33Z</time>
      </trkpt>
      <trkpt lat="44.09093" lon="6.82872">
        <ele>1419.671</ele>
        <time>2011-06-12T13:17:39Z</time>
      </trkpt>
      <trkpt lat="44.09094" lon="6.82866">
        <ele>1419.312</ele>
        <time>2011-06-12T13:17:45Z</time>
      </trkpt>
      <trkpt lat="44.09095" lon="6.82863">
        <ele>1420.854</ele>
        <time>2011-06-12T13:17:50Z</time>
      </trkpt>
      <trkpt lat="44.09098" lon="6.82856">
        <ele>1423.914</ele>
        <time>2011-06-12T13:17:57Z</time>
      </trkpt>
      <trkpt lat="44.091" lon="6.82849">
        <ele>1427.117</ele>
        <time>2011-06-12T13:18:04Z</time>
      </trkpt>
      <trkpt lat="44.09099" lon="6.82843">
        <ele>1425.034</ele>
        <time>2011-06-12T13:18:11Z</time>
      </trkpt>
      <trkpt lat="44.091" lon="6.82836">
        <ele>1428.254</ele>
        <time>2011-06-12T13:18:18Z</time>
      </trkpt>
      <trkpt lat="44.09098" lon="6.82828">
        <ele>1432.676</ele>
        <time>2011-06-12T13:18:28Z</time>
      </trkpt>
      <trkpt lat="44.09095" lon="6.82825">
        <ele>1435.126</ele>
        <time>2011-06-12T13:18:36Z</time>
      </trkpt>
      <trkpt lat="44.0909" lon="6.82824">
        <ele>1435.829</ele>
        <time>2011-06-12T13:18:41Z</time>
      </trkpt>
      <trkpt lat="44.09084" lon="6.82824">
        <ele>1433.934</ele>
        <time>2011-06-12T13:18:49Z</time>
      </trkpt>
      <trkpt lat="44.09078" lon="6.82828">
        <ele>1436.12</ele>
        <time>2011-06-12T13:18:58Z</time>
      </trkpt>
      <trkpt lat="44.09075" lon="6.82827">
        <ele>1437.811</ele>
        <time>2011-06-12T13:19:02Z</time>
      </trkpt>
      <trkpt lat="44.09072" lon="6.82829">
        <ele>1440.313</ele>
        <time>2011-06-12T13:19:08Z</time>
      </trkpt>
      <trkpt lat="44.09065" lon="6.82828">
        <ele>1437.918</ele>
        <time>2011-06-12T13:19:16Z</time>
      </trkpt>
      <trkpt lat="44.09061" lon="6.82831">
        <ele>1437.759</ele>
        <time>2011-06-12T13:19:23Z</time>
      </trkpt>
      <trkpt lat="44.09059" lon="6.82832">
        <ele>1439.542</ele>
        <time>2011-06-12T13:19:29Z</time>
      </trkpt>
      <trkpt lat="44.09056" lon="6.8283">
        <ele>1440.64</ele>
        <time>2011-06-12T13:19:39Z</time>
      </trkpt>
      <trkpt lat="44.09047" lon="6.82832">
        <ele>1441.173</ele>
        <time>2011-06-12T13:19:49Z</time>
      </trkpt>
      <trkpt lat="44.09036" lon="6.82833">
        <ele>1444.868</ele>
        <time>2011-06-12T13:19:58Z</time>
      </trkpt>
      <trkpt lat="44.0903" lon="6.82836">
        <ele>1445.884</ele>
        <time>2011-06-12T13:20:06Z</time>
      </trkpt>
      <trkpt lat="44.09026" lon="6.82836">
        <ele>1448.037</ele>
        <time>2011-06-12T13:20:10Z</time>
      </trkpt>
      <trkpt lat="44.09016" lon="6.82837">
        <ele>1451.473</ele>
        <time>2011-06-12T13:20:20Z</time>
      </trkpt>
      <trkpt lat="44.09013" lon="6.82832">
        <ele>1450.28</ele>
        <time>2011-06-12T13:20:27Z</time>
      </trkpt>
      <trkpt lat="44.09012" lon="6.8283">
        <ele>1451.874</ele>
        <time>2011-06-12T13:20:32Z</time>
      </trkpt>
      <trkpt lat="44.09015" lon="6.82826">
        <ele>1455.606</ele>
        <time>2011-06-12T13:20:38Z</time>
      </trkpt>
      <trkpt lat="44.09017" lon="6.82824">
        <ele>1456.114</ele>
        <time>2011-06-12T13:20:44Z</time>
      </trkpt>
      <trkpt lat="44.09022" lon="6.8282">
        <ele>1458.536</ele>
        <time>2011-06-12T13:20:49Z</time>
      </trkpt>
      <trkpt lat="44.09025" lon="6.82817">
        <ele>1461.436</ele>
        <time>2011-06-12T13:20:53Z</time>
      </trkpt>
      <trkpt lat="44.09029" lon="6.82817">
        <ele>1469.076</ele>
        <time>2011-06-12T13:21:02Z</time>
      </trkpt>
      <trkpt lat="44.09031" lon="6.8281">
        <ele>1468.165</ele>
        <time>2011-06-12T13:21:08Z</time>
      </trkpt>
      <trkpt lat="44.09035" lon="6.82805">
        <ele>1467.993</ele>
        <time>2011-06-12T13:21:14Z</time>
      </trkpt>
      <trkpt lat="44.09038" lon="6.82804">
        <ele>1467.375</ele>
        <time>2011-06-12T13:21:21Z</time>
      </trkpt>
      <trkpt lat="44.09045" lon="6.828">
        <ele>1473.943</ele>
        <time>2011-06-12T13:21:30Z</time>
      </trkpt>
      <trkpt lat="44.09047" lon="6.828">
        <ele>1477.352</ele>
        <time>2011-06-12T13:21:36Z</time>
      </trkpt>
      <trkpt lat="44.09058" lon="6.82783">
        <ele>1477.693</ele>
        <time>2011-06-12T13:21:44Z</time>
      </trkpt>
      <trkpt lat="44.09063" lon="6.82776">
        <ele>1477.823</ele>
        <time>2011-06-12T13:21:48Z</time>
      </trkpt>
      <trkpt lat="44.09068" lon="6.82769">
        <ele>1476.251</ele>
        <time>2011-06-12T13:21:52Z</time>
      </trkpt>
      <trkpt lat="44.09074" lon="6.82751">
        <ele>1470.639</ele>
        <time>2011-06-12T13:22:01Z</time>
      </trkpt>
      <trkpt lat="44.09079" lon="6.82746">
        <ele>1471.531</ele>
        <time>2011-06-12T13:22:05Z</time>
      </trkpt>
      <trkpt lat="44.09086" lon="6.82736">
        <ele>1472.901</ele>
        <time>2011-06-12T13:22:13Z</time>
      </trkpt>
      <trkpt lat="44.09089" lon="6.82732">
        <ele>1472.792</ele>
        <time>2011-06-12T13:22:16Z</time>
      </trkpt>
      <trkpt lat="44.0909" lon="6.82729">
        <ele>1473.854</ele>
        <time>2011-06-12T13:22:20Z</time>
      </trkpt>
      <trkpt lat="44.09095" lon="6.82721">
        <ele>1474.232</ele>
        <time>2011-06-12T13:22:28Z</time>
      </trkpt>
      <trkpt lat="44.09099" lon="6.82715">
        <ele>1475.533</ele>
        <time>2011-06-12T13:22:44Z</time>
      </trkpt>
      <trkpt lat="44.09104" lon="6.8271">
        <ele>1476.849</ele>
        <time>2011-06-12T13:22:51Z</time>
      </trkpt>
      <trkpt lat="44.09108" lon="6.82706">
        <ele>1479.697</ele>
        <time>2011-06-12T13:22:56Z</time>
      </trkpt>
      <trkpt lat="44.09114" lon="6.82701">
        <ele>1481.466</ele>
        <time>2011-06-12T13:23:02Z</time>
      </trkpt>
      <trkpt lat="44.0912" lon="6.82692">
        <ele>1481.813</ele>
        <time>2011-06-12T13:23:10Z</time>
      </trkpt>
      <trkpt lat="44.09127" lon="6.82685">
        <ele>1481.262</ele>
        <time>2011-06-12T13:23:19Z</time>
      </trkpt>
      <trkpt lat="44.0913" lon="6.82681">
        <ele>1481.892</ele>
        <time>2011-06-12T13:23:27Z</time>
      </trkpt>
      <trkpt lat="44.0913" lon="6.82679">
        <ele>1481.209</ele>
        <time>2011-06-12T13:23:32Z</time>
      </trkpt>
      <trkpt lat="44.09131" lon="6.8267">
        <ele>1477.95</ele>
        <time>2011-06-12T13:23:40Z</time>
      </trkpt>
      <trkpt lat="44.09135" lon="6.82667">
        <ele>1482.907</ele>
        <time>2011-06-12T13:23:46Z</time>
      </trkpt>
      <trkpt lat="44.09139" lon="6.82663">
        <ele>1486.889</ele>
        <time>2011-06-12T13:23:54Z</time>
      </trkpt>
      <trkpt lat="44.09144" lon="6.82657">
        <ele>1489.587</ele>
        <time>2011-06-12T13:24:01Z</time>
      </trkpt>
      <trkpt lat="44.09148" lon="6.8265">
        <ele>1490.033</ele>
        <time>2011-06-12T13:24:09Z</time>
      </trkpt>
      <trkpt lat="44.09151" lon="6.82645">
        <ele>1491.175</ele>
        <time>2011-06-12T13:24:15Z</time>
      </trkpt>
      <trkpt lat="44.09153" lon="6.8264">
        <ele>1489.944</ele>
        <time>2011-06-12T13:24:21Z</time>
      </trkpt>
      <trkpt lat="44.09155" lon="6.82637">
        <ele>1491.344</ele>
        <time>2011-06-12T13:24:27Z</time>
      </trkpt>
      <trkpt lat="44.09156" lon="6.82635">
        <ele>1492.097</ele>
        <time>2011-06-12T13:24:29Z</time>
      </trkpt>
      <trkpt lat="44.09161" lon="6.82628">
        <ele>1493.645</ele>
        <time>2011-06-12T13:24:39Z</time>
      </trkpt>
      <trkpt lat="44.09165" lon="6.82621">
        <ele>1496.878</ele>
        <time>2011-06-12T13:24:47Z</time>
      </trkpt>
      <trkpt lat="44.09166" lon="6.82616">
        <ele>1498.187</ele>
        <time>2011-06-12T13:24:51Z</time>
      </trkpt>
      <trkpt lat="44.09172" lon="6.82609">
        <ele>1498.206</ele>
        <time>2011-06-12T13:24:59Z</time>
      </trkpt>
      <trkpt lat="44.09175" lon="6.82605">
        <ele>1499.478</ele>
        <time>2011-06-12T13:25:06Z</time>
      </trkpt>
      <trkpt lat="44.09175" lon="6.82596">
        <ele>1495.424</ele>
        <time>2011-06-12T13:25:12Z</time>
      </trkpt>
      <trkpt lat="44.09178" lon="6.82588">
        <ele>1493.231</ele>
        <time>2011-06-12T13:25:20Z</time>
      </trkpt>
      <trkpt lat="44.09178" lon="6.82584">
        <ele>1496.151</ele>
        <time>2011-06-12T13:26:06Z</time>
      </trkpt>
      <trkpt lat="44.09177" lon="6.82582">
        <ele>1493.891</ele>
        <time>2011-06-12T13:26:11Z</time>
      </trkpt>
      <trkpt lat="44.09177" lon="6.82573">
        <ele>1496.475</ele>
        <time>2011-06-12T13:26:18Z</time>
      </trkpt>
      <trkpt lat="44.09178" lon="6.82563">
        <ele>1500.938</ele>
        <time>2011-06-12T13:26:24Z</time>
      </trkpt>
      <trkpt lat="44.09178" lon="6.82557">
        <ele>1504.958</ele>
        <time>2011-06-12T13:26:29Z</time>
      </trkpt>
      <trkpt lat="44.09182" lon="6.82544">
        <ele>1507.509</ele>
        <time>2011-06-12T13:26:36Z</time>
      </trkpt>
      <trkpt lat="44.09184" lon="6.82536">
        <ele>1511.569</ele>
        <time>2011-06-12T13:26:42Z</time>
      </trkpt>
      <trkpt lat="44.09188" lon="6.82527">
        <ele>1513.959</ele>
        <time>2011-06-12T13:26:49Z</time>
      </trkpt>
      <trkpt lat="44.09192" lon="6.8252">
        <ele>1519.041</ele>
        <time>2011-06-12T13:26:56Z</time>
      </trkpt>
      <trkpt lat="44.09195" lon="6.82511">
        <ele>1518.386</ele>
        <time>2011-06-12T13:27:02Z</time>
      </trkpt>
      <trkpt lat="44.09198" lon="6.82497">
        <ele>1517.265</ele>
        <time>2011-06-12T13:27:10Z</time>
      </trkpt>
      <trkpt lat="44.09198" lon="6.82482">
        <ele>1510.264</ele>
        <time>2011-06-12T13:27:17Z</time>
      </trkpt>
      <trkpt lat="44.09198" lon="6.82472">
        <ele>1510.696</ele>
        <time>2011-06-12T13:27:23Z</time>
      </trkpt>
      <trkpt lat="44.09197" lon="6.82458">
        <ele>1514.777</ele>
        <time>2011-06-12T13:27:31Z</time>
      </trkpt>
      <trkpt lat="44.09195" lon="6.82454">
        <ele>1514.396</ele>
        <time>2011-06-12T13:27:33Z</time>
      </trkpt>
      <trkpt lat="44.09194" lon="6.82439">
        <ele>1514.928</ele>
        <time>2011-06-12T13:27:41Z</time>
      </trkpt>
      <trkpt lat="44.09191" lon="6.82424">
        <ele>1511.607</ele>
        <time>2011-06-12T13:27:49Z</time>
      </trkpt>
      <trkpt lat="44.09191" lon="6.82421">
        <ele>1512.186</ele>
        <time>2011-06-12T13:27:51Z</time>
      </trkpt>
      <trkpt lat="44.09194" lon="6.82409">
        <ele>1517.646</ele>
        <time>2011-06-12T13:27:59Z</time>
      </trkpt>
      <trkpt lat="44.09195" lon="6.82398">
        <ele>1518.925</ele>
        <time>2011-06-12T13:28:06Z</time>
      </trkpt>
      <trkpt lat="44.09195" lon="6.82388">
        <ele>1518.933</ele>
        <time>2011-06-12T13:28:12Z</time>
      </trkpt>
      <trkpt lat="44.09194" lon="6.82382">
        <ele>1517.613</ele>
        <time>2011-06-12T13:28:15Z</time>
      </trkpt>
      <trkpt lat="44.09193" lon="6.82376">
        <ele>1515.795</ele>
        <time>2011-06-12T13:28:18Z</time>
      </trkpt>
      <trkpt lat="44.09188" lon="6.82361">
        <ele>1510.619</ele>
        <time>2011-06-12T13:28:25Z</time>
      </trkpt>
      <trkpt lat="44.09184" lon="6.82354">
        <ele>1515.288</ele>
        <time>2011-06-12T13:28:30Z</time>
      </trkpt>
      <trkpt lat="44.09182" lon="6.82345">
        <ele>1515.001</ele>
        <time>2011-06-12T13:28:36Z</time>
      </trkpt>
      <trkpt lat="44.09181" lon="6.8234">
        <ele>1516.484</ele>
        <time>2011-06-12T13:28:42Z</time>
      </trkpt>
      <trkpt lat="44.09182" lon="6.82332">
        <ele>1515.784</ele>
        <time>2011-06-12T13:28:50Z</time>
      </trkpt>
      <trkpt lat="44.09186" lon="6.82328">
        <ele>1520.819</ele>
        <time>2011-06-12T13:28:56Z</time>
      </trkpt>
      <trkpt lat="44.09188" lon="6.82321">
        <ele>1520.996</ele>
        <time>2011-06-12T13:29:02Z</time>
      </trkpt>
      <trkpt lat="44.09191" lon="6.82319">
        <ele>1522.117</ele>
        <time>2011-06-12T13:29:04Z</time>
      </trkpt>
      <trkpt lat="44.09193" lon="6.82311">
        <ele>1520.312</ele>
        <time>2011-06-12T13:29:12Z</time>
      </trkpt>
      <trkpt lat="44.09195" lon="6.82303">
        <ele>1516.571</ele>
        <time>2011-06-12T13:29:19Z</time>
      </trkpt>
      <trkpt lat="44.09199" lon="6.82297">
        <ele>1513.97</ele>
        <time>2011-06-12T13:29:26Z</time>
      </trkpt>
      <trkpt lat="44.09207" lon="6.8229">
        <ele>1518.697</ele>
        <time>2011-06-12T13:29:34Z</time>
      </trkpt>
      <trkpt lat="44.09213" lon="6.82287">
        <ele>1526.111</ele>
        <time>2011-06-12T13:29:41Z</time>
      </trkpt>
      <trkpt lat="44.09217" lon="6.82284">
        <ele>1530.138</ele>
        <time>2011-06-12T13:29:47Z</time>
      </trkpt>
      <trkpt lat="44.09221" lon="6.82279">
        <ele>1533.435</ele>
        <time>2011-06-12T13:29:53Z</time>
      </trkpt>
      <trkpt lat="44.09229" lon="6.8227">
        <ele>1533.415</ele>
        <time>2011-06-12T13:30:02Z</time>
      </trkpt>
      <trkpt lat="44.09232" lon="6.82266">
        <ele>1534.998</ele>
        <time>2011-06-12T13:30:09Z</time>
      </trkpt>
      <trkpt lat="44.09239" lon="6.82258">
        <ele>1535.474</ele>
        <time>2011-06-12T13:30:19Z</time>
      </trkpt>
      <trkpt lat="44.09246" lon="6.82252">
        <ele>1537.233</ele>
        <time>2011-06-12T13:30:25Z</time>
      </trkpt>
      <trkpt lat="44.0925" lon="6.82245">
        <ele>1535.011</ele>
        <time>2011-06-12T13:30:32Z</time>
      </trkpt>
      <trkpt lat="44.09256" lon="6.82242">
        <ele>1537.634</ele>
        <time>2011-06-12T13:30:41Z</time>
      </trkpt>
      <trkpt lat="44.0926" lon="6.82238">
        <ele>1539.886</ele>
        <time>2011-06-12T13:30:47Z</time>
      </trkpt>
      <trkpt lat="44.09267" lon="6.82231">
        <ele>1541.146</ele>
        <time>2011-06-12T13:30:56Z</time>
      </trkpt>
      <trkpt lat="44.09275" lon="6.82223">
        <ele>1544.747</ele>
        <time>2011-06-12T13:31:06Z</time>
      </trkpt>
      <trkpt lat="44.0928" lon="6.82218">
        <ele>1547.354</ele>
        <time>2011-06-12T13:31:14Z</time>
      </trkpt>
      <trkpt lat="44.09285" lon="6.82213">
        <ele>1546.822</ele>
        <time>2011-06-12T13:31:22Z</time>
      </trkpt>
      <trkpt lat="44.09287" lon="6.82207">
        <ele>1542.419</ele>
        <time>2011-06-12T13:31:28Z</time>
      </trkpt>
      <trkpt lat="44.09292" lon="6.822">
        <ele>1539.941</ele>
        <time>2011-06-12T13:31:39Z</time>
      </trkpt>
      <trkpt lat="44.09293" lon="6.82198">
        <ele>1539.621</ele>
        <time>2011-06-12T13:31:40Z</time>
      </trkpt>
      <trkpt lat="44.09302" lon="6.82187">
        <ele>1539.309</ele>
        <time>2011-06-12T13:31:47Z</time>
      </trkpt>
      <trkpt lat="44.09308" lon="6.82177">
        <ele>1541.565</ele>
        <time>2011-06-12T13:31:55Z</time>
      </trkpt>
      <trkpt lat="44.09316" lon="6.82167">
        <ele>1546.506</ele>
        <time>2011-06-12T13:32:02Z</time>
      </trkpt>
      <trkpt lat="44.09322" lon="6.82158">
        <ele>1546.324</ele>
        <time>2011-06-12T13:32:09Z</time>
      </trkpt>
      <trkpt lat="44.09325" lon="6.82151">
        <ele>1547.444</ele>
        <time>2011-06-12T13:32:15Z</time>
      </trkpt>
      <trkpt lat="44.09327" lon="6.8215">
        <ele>1548.624</ele>
        <time>2011-06-12T13:32:20Z</time>
      </trkpt>
      <trkpt lat="44.09331" lon="6.82147">
        <ele>1551.365</ele>
        <time>2011-06-12T13:32:27Z</time>
      </trkpt>
      <trkpt lat="44.09332" lon="6.8214">
        <ele>1554.238</ele>
        <time>2011-06-12T13:32:44Z</time>
      </trkpt>
      <trkpt lat="44.09336" lon="6.82132">
        <ele>1555.463</ele>
        <time>2011-06-12T13:32:52Z</time>
      </trkpt>
      <trkpt lat="44.09338" lon="6.82127">
        <ele>1558.944</ele>
        <time>2011-06-12T13:33:00Z</time>
      </trkpt>
      <trkpt lat="44.09336" lon="6.82116">
        <ele>1550.867</ele>
        <time>2011-06-12T13:33:08Z</time>
      </trkpt>
      <trkpt lat="44.09339" lon="6.82107">
        <ele>1551.483</ele>
        <time>2011-06-12T13:33:18Z</time>
      </trkpt>
      <trkpt lat="44.0934" lon="6.82098">
        <ele>1551.424</ele>
        <time>2011-06-12T13:33:25Z</time>
      </trkpt>
      <trkpt lat="44.09342" lon="6.82092">
        <ele>1556.885</ele>
        <time>2011-06-12T13:33:32Z</time>
      </trkpt>
      <trkpt lat="44.09343" lon="6.82089">
        <ele>1558.861</ele>
        <time>2011-06-12T13:33:39Z</time>
      </trkpt>
      <trkpt lat="44.09345" lon="6.82085">
        <ele>1561.474</ele>
        <time>2011-06-12T13:33:54Z</time>
      </trkpt>
      <trkpt lat="44.09346" lon="6.82081">
        <ele>1561.322</ele>
        <time>2011-06-12T13:33:59Z</time>
      </trkpt>
      <trkpt lat="44.09349" lon="6.82076">
        <ele>1560.883</ele>
        <time>2011-06-12T13:34:06Z</time>
      </trkpt>
      <trkpt lat="44.09353" lon="6.82071">
        <ele>1563.954</ele>
        <time>2011-06-12T13:34:13Z</time>
      </trkpt>
      <trkpt lat="44.09353" lon="6.82065">
        <ele>1561.781</ele>
        <time>2011-06-12T13:34:18Z</time>
      </trkpt>
      <trkpt lat="44.09354" lon="6.82061">
        <ele>1561.073</ele>
        <time>2011-06-12T13:34:23Z</time>
      </trkpt>
      <trkpt lat="44.09355" lon="6.82054">
        <ele>1559.202</ele>
        <time>2011-06-12T13:34:30Z</time>
      </trkpt>
      <trkpt lat="44.09355" lon="6.82044">
        <ele>1557.302</ele>
        <time>2011-06-12T13:34:37Z</time>
      </trkpt>
      <trkpt lat="44.09357" lon="6.82037">
        <ele>1559.675</ele>
        <time>2011-06-12T13:34:44Z</time>
      </trkpt>
      <trkpt lat="44.0936" lon="6.8203">
        <ele>1560.074</ele>
        <time>2011-06-12T13:34:51Z</time>
      </trkpt>
      <trkpt lat="44.09363" lon="6.8202">
        <ele>1560.034</ele>
        <time>2011-06-12T13:34:59Z</time>
      </trkpt>
      <trkpt lat="44.09366" lon="6.82011">
        <ele>1558.151</ele>
        <time>2011-06-12T13:35:07Z</time>
      </trkpt>
      <trkpt lat="44.09366" lon="6.82005">
        <ele>1558.643</ele>
        <time>2011-06-12T13:35:13Z</time>
      </trkpt>
      <trkpt lat="44.0937" lon="6.81996">
        <ele>1559.383</ele>
        <time>2011-06-12T13:35:20Z</time>
      </trkpt>
      <trkpt lat="44.0938" lon="6.81984">
        <ele>1564.354</ele>
        <time>2011-06-12T13:35:29Z</time>
      </trkpt>
      <trkpt lat="44.09383" lon="6.81974">
        <ele>1564.053</ele>
        <time>2011-06-12T13:35:37Z</time>
      </trkpt>
      <trkpt lat="44.09385" lon="6.81964">
        <ele>1564.333</ele>
        <time>2011-06-12T13:35:45Z</time>
      </trkpt>
      <trkpt lat="44.09384" lon="6.81959">
        <ele>1565.492</ele>
        <time>2011-06-12T13:35:51Z</time>
      </trkpt>
      <trkpt lat="44.09383" lon="6.81958">
        <ele>1565.342</ele>
        <time>2011-06-12T13:35:52Z</time>
      </trkpt>
      <trkpt lat="44.09379" lon="6.81954">
        <ele>1564.579</ele>
        <time>2011-06-12T13:35:57Z</time>
      </trkpt>
      <trkpt lat="44.09371" lon="6.8195">
        <ele>1564.02</ele>
        <time>2011-06-12T13:36:05Z</time>
      </trkpt>
      <trkpt lat="44.09369" lon="6.81948">
        <ele>1564.17</ele>
        <time>2011-06-12T13:36:08Z</time>
      </trkpt>
      <trkpt lat="44.09368" lon="6.81945">
        <ele>1565.149</ele>
        <time>2011-06-12T13:36:15Z</time>
      </trkpt>
      <trkpt lat="44.09371" lon="6.81942">
        <ele>1569.119</ele>
        <time>2011-06-12T13:45:40Z</time>
      </trkpt>
      <trkpt lat="44.09371" lon="6.81942">
        <ele>1569.169</ele>
        <time>2011-06-12T13:46:21Z</time>
      </trkpt>
      <trkpt lat="44.09366" lon="6.81933">
        <ele>1569.389</ele>
        <time>2011-06-12T13:46:26Z</time>
      </trkpt>
      <trkpt lat="44.09353" lon="6.81917">
        <ele>1567.875</ele>
        <time>2011-06-12T13:46:32Z</time>
      </trkpt>
      <trkpt lat="44.09346" lon="6.81914">
        <ele>1567.727</ele>
        <time>2011-06-12T13:46:36Z</time>
      </trkpt>
      <trkpt lat="44.09345" lon="6.81912">
        <ele>1567.508</ele>
        <time>2011-06-12T13:47:41Z</time>
      </trkpt>
      <trkpt lat="44.09345" lon="6.81912">
        <ele>1567.448</ele>
        <time>2011-06-12T13:47:44Z</time>
      </trkpt>
      <trkpt lat="44.09339" lon="6.81907">
        <ele>1567.439</ele>
        <time>2011-06-12T13:47:48Z</time>
      </trkpt>
      <trkpt lat="44.09319" lon="6.81892">
        <ele>1566.668</ele>
        <time>2011-06-12T13:47:55Z</time>
      </trkpt>
      <trkpt lat="44.09304" lon="6.81873">
        <ele>1565.997</ele>
        <time>2011-06-12T13:48:01Z</time>
      </trkpt>
      <trkpt lat="44.09288" lon="6.8187">
        <ele>1564.275</ele>
        <time>2011-06-12T13:48:05Z</time>
      </trkpt>
      <trkpt lat="44.09261" lon="6.81863">
        <ele>1560.761</ele>
        <time>2011-06-12T13:48:11Z</time>
      </trkpt>
      <trkpt lat="44.0925" lon="6.81861">
        <ele>1559.32</ele>
        <time>2011-06-12T13:48:13Z</time>
      </trkpt>
      <trkpt lat="44.09238" lon="6.81859">
        <ele>1558.13</ele>
        <time>2011-06-12T13:48:15Z</time>
      </trkpt>
      <trkpt lat="44.09218" lon="6.81859">
        <ele>1555.187</ele>
        <time>2011-06-12T13:48:18Z</time>
      </trkpt>
      <trkpt lat="44.09194" lon="6.81848">
        <ele>1552.429</ele>
        <time>2011-06-12T13:48:23Z</time>
      </trkpt>
      <trkpt lat="44.09187" lon="6.81845">
        <ele>1551.594</ele>
        <time>2011-06-12T13:48:27Z</time>
      </trkpt>
      <trkpt lat="44.09181" lon="6.8184">
        <ele>1551.725</ele>
        <time>2011-06-12T13:48:29Z</time>
      </trkpt>
      <trkpt lat="44.09153" lon="6.81837">
        <ele>1548.994</ele>
        <time>2011-06-12T13:48:35Z</time>
      </trkpt>
      <trkpt lat="44.09138" lon="6.81833">
        <ele>1546.923</ele>
        <time>2011-06-12T13:48:39Z</time>
      </trkpt>
      <trkpt lat="44.09117" lon="6.81836">
        <ele>1545.443</ele>
        <time>2011-06-12T13:48:44Z</time>
      </trkpt>
      <trkpt lat="44.09107" lon="6.81844">
        <ele>1543.771</ele>
        <time>2011-06-12T13:48:47Z</time>
      </trkpt>
      <trkpt lat="44.09098" lon="6.8185">
        <ele>1542.71</ele>
        <time>2011-06-12T13:48:49Z</time>
      </trkpt>
      <trkpt lat="44.0907" lon="6.81853">
        <ele>1539.4</ele>
        <time>2011-06-12T13:48:54Z</time>
      </trkpt>
      <trkpt lat="44.09047" lon="6.81848">
        <ele>1536.708</ele>
        <time>2011-06-12T13:48:58Z</time>
      </trkpt>
      <trkpt lat="44.09034" lon="6.8185">
        <ele>1533.266</ele>
        <time>2011-06-12T13:49:01Z</time>
      </trkpt>
      <trkpt lat="44.09016" lon="6.81859">
        <ele>1528.728</ele>
        <time>2011-06-12T13:49:07Z</time>
      </trkpt>
      <trkpt lat="44.09014" lon="6.81856">
        <ele>1528.04</ele>
        <time>2011-06-12T13:49:09Z</time>
      </trkpt>
      <trkpt lat="44.09012" lon="6.81851">
        <ele>1527.541</ele>
        <time>2011-06-12T13:49:11Z</time>
      </trkpt>
      <trkpt lat="44.09007" lon="6.81836">
        <ele>1526.612</ele>
        <time>2011-06-12T13:49:17Z</time>
      </trkpt>
      <trkpt lat="44.09005" lon="6.81827">
        <ele>1527.506</ele>
        <time>2011-06-12T13:49:22Z</time>
      </trkpt>
      <trkpt lat="44.09008" lon="6.8182">
        <ele>1528.177</ele>
        <time>2011-06-12T13:49:26Z</time>
      </trkpt>
      <trkpt lat="44.09018" lon="6.81817">
        <ele>1526.935</ele>
        <time>2011-06-12T13:49:30Z</time>
      </trkpt>
      <trkpt lat="44.09025" lon="6.81808">
        <ele>1526.848</ele>
        <time>2011-06-12T13:49:33Z</time>
      </trkpt>
      <trkpt lat="44.09042" lon="6.81785">
        <ele>1525.958</ele>
        <time>2011-06-12T13:49:40Z</time>
      </trkpt>
      <trkpt lat="44.09062" lon="6.81766">
        <ele>1526.421</ele>
        <time>2011-06-12T13:49:46Z</time>
      </trkpt>
      <trkpt lat="44.09071" lon="6.81752">
        <ele>1526.441</ele>
        <time>2011-06-12T13:49:50Z</time>
      </trkpt>
      <trkpt lat="44.09079" lon="6.81738">
        <ele>1525.198</ele>
        <time>2011-06-12T13:49:55Z</time>
      </trkpt>
      <trkpt lat="44.09084" lon="6.81731">
        <ele>1524.137</ele>
        <time>2011-06-12T13:49:58Z</time>
      </trkpt>
      <trkpt lat="44.09094" lon="6.81718">
        <ele>1526.483</ele>
        <time>2011-06-12T13:50:02Z</time>
      </trkpt>
      <trkpt lat="44.09105" lon="6.81705">
        <ele>1528.475</ele>
        <time>2011-06-12T13:50:07Z</time>
      </trkpt>
      <trkpt lat="44.09113" lon="6.81685">
        <ele>1524.738</ele>
        <time>2011-06-12T13:50:12Z</time>
      </trkpt>
      <trkpt lat="44.09116" lon="6.81665">
        <ele>1523.727</ele>
        <time>2011-06-12T13:50:17Z</time>
      </trkpt>
      <trkpt lat="44.09123" lon="6.81651">
        <ele>1523.54</ele>
        <time>2011-06-12T13:50:21Z</time>
      </trkpt>
      <trkpt lat="44.09137" lon="6.81634">
        <ele>1520.177</ele>
        <time>2011-06-12T13:50:26Z</time>
      </trkpt>
      <trkpt lat="44.09138" lon="6.8163">
        <ele>1519.586</ele>
        <time>2011-06-12T13:50:27Z</time>
      </trkpt>
      <trkpt lat="44.0915" lon="6.81622">
        <ele>1516.737</ele>
        <time>2011-06-12T13:50:33Z</time>
      </trkpt>
      <trkpt lat="44.09152" lon="6.81619">
        <ele>1510.775</ele>
        <time>2011-06-12T13:50:39Z</time>
      </trkpt>
      <trkpt lat="44.09154" lon="6.81617">
        <ele>1515.958</ele>
        <time>2011-06-12T13:50:46Z</time>
      </trkpt>
      <trkpt lat="44.09166" lon="6.81611">
        <ele>1514.709</ele>
        <time>2011-06-12T13:50:51Z</time>
      </trkpt>
      <trkpt lat="44.09173" lon="6.81605">
        <ele>1514.85</ele>
        <time>2011-06-12T13:50:53Z</time>
      </trkpt>
      <trkpt lat="44.09204" lon="6.81594">
        <ele>1516.153</ele>
        <time>2011-06-12T13:51:00Z</time>
      </trkpt>
      <trkpt lat="44.09207" lon="6.81591">
        <ele>1516.323</ele>
        <time>2011-06-12T13:51:01Z</time>
      </trkpt>
      <trkpt lat="44.09218" lon="6.81579">
        <ele>1516.921</ele>
        <time>2011-06-12T13:51:06Z</time>
      </trkpt>
      <trkpt lat="44.09223" lon="6.81577">
        <ele>1512.306</ele>
        <time>2011-06-12T13:51:11Z</time>
      </trkpt>
      <trkpt lat="44.09225" lon="6.81577">
        <ele>1510.895</ele>
        <time>2011-06-12T13:51:13Z</time>
      </trkpt>
      <trkpt lat="44.09235" lon="6.81569">
        <ele>1511.009</ele>
        <time>2011-06-12T13:51:19Z</time>
      </trkpt>
      <trkpt lat="44.0924" lon="6.81564">
        <ele>1512.101</ele>
        <time>2011-06-12T13:51:22Z</time>
      </trkpt>
      <trkpt lat="44.09242" lon="6.81557">
        <ele>1512.932</ele>
        <time>2011-06-12T13:51:25Z</time>
      </trkpt>
      <trkpt lat="44.0925" lon="6.81552">
        <ele>1514.323</ele>
        <time>2011-06-12T13:51:29Z</time>
      </trkpt>
      <trkpt lat="44.09261" lon="6.81538">
        <ele>1509.678</ele>
        <time>2011-06-12T13:51:34Z</time>
      </trkpt>
      <trkpt lat="44.09272" lon="6.81527">
        <ele>1509.53</ele>
        <time>2011-06-12T13:51:39Z</time>
      </trkpt>
      <trkpt lat="44.09275" lon="6.81518">
        <ele>1508.51</ele>
        <time>2011-06-12T13:51:43Z</time>
      </trkpt>
      <trkpt lat="44.09282" lon="6.81507">
        <ele>1508.74</ele>
        <time>2011-06-12T13:51:47Z</time>
      </trkpt>
      <trkpt lat="44.09286" lon="6.81506">
        <ele>1508.53</ele>
        <time>2011-06-12T13:51:48Z</time>
      </trkpt>
      <trkpt lat="44.093" lon="6.81502">
        <ele>1509.441</ele>
        <time>2011-06-12T13:51:53Z</time>
      </trkpt>
      <trkpt lat="44.09311" lon="6.81498">
        <ele>1510.172</ele>
        <time>2011-06-12T13:51:58Z</time>
      </trkpt>
      <trkpt lat="44.09315" lon="6.81496">
        <ele>1510.001</ele>
        <time>2011-06-12T13:52:00Z</time>
      </trkpt>
      <trkpt lat="44.09328" lon="6.81481">
        <ele>1510.621</ele>
        <time>2011-06-12T13:52:05Z</time>
      </trkpt>
      <trkpt lat="44.09332" lon="6.81478">
        <ele>1511.081</ele>
        <time>2011-06-12T13:52:06Z</time>
      </trkpt>
      <trkpt lat="44.09346" lon="6.81458">
        <ele>1507.936</ele>
        <time>2011-06-12T13:52:11Z</time>
      </trkpt>
      <trkpt lat="44.09355" lon="6.81449">
        <ele>1504.783</ele>
        <time>2011-06-12T13:52:14Z</time>
      </trkpt>
      <trkpt lat="44.09358" lon="6.81446">
        <ele>1504.003</ele>
        <time>2011-06-12T13:52:15Z</time>
      </trkpt>
      <trkpt lat="44.09372" lon="6.81433">
        <ele>1503.136</ele>
        <time>2011-06-12T13:52:21Z</time>
      </trkpt>
      <trkpt lat="44.09386" lon="6.81424">
        <ele>1503.758</ele>
        <time>2011-06-12T13:52:27Z</time>
      </trkpt>
      <trkpt lat="44.09398" lon="6.81416">
        <ele>1502.688</ele>
        <time>2011-06-12T13:52:33Z</time>
      </trkpt>
      <trkpt lat="44.09404" lon="6.81412">
        <ele>1504.852</ele>
        <time>2011-06-12T13:52:37Z</time>
      </trkpt>
      <trkpt lat="44.09409" lon="6.81403">
        <ele>1504.261</ele>
        <time>2011-06-12T13:52:41Z</time>
      </trkpt>
      <trkpt lat="44.0942" lon="6.81399">
        <ele>1501.136</ele>
        <time>2011-06-12T13:52:46Z</time>
      </trkpt>
      <trkpt lat="44.09431" lon="6.81398">
        <ele>1500.277</ele>
        <time>2011-06-12T13:52:50Z</time>
      </trkpt>
      <trkpt lat="44.09434" lon="6.81398">
        <ele>1501.309</ele>
        <time>2011-06-12T13:52:53Z</time>
      </trkpt>
      <trkpt lat="44.09438" lon="6.81403">
        <ele>1500.884</ele>
        <time>2011-06-12T13:53:03Z</time>
      </trkpt>
      <trkpt lat="44.09445" lon="6.81402">
        <ele>1500.795</ele>
        <time>2011-06-12T13:53:08Z</time>
      </trkpt>
      <trkpt lat="44.09449" lon="6.81395">
        <ele>1500.587</ele>
        <time>2011-06-12T13:53:12Z</time>
      </trkpt>
      <trkpt lat="44.09451" lon="6.81392">
        <ele>1499.768</ele>
        <time>2011-06-12T13:53:16Z</time>
      </trkpt>
      <trkpt lat="44.09452" lon="6.81384">
        <ele>1499.08</ele>
        <time>2011-06-12T13:53:21Z</time>
      </trkpt>
      <trkpt lat="44.09453" lon="6.81384">
        <ele>1500.101</ele>
        <time>2011-06-12T13:53:22Z</time>
      </trkpt>
      <trkpt lat="44.09463" lon="6.81379">
        <ele>1499.651</ele>
        <time>2011-06-12T13:53:28Z</time>
      </trkpt>
      <trkpt lat="44.09474" lon="6.81363">
        <ele>1498.201</ele>
        <time>2011-06-12T13:53:33Z</time>
      </trkpt>
      <trkpt lat="44.09485" lon="6.81349">
        <ele>1496.452</ele>
        <time>2011-06-12T13:53:39Z</time>
      </trkpt>
      <trkpt lat="44.09497" lon="6.81336">
        <ele>1496.322</ele>
        <time>2011-06-12T13:53:46Z</time>
      </trkpt>
      <trkpt lat="44.095" lon="6.81333">
        <ele>1496.683</ele>
        <time>2011-06-12T13:53:47Z</time>
      </trkpt>
      <trkpt lat="44.09518" lon="6.8132">
        <ele>1498.653</ele>
        <time>2011-06-12T13:53:52Z</time>
      </trkpt>
      <trkpt lat="44.09533" lon="6.81308">
        <ele>1498.752</ele>
        <time>2011-06-12T13:53:57Z</time>
      </trkpt>
      <trkpt lat="44.09544" lon="6.81298">
        <ele>1497</ele>
        <time>2011-06-12T13:54:00Z</time>
      </trkpt>
      <trkpt lat="44.09571" lon="6.81268">
        <ele>1490.348</ele>
        <time>2011-06-12T13:54:08Z</time>
      </trkpt>
      <trkpt lat="44.09587" lon="6.81247">
        <ele>1487.837</ele>
        <time>2011-06-12T13:54:13Z</time>
      </trkpt>
      <trkpt lat="44.09606" lon="6.81217">
        <ele>1488.48</ele>
        <time>2011-06-12T13:54:19Z</time>
      </trkpt>
      <trkpt lat="44.09623" lon="6.81192">
        <ele>1489.572</ele>
        <time>2011-06-12T13:54:24Z</time>
      </trkpt>
      <trkpt lat="44.09639" lon="6.8117">
        <ele>1485.901</ele>
        <time>2011-06-12T13:54:30Z</time>
      </trkpt>
      <trkpt lat="44.09646" lon="6.8116">
        <ele>1488.898</ele>
        <time>2011-06-12T13:54:36Z</time>
      </trkpt>
      <trkpt lat="44.09655" lon="6.81155">
        <ele>1490.767</ele>
        <time>2011-06-12T13:54:43Z</time>
      </trkpt>
      <trkpt lat="44.09661" lon="6.8115">
        <ele>1491.517</ele>
        <time>2011-06-12T13:54:47Z</time>
      </trkpt>
      <trkpt lat="44.09665" lon="6.81142">
        <ele>1494.751</ele>
        <time>2011-06-12T13:54:52Z</time>
      </trkpt>
      <trkpt lat="44.09667" lon="6.81136">
        <ele>1497.402</ele>
        <time>2011-06-12T13:54:56Z</time>
      </trkpt>
      <trkpt lat="44.0967" lon="6.81126">
        <ele>1499.34</ele>
        <time>2011-06-12T13:55:01Z</time>
      </trkpt>
      <trkpt lat="44.09673" lon="6.81115">
        <ele>1499.927</ele>
        <time>2011-06-12T13:55:08Z</time>
      </trkpt>
      <trkpt lat="44.09676" lon="6.81107">
        <ele>1503.03</ele>
        <time>2011-06-12T13:55:12Z</time>
      </trkpt>
      <trkpt lat="44.09686" lon="6.81094">
        <ele>1507.05</ele>
        <time>2011-06-12T13:55:18Z</time>
      </trkpt>
      <trkpt lat="44.09698" lon="6.81071">
        <ele>1505.156</ele>
        <time>2011-06-12T13:55:26Z</time>
      </trkpt>
      <trkpt lat="44.09706" lon="6.81051">
        <ele>1504.436</ele>
        <time>2011-06-12T13:55:32Z</time>
      </trkpt>
      <trkpt lat="44.09708" lon="6.81047">
        <ele>1503.345</ele>
        <time>2011-06-12T13:55:33Z</time>
      </trkpt>
      <trkpt lat="44.09708" lon="6.81029">
        <ele>1501.133</ele>
        <time>2011-06-12T13:55:39Z</time>
      </trkpt>
      <trkpt lat="44.09703" lon="6.81019">
        <ele>1499.83</ele>
        <time>2011-06-12T13:55:45Z</time>
      </trkpt>
      <trkpt lat="44.09699" lon="6.81014">
        <ele>1498.209</ele>
        <time>2011-06-12T13:55:50Z</time>
      </trkpt>
      <trkpt lat="44.09696" lon="6.8101">
        <ele>1495.377</ele>
        <time>2011-06-12T13:55:55Z</time>
      </trkpt>
      <trkpt lat="44.09692" lon="6.81008">
        <ele>1489.875</ele>
        <time>2011-06-12T13:56:11Z</time>
      </trkpt>
      <trkpt lat="44.09676" lon="6.80989">
        <ele>1487.352</ele>
        <time>2011-06-12T13:56:16Z</time>
      </trkpt>
      <trkpt lat="44.09673" lon="6.80985">
        <ele>1486.502</ele>
        <time>2011-06-12T13:56:17Z</time>
      </trkpt>
      <trkpt lat="44.09651" lon="6.80971">
        <ele>1481.44</ele>
        <time>2011-06-12T13:56:23Z</time>
      </trkpt>
      <trkpt lat="44.09652" lon="6.80959">
        <ele>1480.072</ele>
        <time>2011-06-12T13:56:28Z</time>
      </trkpt>
      <trkpt lat="44.09662" lon="6.80946">
        <ele>1477.599</ele>
        <time>2011-06-12T13:56:31Z</time>
      </trkpt>
      <trkpt lat="44.09672" lon="6.80937">
        <ele>1477.57</ele>
        <time>2011-06-12T13:56:33Z</time>
      </trkpt>
      <trkpt lat="44.09681" lon="6.80929">
        <ele>1475.64</ele>
        <time>2011-06-12T13:56:35Z</time>
      </trkpt>
      <trkpt lat="44.09701" lon="6.80899">
        <ele>1470.595</ele>
        <time>2011-06-12T13:56:40Z</time>
      </trkpt>
      <trkpt lat="44.09714" lon="6.80869">
        <ele>1465.975</ele>
        <time>2011-06-12T13:56:45Z</time>
      </trkpt>
      <trkpt lat="44.09723" lon="6.80851">
        <ele>1460.503</ele>
        <time>2011-06-12T13:56:49Z</time>
      </trkpt>
      <trkpt lat="44.09739" lon="6.8083">
        <ele>1451.249</ele>
        <time>2011-06-12T13:56:54Z</time>
      </trkpt>
      <trkpt lat="44.09745" lon="6.80823">
        <ele>1450.001</ele>
        <time>2011-06-12T13:56:56Z</time>
      </trkpt>
      <trkpt lat="44.09764" lon="6.80804">
        <ele>1447.425</ele>
        <time>2011-06-12T13:57:00Z</time>
      </trkpt>
      <trkpt lat="44.09782" lon="6.80795">
        <ele>1444.428</ele>
        <time>2011-06-12T13:57:05Z</time>
      </trkpt>
      <trkpt lat="44.09797" lon="6.80783">
        <ele>1443.114</ele>
        <time>2011-06-12T13:57:10Z</time>
      </trkpt>
      <trkpt lat="44.09813" lon="6.80765">
        <ele>1443.958</ele>
        <time>2011-06-12T13:57:15Z</time>
      </trkpt>
      <trkpt lat="44.09829" lon="6.80752">
        <ele>1445.331</ele>
        <time>2011-06-12T13:57:20Z</time>
      </trkpt>
      <trkpt lat="44.09846" lon="6.80738">
        <ele>1447.714</ele>
        <time>2011-06-12T13:57:25Z</time>
      </trkpt>
      <trkpt lat="44.09861" lon="6.80724">
        <ele>1451.195</ele>
        <time>2011-06-12T13:57:29Z</time>
      </trkpt>
      <trkpt lat="44.09888" lon="6.80699">
        <ele>1451.073</ele>
        <time>2011-06-12T13:57:35Z</time>
      </trkpt>
      <trkpt lat="44.09892" lon="6.80694">
        <ele>1450.842</ele>
        <time>2011-06-12T13:57:36Z</time>
      </trkpt>
      <trkpt lat="44.09907" lon="6.80667">
        <ele>1449.392</ele>
        <time>2011-06-12T13:57:41Z</time>
      </trkpt>
      <trkpt lat="44.09913" lon="6.80659">
        <ele>1448.101</ele>
        <time>2011-06-12T13:57:43Z</time>
      </trkpt>
      <trkpt lat="44.09936" lon="6.80631">
        <ele>1446.602</ele>
        <time>2011-06-12T13:57:51Z</time>
      </trkpt>
      <trkpt lat="44.09948" lon="6.80617">
        <ele>1445.913</ele>
        <time>2011-06-12T13:57:56Z</time>
      </trkpt>
      <trkpt lat="44.0996" lon="6.80603">
        <ele>1446.564</ele>
        <time>2011-06-12T13:58:00Z</time>
      </trkpt>
      <trkpt lat="44.09978" lon="6.8059">
        <ele>1445.249</ele>
        <time>2011-06-12T13:58:05Z</time>
      </trkpt>
      <trkpt lat="44.09985" lon="6.80581">
        <ele>1444.789</ele>
        <time>2011-06-12T13:58:07Z</time>
      </trkpt>
      <trkpt lat="44.10005" lon="6.80563">
        <ele>1443.841</ele>
        <time>2011-06-12T13:58:13Z</time>
      </trkpt>
      <trkpt lat="44.10013" lon="6.80558">
        <ele>1443.66</ele>
        <time>2011-06-12T13:58:18Z</time>
      </trkpt>
      <trkpt lat="44.10014" lon="6.80558">
        <ele>1443.318</ele>
        <time>2011-06-12T13:58:19Z</time>
      </trkpt>
      <trkpt lat="44.10009" lon="6.80556">
        <ele>1444.097</ele>
        <time>2011-06-12T13:58:24Z</time>
      </trkpt>
      <trkpt lat="44.10006" lon="6.80547">
        <ele>1444.668</ele>
        <time>2011-06-12T13:58:29Z</time>
      </trkpt>
      <trkpt lat="44.10013" lon="6.8053">
        <ele>1443.697</ele>
        <time>2011-06-12T13:58:35Z</time>
      </trkpt>
      <trkpt lat="44.10016" lon="6.80527">
        <ele>1442.414</ele>
        <time>2011-06-12T13:58:36Z</time>
      </trkpt>
      <trkpt lat="44.10035" lon="6.80505">
        <ele>1441.887</ele>
        <time>2011-06-12T13:58:41Z</time>
      </trkpt>
      <trkpt lat="44.10054" lon="6.80476">
        <ele>1441.137</ele>
        <time>2011-06-12T13:58:46Z</time>
      </trkpt>
      <trkpt lat="44.10073" lon="6.80431">
        <ele>1437.485</ele>
        <time>2011-06-12T13:58:52Z</time>
      </trkpt>
      <trkpt lat="44.10085" lon="6.80407">
        <ele>1434.765</ele>
        <time>2011-06-12T13:58:55Z</time>
      </trkpt>
      <trkpt lat="44.101" lon="6.8037">
        <ele>1429.213</ele>
        <time>2011-06-12T13:58:59Z</time>
      </trkpt>
      <trkpt lat="44.10107" lon="6.80351">
        <ele>1426.951</ele>
        <time>2011-06-12T13:59:01Z</time>
      </trkpt>
      <trkpt lat="44.10112" lon="6.80317">
        <ele>1424.663</ele>
        <time>2011-06-12T13:59:05Z</time>
      </trkpt>
      <trkpt lat="44.10101" lon="6.80299">
        <ele>1422.511</ele>
        <time>2011-06-12T13:59:09Z</time>
      </trkpt>
      <trkpt lat="44.10092" lon="6.80287">
        <ele>1422.374</ele>
        <time>2011-06-12T13:59:11Z</time>
      </trkpt>
      <trkpt lat="44.10094" lon="6.80253">
        <ele>1425.822</ele>
        <time>2011-06-12T13:59:17Z</time>
      </trkpt>
      <trkpt lat="44.10097" lon="6.80249">
        <ele>1426.884</ele>
        <time>2011-06-12T13:59:18Z</time>
      </trkpt>
      <trkpt lat="44.1011" lon="6.80226">
        <ele>1427.173</ele>
        <time>2011-06-12T13:59:24Z</time>
      </trkpt>
      <trkpt lat="44.10121" lon="6.80212">
        <ele>1426.612</ele>
        <time>2011-06-12T13:59:30Z</time>
      </trkpt>
      <trkpt lat="44.10134" lon="6.80197">
        <ele>1427.997</ele>
        <time>2011-06-12T13:59:37Z</time>
      </trkpt>
      <trkpt lat="44.10141" lon="6.8018">
        <ele>1428.908</ele>
        <time>2011-06-12T13:59:43Z</time>
      </trkpt>
      <trkpt lat="44.10148" lon="6.80156">
        <ele>1430.015</ele>
        <time>2011-06-12T13:59:49Z</time>
      </trkpt>
      <trkpt lat="44.10155" lon="6.80128">
        <ele>1431.586</ele>
        <time>2011-06-12T13:59:56Z</time>
      </trkpt>
      <trkpt lat="44.10163" lon="6.80107">
        <ele>1433.085</ele>
        <time>2011-06-12T14:00:02Z</time>
      </trkpt>
      <trkpt lat="44.10172" lon="6.80095">
        <ele>1433.384</ele>
        <time>2011-06-12T14:00:07Z</time>
      </trkpt>
      <trkpt lat="44.10183" lon="6.8008">
        <ele>1435.864</ele>
        <time>2011-06-12T14:00:14Z</time>
      </trkpt>
      <trkpt lat="44.10189" lon="6.80069">
        <ele>1433.888</ele>
        <time>2011-06-12T14:00:17Z</time>
      </trkpt>
      <trkpt lat="44.10186" lon="6.80042">
        <ele>1430.953</ele>
        <time>2011-06-12T14:00:21Z</time>
      </trkpt>
      <trkpt lat="44.10176" lon="6.80023">
        <ele>1425.343</ele>
        <time>2011-06-12T14:00:25Z</time>
      </trkpt>
      <trkpt lat="44.1017" lon="6.80006">
        <ele>1421.022</ele>
        <time>2011-06-12T14:00:28Z</time>
      </trkpt>
      <trkpt lat="44.10156" lon="6.79989">
        <ele>1415.67</ele>
        <time>2011-06-12T14:00:32Z</time>
      </trkpt>
      <trkpt lat="44.10146" lon="6.79985">
        <ele>1412.007</ele>
        <time>2011-06-12T14:00:34Z</time>
      </trkpt>
      <trkpt lat="44.10137" lon="6.79965">
        <ele>1406.77</ele>
        <time>2011-06-12T14:00:38Z</time>
      </trkpt>
      <trkpt lat="44.10145" lon="6.79949">
        <ele>1404.936</ele>
        <time>2011-06-12T14:00:42Z</time>
      </trkpt>
      <trkpt lat="44.10148" lon="6.79946">
        <ele>1404.658</ele>
        <time>2011-06-12T14:00:43Z</time>
      </trkpt>
      <trkpt lat="44.1017" lon="6.79917">
        <ele>1404.014</ele>
        <time>2011-06-12T14:00:51Z</time>
      </trkpt>
      <trkpt lat="44.10181" lon="6.79922">
        <ele>1401.078</ele>
        <time>2011-06-12T14:00:55Z</time>
      </trkpt>
      <trkpt lat="44.10185" lon="6.7993">
        <ele>1401.469</ele>
        <time>2011-06-12T14:00:57Z</time>
      </trkpt>
      <trkpt lat="44.10198" lon="6.79945">
        <ele>1398.806</ele>
        <time>2011-06-12T14:01:02Z</time>
      </trkpt>
      <trkpt lat="44.10208" lon="6.79959">
        <ele>1395.69</ele>
        <time>2011-06-12T14:01:05Z</time>
      </trkpt>
      <trkpt lat="44.10225" lon="6.7998">
        <ele>1390.15</ele>
        <time>2011-06-12T14:01:10Z</time>
      </trkpt>
      <trkpt lat="44.1023" lon="6.79984">
        <ele>1389.352</ele>
        <time>2011-06-12T14:01:12Z</time>
      </trkpt>
      <trkpt lat="44.10239" lon="6.79987">
        <ele>1387.392</ele>
        <time>2011-06-12T14:01:14Z</time>
      </trkpt>
      <trkpt lat="44.10263" lon="6.79993">
        <ele>1383.662</ele>
        <time>2011-06-12T14:01:18Z</time>
      </trkpt>
      <trkpt lat="44.10271" lon="6.80018">
        <ele>1377.709</ele>
        <time>2011-06-12T14:01:22Z</time>
      </trkpt>
      <trkpt lat="44.10274" lon="6.80046">
        <ele>1375.42</ele>
        <time>2011-06-12T14:01:26Z</time>
      </trkpt>
      <trkpt lat="44.10276" lon="6.80053">
        <ele>1376.43</ele>
        <time>2011-06-12T14:01:27Z</time>
      </trkpt>
      <trkpt lat="44.10286" lon="6.80056">
        <ele>1375.868</ele>
        <time>2011-06-12T14:01:33Z</time>
      </trkpt>
      <trkpt lat="44.1029" lon="6.80054">
        <ele>1377.255</ele>
        <time>2011-06-12T14:01:37Z</time>
      </trkpt>
      <trkpt lat="44.10295" lon="6.80055">
        <ele>1381.51</ele>
        <time>2011-06-12T14:01:42Z</time>
      </trkpt>
      <trkpt lat="44.10299" lon="6.80055">
        <ele>1384.752</ele>
        <time>2011-06-12T14:01:47Z</time>
      </trkpt>
      <trkpt lat="44.10304" lon="6.8006">
        <ele>1384.176</ele>
        <time>2011-06-12T14:01:53Z</time>
      </trkpt>
      <trkpt lat="44.10306" lon="6.80061">
        <ele>1385.698</ele>
        <time>2011-06-12T14:01:55Z</time>
      </trkpt>
      <trkpt lat="44.1031" lon="6.80063">
        <ele>1386.278</ele>
        <time>2011-06-12T14:01:59Z</time>
      </trkpt>
      <trkpt lat="44.10316" lon="6.80069">
        <ele>1387.948</ele>
        <time>2011-06-12T14:02:07Z</time>
      </trkpt>
      <trkpt lat="44.10319" lon="6.80071">
        <ele>1387.306</ele>
        <time>2011-06-12T14:02:11Z</time>
      </trkpt>
      <trkpt lat="44.10326" lon="6.80076">
        <ele>1387.057</ele>
        <time>2011-06-12T14:02:28Z</time>
      </trkpt>
      <trkpt lat="44.10338" lon="6.80077">
        <ele>1384.804</ele>
        <time>2011-06-12T14:02:33Z</time>
      </trkpt>
      <trkpt lat="44.10341" lon="6.80075">
        <ele>1382.172</ele>
        <time>2011-06-12T14:02:37Z</time>
      </trkpt>
      <trkpt lat="44.10352" lon="6.80071">
        <ele>1383.006</ele>
        <time>2011-06-12T14:02:43Z</time>
      </trkpt>
      <trkpt lat="44.10367" lon="6.80063">
        <ele>1385.06</ele>
        <time>2011-06-12T14:02:48Z</time>
      </trkpt>
      <trkpt lat="44.10378" lon="6.80051">
        <ele>1387.481</ele>
        <time>2011-06-12T14:02:53Z</time>
      </trkpt>
      <trkpt lat="44.10389" lon="6.80031">
        <ele>1389.252</ele>
        <time>2011-06-12T14:02:58Z</time>
      </trkpt>
      <trkpt lat="44.10403" lon="6.80004">
        <ele>1391.063</ele>
        <time>2011-06-12T14:03:04Z</time>
      </trkpt>
      <trkpt lat="44.10412" lon="6.7999">
        <ele>1388.138</ele>
        <time>2011-06-12T14:03:09Z</time>
      </trkpt>
      <trkpt lat="44.10418" lon="6.79982">
        <ele>1386.436</ele>
        <time>2011-06-12T14:03:11Z</time>
      </trkpt>
      <trkpt lat="44.10427" lon="6.79973">
        <ele>1384.813</ele>
        <time>2011-06-12T14:03:13Z</time>
      </trkpt>
      <trkpt lat="44.10437" lon="6.79964">
        <ele>1383.002</ele>
        <time>2011-06-12T14:03:15Z</time>
      </trkpt>
      <trkpt lat="44.10463" lon="6.7995">
        <ele>1377.805</ele>
        <time>2011-06-12T14:03:20Z</time>
      </trkpt>
      <trkpt lat="44.10477" lon="6.79936">
        <ele>1372.663</ele>
        <time>2011-06-12T14:03:24Z</time>
      </trkpt>
      <trkpt lat="44.1048" lon="6.79931">
        <ele>1372.604</ele>
        <time>2011-06-12T14:03:25Z</time>
      </trkpt>
      <trkpt lat="44.10494" lon="6.79914">
        <ele>1373.188</ele>
        <time>2011-06-12T14:03:28Z</time>
      </trkpt>
      <trkpt lat="44.10511" lon="6.79895">
        <ele>1374.231</ele>
        <time>2011-06-12T14:03:33Z</time>
      </trkpt>
      <trkpt lat="44.10518" lon="6.79893">
        <ele>1376.375</ele>
        <time>2011-06-12T14:03:35Z</time>
      </trkpt>
      <trkpt lat="44.10539" lon="6.79894">
        <ele>1383.435</ele>
        <time>2011-06-12T14:03:39Z</time>
      </trkpt>
      <trkpt lat="44.1056" lon="6.79893">
        <ele>1386.576</ele>
        <time>2011-06-12T14:03:43Z</time>
      </trkpt>
      <trkpt lat="44.10596" lon="6.79874">
        <ele>1396.235</ele>
        <time>2011-06-12T14:03:49Z</time>
      </trkpt>
      <trkpt lat="44.10602" lon="6.79872">
        <ele>1395.954</ele>
        <time>2011-06-12T14:03:50Z</time>
      </trkpt>
      <trkpt lat="44.1063" lon="6.79855">
        <ele>1392.646</ele>
        <time>2011-06-12T14:03:55Z</time>
      </trkpt>
      <trkpt lat="44.10646" lon="6.79847">
        <ele>1389.709</ele>
        <time>2011-06-12T14:03:59Z</time>
      </trkpt>
      <trkpt lat="44.10651" lon="6.79845">
        <ele>1387.186</ele>
        <time>2011-06-12T14:04:00Z</time>
      </trkpt>
      <trkpt lat="44.1067" lon="6.79837">
        <ele>1377.12</ele>
        <time>2011-06-12T14:04:06Z</time>
      </trkpt>
      <trkpt lat="44.10681" lon="6.79836">
        <ele>1372.949</ele>
        <time>2011-06-12T14:04:09Z</time>
      </trkpt>
      <trkpt lat="44.10707" lon="6.79839">
        <ele>1361.113</ele>
        <time>2011-06-12T14:04:14Z</time>
      </trkpt>
      <trkpt lat="44.10719" lon="6.79853">
        <ele>1347.144</ele>
        <time>2011-06-12T14:04:18Z</time>
      </trkpt>
      <trkpt lat="44.10723" lon="6.79862">
        <ele>1321.609</ele>
        <time>2011-06-12T14:04:24Z</time>
      </trkpt>
      <trkpt lat="44.10728" lon="6.79871">
        <ele>1307.549</ele>
        <time>2011-06-12T14:04:52Z</time>
      </trkpt>
      <trkpt lat="44.10733" lon="6.79882">
        <ele>1299.492</ele>
        <time>2011-06-12T14:05:07Z</time>
      </trkpt>
      <trkpt lat="44.10735" lon="6.79909">
        <ele>1296.582</ele>
        <time>2011-06-12T14:05:12Z</time>
      </trkpt>
      <trkpt lat="44.10737" lon="6.79933">
        <ele>1295.783</ele>
        <time>2011-06-12T14:05:17Z</time>
      </trkpt>
      <trkpt lat="44.10741" lon="6.79957">
        <ele>1291.768</ele>
        <time>2011-06-12T14:05:22Z</time>
      </trkpt>
      <trkpt lat="44.1074" lon="6.79969">
        <ele>1290.49</ele>
        <time>2011-06-12T14:05:26Z</time>
      </trkpt>
      <trkpt lat="44.10743" lon="6.79956">
        <ele>1285.711</ele>
        <time>2011-06-12T14:05:32Z</time>
      </trkpt>
      <trkpt lat="44.10754" lon="6.7993">
        <ele>1278.726</ele>
        <time>2011-06-12T14:05:37Z</time>
      </trkpt>
      <trkpt lat="44.10763" lon="6.79909">
        <ele>1271.035</ele>
        <time>2011-06-12T14:05:43Z</time>
      </trkpt>
      <trkpt lat="44.10766" lon="6.79892">
        <ele>1273.013</ele>
        <time>2011-06-12T14:05:48Z</time>
      </trkpt>
      <trkpt lat="44.10763" lon="6.79888">
        <ele>1279.838</ele>
        <time>2011-06-12T14:05:55Z</time>
      </trkpt>
      <trkpt lat="44.10771" lon="6.79885">
        <ele>1278.835</ele>
        <time>2011-06-12T14:06:27Z</time>
      </trkpt>
      <trkpt lat="44.10775" lon="6.79883">
        <ele>1277.625</ele>
        <time>2011-06-12T14:06:30Z</time>
      </trkpt>
      <trkpt lat="44.10797" lon="6.79887">
        <ele>1272.83</ele>
        <time>2011-06-12T14:06:36Z</time>
      </trkpt>
      <trkpt lat="44.10796" lon="6.79895">
        <ele>1269.927</ele>
        <time>2011-06-12T14:06:40Z</time>
      </trkpt>
      <trkpt lat="44.10795" lon="6.799">
        <ele>1269.792</ele>
        <time>2011-06-12T14:06:44Z</time>
      </trkpt>
      <trkpt lat="44.10802" lon="6.79904">
        <ele>1268.04</ele>
        <time>2011-06-12T14:06:49Z</time>
      </trkpt>
      <trkpt lat="44.10805" lon="6.79914">
        <ele>1262.387</ele>
        <time>2011-06-12T14:06:55Z</time>
      </trkpt>
      <trkpt lat="44.10801" lon="6.7992">
        <ele>1257.994</ele>
        <time>2011-06-12T14:06:59Z</time>
      </trkpt>
      <trkpt lat="44.10803" lon="6.79925">
        <ele>1256.515</ele>
        <time>2011-06-12T14:07:03Z</time>
      </trkpt>
      <trkpt lat="44.10801" lon="6.79933">
        <ele>1251.029</ele>
        <time>2011-06-12T14:07:08Z</time>
      </trkpt>
      <trkpt lat="44.10794" lon="6.79942">
        <ele>1246.252</ele>
        <time>2011-06-12T14:07:14Z</time>
      </trkpt>
      <trkpt lat="44.10794" lon="6.79956">
        <ele>1248.478</ele>
        <time>2011-06-12T14:07:18Z</time>
      </trkpt>
      <trkpt lat="44.10796" lon="6.79965">
        <ele>1243.846</ele>
        <time>2011-06-12T14:07:22Z</time>
      </trkpt>
      <trkpt lat="44.10792" lon="6.79992">
        <ele>1244.45</ele>
        <time>2011-06-12T14:07:28Z</time>
      </trkpt>
      <trkpt lat="44.10796" lon="6.79998">
        <ele>1246.233</ele>
        <time>2011-06-12T14:07:33Z</time>
      </trkpt>
      <trkpt lat="44.10801" lon="6.79999">
        <ele>1244.14</ele>
        <time>2011-06-12T14:07:36Z</time>
      </trkpt>
      <trkpt lat="44.10802" lon="6.80003">
        <ele>1239.414</ele>
        <time>2011-06-12T14:07:40Z</time>
      </trkpt>
      <trkpt lat="44.10801" lon="6.8">
        <ele>1237.356</ele>
        <time>2011-06-12T14:07:42Z</time>
      </trkpt>
      <trkpt lat="44.10808" lon="6.79996">
        <ele>1231.265</ele>
        <time>2011-06-12T14:07:48Z</time>
      </trkpt>
      <trkpt lat="44.10806" lon="6.80002">
        <ele>1224.553</ele>
        <time>2011-06-12T14:07:53Z</time>
      </trkpt>
      <trkpt lat="44.10812" lon="6.80015">
        <ele>1221.094</ele>
        <time>2011-06-12T14:07:58Z</time>
      </trkpt>
      <trkpt lat="44.10817" lon="6.80039">
        <ele>1223.599</ele>
        <time>2011-06-12T14:08:01Z</time>
      </trkpt>
      <trkpt lat="44.10818" lon="6.8007">
        <ele>1219.244</ele>
        <time>2011-06-12T14:08:06Z</time>
      </trkpt>
      <trkpt lat="44.10823" lon="6.80088">
        <ele>1220.551</ele>
        <time>2011-06-12T14:08:10Z</time>
      </trkpt>
      <trkpt lat="44.10825" lon="6.80091">
        <ele>1220.53</ele>
        <time>2011-06-12T14:08:11Z</time>
      </trkpt>
      <trkpt lat="44.10836" lon="6.801">
        <ele>1222.313</ele>
        <time>2011-06-12T14:08:15Z</time>
      </trkpt>
      <trkpt lat="44.10844" lon="6.80095">
        <ele>1219.5</ele>
        <time>2011-06-12T14:08:20Z</time>
      </trkpt>
      <trkpt lat="44.10836" lon="6.80086">
        <ele>1216.149</ele>
        <time>2011-06-12T14:08:24Z</time>
      </trkpt>
      <trkpt lat="44.10836" lon="6.80071">
        <ele>1213.069</ele>
        <time>2011-06-12T14:08:28Z</time>
      </trkpt>
      <trkpt lat="44.10842" lon="6.80064">
        <ele>1211.148</ele>
        <time>2011-06-12T14:08:30Z</time>
      </trkpt>
      <trkpt lat="44.10848" lon="6.80059">
        <ele>1211.329</ele>
        <time>2011-06-12T14:08:32Z</time>
      </trkpt>
      <trkpt lat="44.10857" lon="6.80048">
        <ele>1205.805</ele>
        <time>2011-06-12T14:08:36Z</time>
      </trkpt>
      <trkpt lat="44.10867" lon="6.80048">
        <ele>1197.207</ele>
        <time>2011-06-12T14:08:41Z</time>
      </trkpt>
      <trkpt lat="44.10869" lon="6.80034">
        <ele>1190.13</ele>
        <time>2011-06-12T14:08:45Z</time>
      </trkpt>
      <trkpt lat="44.10871" lon="6.80032">
        <ele>1189.002</ele>
        <time>2011-06-12T14:08:46Z</time>
      </trkpt>
      <trkpt lat="44.10881" lon="6.80017">
        <ele>1184.365</ele>
        <time>2011-06-12T14:08:52Z</time>
      </trkpt>
      <trkpt lat="44.10885" lon="6.79994">
        <ele>1175.289</ele>
        <time>2011-06-12T14:08:58Z</time>
      </trkpt>
      <trkpt lat="44.10887" lon="6.79972">
        <ele>1164.831</ele>
        <time>2011-06-12T14:09:03Z</time>
      </trkpt>
      <trkpt lat="44.10893" lon="6.79966">
        <ele>1156.904</ele>
        <time>2011-06-12T14:09:07Z</time>
      </trkpt>
      <trkpt lat="44.10893" lon="6.79968">
        <ele>1157.084</ele>
        <time>2011-06-12T14:09:08Z</time>
      </trkpt>
      <trkpt lat="44.10893" lon="6.79995">
        <ele>1154.345</ele>
        <time>2011-06-12T14:09:13Z</time>
      </trkpt>
      <trkpt lat="44.10892" lon="6.80012">
        <ele>1152.71</ele>
        <time>2011-06-12T14:09:17Z</time>
      </trkpt>
      <trkpt lat="44.10901" lon="6.80009">
        <ele>1148.5</ele>
        <time>2011-06-12T14:09:20Z</time>
      </trkpt>
      <trkpt lat="44.10909" lon="6.79999">
        <ele>1145.978</ele>
        <time>2011-06-12T14:09:23Z</time>
      </trkpt>
      <trkpt lat="44.10912" lon="6.79999">
        <ele>1143.95</ele>
        <time>2011-06-12T14:09:25Z</time>
      </trkpt>
      <trkpt lat="44.1092" lon="6.7999">
        <ele>1139.003</ele>
        <time>2011-06-12T14:09:30Z</time>
      </trkpt>
      <trkpt lat="44.10927" lon="6.79993">
        <ele>1134.72</ele>
        <time>2011-06-12T14:09:35Z</time>
      </trkpt>
      <trkpt lat="44.10935" lon="6.79992">
        <ele>1130.28</ele>
        <time>2011-06-12T14:09:40Z</time>
      </trkpt>
      <trkpt lat="44.10941" lon="6.79983">
        <ele>1130.477</ele>
        <time>2011-06-12T14:09:44Z</time>
      </trkpt>
      <trkpt lat="44.10947" lon="6.79981">
        <ele>1135.445</ele>
        <time>2011-06-12T14:09:49Z</time>
      </trkpt>
      <trkpt lat="44.10953" lon="6.79979">
        <ele>1131.474</ele>
        <time>2011-06-12T14:10:08Z</time>
      </trkpt>
      <trkpt lat="44.10949" lon="6.79988">
        <ele>1138.07</ele>
        <time>2011-06-12T14:10:25Z</time>
      </trkpt>
      <trkpt lat="44.10958" lon="6.79988">
        <ele>1140.889</ele>
        <time>2011-06-12T14:10:30Z</time>
      </trkpt>
      <trkpt lat="44.10962" lon="6.79975">
        <ele>1138.547</ele>
        <time>2011-06-12T14:10:36Z</time>
      </trkpt>
      <trkpt lat="44.10968" lon="6.79955">
        <ele>1133.745</ele>
        <time>2011-06-12T14:10:43Z</time>
      </trkpt>
      <trkpt lat="44.1097" lon="6.79951">
        <ele>1131.734</ele>
        <time>2011-06-12T14:10:45Z</time>
      </trkpt>
      <trkpt lat="44.10971" lon="6.79949">
        <ele>1130.032</ele>
        <time>2011-06-12T14:10:48Z</time>
      </trkpt>
      <trkpt lat="44.10974" lon="6.79936">
        <ele>1128.876</ele>
        <time>2011-06-12T14:10:52Z</time>
      </trkpt>
      <trkpt lat="44.10978" lon="6.79924">
        <ele>1123.522</ele>
        <time>2011-06-12T14:10:56Z</time>
      </trkpt>
      <trkpt lat="44.10989" lon="6.79902">
        <ele>1118.289</ele>
        <time>2011-06-12T14:11:02Z</time>
      </trkpt>
      <trkpt lat="44.10999" lon="6.79893">
        <ele>1116.763</ele>
        <time>2011-06-12T14:11:07Z</time>
      </trkpt>
      <trkpt lat="44.11001" lon="6.79892">
        <ele>1116.585</ele>
        <time>2011-06-12T14:11:09Z</time>
      </trkpt>
      <trkpt lat="44.1101" lon="6.79885">
        <ele>1116.767</ele>
        <time>2011-06-12T14:11:14Z</time>
      </trkpt>
      <trkpt lat="44.11023" lon="6.79881">
        <ele>1119.05</ele>
        <time>2011-06-12T14:11:20Z</time>
      </trkpt>
      <trkpt lat="44.11035" lon="6.79873">
        <ele>1117.557</ele>
        <time>2011-06-12T14:11:24Z</time>
      </trkpt>
      <trkpt lat="44.11053" lon="6.79862">
        <ele>1114.663</ele>
        <time>2011-06-12T14:11:29Z</time>
      </trkpt>
      <trkpt lat="44.11059" lon="6.79857">
        <ele>1114.002</ele>
        <time>2011-06-12T14:11:30Z</time>
      </trkpt>
      <trkpt lat="44.11091" lon="6.79831">
        <ele>1107.488</ele>
        <time>2011-06-12T14:11:35Z</time>
      </trkpt>
      <trkpt lat="44.11113" lon="6.79819">
        <ele>1106.36</ele>
        <time>2011-06-12T14:11:40Z</time>
      </trkpt>
      <trkpt lat="44.11124" lon="6.79809">
        <ele>1105.734</ele>
        <time>2011-06-12T14:11:44Z</time>
      </trkpt>
      <trkpt lat="44.11139" lon="6.79792">
        <ele>1106.586</ele>
        <time>2011-06-12T14:11:49Z</time>
      </trkpt>
      <trkpt lat="44.11148" lon="6.79787">
        <ele>1105.384</ele>
        <time>2011-06-12T14:11:53Z</time>
      </trkpt>
      <trkpt lat="44.1116" lon="6.79778">
        <ele>1104.202</ele>
        <time>2011-06-12T14:11:57Z</time>
      </trkpt>
      <trkpt lat="44.11191" lon="6.79764">
        <ele>1098.427</ele>
        <time>2011-06-12T14:12:03Z</time>
      </trkpt>
      <trkpt lat="44.11199" lon="6.7976">
        <ele>1096.866</ele>
        <time>2011-06-12T14:12:04Z</time>
      </trkpt>
      <trkpt lat="44.11218" lon="6.79743">
        <ele>1093.657</ele>
        <time>2011-06-12T14:12:09Z</time>
      </trkpt>
      <trkpt lat="44.11238" lon="6.79732">
        <ele>1088.295</ele>
        <time>2011-06-12T14:12:14Z</time>
      </trkpt>
      <trkpt lat="44.11259" lon="6.79731">
        <ele>1083.282</ele>
        <time>2011-06-12T14:12:18Z</time>
      </trkpt>
      <trkpt lat="44.11274" lon="6.79726">
        <ele>1078.353</ele>
        <time>2011-06-12T14:12:22Z</time>
      </trkpt>
      <trkpt lat="44.11288" lon="6.79719">
        <ele>1076.435</ele>
        <time>2011-06-12T14:12:25Z</time>
      </trkpt>
      <trkpt lat="44.11301" lon="6.79707">
        <ele>1074.514</ele>
        <time>2011-06-12T14:12:27Z</time>
      </trkpt>
      <trkpt lat="44.11322" lon="6.79663">
        <ele>1067.381</ele>
        <time>2011-06-12T14:12:32Z</time>
      </trkpt>
      <trkpt lat="44.11325" lon="6.79653">
        <ele>1065.35</ele>
        <time>2011-06-12T14:12:33Z</time>
      </trkpt>
      <trkpt lat="44.11343" lon="6.79604">
        <ele>1061.384</ele>
        <time>2011-06-12T14:12:39Z</time>
      </trkpt>
      <trkpt lat="44.11347" lon="6.79596">
        <ele>1058.808</ele>
        <time>2011-06-12T14:12:40Z</time>
      </trkpt>
      <trkpt lat="44.11365" lon="6.79584">
        <ele>1059.807</ele>
        <time>2011-06-12T14:12:44Z</time>
      </trkpt>
      <trkpt lat="44.11392" lon="6.79568">
        <ele>1055.437</ele>
        <time>2011-06-12T14:12:49Z</time>
      </trkpt>
      <trkpt lat="44.11402" lon="6.79555">
        <ele>1052.188</ele>
        <time>2011-06-12T14:12:54Z</time>
      </trkpt>
      <trkpt lat="44.11397" lon="6.79559">
        <ele>1055.563</ele>
        <time>2011-06-12T14:13:01Z</time>
      </trkpt>
      <trkpt lat="44.11398" lon="6.79549">
        <ele>1051.35</ele>
        <time>2011-06-12T14:13:25Z</time>
      </trkpt>
      <trkpt lat="44.11406" lon="6.79526">
        <ele>1052.262</ele>
        <time>2011-06-12T14:13:30Z</time>
      </trkpt>
      <trkpt lat="44.11412" lon="6.79497">
        <ele>1052.533</ele>
        <time>2011-06-12T14:13:35Z</time>
      </trkpt>
      <trkpt lat="44.11415" lon="6.79467">
        <ele>1051.911</ele>
        <time>2011-06-12T14:13:41Z</time>
      </trkpt>
      <trkpt lat="44.11397" lon="6.79444">
        <ele>1051.4</ele>
        <time>2011-06-12T14:13:46Z</time>
      </trkpt>
      <trkpt lat="44.11377" lon="6.79419">
        <ele>1056.625</ele>
        <time>2011-06-12T14:13:51Z</time>
      </trkpt>
      <trkpt lat="44.11373" lon="6.79412">
        <ele>1059.638</ele>
        <time>2011-06-12T14:13:53Z</time>
      </trkpt>
      <trkpt lat="44.11386" lon="6.79398">
        <ele>1062.709</ele>
        <time>2011-06-12T14:13:57Z</time>
      </trkpt>
      <trkpt lat="44.11404" lon="6.79372">
        <ele>1056.807</ele>
        <time>2011-06-12T14:14:03Z</time>
      </trkpt>
      <trkpt lat="44.11395" lon="6.79353">
        <ele>1052.311</ele>
        <time>2011-06-12T14:14:06Z</time>
      </trkpt>
      <trkpt lat="44.11383" lon="6.79331">
        <ele>1047.028</ele>
        <time>2011-06-12T14:14:10Z</time>
      </trkpt>
      <trkpt lat="44.11393" lon="6.79324">
        <ele>1044.006</ele>
        <time>2011-06-12T14:14:13Z</time>
      </trkpt>
      <trkpt lat="44.11411" lon="6.79312">
        <ele>1041.638</ele>
        <time>2011-06-12T14:14:17Z</time>
      </trkpt>
      <trkpt lat="44.11428" lon="6.79295">
        <ele>1038.229</ele>
        <time>2011-06-12T14:14:22Z</time>
      </trkpt>
      <trkpt lat="44.11438" lon="6.79278">
        <ele>1036.109</ele>
        <time>2011-06-12T14:14:26Z</time>
      </trkpt>
      <trkpt lat="44.11457" lon="6.79259">
        <ele>1032.018</ele>
        <time>2011-06-12T14:14:30Z</time>
      </trkpt>
      <trkpt lat="44.11476" lon="6.7925">
        <ele>1030.469</ele>
        <time>2011-06-12T14:14:36Z</time>
      </trkpt>
      <trkpt lat="44.11491" lon="6.79252">
        <ele>1028.437</ele>
        <time>2011-06-12T14:14:40Z</time>
      </trkpt>
      <trkpt lat="44.11499" lon="6.79243">
        <ele>1023.435</ele>
        <time>2011-06-12T14:14:44Z</time>
      </trkpt>
      <trkpt lat="44.11513" lon="6.7925">
        <ele>1026.672</ele>
        <time>2011-06-12T14:14:48Z</time>
      </trkpt>
      <trkpt lat="44.11518" lon="6.79266">
        <ele>1030.007</ele>
        <time>2011-06-12T14:14:50Z</time>
      </trkpt>
      <trkpt lat="44.11533" lon="6.79308">
        <ele>1031.297</ele>
        <time>2011-06-12T14:14:56Z</time>
      </trkpt>
      <trkpt lat="44.1155" lon="6.79314">
        <ele>1027.279</ele>
        <time>2011-06-12T14:15:00Z</time>
      </trkpt>
      <trkpt lat="44.11567" lon="6.79303">
        <ele>1024.14</ele>
        <time>2011-06-12T14:15:03Z</time>
      </trkpt>
      <trkpt lat="44.11575" lon="6.79286">
        <ele>1021.67</ele>
        <time>2011-06-12T14:15:06Z</time>
      </trkpt>
      <trkpt lat="44.11585" lon="6.79271">
        <ele>1021.332</ele>
        <time>2011-06-12T14:15:10Z</time>
      </trkpt>
      <trkpt lat="44.11595" lon="6.79276">
        <ele>1019.201</ele>
        <time>2011-06-12T14:15:14Z</time>
      </trkpt>
      <trkpt lat="44.116" lon="6.79272">
        <ele>1017.23</ele>
        <time>2011-06-12T14:15:16Z</time>
      </trkpt>
      <trkpt lat="44.11604" lon="6.79244">
        <ele>1017.766</ele>
        <time>2011-06-12T14:15:22Z</time>
      </trkpt>
      <trkpt lat="44.11607" lon="6.79228">
        <ele>1016.284</ele>
        <time>2011-06-12T14:15:24Z</time>
      </trkpt>
      <trkpt lat="44.11626" lon="6.792">
        <ele>1018.177</ele>
        <time>2011-06-12T14:15:28Z</time>
      </trkpt>
      <trkpt lat="44.11636" lon="6.79199">
        <ele>1017.865</ele>
        <time>2011-06-12T14:15:31Z</time>
      </trkpt>
      <trkpt lat="44.11648" lon="6.79179">
        <ele>1012.9</ele>
        <time>2011-06-12T14:15:35Z</time>
      </trkpt>
      <trkpt lat="44.1166" lon="6.79151">
        <ele>1005.573</ele>
        <time>2011-06-12T14:15:39Z</time>
      </trkpt>
      <trkpt lat="44.11673" lon="6.79137">
        <ele>1001.913</ele>
        <time>2011-06-12T14:15:43Z</time>
      </trkpt>
      <trkpt lat="44.11686" lon="6.79135">
        <ele>998.092</ele>
        <time>2011-06-12T14:15:47Z</time>
      </trkpt>
      <trkpt lat="44.11697" lon="6.79128">
        <ele>996.093</ele>
        <time>2011-06-12T14:15:50Z</time>
      </trkpt>
      <trkpt lat="44.1171" lon="6.79111">
        <ele>996.82</ele>
        <time>2011-06-12T14:15:55Z</time>
      </trkpt>
      <trkpt lat="44.11725" lon="6.79113">
        <ele>995.731</ele>
        <time>2011-06-12T14:15:59Z</time>
      </trkpt>
      <trkpt lat="44.11742" lon="6.79127">
        <ele>995.281</ele>
        <time>2011-06-12T14:16:03Z</time>
      </trkpt>
      <trkpt lat="44.11767" lon="6.79123">
        <ele>994.154</ele>
        <time>2011-06-12T14:16:08Z</time>
      </trkpt>
      <trkpt lat="44.11772" lon="6.79119">
        <ele>992.944</ele>
        <time>2011-06-12T14:16:10Z</time>
      </trkpt>
      <trkpt lat="44.11776" lon="6.79126">
        <ele>986.837</ele>
        <time>2011-06-12T14:16:15Z</time>
      </trkpt>
      <trkpt lat="44.11778" lon="6.79123">
        <ele>983.678</ele>
        <time>2011-06-12T14:16:19Z</time>
      </trkpt>
      <trkpt lat="44.11778" lon="6.79135">
        <ele>983.898</ele>
        <time>2011-06-12T14:16:22Z</time>
      </trkpt>
      <trkpt lat="44.11778" lon="6.79142">
        <ele>981.018</ele>
        <time>2011-06-12T14:16:26Z</time>
      </trkpt>
      <trkpt lat="44.11782" lon="6.79138">
        <ele>979.298</ele>
        <time>2011-06-12T14:16:29Z</time>
      </trkpt>
      <trkpt lat="44.11783" lon="6.79138">
        <ele>978.558</ele>
        <time>2011-06-12T14:16:30Z</time>
      </trkpt>
      <trkpt lat="44.11784" lon="6.7915">
        <ele>975.115</ele>
        <time>2011-06-12T14:16:34Z</time>
      </trkpt>
      <trkpt lat="44.11789" lon="6.79154">
        <ele>973.078</ele>
        <time>2011-06-12T14:16:38Z</time>
      </trkpt>
      <trkpt lat="44.11795" lon="6.79142">
        <ele>970.597</ele>
        <time>2011-06-12T14:16:41Z</time>
      </trkpt>
      <trkpt lat="44.11802" lon="6.79111">
        <ele>964.518</ele>
        <time>2011-06-12T14:16:47Z</time>
      </trkpt>
      <trkpt lat="44.11808" lon="6.79091">
        <ele>963.349</ele>
        <time>2011-06-12T14:16:51Z</time>
      </trkpt>
      <trkpt lat="44.11807" lon="6.79075">
        <ele>961.168</ele>
        <time>2011-06-12T14:16:54Z</time>
      </trkpt>
      <trkpt lat="44.11809" lon="6.79076">
        <ele>958.638</ele>
        <time>2011-06-12T14:16:58Z</time>
      </trkpt>
      <trkpt lat="44.11813" lon="6.79071">
        <ele>958.251</ele>
        <time>2011-06-12T14:17:02Z</time>
      </trkpt>
      <trkpt lat="44.11814" lon="6.79069">
        <ele>958.012</ele>
        <time>2011-06-12T14:17:03Z</time>
      </trkpt>
      <trkpt lat="44.11819" lon="6.79064">
        <ele>958.814</ele>
        <time>2011-06-12T14:17:05Z</time>
      </trkpt>
      <trkpt lat="44.11837" lon="6.79063">
        <ele>955.84</ele>
        <time>2011-06-12T14:17:11Z</time>
      </trkpt>
      <trkpt lat="44.11857" lon="6.79067">
        <ele>949.726</ele>
        <time>2011-06-12T14:17:18Z</time>
      </trkpt>
      <trkpt lat="44.11868" lon="6.79072">
        <ele>948.889</ele>
        <time>2011-06-12T14:17:21Z</time>
      </trkpt>
      <trkpt lat="44.11889" lon="6.79075">
        <ele>948.422</ele>
        <time>2011-06-12T14:17:26Z</time>
      </trkpt>
      <trkpt lat="44.11894" lon="6.79074">
        <ele>948.463</ele>
        <time>2011-06-12T14:17:27Z</time>
      </trkpt>
      <trkpt lat="44.11916" lon="6.79067">
        <ele>947.787</ele>
        <time>2011-06-12T14:17:33Z</time>
      </trkpt>
      <trkpt lat="44.1192" lon="6.79068">
        <ele>948.067</ele>
        <time>2011-06-12T14:17:34Z</time>
      </trkpt>
      <trkpt lat="44.11941" lon="6.79075">
        <ele>950.047</ele>
        <time>2011-06-12T14:17:40Z</time>
      </trkpt>
      <trkpt lat="44.11959" lon="6.79075">
        <ele>947.725</ele>
        <time>2011-06-12T14:17:45Z</time>
      </trkpt>
      <trkpt lat="44.11962" lon="6.79075">
        <ele>947.094</ele>
        <time>2011-06-12T14:17:46Z</time>
      </trkpt>
      <trkpt lat="44.11976" lon="6.79074">
        <ele>949.236</ele>
        <time>2011-06-12T14:17:50Z</time>
      </trkpt>
      <trkpt lat="44.11995" lon="6.79075">
        <ele>951.131</ele>
        <time>2011-06-12T14:17:55Z</time>
      </trkpt>
      <trkpt lat="44.11998" lon="6.79075">
        <ele>951.691</ele>
        <time>2011-06-12T14:17:56Z</time>
      </trkpt>
      <trkpt lat="44.12014" lon="6.79072">
        <ele>950.501</ele>
        <time>2011-06-12T14:18:00Z</time>
      </trkpt>
      <trkpt lat="44.12036" lon="6.79073">
        <ele>950.952</ele>
        <time>2011-06-12T14:18:06Z</time>
      </trkpt>
      <trkpt lat="44.12048" lon="6.79073">
        <ele>953.846</ele>
        <time>2011-06-12T14:18:09Z</time>
      </trkpt>
      <trkpt lat="44.12066" lon="6.79065">
        <ele>952.954</ele>
        <time>2011-06-12T14:18:14Z</time>
      </trkpt>
      <trkpt lat="44.1208" lon="6.79056">
        <ele>953.654</ele>
        <time>2011-06-12T14:18:19Z</time>
      </trkpt>
      <trkpt lat="44.12094" lon="6.79052">
        <ele>952.363</ele>
        <time>2011-06-12T14:18:23Z</time>
      </trkpt>
      <trkpt lat="44.12109" lon="6.79048">
        <ele>951.113</ele>
        <time>2011-06-12T14:18:27Z</time>
      </trkpt>
      <trkpt lat="44.12116" lon="6.79044">
        <ele>951.043</ele>
        <time>2011-06-12T14:18:31Z</time>
      </trkpt>
      <trkpt lat="44.12114" lon="6.79048">
        <ele>932.7</ele>
        <time>2011-06-12T14:20:18Z</time>
      </trkpt>
      <trkpt lat="44.12115" lon="6.79045">
        <ele>935.99</ele>
        <time>2011-06-12T14:20:25Z</time>
      </trkpt>
      <trkpt lat="44.12124" lon="6.79035">
        <ele>950.306</ele>
        <time>2011-06-12T14:24:50Z</time>
      </trkpt>
      <trkpt lat="44.12125" lon="6.79026">
        <ele>947.217</ele>
        <time>2011-06-12T14:24:55Z</time>
      </trkpt>
      <trkpt lat="44.12126" lon="6.79015">
        <ele>947.05</ele>
        <time>2011-06-12T14:24:58Z</time>
      </trkpt>
      <trkpt lat="44.12115" lon="6.79006">
        <ele>946.719</ele>
        <time>2011-06-12T14:25:04Z</time>
      </trkpt>
      <trkpt lat="44.12112" lon="6.78997">
        <ele>946.139</ele>
        <time>2011-06-12T14:25:08Z</time>
      </trkpt>
      <trkpt lat="44.12114" lon="6.78993">
        <ele>945.99</ele>
        <time>2011-06-12T14:25:10Z</time>
      </trkpt>
      <trkpt lat="44.12125" lon="6.78977">
        <ele>944.359</ele>
        <time>2011-06-12T14:25:19Z</time>
      </trkpt>
      <trkpt lat="44.12138" lon="6.78966">
        <ele>941.727</ele>
        <time>2011-06-12T14:25:24Z</time>
      </trkpt>
      <trkpt lat="44.12157" lon="6.78967">
        <ele>943.129</ele>
        <time>2011-06-12T14:25:29Z</time>
      </trkpt>
      <trkpt lat="44.12175" lon="6.7897">
        <ele>942.721</ele>
        <time>2011-06-12T14:25:34Z</time>
      </trkpt>
      <trkpt lat="44.12177" lon="6.78971">
        <ele>943.081</ele>
        <time>2011-06-12T14:25:35Z</time>
      </trkpt>
      <trkpt lat="44.12186" lon="6.78967">
        <ele>943.282</ele>
        <time>2011-06-12T14:25:39Z</time>
      </trkpt>
      <trkpt lat="44.12198" lon="6.78951">
        <ele>941.46</ele>
        <time>2011-06-12T14:25:45Z</time>
      </trkpt>
      <trkpt lat="44.12206" lon="6.78928">
        <ele>939.662</ele>
        <time>2011-06-12T14:25:52Z</time>
      </trkpt>
      <trkpt lat="44.12209" lon="6.78907">
        <ele>937.44</ele>
        <time>2011-06-12T14:25:58Z</time>
      </trkpt>
      <trkpt lat="44.12211" lon="6.78887">
        <ele>935.749</ele>
        <time>2011-06-12T14:26:04Z</time>
      </trkpt>
      <trkpt lat="44.12213" lon="6.78869">
        <ele>936.119</ele>
        <time>2011-06-12T14:26:09Z</time>
      </trkpt>
      <trkpt lat="44.12214" lon="6.7884">
        <ele>935.708</ele>
        <time>2011-06-12T14:26:17Z</time>
      </trkpt>
      <trkpt lat="44.12218" lon="6.78827">
        <ele>935.781</ele>
        <time>2011-06-12T14:26:21Z</time>
      </trkpt>
      <trkpt lat="44.12221" lon="6.78802">
        <ele>934.229</ele>
        <time>2011-06-12T14:26:28Z</time>
      </trkpt>
      <trkpt lat="44.12224" lon="6.78783">
        <ele>933.999</ele>
        <time>2011-06-12T14:26:33Z</time>
      </trkpt>
      <trkpt lat="44.12227" lon="6.78763">
        <ele>934.89</ele>
        <time>2011-06-12T14:26:39Z</time>
      </trkpt>
      <trkpt lat="44.12226" lon="6.78744">
        <ele>935.47</ele>
        <time>2011-06-12T14:26:45Z</time>
      </trkpt>
      <trkpt lat="44.12225" lon="6.78721">
        <ele>936.529</ele>
        <time>2011-06-12T14:26:51Z</time>
      </trkpt>
      <trkpt lat="44.12223" lon="6.78704">
        <ele>939.252</ele>
        <time>2011-06-12T14:26:56Z</time>
      </trkpt>
      <trkpt lat="44.12222" lon="6.78679">
        <ele>942.113</ele>
        <time>2011-06-12T14:27:02Z</time>
      </trkpt>
      <trkpt lat="44.12216" lon="6.7865">
        <ele>945.585</ele>
        <time>2011-06-12T14:27:08Z</time>
      </trkpt>
      <trkpt lat="44.12211" lon="6.78629">
        <ele>948.326</ele>
        <time>2011-06-12T14:27:13Z</time>
      </trkpt>
      <trkpt lat="44.1221" lon="6.78622">
        <ele>948.215</ele>
        <time>2011-06-12T14:27:15Z</time>
      </trkpt>
      <trkpt lat="44.12215" lon="6.78593">
        <ele>947.01</ele>
        <time>2011-06-12T14:27:22Z</time>
      </trkpt>
      <trkpt lat="44.12218" lon="6.78569">
        <ele>945.557</ele>
        <time>2011-06-12T14:27:27Z</time>
      </trkpt>
      <trkpt lat="44.12215" lon="6.78554">
        <ele>944.976</ele>
        <time>2011-06-12T14:27:31Z</time>
      </trkpt>
      <trkpt lat="44.12211" lon="6.78527">
        <ele>943.215</ele>
        <time>2011-06-12T14:27:37Z</time>
      </trkpt>
      <trkpt lat="44.12205" lon="6.78503">
        <ele>940.655</ele>
        <time>2011-06-12T14:27:42Z</time>
      </trkpt>
      <trkpt lat="44.12204" lon="6.78488">
        <ele>939.364</ele>
        <time>2011-06-12T14:27:45Z</time>
      </trkpt>
      <trkpt lat="44.12212" lon="6.78461">
        <ele>937.826</ele>
        <time>2011-06-12T14:27:50Z</time>
      </trkpt>
      <trkpt lat="44.12223" lon="6.78438">
        <ele>937.499</ele>
        <time>2011-06-12T14:27:56Z</time>
      </trkpt>
      <trkpt lat="44.12231" lon="6.7842">
        <ele>937.539</ele>
        <time>2011-06-12T14:28:01Z</time>
      </trkpt>
      <trkpt lat="44.12238" lon="6.78403">
        <ele>937.689</ele>
        <time>2011-06-12T14:28:06Z</time>
      </trkpt>
      <trkpt lat="44.12249" lon="6.78379">
        <ele>937.718</ele>
        <time>2011-06-12T14:28:13Z</time>
      </trkpt>
      <trkpt lat="44.12257" lon="6.78357">
        <ele>937.328</ele>
        <time>2011-06-12T14:28:19Z</time>
      </trkpt>
      <trkpt lat="44.12261" lon="6.78331">
        <ele>937.488</ele>
        <time>2011-06-12T14:28:26Z</time>
      </trkpt>
      <trkpt lat="44.12269" lon="6.78311">
        <ele>938.728</ele>
        <time>2011-06-12T14:28:32Z</time>
      </trkpt>
      <trkpt lat="44.12282" lon="6.78281">
        <ele>938.367</ele>
        <time>2011-06-12T14:28:41Z</time>
      </trkpt>
      <trkpt lat="44.12278" lon="6.78266">
        <ele>938.627</ele>
        <time>2011-06-12T14:28:46Z</time>
      </trkpt>
      <trkpt lat="44.12282" lon="6.78255">
        <ele>938.757</ele>
        <time>2011-06-12T14:28:50Z</time>
      </trkpt>
      <trkpt lat="44.12287" lon="6.78249">
        <ele>939.607</ele>
        <time>2011-06-12T14:28:53Z</time>
      </trkpt>
      <trkpt lat="44.12297" lon="6.78233">
        <ele>939.767</ele>
        <time>2011-06-12T14:29:00Z</time>
      </trkpt>
      <trkpt lat="44.12303" lon="6.78219">
        <ele>939.438</ele>
        <time>2011-06-12T14:29:07Z</time>
      </trkpt>
      <trkpt lat="44.12306" lon="6.78209">
        <ele>938.758</ele>
        <time>2011-06-12T14:29:12Z</time>
      </trkpt>
      <trkpt lat="44.12309" lon="6.78197">
        <ele>939.37</ele>
        <time>2011-06-12T14:29:18Z</time>
      </trkpt>
      <trkpt lat="44.12311" lon="6.78183">
        <ele>941.248</ele>
        <time>2011-06-12T14:29:25Z</time>
      </trkpt>
      <trkpt lat="44.12314" lon="6.78166">
        <ele>944.65</ele>
        <time>2011-06-12T14:29:32Z</time>
      </trkpt>
      <trkpt lat="44.12313" lon="6.78153">
        <ele>945.928</ele>
        <time>2011-06-12T14:29:38Z</time>
      </trkpt>
      <trkpt lat="44.12312" lon="6.78147">
        <ele>946.931</ele>
        <time>2011-06-12T14:29:40Z</time>
      </trkpt>
      <trkpt lat="44.12309" lon="6.78139">
        <ele>953.804</ele>
        <time>2011-06-12T14:29:46Z</time>
      </trkpt>
      <trkpt lat="44.12309" lon="6.78137">
        <ele>957.312</ele>
        <time>2011-06-12T14:29:50Z</time>
      </trkpt>
      <trkpt lat="44.12312" lon="6.78135">
        <ele>959.582</ele>
        <time>2011-06-12T14:29:53Z</time>
      </trkpt>
      <trkpt lat="44.12313" lon="6.78134">
        <ele>959.721</ele>
        <time>2011-06-12T14:29:55Z</time>
      </trkpt>
      <trkpt lat="44.12315" lon="6.78131">
        <ele>959.389</ele>
        <time>2011-06-12T14:29:58Z</time>
      </trkpt>
      <trkpt lat="44.12316" lon="6.7813">
        <ele>959.288</ele>
        <time>2011-06-12T14:30:01Z</time>
      </trkpt>
      <trkpt lat="44.12315" lon="6.78122">
        <ele>958.787</ele>
        <time>2011-06-12T14:30:05Z</time>
      </trkpt>
      <trkpt lat="44.12316" lon="6.78099">
        <ele>953.033</ele>
        <time>2011-06-12T14:30:13Z</time>
      </trkpt>
      <trkpt lat="44.12318" lon="6.78089">
        <ele>950.073</ele>
        <time>2011-06-12T14:30:18Z</time>
      </trkpt>
      <trkpt lat="44.12319" lon="6.78075">
        <ele>948.093</ele>
        <time>2011-06-12T14:30:23Z</time>
      </trkpt>
      <trkpt lat="44.12319" lon="6.78068">
        <ele>952.579</ele>
        <time>2011-06-12T14:30:27Z</time>
      </trkpt>
      <trkpt lat="44.12316" lon="6.78064">
        <ele>954.699</ele>
        <time>2011-06-12T14:30:31Z</time>
      </trkpt>
      <trkpt lat="44.12311" lon="6.78054">
        <ele>956.328</ele>
        <time>2011-06-12T14:30:39Z</time>
      </trkpt>
      <trkpt lat="44.12311" lon="6.78047">
        <ele>957.649</ele>
        <time>2011-06-12T14:30:47Z</time>
      </trkpt>
      <trkpt lat="44.12312" lon="6.78044">
        <ele>962.921</ele>
        <time>2011-06-12T14:30:53Z</time>
      </trkpt>
      <trkpt lat="44.1231" lon="6.78038">
        <ele>965.007</ele>
        <time>2011-06-12T14:31:01Z</time>
      </trkpt>
      <trkpt lat="44.12306" lon="6.78034">
        <ele>966.908</ele>
        <time>2011-06-12T14:31:11Z</time>
      </trkpt>
      <trkpt lat="44.12304" lon="6.78028">
        <ele>966.127</ele>
        <time>2011-06-12T14:31:18Z</time>
      </trkpt>
      <trkpt lat="44.12302" lon="6.78025">
        <ele>965.846</ele>
        <time>2011-06-12T14:31:25Z</time>
      </trkpt>
      <trkpt lat="44.12304" lon="6.78019">
        <ele>971.362</ele>
        <time>2011-06-12T14:31:31Z</time>
      </trkpt>
      <trkpt lat="44.12305" lon="6.78014">
        <ele>973.119</ele>
        <time>2011-06-12T14:31:36Z</time>
      </trkpt>
      <trkpt lat="44.12303" lon="6.78013">
        <ele>973.597</ele>
        <time>2011-06-12T14:31:41Z</time>
      </trkpt>
      <trkpt lat="44.12304" lon="6.7801">
        <ele>976.91</ele>
        <time>2011-06-12T14:31:47Z</time>
      </trkpt>
      <trkpt lat="44.12308" lon="6.78006">
        <ele>980.631</ele>
        <time>2011-06-12T14:31:53Z</time>
      </trkpt>
      <trkpt lat="44.12316" lon="6.78004">
        <ele>980.718</ele>
        <time>2011-06-12T14:31:59Z</time>
      </trkpt>
      <trkpt lat="44.12318" lon="6.78012">
        <ele>982.909</ele>
        <time>2011-06-12T14:32:18Z</time>
      </trkpt>
      <trkpt lat="44.12322" lon="6.78006">
        <ele>983.959</ele>
        <time>2011-06-12T14:32:23Z</time>
      </trkpt>
      <trkpt lat="44.12324" lon="6.77998">
        <ele>981.726</ele>
        <time>2011-06-12T14:32:27Z</time>
      </trkpt>
      <trkpt lat="44.12328" lon="6.77981">
        <ele>977.056</ele>
        <time>2011-06-12T14:32:35Z</time>
      </trkpt>
      <trkpt lat="44.12331" lon="6.77968">
        <ele>974.574</ele>
        <time>2011-06-12T14:32:41Z</time>
      </trkpt>
      <trkpt lat="44.12334" lon="6.77949">
        <ele>973.397</ele>
        <time>2011-06-12T14:32:49Z</time>
      </trkpt>
      <trkpt lat="44.12333" lon="6.77929">
        <ele>974.746</ele>
        <time>2011-06-12T14:32:57Z</time>
      </trkpt>
      <trkpt lat="44.12338" lon="6.77917">
        <ele>977.479</ele>
        <time>2011-06-12T14:33:04Z</time>
      </trkpt>
      <trkpt lat="44.1234" lon="6.7791">
        <ele>980.341</ele>
        <time>2011-06-12T14:33:10Z</time>
      </trkpt>
      <trkpt lat="44.12343" lon="6.77909">
        <ele>987.062</ele>
        <time>2011-06-12T14:33:16Z</time>
      </trkpt>
      <trkpt lat="44.12343" lon="6.77904">
        <ele>987.537</ele>
        <time>2011-06-12T14:33:21Z</time>
      </trkpt>
      <trkpt lat="44.12344" lon="6.77899">
        <ele>988.187</ele>
        <time>2011-06-12T14:33:28Z</time>
      </trkpt>
      <trkpt lat="44.12346" lon="6.77892">
        <ele>990.219</ele>
        <time>2011-06-12T14:33:34Z</time>
      </trkpt>
      <trkpt lat="44.12349" lon="6.77886">
        <ele>989.857</ele>
        <time>2011-06-12T14:33:39Z</time>
      </trkpt>
      <trkpt lat="44.12352" lon="6.77882">
        <ele>990.448</ele>
        <time>2011-06-12T14:33:44Z</time>
      </trkpt>
      <trkpt lat="44.12352" lon="6.77884">
        <ele>988.377</ele>
        <time>2011-06-12T14:34:06Z</time>
      </trkpt>
      <trkpt lat="44.12357" lon="6.77879">
        <ele>989.287</ele>
        <time>2011-06-12T14:34:10Z</time>
      </trkpt>
      <trkpt lat="44.12365" lon="6.77869">
        <ele>986.627</ele>
        <time>2011-06-12T14:34:16Z</time>
      </trkpt>
      <trkpt lat="44.12366" lon="6.77868">
        <ele>987.178</ele>
        <time>2011-06-12T14:34:17Z</time>
      </trkpt>
      <trkpt lat="44.12373" lon="6.77859">
        <ele>987.208</ele>
        <time>2011-06-12T14:34:23Z</time>
      </trkpt>
      <trkpt lat="44.12382" lon="6.77848">
        <ele>988.872</ele>
        <time>2011-06-12T14:34:29Z</time>
      </trkpt>
      <trkpt lat="44.12385" lon="6.77842">
        <ele>988.851</ele>
        <time>2011-06-12T14:34:33Z</time>
      </trkpt>
      <trkpt lat="44.12386" lon="6.77839">
        <ele>989.192</ele>
        <time>2011-06-12T14:34:35Z</time>
      </trkpt>
      <trkpt lat="44.12388" lon="6.77831">
        <ele>988.953</ele>
        <time>2011-06-12T14:34:40Z</time>
      </trkpt>
      <trkpt lat="44.12391" lon="6.77825">
        <ele>989.862</ele>
        <time>2011-06-12T14:34:43Z</time>
      </trkpt>
      <trkpt lat="44.124" lon="6.77821">
        <ele>994.924</ele>
        <time>2011-06-12T14:34:50Z</time>
      </trkpt>
      <trkpt lat="44.12406" lon="6.77819">
        <ele>997.955</ele>
        <time>2011-06-12T14:34:55Z</time>
      </trkpt>
      <trkpt lat="44.12412" lon="6.77818">
        <ele>999.521</ele>
        <time>2011-06-12T14:34:59Z</time>
      </trkpt>
      <trkpt lat="44.12418" lon="6.77818">
        <ele>1000.11</ele>
        <time>2011-06-12T14:35:02Z</time>
      </trkpt>
      <trkpt lat="44.12424" lon="6.77813">
        <ele>999.617</ele>
        <time>2011-06-12T14:35:06Z</time>
      </trkpt>
      <trkpt lat="44.12438" lon="6.77811">
        <ele>996.414</ele>
        <time>2011-06-12T14:35:12Z</time>
      </trkpt>
      <trkpt lat="44.12453" lon="6.77803">
        <ele>994.145</ele>
        <time>2011-06-12T14:35:17Z</time>
      </trkpt>
      <trkpt lat="44.1246" lon="6.77795">
        <ele>991.496</ele>
        <time>2011-06-12T14:35:23Z</time>
      </trkpt>
      <trkpt lat="44.12463" lon="6.77794">
        <ele>991.467</ele>
        <time>2011-06-12T14:35:25Z</time>
      </trkpt>
      <trkpt lat="44.12471" lon="6.77779">
        <ele>988.844</ele>
        <time>2011-06-12T14:35:31Z</time>
      </trkpt>
      <trkpt lat="44.12478" lon="6.77766">
        <ele>986.996</ele>
        <time>2011-06-12T14:35:37Z</time>
      </trkpt>
      <trkpt lat="44.12483" lon="6.77759">
        <ele>988.428</ele>
        <time>2011-06-12T14:35:43Z</time>
      </trkpt>
      <trkpt lat="44.12489" lon="6.77744">
        <ele>988.237</ele>
        <time>2011-06-12T14:35:50Z</time>
      </trkpt>
      <trkpt lat="44.12493" lon="6.77742">
        <ele>990.549</ele>
        <time>2011-06-12T14:35:53Z</time>
      </trkpt>
      <trkpt lat="44.12502" lon="6.77735">
        <ele>990.428</ele>
        <time>2011-06-12T14:35:57Z</time>
      </trkpt>
      <trkpt lat="44.12523" lon="6.7773">
        <ele>992.28</ele>
        <time>2011-06-12T14:36:02Z</time>
      </trkpt>
      <trkpt lat="44.12532" lon="6.7772">
        <ele>992.089</ele>
        <time>2011-06-12T14:36:06Z</time>
      </trkpt>
      <trkpt lat="44.12536" lon="6.77713">
        <ele>990.798</ele>
        <time>2011-06-12T14:36:10Z</time>
      </trkpt>
      <trkpt lat="44.1254" lon="6.77704">
        <ele>990.198</ele>
        <time>2011-06-12T14:36:14Z</time>
      </trkpt>
      <trkpt lat="44.1255" lon="6.77692">
        <ele>989.167</ele>
        <time>2011-06-12T14:36:19Z</time>
      </trkpt>
      <trkpt lat="44.12561" lon="6.77677">
        <ele>989.235</ele>
        <time>2011-06-12T14:36:25Z</time>
      </trkpt>
      <trkpt lat="44.12565" lon="6.77657">
        <ele>987.253</ele>
        <time>2011-06-12T14:36:29Z</time>
      </trkpt>
      <trkpt lat="44.12566" lon="6.77652">
        <ele>986.792</ele>
        <time>2011-06-12T14:36:30Z</time>
      </trkpt>
      <trkpt lat="44.12573" lon="6.77626">
        <ele>981.876</ele>
        <time>2011-06-12T14:36:35Z</time>
      </trkpt>
      <trkpt lat="44.12578" lon="6.77597">
        <ele>976.1</ele>
        <time>2011-06-12T14:36:40Z</time>
      </trkpt>
      <trkpt lat="44.12573" lon="6.77578">
        <ele>969.509</ele>
        <time>2011-06-12T14:36:45Z</time>
      </trkpt>
      <trkpt lat="44.12581" lon="6.77566">
        <ele>974.376</ele>
        <time>2011-06-12T14:36:49Z</time>
      </trkpt>
      <trkpt lat="44.12585" lon="6.77555">
        <ele>976.852</ele>
        <time>2011-06-12T14:36:53Z</time>
      </trkpt>
      <trkpt lat="44.1259" lon="6.77546">
        <ele>979.557</ele>
        <time>2011-06-12T14:36:59Z</time>
      </trkpt>
      <trkpt lat="44.12599" lon="6.77539">
        <ele>983.09</ele>
        <time>2011-06-12T14:37:06Z</time>
      </trkpt>
      <trkpt lat="44.126" lon="6.77537">
        <ele>983.79</ele>
        <time>2011-06-12T14:37:07Z</time>
      </trkpt>
      <trkpt lat="44.12605" lon="6.77522">
        <ele>984.596</ele>
        <time>2011-06-12T14:37:14Z</time>
      </trkpt>
      <trkpt lat="44.12603" lon="6.77507">
        <ele>985.848</ele>
        <time>2011-06-12T14:37:20Z</time>
      </trkpt>
      <trkpt lat="44.12603" lon="6.77489">
        <ele>986.847</ele>
        <time>2011-06-12T14:37:26Z</time>
      </trkpt>
      <trkpt lat="44.12608" lon="6.77481">
        <ele>987.108</ele>
        <time>2011-06-12T14:37:30Z</time>
      </trkpt>
      <trkpt lat="44.12616" lon="6.77472">
        <ele>986.167</ele>
        <time>2011-06-12T14:37:37Z</time>
      </trkpt>
      <trkpt lat="44.1262" lon="6.77459">
        <ele>985.988</ele>
        <time>2011-06-12T14:37:43Z</time>
      </trkpt>
      <trkpt lat="44.12621" lon="6.77442">
        <ele>987.601</ele>
        <time>2011-06-12T14:37:52Z</time>
      </trkpt>
      <trkpt lat="44.12622" lon="6.77439">
        <ele>988.1</ele>
        <time>2011-06-12T14:37:54Z</time>
      </trkpt>
      <trkpt lat="44.12623" lon="6.77429">
        <ele>988.67</ele>
        <time>2011-06-12T14:38:00Z</time>
      </trkpt>
      <trkpt lat="44.12627" lon="6.77427">
        <ele>990.651</ele>
        <time>2011-06-12T14:38:04Z</time>
      </trkpt>
      <trkpt lat="44.12638" lon="6.77419">
        <ele>992.4</ele>
        <time>2011-06-12T14:38:10Z</time>
      </trkpt>
      <trkpt lat="44.12648" lon="6.77406">
        <ele>993.168</ele>
        <time>2011-06-12T14:38:17Z</time>
      </trkpt>
      <trkpt lat="44.12659" lon="6.77401">
        <ele>995.17</ele>
        <time>2011-06-12T14:38:23Z</time>
      </trkpt>
      <trkpt lat="44.12671" lon="6.77395">
        <ele>997.689</ele>
        <time>2011-06-12T14:38:30Z</time>
      </trkpt>
      <trkpt lat="44.12678" lon="6.77394">
        <ele>1002.333</ele>
        <time>2011-06-12T14:38:36Z</time>
      </trkpt>
      <trkpt lat="44.12695" lon="6.77391">
        <ele>1006.562</ele>
        <time>2011-06-12T14:38:45Z</time>
      </trkpt>
      <trkpt lat="44.12708" lon="6.77394">
        <ele>1007.879</ele>
        <time>2011-06-12T14:38:53Z</time>
      </trkpt>
      <trkpt lat="44.1271" lon="6.77394">
        <ele>1007.419</ele>
        <time>2011-06-12T14:38:54Z</time>
      </trkpt>
      <trkpt lat="44.12719" lon="6.77396">
        <ele>1009.75</ele>
        <time>2011-06-12T14:39:00Z</time>
      </trkpt>
      <trkpt lat="44.12723" lon="6.77396">
        <ele>1009.999</ele>
        <time>2011-06-12T14:39:02Z</time>
      </trkpt>
      <trkpt lat="44.12735" lon="6.77394">
        <ele>1009.468</ele>
        <time>2011-06-12T14:39:07Z</time>
      </trkpt>
      <trkpt lat="44.12743" lon="6.77387">
        <ele>1007.906</ele>
        <time>2011-06-12T14:39:12Z</time>
      </trkpt>
      <trkpt lat="44.12753" lon="6.77375">
        <ele>1002.37</ele>
        <time>2011-06-12T14:39:18Z</time>
      </trkpt>
      <trkpt lat="44.12767" lon="6.77362">
        <ele>999.779</ele>
        <time>2011-06-12T14:39:25Z</time>
      </trkpt>
      <trkpt lat="44.12774" lon="6.7735">
        <ele>998.362</ele>
        <time>2011-06-12T14:39:30Z</time>
      </trkpt>
      <trkpt lat="44.12779" lon="6.7734">
        <ele>996.342</ele>
        <time>2011-06-12T14:39:34Z</time>
      </trkpt>
      <trkpt lat="44.12781" lon="6.77318">
        <ele>995.484</ele>
        <time>2011-06-12T14:39:41Z</time>
      </trkpt>
      <trkpt lat="44.12779" lon="6.77312">
        <ele>995.294</ele>
        <time>2011-06-12T14:39:43Z</time>
      </trkpt>
      <trkpt lat="44.12778" lon="6.77299">
        <ele>994.625</ele>
        <time>2011-06-12T14:39:49Z</time>
      </trkpt>
      <trkpt lat="44.12779" lon="6.773">
        <ele>994.637</ele>
        <time>2011-06-12T14:39:51Z</time>
      </trkpt>
      <trkpt lat="44.12798" lon="6.77301">
        <ele>1004.803</ele>
        <time>2011-06-12T14:39:58Z</time>
      </trkpt>
      <trkpt lat="44.1281" lon="6.77297">
        <ele>1007.612</ele>
        <time>2011-06-12T14:40:03Z</time>
      </trkpt>
      <trkpt lat="44.12817" lon="6.77289">
        <ele>1007.909</ele>
        <time>2011-06-12T14:40:06Z</time>
      </trkpt>
      <trkpt lat="44.12824" lon="6.77269">
        <ele>1004.913</ele>
        <time>2011-06-12T14:40:13Z</time>
      </trkpt>
      <trkpt lat="44.12825" lon="6.77261">
        <ele>1005.304</ele>
        <time>2011-06-12T14:40:16Z</time>
      </trkpt>
      <trkpt lat="44.12833" lon="6.77255">
        <ele>1006.025</ele>
        <time>2011-06-12T14:40:22Z</time>
      </trkpt>
      <trkpt lat="44.12835" lon="6.77255">
        <ele>1006.005</ele>
        <time>2011-06-12T14:40:23Z</time>
      </trkpt>
      <trkpt lat="44.12841" lon="6.77245">
        <ele>1003.744</ele>
        <time>2011-06-12T14:40:28Z</time>
      </trkpt>
      <trkpt lat="44.12851" lon="6.77232">
        <ele>999.92</ele>
        <time>2011-06-12T14:40:33Z</time>
      </trkpt>
      <trkpt lat="44.12856" lon="6.77228">
        <ele>998.192</ele>
        <time>2011-06-12T14:40:37Z</time>
      </trkpt>
      <trkpt lat="44.12863" lon="6.77227">
        <ele>999.913</ele>
        <time>2011-06-12T14:40:42Z</time>
      </trkpt>
      <trkpt lat="44.12866" lon="6.77225">
        <ele>1002.436</ele>
        <time>2011-06-12T14:40:47Z</time>
      </trkpt>
      <trkpt lat="44.12879" lon="6.77217">
        <ele>1006.559</ele>
        <time>2011-06-12T14:40:56Z</time>
      </trkpt>
      <trkpt lat="44.12887" lon="6.77209">
        <ele>1008.44</ele>
        <time>2011-06-12T14:41:00Z</time>
      </trkpt>
      <trkpt lat="44.12894" lon="6.77205">
        <ele>1011.573</ele>
        <time>2011-06-12T14:41:04Z</time>
      </trkpt>
      <trkpt lat="44.12908" lon="6.77204">
        <ele>1012.667</ele>
        <time>2011-06-12T14:41:11Z</time>
      </trkpt>
      <trkpt lat="44.1292" lon="6.77204">
        <ele>1014.52</ele>
        <time>2011-06-12T14:41:16Z</time>
      </trkpt>
      <trkpt lat="44.12931" lon="6.77202">
        <ele>1015.229</ele>
        <time>2011-06-12T14:41:21Z</time>
      </trkpt>
      <trkpt lat="44.12947" lon="6.77191">
        <ele>1012.533</ele>
        <time>2011-06-12T14:41:27Z</time>
      </trkpt>
      <trkpt lat="44.12955" lon="6.7718">
        <ele>1011.591</ele>
        <time>2011-06-12T14:41:31Z</time>
      </trkpt>
      <trkpt lat="44.12963" lon="6.77172">
        <ele>1010.161</ele>
        <time>2011-06-12T14:41:33Z</time>
      </trkpt>
      <trkpt lat="44.12977" lon="6.77159">
        <ele>1006.418</ele>
        <time>2011-06-12T14:41:36Z</time>
      </trkpt>
      <trkpt lat="44.12988" lon="6.77144">
        <ele>1004.328</ele>
        <time>2011-06-12T14:41:39Z</time>
      </trkpt>
      <trkpt lat="44.13009" lon="6.77118">
        <ele>1002.782</ele>
        <time>2011-06-12T14:41:46Z</time>
      </trkpt>
      <trkpt lat="44.13022" lon="6.77104">
        <ele>1004.546</ele>
        <time>2011-06-12T14:41:51Z</time>
      </trkpt>
      <trkpt lat="44.13034" lon="6.77083">
        <ele>1008.15</ele>
        <time>2011-06-12T14:41:57Z</time>
      </trkpt>
      <trkpt lat="44.1305" lon="6.77064">
        <ele>1010.551</ele>
        <time>2011-06-12T14:42:02Z</time>
      </trkpt>
      <trkpt lat="44.13068" lon="6.7704">
        <ele>1015.441</ele>
        <time>2011-06-12T14:42:08Z</time>
      </trkpt>
      <trkpt lat="44.13081" lon="6.77022">
        <ele>1014.778</ele>
        <time>2011-06-12T14:42:13Z</time>
      </trkpt>
      <trkpt lat="44.13091" lon="6.77005">
        <ele>1016.732</ele>
        <time>2011-06-12T14:42:18Z</time>
      </trkpt>
      <trkpt lat="44.13103" lon="6.76985">
        <ele>1015.217</ele>
        <time>2011-06-12T14:42:24Z</time>
      </trkpt>
      <trkpt lat="44.13114" lon="6.76966">
        <ele>1012.025</ele>
        <time>2011-06-12T14:42:30Z</time>
      </trkpt>
      <trkpt lat="44.13115" lon="6.76964">
        <ele>1012.086</ele>
        <time>2011-06-12T14:42:31Z</time>
      </trkpt>
      <trkpt lat="44.13111" lon="6.76953">
        <ele>1013.771</ele>
        <time>2011-06-12T14:42:37Z</time>
      </trkpt>
      <trkpt lat="44.131" lon="6.7694">
        <ele>1012.118</ele>
        <time>2011-06-12T14:42:44Z</time>
      </trkpt>
      <trkpt lat="44.13095" lon="6.76936">
        <ele>1011.207</ele>
        <time>2011-06-12T14:42:47Z</time>
      </trkpt>
      <trkpt lat="44.13091" lon="6.76928">
        <ele>1009.665</ele>
        <time>2011-06-12T14:42:51Z</time>
      </trkpt>
      <trkpt lat="44.13086" lon="6.76914">
        <ele>1009.196</ele>
        <time>2011-06-12T14:42:59Z</time>
      </trkpt>
      <trkpt lat="44.13086" lon="6.76907">
        <ele>1007.596</ele>
        <time>2011-06-12T14:43:03Z</time>
      </trkpt>
      <trkpt lat="44.13086" lon="6.76892">
        <ele>1005.807</ele>
        <time>2011-06-12T14:43:11Z</time>
      </trkpt>
      <trkpt lat="44.13087" lon="6.76871">
        <ele>1005.046</ele>
        <time>2011-06-12T14:43:20Z</time>
      </trkpt>
      <trkpt lat="44.13089" lon="6.76851">
        <ele>1005.437</ele>
        <time>2011-06-12T14:43:28Z</time>
      </trkpt>
      <trkpt lat="44.1309" lon="6.76826">
        <ele>1005.926</ele>
        <time>2011-06-12T14:43:38Z</time>
      </trkpt>
      <trkpt lat="44.13092" lon="6.76808">
        <ele>1005.837</ele>
        <time>2011-06-12T14:43:45Z</time>
      </trkpt>
      <trkpt lat="44.13093" lon="6.76795">
        <ele>1005.807</ele>
        <time>2011-06-12T14:43:50Z</time>
      </trkpt>
      <trkpt lat="44.13094" lon="6.76781">
        <ele>1006.496</ele>
        <time>2011-06-12T14:43:56Z</time>
      </trkpt>
      <trkpt lat="44.13098" lon="6.76767">
        <ele>1008.607</ele>
        <time>2011-06-12T14:44:03Z</time>
      </trkpt>
      <trkpt lat="44.13103" lon="6.76745">
        <ele>1008.616</ele>
        <time>2011-06-12T14:44:10Z</time>
      </trkpt>
      <trkpt lat="44.13103" lon="6.76726">
        <ele>1010.967</ele>
        <time>2011-06-12T14:44:16Z</time>
      </trkpt>
      <trkpt lat="44.13108" lon="6.76707">
        <ele>1011.164</ele>
        <time>2011-06-12T14:44:21Z</time>
      </trkpt>
      <trkpt lat="44.13122" lon="6.76686">
        <ele>1010.844</ele>
        <time>2011-06-12T14:44:26Z</time>
      </trkpt>
      <trkpt lat="44.13142" lon="6.7666">
        <ele>1009.313</ele>
        <time>2011-06-12T14:44:33Z</time>
      </trkpt>
      <trkpt lat="44.13158" lon="6.76643">
        <ele>1009.846</ele>
        <time>2011-06-12T14:44:39Z</time>
      </trkpt>
      <trkpt lat="44.13176" lon="6.76639">
        <ele>1010.836</ele>
        <time>2011-06-12T14:44:45Z</time>
      </trkpt>
      <trkpt lat="44.13189" lon="6.7664">
        <ele>1012.427</ele>
        <time>2011-06-12T14:44:50Z</time>
      </trkpt>
      <trkpt lat="44.13204" lon="6.76644">
        <ele>1011.574</ele>
        <time>2011-06-12T14:44:56Z</time>
      </trkpt>
      <trkpt lat="44.13217" lon="6.76651">
        <ele>1012.297</ele>
        <time>2011-06-12T14:45:01Z</time>
      </trkpt>
      <trkpt lat="44.13218" lon="6.76653">
        <ele>1012.417</ele>
        <time>2011-06-12T14:45:02Z</time>
      </trkpt>
      <trkpt lat="44.13225" lon="6.76662">
        <ele>1013.548</ele>
        <time>2011-06-12T14:45:07Z</time>
      </trkpt>
      <trkpt lat="44.13235" lon="6.7667">
        <ele>1014.528</ele>
        <time>2011-06-12T14:45:13Z</time>
      </trkpt>
      <trkpt lat="44.13242" lon="6.76667">
        <ele>1015.838</ele>
        <time>2011-06-12T14:45:17Z</time>
      </trkpt>
      <trkpt lat="44.13258" lon="6.7665">
        <ele>1018.589</ele>
        <time>2011-06-12T14:45:28Z</time>
      </trkpt>
      <trkpt lat="44.13272" lon="6.76639">
        <ele>1020.736</ele>
        <time>2011-06-12T14:45:36Z</time>
      </trkpt>
      <trkpt lat="44.13284" lon="6.76626">
        <ele>1020.576</ele>
        <time>2011-06-12T14:45:44Z</time>
      </trkpt>
      <trkpt lat="44.13294" lon="6.76617">
        <ele>1021.688</ele>
        <time>2011-06-12T14:45:50Z</time>
      </trkpt>
      <trkpt lat="44.13298" lon="6.76602">
        <ele>1022.739</ele>
        <time>2011-06-12T14:45:56Z</time>
      </trkpt>
      <trkpt lat="44.13306" lon="6.76587">
        <ele>1023.708</ele>
        <time>2011-06-12T14:46:03Z</time>
      </trkpt>
      <trkpt lat="44.13309" lon="6.76586">
        <ele>1024.698</ele>
        <time>2011-06-12T14:46:05Z</time>
      </trkpt>
      <trkpt lat="44.13323" lon="6.76591">
        <ele>1026.017</ele>
        <time>2011-06-12T14:46:13Z</time>
      </trkpt>
      <trkpt lat="44.1334" lon="6.76596">
        <ele>1030.848</ele>
        <time>2011-06-12T14:46:22Z</time>
      </trkpt>
      <trkpt lat="44.13356" lon="6.76593">
        <ele>1031.216</ele>
        <time>2011-06-12T14:46:30Z</time>
      </trkpt>
      <trkpt lat="44.13367" lon="6.76593">
        <ele>1030.724</ele>
        <time>2011-06-12T14:46:35Z</time>
      </trkpt>
      <trkpt lat="44.13388" lon="6.76598">
        <ele>1028.484</ele>
        <time>2011-06-12T14:46:43Z</time>
      </trkpt>
      <trkpt lat="44.13401" lon="6.76602">
        <ele>1028.165</ele>
        <time>2011-06-12T14:46:50Z</time>
      </trkpt>
      <trkpt lat="44.13418" lon="6.76608">
        <ele>1028.736</ele>
        <time>2011-06-12T14:46:58Z</time>
      </trkpt>
      <trkpt lat="44.13437" lon="6.76612">
        <ele>1029.065</ele>
        <time>2011-06-12T14:47:07Z</time>
      </trkpt>
      <trkpt lat="44.13452" lon="6.76615">
        <ele>1029.243</ele>
        <time>2011-06-12T14:47:13Z</time>
      </trkpt>
      <trkpt lat="44.13467" lon="6.76613">
        <ele>1028.161</ele>
        <time>2011-06-12T14:47:16Z</time>
      </trkpt>
      <trkpt lat="44.13498" lon="6.76598">
        <ele>1024.835</ele>
        <time>2011-06-12T14:47:21Z</time>
      </trkpt>
      <trkpt lat="44.13533" lon="6.7658">
        <ele>1021.103</ele>
        <time>2011-06-12T14:47:25Z</time>
      </trkpt>
      <trkpt lat="44.13566" lon="6.76576">
        <ele>1016.903</ele>
        <time>2011-06-12T14:47:29Z</time>
      </trkpt>
      <trkpt lat="44.13571" lon="6.7658">
        <ele>1016.403</ele>
        <time>2011-06-12T14:47:30Z</time>
      </trkpt>
      <trkpt lat="44.13594" lon="6.76582">
        <ele>1017.73</ele>
        <time>2011-06-12T14:47:35Z</time>
      </trkpt>
      <trkpt lat="44.13618" lon="6.76575">
        <ele>1017.901</ele>
        <time>2011-06-12T14:47:39Z</time>
      </trkpt>
      <trkpt lat="44.13653" lon="6.76573">
        <ele>1018.715</ele>
        <time>2011-06-12T14:47:44Z</time>
      </trkpt>
      <trkpt lat="44.1366" lon="6.76574">
        <ele>1018.465</ele>
        <time>2011-06-12T14:47:45Z</time>
      </trkpt>
      <trkpt lat="44.13696" lon="6.76591">
        <ele>1015.773</ele>
        <time>2011-06-12T14:47:50Z</time>
      </trkpt>
      <trkpt lat="44.13707" lon="6.76589">
        <ele>1014.792</ele>
        <time>2011-06-12T14:47:52Z</time>
      </trkpt>
      <trkpt lat="44.1372" lon="6.76586">
        <ele>1012.7</ele>
        <time>2011-06-12T14:47:55Z</time>
      </trkpt>
      <trkpt lat="44.1372" lon="6.76594">
        <ele>1012.342</ele>
        <time>2011-06-12T14:47:59Z</time>
      </trkpt>
      <trkpt lat="44.13709" lon="6.76608">
        <ele>1013.665</ele>
        <time>2011-06-12T14:48:03Z</time>
      </trkpt>
      <trkpt lat="44.13704" lon="6.76617">
        <ele>1013.254</ele>
        <time>2011-06-12T14:48:05Z</time>
      </trkpt>
      <trkpt lat="44.13679" lon="6.76675">
        <ele>1012.964</ele>
        <time>2011-06-12T14:48:16Z</time>
      </trkpt>
      <trkpt lat="44.13683" lon="6.76692">
        <ele>1012.944</ele>
        <time>2011-06-12T14:48:20Z</time>
      </trkpt>
      <trkpt lat="44.1369" lon="6.76688">
        <ele>1013.015</ele>
        <time>2011-06-12T14:48:22Z</time>
      </trkpt>
      <trkpt lat="44.13711" lon="6.76678">
        <ele>1016.128</ele>
        <time>2011-06-12T14:48:29Z</time>
      </trkpt>
      <trkpt lat="44.13729" lon="6.76674">
        <ele>1020.58</ele>
        <time>2011-06-12T14:48:36Z</time>
      </trkpt>
      <trkpt lat="44.13748" lon="6.76676">
        <ele>1026.543</ele>
        <time>2011-06-12T14:48:44Z</time>
      </trkpt>
      <trkpt lat="44.13766" lon="6.76681">
        <ele>1026.127</ele>
        <time>2011-06-12T14:48:51Z</time>
      </trkpt>
      <trkpt lat="44.13785" lon="6.76688">
        <ele>1024.395</ele>
        <time>2011-06-12T14:48:57Z</time>
      </trkpt>
      <trkpt lat="44.13804" lon="6.76698">
        <ele>1025.778</ele>
        <time>2011-06-12T14:49:04Z</time>
      </trkpt>
      <trkpt lat="44.13816" lon="6.76706">
        <ele>1027.791</ele>
        <time>2011-06-12T14:49:09Z</time>
      </trkpt>
      <trkpt lat="44.13837" lon="6.76714">
        <ele>1026.248</ele>
        <time>2011-06-12T14:49:16Z</time>
      </trkpt>
      <trkpt lat="44.1385" lon="6.76716">
        <ele>1028.152</ele>
        <time>2011-06-12T14:49:21Z</time>
      </trkpt>
      <trkpt lat="44.13871" lon="6.76713">
        <ele>1032.124</ele>
        <time>2011-06-12T14:49:29Z</time>
      </trkpt>
      <trkpt lat="44.1389" lon="6.7671">
        <ele>1035.606</ele>
        <time>2011-06-12T14:49:36Z</time>
      </trkpt>
      <trkpt lat="44.13911" lon="6.76699">
        <ele>1031.888</ele>
        <time>2011-06-12T14:49:43Z</time>
      </trkpt>
      <trkpt lat="44.13924" lon="6.7668">
        <ele>1030.427</ele>
        <time>2011-06-12T14:49:49Z</time>
      </trkpt>
      <trkpt lat="44.13931" lon="6.76661">
        <ele>1031.689</ele>
        <time>2011-06-12T14:49:54Z</time>
      </trkpt>
      <trkpt lat="44.13941" lon="6.7664">
        <ele>1032.41</ele>
        <time>2011-06-12T14:50:00Z</time>
      </trkpt>
      <trkpt lat="44.13946" lon="6.76636">
        <ele>1030.887</ele>
        <time>2011-06-12T14:50:02Z</time>
      </trkpt>
      <trkpt lat="44.13963" lon="6.76631">
        <ele>1036.914</ele>
        <time>2011-06-12T14:50:09Z</time>
      </trkpt>
      <trkpt lat="44.13978" lon="6.76619">
        <ele>1035.389</ele>
        <time>2011-06-12T14:50:15Z</time>
      </trkpt>
      <trkpt lat="44.13994" lon="6.76609">
        <ele>1032.106</ele>
        <time>2011-06-12T14:50:21Z</time>
      </trkpt>
      <trkpt lat="44.14012" lon="6.76594">
        <ele>1031.997</ele>
        <time>2011-06-12T14:50:28Z</time>
      </trkpt>
      <trkpt lat="44.1403" lon="6.7658">
        <ele>1031.167</ele>
        <time>2011-06-12T14:50:35Z</time>
      </trkpt>
      <trkpt lat="44.14051" lon="6.76573">
        <ele>1030.796</ele>
        <time>2011-06-12T14:50:41Z</time>
      </trkpt>
      <trkpt lat="44.14074" lon="6.7657">
        <ele>1036.874</ele>
        <time>2011-06-12T14:50:47Z</time>
      </trkpt>
      <trkpt lat="44.14103" lon="6.76568">
        <ele>1034.987</ele>
        <time>2011-06-12T14:50:53Z</time>
      </trkpt>
      <trkpt lat="44.14112" lon="6.76565">
        <ele>1034.056</ele>
        <time>2011-06-12T14:50:55Z</time>
      </trkpt>
      <trkpt lat="44.14128" lon="6.76564">
        <ele>1032.264</ele>
        <time>2011-06-12T14:50:58Z</time>
      </trkpt>
      <trkpt lat="44.14147" lon="6.76571">
        <ele>1031.425</ele>
        <time>2011-06-12T14:51:02Z</time>
      </trkpt>
      <trkpt lat="44.14165" lon="6.76575">
        <ele>1030.995</ele>
        <time>2011-06-12T14:51:06Z</time>
      </trkpt>
      <trkpt lat="44.14197" lon="6.76573">
        <ele>1031.837</ele>
        <time>2011-06-12T14:51:13Z</time>
      </trkpt>
      <trkpt lat="44.14214" lon="6.76564">
        <ele>1029.345</ele>
        <time>2011-06-12T14:51:17Z</time>
      </trkpt>
      <trkpt lat="44.14228" lon="6.76541">
        <ele>1030.337</ele>
        <time>2011-06-12T14:51:23Z</time>
      </trkpt>
      <trkpt lat="44.14242" lon="6.76517">
        <ele>1032.442</ele>
        <time>2011-06-12T14:51:30Z</time>
      </trkpt>
      <trkpt lat="44.14256" lon="6.76506">
        <ele>1037.206</ele>
        <time>2011-06-12T14:51:36Z</time>
      </trkpt>
      <trkpt lat="44.14271" lon="6.76499">
        <ele>1042.157</ele>
        <time>2011-06-12T14:51:42Z</time>
      </trkpt>
      <trkpt lat="44.14276" lon="6.76496">
        <ele>1042.077</ele>
        <time>2011-06-12T14:51:44Z</time>
      </trkpt>
      <trkpt lat="44.14291" lon="6.76494">
        <ele>1042.953</ele>
        <time>2011-06-12T14:51:49Z</time>
      </trkpt>
      <trkpt lat="44.14302" lon="6.76501">
        <ele>1044.802</ele>
        <time>2011-06-12T14:51:54Z</time>
      </trkpt>
      <trkpt lat="44.14319" lon="6.76523">
        <ele>1041.518</ele>
        <time>2011-06-12T14:52:03Z</time>
      </trkpt>
      <trkpt lat="44.14328" lon="6.76525">
        <ele>1042.789</ele>
        <time>2011-06-12T14:52:07Z</time>
      </trkpt>
      <trkpt lat="44.14341" lon="6.76511">
        <ele>1045.002</ele>
        <time>2011-06-12T14:52:13Z</time>
      </trkpt>
      <trkpt lat="44.14359" lon="6.76499">
        <ele>1042.817</ele>
        <time>2011-06-12T14:52:20Z</time>
      </trkpt>
      <trkpt lat="44.14382" lon="6.76494">
        <ele>1041.807</ele>
        <time>2011-06-12T14:52:27Z</time>
      </trkpt>
      <trkpt lat="44.14404" lon="6.76487">
        <ele>1040.838</ele>
        <time>2011-06-12T14:52:34Z</time>
      </trkpt>
      <trkpt lat="44.1442" lon="6.76487">
        <ele>1042.571</ele>
        <time>2011-06-12T14:52:40Z</time>
      </trkpt>
      <trkpt lat="44.14436" lon="6.76491">
        <ele>1041.598</ele>
        <time>2011-06-12T14:52:45Z</time>
      </trkpt>
      <trkpt lat="44.14456" lon="6.76499">
        <ele>1038.005</ele>
        <time>2011-06-12T14:52:51Z</time>
      </trkpt>
      <trkpt lat="44.14479" lon="6.76507">
        <ele>1038.687</ele>
        <time>2011-06-12T14:52:58Z</time>
      </trkpt>
      <trkpt lat="44.14511" lon="6.76516">
        <ele>1036.864</ele>
        <time>2011-06-12T14:53:05Z</time>
      </trkpt>
      <trkpt lat="44.14516" lon="6.76517">
        <ele>1036.724</ele>
        <time>2011-06-12T14:53:06Z</time>
      </trkpt>
      <trkpt lat="44.14531" lon="6.7652">
        <ele>1035.755</ele>
        <time>2011-06-12T14:53:09Z</time>
      </trkpt>
      <trkpt lat="44.14555" lon="6.76514">
        <ele>1038.178</ele>
        <time>2011-06-12T14:53:16Z</time>
      </trkpt>
      <trkpt lat="44.14577" lon="6.76506">
        <ele>1038.729</ele>
        <time>2011-06-12T14:53:23Z</time>
      </trkpt>
      <trkpt lat="44.14601" lon="6.76494">
        <ele>1037.629</ele>
        <time>2011-06-12T14:53:30Z</time>
      </trkpt>
      <trkpt lat="44.14616" lon="6.76485">
        <ele>1039.87</ele>
        <time>2011-06-12T14:53:36Z</time>
      </trkpt>
      <trkpt lat="44.1463" lon="6.76487">
        <ele>1040.429</ele>
        <time>2011-06-12T14:53:42Z</time>
      </trkpt>
      <trkpt lat="44.14647" lon="6.7649">
        <ele>1040.168</ele>
        <time>2011-06-12T14:53:48Z</time>
      </trkpt>
      <trkpt lat="44.14658" lon="6.76482">
        <ele>1040.469</ele>
        <time>2011-06-12T14:53:52Z</time>
      </trkpt>
      <trkpt lat="44.14682" lon="6.76458">
        <ele>1039.156</ele>
        <time>2011-06-12T14:54:00Z</time>
      </trkpt>
      <trkpt lat="44.14698" lon="6.76439">
        <ele>1041.81</ele>
        <time>2011-06-12T14:54:06Z</time>
      </trkpt>
      <trkpt lat="44.14705" lon="6.76419">
        <ele>1046.395</ele>
        <time>2011-06-12T14:54:11Z</time>
      </trkpt>
      <trkpt lat="44.14716" lon="6.76394">
        <ele>1046.992</ele>
        <time>2011-06-12T14:54:17Z</time>
      </trkpt>
      <trkpt lat="44.14735" lon="6.76375">
        <ele>1044.328</ele>
        <time>2011-06-12T14:54:24Z</time>
      </trkpt>
      <trkpt lat="44.14748" lon="6.76359">
        <ele>1044.599</ele>
        <time>2011-06-12T14:54:30Z</time>
      </trkpt>
      <trkpt lat="44.14764" lon="6.76337">
        <ele>1045.739</ele>
        <time>2011-06-12T14:54:39Z</time>
      </trkpt>
      <trkpt lat="44.14779" lon="6.7632">
        <ele>1047.541</ele>
        <time>2011-06-12T14:54:48Z</time>
      </trkpt>
      <trkpt lat="44.14792" lon="6.76305">
        <ele>1048.398</ele>
        <time>2011-06-12T14:54:55Z</time>
      </trkpt>
      <trkpt lat="44.14807" lon="6.76294">
        <ele>1047.347</ele>
        <time>2011-06-12T14:55:02Z</time>
      </trkpt>
      <trkpt lat="44.1482" lon="6.76282">
        <ele>1047.698</ele>
        <time>2011-06-12T14:55:09Z</time>
      </trkpt>
      <trkpt lat="44.14832" lon="6.76273">
        <ele>1047.738</ele>
        <time>2011-06-12T14:55:15Z</time>
      </trkpt>
      <trkpt lat="44.14843" lon="6.76252">
        <ele>1050.61</ele>
        <time>2011-06-12T14:55:23Z</time>
      </trkpt>
      <trkpt lat="44.1485" lon="6.76236">
        <ele>1054.175</ele>
        <time>2011-06-12T14:55:30Z</time>
      </trkpt>
      <trkpt lat="44.14854" lon="6.76225">
        <ele>1054.771</ele>
        <time>2011-06-12T14:55:35Z</time>
      </trkpt>
      <trkpt lat="44.14859" lon="6.76227">
        <ele>1054.218</ele>
        <time>2011-06-12T14:55:40Z</time>
      </trkpt>
      <trkpt lat="44.14859" lon="6.76229">
        <ele>1054.398</ele>
        <time>2011-06-12T14:55:41Z</time>
      </trkpt>
      <trkpt lat="44.14856" lon="6.7624">
        <ele>1055.899</ele>
        <time>2011-06-12T14:55:47Z</time>
      </trkpt>
      <trkpt lat="44.14854" lon="6.76252">
        <ele>1056.497</ele>
        <time>2011-06-12T14:55:54Z</time>
      </trkpt>
      <trkpt lat="44.14851" lon="6.76258">
        <ele>1056.177</ele>
        <time>2011-06-12T14:55:58Z</time>
      </trkpt>
      <trkpt lat="44.1485" lon="6.76265">
        <ele>1056.917</ele>
        <time>2011-06-12T14:56:02Z</time>
      </trkpt>
      <trkpt lat="44.14848" lon="6.76276">
        <ele>1059.578</ele>
        <time>2011-06-12T14:56:09Z</time>
      </trkpt>
      <trkpt lat="44.14847" lon="6.76279">
        <ele>1060.318</ele>
        <time>2011-06-12T14:56:11Z</time>
      </trkpt>
      <trkpt lat="44.14844" lon="6.76285">
        <ele>1062.819</ele>
        <time>2011-06-12T14:56:16Z</time>
      </trkpt>
      <trkpt lat="44.14841" lon="6.76294">
        <ele>1065.329</ele>
        <time>2011-06-12T14:56:21Z</time>
      </trkpt>
      <trkpt lat="44.14839" lon="6.763">
        <ele>1067.441</ele>
        <time>2011-06-12T14:56:25Z</time>
      </trkpt>
      <trkpt lat="44.14833" lon="6.7631">
        <ele>1072.493</ele>
        <time>2011-06-12T14:56:32Z</time>
      </trkpt>
      <trkpt lat="44.14833" lon="6.76319">
        <ele>1070.731</ele>
        <time>2011-06-12T14:56:37Z</time>
      </trkpt>
      <trkpt lat="44.14827" lon="6.76325">
        <ele>1072.913</ele>
        <time>2011-06-12T14:56:44Z</time>
      </trkpt>
      <trkpt lat="44.14822" lon="6.76333">
        <ele>1070.217</ele>
        <time>2011-06-12T14:56:51Z</time>
      </trkpt>
      <trkpt lat="44.1482" lon="6.76334">
        <ele>1072.97</ele>
        <time>2011-06-12T14:56:53Z</time>
      </trkpt>
      <trkpt lat="44.14809" lon="6.76343">
        <ele>1070.708</ele>
        <time>2011-06-12T14:57:01Z</time>
      </trkpt>
      <trkpt lat="44.14799" lon="6.76354">
        <ele>1073.389</ele>
        <time>2011-06-12T14:57:09Z</time>
      </trkpt>
      <trkpt lat="44.14794" lon="6.76363">
        <ele>1077.271</ele>
        <time>2011-06-12T14:57:16Z</time>
      </trkpt>
      <trkpt lat="44.14798" lon="6.76374">
        <ele>1077.219</ele>
        <time>2011-06-12T14:57:23Z</time>
      </trkpt>
      <trkpt lat="44.148" lon="6.76376">
        <ele>1079.961</ele>
        <time>2011-06-12T14:57:26Z</time>
      </trkpt>
      <trkpt lat="44.1481" lon="6.76369">
        <ele>1082.059</ele>
        <time>2011-06-12T14:57:33Z</time>
      </trkpt>
      <trkpt lat="44.14818" lon="6.76363">
        <ele>1082.239</ele>
        <time>2011-06-12T14:57:39Z</time>
      </trkpt>
      <trkpt lat="44.14833" lon="6.76355">
        <ele>1081.618</ele>
        <time>2011-06-12T14:57:48Z</time>
      </trkpt>
      <trkpt lat="44.14845" lon="6.76352">
        <ele>1080.677</ele>
        <time>2011-06-12T14:57:55Z</time>
      </trkpt>
      <trkpt lat="44.14856" lon="6.76348">
        <ele>1080.058</ele>
        <time>2011-06-12T14:58:01Z</time>
      </trkpt>
      <trkpt lat="44.14865" lon="6.76342">
        <ele>1084.103</ele>
        <time>2011-06-12T14:58:07Z</time>
      </trkpt>
      <trkpt lat="44.14878" lon="6.76334">
        <ele>1082.378</ele>
        <time>2011-06-12T14:58:13Z</time>
      </trkpt>
      <trkpt lat="44.14889" lon="6.76319">
        <ele>1083.711</ele>
        <time>2011-06-12T14:58:22Z</time>
      </trkpt>
      <trkpt lat="44.1489" lon="6.76317">
        <ele>1084.622</ele>
        <time>2011-06-12T14:58:23Z</time>
      </trkpt>
      <trkpt lat="44.14896" lon="6.76304">
        <ele>1086.662</ele>
        <time>2011-06-12T14:58:29Z</time>
      </trkpt>
      <trkpt lat="44.14901" lon="6.76291">
        <ele>1091.697</ele>
        <time>2011-06-12T14:58:36Z</time>
      </trkpt>
      <trkpt lat="44.14905" lon="6.76275">
        <ele>1092.692</ele>
        <time>2011-06-12T14:58:42Z</time>
      </trkpt>
      <trkpt lat="44.14915" lon="6.76269">
        <ele>1092.281</ele>
        <time>2011-06-12T14:58:49Z</time>
      </trkpt>
      <trkpt lat="44.14919" lon="6.76269">
        <ele>1091.179</ele>
        <time>2011-06-12T14:58:51Z</time>
      </trkpt>
      <trkpt lat="44.14925" lon="6.76276">
        <ele>1092.279</ele>
        <time>2011-06-12T14:58:58Z</time>
      </trkpt>
      <trkpt lat="44.14931" lon="6.763">
        <ele>1086.757</ele>
        <time>2011-06-12T14:59:07Z</time>
      </trkpt>
      <trkpt lat="44.14932" lon="6.76314">
        <ele>1085.046</ele>
        <time>2011-06-12T14:59:13Z</time>
      </trkpt>
      <trkpt lat="44.14933" lon="6.76327">
        <ele>1085.368</ele>
        <time>2011-06-12T14:59:20Z</time>
      </trkpt>
      <trkpt lat="44.14935" lon="6.76337">
        <ele>1086.37</ele>
        <time>2011-06-12T14:59:26Z</time>
      </trkpt>
      <trkpt lat="44.14937" lon="6.76345">
        <ele>1089.171</ele>
        <time>2011-06-12T14:59:32Z</time>
      </trkpt>
      <trkpt lat="44.14941" lon="6.7636">
        <ele>1090.331</ele>
        <time>2011-06-12T14:59:39Z</time>
      </trkpt>
      <trkpt lat="44.14949" lon="6.76374">
        <ele>1090.931</ele>
        <time>2011-06-12T14:59:45Z</time>
      </trkpt>
      <trkpt lat="44.14956" lon="6.76375">
        <ele>1093.73</ele>
        <time>2011-06-12T14:59:50Z</time>
      </trkpt>
      <trkpt lat="44.1496" lon="6.76372">
        <ele>1095.641</ele>
        <time>2011-06-12T14:59:53Z</time>
      </trkpt>
      <trkpt lat="44.14959" lon="6.76368">
        <ele>1097.869</ele>
        <time>2011-06-12T14:59:58Z</time>
      </trkpt>
      <trkpt lat="44.14964" lon="6.76375">
        <ele>1096.472</ele>
        <time>2011-06-12T15:02:07Z</time>
      </trkpt>
      <trkpt lat="44.14966" lon="6.7637">
        <ele>1096.441</ele>
        <time>2011-06-12T15:02:11Z</time>
      </trkpt>
    </trkseg>
  </trk>
</gpx>